
Distance (Route):
Temperature : 19.7°C
Humidity : 38.9%
Pressure : 0hPa| Receiver | Frames | First received | Last received |
|---|---|---|---|
| 9A1FER-10 | 510 | 2026-09-01 23:17:07 | 2026-09-02 01:43:32 |
| 9A1FER-3 | 504 | 2026-09-01 23:17:03 | 2026-09-02 01:40:40 |
| PETON7-10 | 280 | 2026-09-02 00:00:25 | 2026-09-02 01:28:28 |
| OE5DRO-10 | 223 | 2026-09-02 00:00:48 | 2026-09-02 01:25:32 |
| PG1ADW-2 | 166 | 2026-09-02 00:20:51 | 2026-09-02 01:22:33 |
| OM5KV | 111 | 2026-09-01 23:56:29 | 2026-09-02 01:37:33 |
| OE3JTB-15 | 97 | 2026-09-01 23:49:20 | 2026-09-02 01:35:03 |
| OE5DXL-15 | 91 | 2026-09-02 00:17:42 | 2026-09-02 01:22:40 |
| OE8JPQ-2 | 25 | 2026-09-02 01:00:12 | 2026-09-02 01:12:27 |
| DO3MHA-11 | 11 | 2026-09-02 01:13:05 | 2026-09-02 01:19:22 |
| LZ4TU-5 | 6 | 2026-09-02 00:51:28 | 2026-09-02 01:04:40 |
| NBG1-10 | 3 | 2026-09-02 01:05:25 | 2026-09-02 01:11:48 |
| Receiver | Date | Latitude | Longitude | Direction | Speed | Altitude | Climb | Temperature | Humidity | Pressure | Voltage | Killtimer | Uptime | BKT | XDATA |
|---|---|---|---|---|---|---|---|---|---|---|---|---|---|---|---|
| 9A1FER-10 | 2026-09-02 01:43:32 | 45.88891 | 17.13990 | 327° | 11km/h | 965m | -13.0m/s | 19.7°C | 38.9% | 0hPa | 2.7V | 00:00:00 | 02:42:45 | 00:00:00 | |
| 9A1FER-10 | 2026-09-02 01:43:29 | 45.88885 | 17.13997 | 350° | 9km/h | 1003m | -12.9m/s | 19.4°C | 39.6% | 0hPa | 2.7V | 07:57:00 | 02:42:42 | 00:00:00 | |
| 9A1FER-10 | 2026-09-02 01:43:24 | 45.88876 | 17.14000 | 348° | 7km/h | 1064m | -13.4m/s | 19.0°C | 40.0% | 0hPa | 2.7V | 00:00:00 | 02:42:37 | 00:00:00 | |
| 9A1FER-10 | 2026-09-02 01:42:22 | 45.88832 | 17.14023 | 143° | 4km/h | 1798m | -12.0m/s | 12.1°C | 72.3% | 0hPa | 2.6V | 00:00:00 | 02:41:35 | 00:00:00 | |
| 9A1FER-10 | 2026-09-02 01:42:17 | 45.88835 | 17.14021 | 260° | 2km/h | 1851m | -11.4m/s | 12.1°C | 57.7% | 0hPa | 2.6V | 00:00:00 | 02:41:30 | 00:00:00 | |
| 9A1FER-10 | 2026-09-02 01:42:12 | 45.88835 | 17.14020 | 110° | 4km/h | 1909m | -11.9m/s | 11.7°C | 56.8% | 0hPa | 2.6V | 00:00:00 | 02:41:25 | 00:00:00 | |
| 9A1FER-10 | 2026-09-02 01:42:07 | 45.88832 | 17.14018 | 28° | 5km/h | 1966m | -10.8m/s | 11.5°C | 53.0% | 0hPa | 2.7V | 00:00:00 | 02:41:20 | 00:00:00 | |
| 9A1FER-10 | 2026-09-02 01:42:02 | 45.88827 | 17.14014 | 48° | 5km/h | 2017m | -11.1m/s | 11.6°C | 59.1% | 0hPa | 2.7V | 00:00:00 | 02:41:15 | 00:00:00 | |
| 9A1FER-10 | 2026-09-02 01:41:52 | 45.88813 | 17.14003 | 37° | 7km/h | 2136m | -12.4m/s | 10.9°C | 54.3% | 0hPa | 2.7V | 00:00:00 | 02:41:05 | 00:00:00 | |
| 9A1FER-10 | 2026-09-02 01:41:42 | 45.88799 | 17.13987 | 62° | 7km/h | 2254m | -13.9m/s | 10.2°C | 49.1% | 0hPa | 2.7V | 07:59:00 | 02:40:55 | 00:00:00 | |
| 9A1FER-10 | 2026-09-02 01:41:32 | 45.88790 | 17.13961 | 53° | 7km/h | 2373m | -13.1m/s | 9.4°C | 50.9% | 0hPa | 2.7V | 00:00:00 | 02:40:45 | 00:00:00 | |
| 9A1FER-10 | 2026-09-02 01:41:22 | 45.88784 | 17.13935 | 83° | 7km/h | 2499m | -13.6m/s | 8.5°C | 53.3% | 0hPa | 2.7V | 00:00:00 | 02:40:35 | 00:00:00 | |
| 9A1FER-10 | 2026-09-02 01:41:12 | 45.88782 | 17.13908 | 115° | 5km/h | 2623m | -12.4m/s | 7.4°C | 55.6% | 0hPa | 2.6V | 00:00:00 | 02:40:25 | 00:00:00 | |
| 9A1FER-10 | 2026-09-02 01:41:02 | 45.88785 | 17.13887 | 126° | 7km/h | 2740m | -12.8m/s | 6.8°C | 54.0% | 0hPa | 2.6V | 00:00:00 | 02:40:15 | 00:00:00 | |
| 9A1FER-10 | 2026-09-02 01:40:52 | 45.88788 | 17.13862 | 93° | 7km/h | 2856m | -12.9m/s | 6.1°C | 49.2% | 0hPa | 2.6V | 00:00:00 | 02:40:05 | 00:00:00 | |
| 9A1FER-10 | 2026-09-02 01:40:42 | 45.88790 | 17.13840 | 95° | 7km/h | 2974m | -12.4m/s | 5.1°C | 56.7% | 0hPa | 2.6V | 00:00:00 | 02:39:55 | 00:00:00 | |
| 9A1FER-3 | 2026-09-02 01:40:40 | 45.88792 | 17.13836 | 111° | 9km/h | 2999m | -12.5m/s | 4.9°C | 56.9% | 0hPa | 2.6V | 00:00:00 | 02:39:53 | 00:00:00 | |
| 9A1FER-10 | 2026-09-02 01:40:32 | 45.88801 | 17.13818 | 141° | 11km/h | 3093m | -12.0m/s | 4.2°C | 54.9% | 0hPa | 2.6V | 00:00:00 | 02:39:45 | 00:00:00 | |
| 9A1FER-3 | 2026-09-02 01:40:29 | 45.88806 | 17.13810 | 139° | 11km/h | 3128m | -12.6m/s | 3.9°C | 61.6% | 0hPa | 2.6V | 08:00:00 | 02:39:42 | 00:00:00 | |
| 9A1FER-10 | 2026-09-02 01:40:17 | 45.88829 | 17.13775 | 132° | 11km/h | 3266m | -12.4m/s | 2.8°C | 56.4% | 0hPa | 2.6V | 00:00:00 | 02:39:30 | 00:00:00 | |
| 9A1FER-3 | 2026-09-02 01:40:14 | 45.88835 | 17.13768 | 133° | 11km/h | 3297m | -11.5m/s | 2.6°C | 55.7% | 0hPa | 2.5V | 00:00:00 | 02:39:27 | 00:00:00 | |
| 9A1FER-10 | 2026-09-02 01:40:02 | 45.88860 | 17.13730 | 112° | 13km/h | 3428m | -9.1m/s | 1.5°C | 57.2% | 0hPa | 2.5V | 00:00:00 | 02:39:15 | 00:00:00 | |
| 9A1FER-3 | 2026-09-02 01:39:50 | 45.88868 | 17.13680 | 84° | 13km/h | 3555m | -12.3m/s | 0.7°C | 59.5% | 0hPa | 2.5V | 00:00:00 | 02:39:03 | 00:00:00 | |
| 9A1FER-10 | 2026-09-02 01:39:47 | 45.88867 | 17.13666 | 86° | 13km/h | 3591m | -12.6m/s | 0.5°C | 58.5% | 0hPa | 2.5V | 00:00:00 | 02:39:00 | 00:00:00 | |
| 9A1FER-3 | 2026-09-02 01:39:35 | 45.88858 | 17.13610 | 80° | 13km/h | 3731m | -12.1m/s | -0.5°C | 61.6% | 0hPa | 2.5V | 00:00:00 | 02:38:48 | 00:00:00 | |
| 9A1FER-10 | 2026-09-02 01:39:32 | 45.88857 | 17.13597 | 91° | 13km/h | 3763m | -12.7m/s | -0.7°C | 61.2% | 0hPa | 2.6V | 08:01:00 | 02:38:45 | 00:00:00 | |
| 9A1FER-3 | 2026-09-02 01:39:20 | 45.88854 | 17.13543 | 99° | 16km/h | 3923m | -14.0m/s | -1.9°C | 64.5% | 0hPa | 2.5V | 00:00:00 | 02:38:33 | 00:00:00 | |
| 9A1FER-10 | 2026-09-02 01:39:17 | 45.88857 | 17.13527 | 111° | 16km/h | 3964m | -14.8m/s | -2.3°C | 70.3% | 0hPa | 2.5V | 00:00:00 | 02:38:30 | 00:00:00 | |
| 9A1FER-3 | 2026-09-02 01:39:05 | 45.88870 | 17.13457 | 98° | 18km/h | 4139m | -15.4m/s | -3.6°C | 64.4% | 0hPa | 2.5V | 00:00:00 | 02:38:18 | 00:00:00 | |
| 9A1FER-10 | 2026-09-02 01:39:02 | 45.88871 | 17.13437 | 97° | 18km/h | 4184m | -14.3m/s | -3.9°C | 57.9% | 0hPa | 2.5V | 00:00:00 | 02:38:15 | 00:00:00 | |
| 9A1FER-3 | 2026-09-02 01:38:50 | 45.88865 | 17.13355 | 74° | 22km/h | 4353m | -14.3m/s | -4.4°C | 31.8% | 0hPa | 2.5V | 00:00:00 | 02:38:03 | 00:00:00 | |
| 9A1FER-10 | 2026-09-02 01:38:47 | 45.88862 | 17.13335 | 81° | 24km/h | 4393m | -12.9m/s | -4.8°C | 35.5% | 0hPa | 2.6V | 00:00:00 | 02:38:00 | 00:00:00 | |
| 9A1FER-3 | 2026-09-02 01:38:35 | 45.88854 | 17.13237 | 83° | 31km/h | 4551m | -14.6m/s | -5.6°C | 35.0% | 0hPa | 2.6V | 00:00:00 | 02:37:48 | 00:00:00 | |
| 9A1FER-10 | 2026-09-02 01:38:32 | 45.88852 | 17.13206 | 83° | 31km/h | 4592m | -14.6m/s | -5.6°C | 43.5% | 0hPa | 2.6V | 00:00:00 | 02:37:45 | 00:00:00 | |
| 9A1FER-3 | 2026-09-02 01:38:20 | 45.88845 | 17.13070 | 86° | 35km/h | 4756m | -12.9m/s | -6.8°C | 44.8% | 0hPa | 2.6V | 00:00:00 | 02:37:33 | 00:00:00 | |
| 9A1FER-10 | 2026-09-02 01:38:17 | 45.88845 | 17.13034 | 87° | 37km/h | 4796m | -12.8m/s | -7.1°C | 45.8% | 0hPa | 2.6V | 00:00:00 | 02:37:30 | 00:00:00 | |
| 9A1FER-3 | 2026-09-02 01:38:05 | 45.88850 | 17.12879 | 93° | 42km/h | 4955m | -14.1m/s | -7.7°C | 25.0% | 0hPa | 2.6V | 08:02:00 | 02:37:18 | 00:00:00 | |
| 9A1FER-10 | 2026-09-02 01:38:02 | 45.88853 | 17.12838 | 95° | 46km/h | 4995m | -14.5m/s | -7.9°C | 23.7% | 0hPa | 2.6V | 00:00:00 | 02:37:15 | 00:00:00 | |
| 9A1FER-3 | 2026-09-02 01:37:50 | 45.88864 | 17.12647 | 97° | 55km/h | 5157m | -12.9m/s | -8.2°C | 7.9% | 0hPa | 2.6V | 00:00:00 | 02:37:03 | 00:00:00 | |
| 9A1FER-10 | 2026-09-02 01:37:47 | 45.88867 | 17.12592 | 93° | 55km/h | 5197m | -13.8m/s | -8.5°C | 7.9% | 0hPa | 2.6V | 00:00:00 | 02:37:00 | 00:00:00 | |
| 9A1FER-3 | 2026-09-02 01:37:35 | 45.88877 | 17.12349 | 90° | 58km/h | 5362m | -15.7m/s | -9.4°C | 7.1% | 0hPa | 2.6V | 00:00:00 | 02:36:48 | 00:00:00 | |
| OM5KV | 2026-09-02 01:37:33 | 45.88877 | 17.12329 | 93° | 60km/h | 5376m | -13.8m/s | -9.5°C | 7.1% | 0hPa | 2.6V | 08:03:00 | 00:00:00 | 00:00:00 | |
| 9A1FER-10 | 2026-09-02 01:37:32 | 45.88878 | 17.12288 | 89° | 60km/h | 5403m | -15.9m/s | -9.7°C | 7.4% | 0hPa | 2.6V | 00:00:00 | 02:36:45 | 00:00:00 | |
| OM5KV | 2026-09-02 01:37:27 | 45.88878 | 17.12203 | 92° | 62km/h | 5462m | -14.1m/s | -10.0°C | 6.2% | 0hPa | 2.6V | 08:03:00 | 00:00:00 | 00:00:00 | |
| OM5KV | 2026-09-02 01:37:21 | 45.88878 | 17.12074 | 90° | 64km/h | 5546m | -14.4m/s | -10.6°C | 6.5% | 0hPa | 2.6V | 08:03:00 | 00:00:00 | 00:00:00 | |
| 9A1FER-3 | 2026-09-02 01:37:20 | 45.88878 | 17.12029 | 87° | 64km/h | 5573m | -15.9m/s | -10.7°C | 6.4% | 0hPa | 2.6V | 00:00:00 | 02:36:33 | 00:00:00 | |
| 9A1FER-10 | 2026-09-02 01:37:17 | 45.88877 | 17.11961 | 87° | 66km/h | 5616m | -15.4m/s | -11.0°C | 5.6% | 0hPa | 2.5V | 08:03:00 | 02:36:30 | 00:00:00 | |
| OM5KV | 2026-09-02 01:37:15 | 45.88876 | 17.11938 | 89° | 66km/h | 5630m | -14.8m/s | -11.1°C | 5.2% | 0hPa | 2.6V | 08:03:00 | 00:00:00 | 00:00:00 | |
| OM5KV | 2026-09-02 01:37:08 | 45.88873 | 17.11773 | 91° | 68km/h | 5733m | -13.7m/s | -11.9°C | 4.8% | 0hPa | 2.6V | 08:04:00 | 00:00:00 | 00:00:00 | |
| 9A1FER-3 | 2026-09-02 01:37:05 | 45.88869 | 17.11678 | 87° | 64km/h | 5787m | -14.8m/s | -12.3°C | 5.2% | 0hPa | 2.6V | 00:00:00 | 02:36:18 | 00:00:00 | |
| 9A1FER-10 | 2026-09-02 01:37:02 | 45.88866 | 17.11608 | 88° | 64km/h | 5830m | -13.8m/s | -12.6°C | 5.6% | 0hPa | 2.6V | 00:00:00 | 02:36:15 | 00:00:00 | |
| OM5KV | 2026-09-02 01:36:55 | 45.88859 | 17.11470 | 87° | 66km/h | 5916m | -13.7m/s | -13.4°C | 5.4% | 0hPa | 2.6V | 08:04:00 | 00:00:00 | 00:00:00 | |
| 9A1FER-3 | 2026-09-02 01:36:50 | 45.88853 | 17.11333 | 85° | 62km/h | 5999m | -15.4m/s | -14.1°C | 5.8% | 0hPa | 2.6V | 00:00:00 | 02:36:03 | 00:00:00 | |
| OM5KV | 2026-09-02 01:36:49 | 45.88853 | 17.11333 | 85° | 62km/h | 5999m | -15.4m/s | -14.2°C | 5.3% | 0hPa | 2.6V | 08:04:00 | 00:00:00 | 00:00:00 | |
| 9A1FER-10 | 2026-09-02 01:36:47 | 45.88850 | 17.11265 | 85° | 62km/h | 6040m | -15.1m/s | -14.5°C | 5.5% | 0hPa | 2.6V | 00:00:00 | 02:36:00 | 00:00:00 | |
| OM5KV | 2026-09-02 01:36:44 | 45.88848 | 17.11219 | 89° | 64km/h | 6066m | -14.0m/s | -14.7°C | 4.9% | 0hPa | 2.6V | 08:04:00 | 00:00:00 | 00:00:00 | |
| OM5KV | 2026-09-02 01:36:37 | 45.88839 | 17.11062 | 87° | 64km/h | 6165m | -14.7m/s | -15.3°C | 5.0% | 0hPa | 2.6V | 08:04:00 | 00:00:00 | 00:00:00 | |
| 9A1FER-3 | 2026-09-02 01:36:35 | 45.88835 | 17.10995 | 86° | 60km/h | 6207m | -14.3m/s | -15.6°C | 5.6% | 0hPa | 2.6V | 00:00:00 | 02:35:48 | 00:00:00 | |
| 9A1FER-10 | 2026-09-02 01:36:32 | 45.88832 | 17.10929 | 84° | 60km/h | 6250m | -15.0m/s | -15.8°C | 5.7% | 0hPa | 2.5V | 00:00:00 | 02:35:45 | 00:00:00 | |
| OM5KV | 2026-09-02 01:36:27 | 45.88827 | 17.10840 | 86° | 64km/h | 6307m | -14.6m/s | -16.2°C | 5.0% | 0hPa | 2.5V | 08:04:00 | 00:00:00 | 00:00:00 | |
| OM5KV | 2026-09-02 01:36:21 | 45.88820 | 17.10711 | 87° | 60km/h | 6392m | -13.5m/s | -16.6°C | 4.7% | 0hPa | 2.5V | 08:04:00 | 00:00:00 | 00:00:00 | |
| 9A1FER-3 | 2026-09-02 01:36:20 | 45.88817 | 17.10669 | 83° | 62km/h | 6418m | -13.7m/s | -16.8°C | 5.0% | 0hPa | 2.5V | 00:00:00 | 02:35:33 | 00:00:00 | |
| 9A1FER-10 | 2026-09-02 01:36:17 | 45.88813 | 17.10605 | 84° | 62km/h | 6457m | -14.0m/s | -17.1°C | 4.8% | 0hPa | 2.5V | 00:00:00 | 02:35:30 | 00:00:00 | |
| OM5KV | 2026-09-02 01:36:16 | 45.88813 | 17.10605 | 85° | 57km/h | 6457m | -14.0m/s | -17.1°C | 4.3% | 0hPa | 2.5V | 08:05:00 | 00:00:00 | 00:00:00 | |
| OM5KV | 2026-09-02 01:36:11 | 45.88805 | 17.10495 | 86° | 64km/h | 6517m | -12.6m/s | -17.6°C | 4.6% | 0hPa | 2.5V | 08:05:00 | 00:00:00 | 00:00:00 | |
| 9A1FER-3 | 2026-09-02 01:36:05 | 45.88792 | 17.10336 | 84° | 66km/h | 6600m | -11.0m/s | -18.1°C | 5.3% | 0hPa | 2.5V | 00:00:00 | 02:35:18 | 00:00:00 | |
| OM5KV | 2026-09-02 01:36:04 | 45.88792 | 17.10337 | 85° | 66km/h | 6600m | -11.1m/s | -18.2°C | 4.8% | 0hPa | 2.5V | 08:05:00 | 00:00:00 | 00:00:00 | |
| 9A1FER-10 | 2026-09-02 01:36:02 | 45.88785 | 17.10267 | 83° | 66km/h | 6634m | -11.2m/s | -18.2°C | 4.9% | 0hPa | 2.5V | 00:00:00 | 02:35:15 | 00:00:00 | |
| OM5KV | 2026-09-02 01:35:59 | 45.88780 | 17.10219 | 85° | 66km/h | 6654m | -10.4m/s | -18.4°C | 4.2% | 0hPa | 2.5V | 08:05:00 | 00:00:00 | 00:00:00 | |
| OM5KV | 2026-09-02 01:35:54 | 45.88770 | 17.10101 | 86° | 68km/h | 6711m | -11.9m/s | -18.5°C | 4.1% | 0hPa | 2.5V | 08:05:00 | 00:00:00 | 00:00:00 | |
| 9A1FER-3 | 2026-09-02 01:35:50 | 45.88761 | 17.09983 | 87° | 66km/h | 6762m | -9.2m/s | -18.8°C | 4.7% | 0hPa | 2.5V | 08:05:00 | 02:35:03 | 00:00:00 | |
| OM5KV | 2026-09-02 01:35:48 | 45.88760 | 17.09959 | 87° | 66km/h | 6772m | -12.7m/s | -18.9°C | 4.1% | 0hPa | 2.6V | 08:05:00 | 00:00:00 | 00:00:00 | |
| 9A1FER-10 | 2026-09-02 01:35:47 | 45.88757 | 17.09912 | 85° | 66km/h | 6796m | -11.6m/s | -19.0°C | 4.7% | 0hPa | 2.6V | 00:00:00 | 02:35:00 | 00:00:00 | |
| OM5KV | 2026-09-02 01:35:42 | 45.88751 | 17.09818 | 84° | 66km/h | 6843m | -13.3m/s | -19.4°C | 3.9% | 0hPa | 2.6V | 08:05:00 | 00:00:00 | 00:00:00 | |
| OM5KV | 2026-09-02 01:35:37 | 45.88744 | 17.09701 | 87° | 62km/h | 6899m | -12.5m/s | -19.9°C | 3.9% | 0hPa | 2.6V | 08:05:00 | 00:00:00 | 00:00:00 | |
| 9A1FER-3 | 2026-09-02 01:35:35 | 45.88740 | 17.09630 | 86° | 68km/h | 6934m | -11.2m/s | -20.0°C | 4.3% | 0hPa | 2.6V | 00:00:00 | 02:34:48 | 00:00:00 | |
| 9A1FER-10 | 2026-09-02 01:35:32 | 45.88736 | 17.09557 | 84° | 68km/h | 6965m | -12.1m/s | -20.2°C | 4.4% | 0hPa | 2.6V | 00:00:00 | 02:34:45 | 00:00:00 | |
| OM5KV | 2026-09-02 01:35:25 | 45.88728 | 17.09410 | 87° | 69km/h | 7034m | -12.7m/s | -20.7°C | 3.7% | 0hPa | 2.6V | 08:06:00 | 00:00:00 | 00:00:00 | |
| 9A1FER-3 | 2026-09-02 01:35:20 | 45.88721 | 17.09262 | 88° | 68km/h | 7102m | -11.6m/s | -21.2°C | 4.5% | 0hPa | 2.6V | 00:00:00 | 02:34:33 | 00:00:00 | |
| 9A1FER-10 | 2026-09-02 01:35:17 | 45.88719 | 17.09188 | 88° | 68km/h | 7133m | -12.7m/s | -21.4°C | 4.4% | 0hPa | 2.6V | 00:00:00 | 02:34:30 | 00:00:00 | |
| OM5KV | 2026-09-02 01:35:15 | 45.88718 | 17.09163 | 87° | 69km/h | 7145m | -11.8m/s | -21.5°C | 3.8% | 0hPa | 2.6V | 08:06:00 | 00:00:00 | 00:00:00 | |
| OM5KV | 2026-09-02 01:35:09 | 45.88712 | 17.09016 | 88° | 68km/h | 7209m | -11.3m/s | -21.9°C | 3.7% | 0hPa | 2.6V | 08:06:00 | 00:00:00 | 00:00:00 | |
| 9A1FER-3 | 2026-09-02 01:35:05 | 45.88708 | 17.08893 | 86° | 71km/h | 7263m | -11.8m/s | -22.2°C | 5.3% | 0hPa | 2.6V | 00:00:00 | 02:34:18 | 00:00:00 | |
| OE3JTB-15 | 2026-09-02 01:35:03 | 45.88704 | 17.08844 | 84° | 73km/h | 7284m | -12.8m/s | -22.4°C | 5.7% | 0hPa | 2.5V | 00:00:00 | 00:00:00 | 00:00:00 | |
| 9A1FER-10 | 2026-09-02 01:35:02 | 45.88703 | 17.08819 | 87° | 73km/h | 7296m | -13.0m/s | -22.5°C | 5.9% | 0hPa | 2.5V | 08:05:00 | 02:34:15 | 00:00:00 | |
| OM5KV | 2026-09-02 01:34:58 | 45.88699 | 17.08742 | 85° | 73km/h | 7331m | -12.7m/s | -22.9°C | 4.8% | 0hPa | 2.5V | 08:06:00 | 00:00:00 | 00:00:00 | |
| OM5KV | 2026-09-02 01:34:52 | 45.88691 | 17.08586 | 87° | 71km/h | 7398m | -11.4m/s | -23.4°C | 4.7% | 0hPa | 2.5V | 08:06:00 | 00:00:00 | 00:00:00 | |
| 9A1FER-3 | 2026-09-02 01:34:50 | 45.88687 | 17.08506 | 87° | 75km/h | 7431m | -12.1m/s | -23.6°C | 6.5% | 0hPa | 2.5V | 00:00:00 | 02:34:03 | 00:00:00 | |
| 9A1FER-10 | 2026-09-02 01:34:47 | 45.88684 | 17.08426 | 85° | 75km/h | 7462m | -9.2m/s | -23.8°C | 7.2% | 0hPa | 2.5V | 00:00:00 | 02:34:00 | 00:00:00 | |
| OM5KV | 2026-09-02 01:34:42 | 45.88679 | 17.08321 | 88° | 73km/h | 7501m | -10.5m/s | -24.2°C | 6.9% | 0hPa | 2.5V | 08:06:00 | 00:00:00 | 00:00:00 | |
| OM5KV | 2026-09-02 01:34:36 | 45.88669 | 17.08160 | 87° | 75km/h | 7560m | -9.9m/s | -24.7°C | 9.1% | 0hPa | 2.5V | 08:07:00 | 00:00:00 | 00:00:00 | |
| 9A1FER-3 | 2026-09-02 01:34:35 | 45.88666 | 17.08105 | 87° | 78km/h | 7579m | -9.9m/s | -24.8°C | 10.7% | 0hPa | 2.5V | 00:00:00 | 02:33:48 | 00:00:00 | |
| OE3JTB-15 | 2026-09-02 01:34:34 | 45.88664 | 17.08078 | 84° | 77km/h | 7589m | -11.7m/s | -24.9°C | 10.9% | 0hPa | 2.5V | 00:00:00 | 02:33:47 | 00:00:00 | |
| 9A1FER-10 | 2026-09-02 01:34:32 | 45.88661 | 17.08023 | 86° | 78km/h | 7611m | -11.4m/s | -25.1°C | 11.4% | 0hPa | 2.5V | 00:00:00 | 02:33:45 | 00:00:00 | |
| OM5KV | 2026-09-02 01:34:29 | 45.88657 | 17.07968 | 84° | 80km/h | 7632m | -12.1m/s | -25.3°C | 10.7% | 0hPa | 2.5V | 08:07:00 | 00:00:00 | 00:00:00 | |
| OM5KV | 2026-09-02 01:34:24 | 45.88646 | 17.07825 | 87° | 78km/h | 7693m | -10.1m/s | -25.8°C | 14.0% | 0hPa | 2.5V | 08:07:00 | 00:00:00 | 00:00:00 | |
| 9A1FER-3 | 2026-09-02 01:34:20 | 45.88638 | 17.07684 | 85° | 75km/h | 7741m | -10.9m/s | -26.2°C | 15.9% | 0hPa | 2.5V | 00:00:00 | 02:33:33 | 00:00:00 | |
| OM5KV | 2026-09-02 01:34:18 | 45.88636 | 17.07655 | 86° | 80km/h | 7753m | -12.4m/s | -26.3°C | 14.2% | 0hPa | 2.6V | 08:07:00 | 00:00:00 | 00:00:00 | |
| 9A1FER-10 | 2026-09-02 01:34:17 | 45.88633 | 17.07599 | 84° | 75km/h | 7778m | -13.6m/s | -26.5°C | 15.9% | 0hPa | 2.6V | 00:00:00 | 02:33:30 | 00:00:00 | |
| OM5KV | 2026-09-02 01:34:13 | 45.88628 | 17.07516 | 86° | 75km/h | 7813m | -11.9m/s | -26.9°C | 14.2% | 0hPa | 2.5V | 08:07:00 | 00:00:00 | 00:00:00 | |
| OM5KV | 2026-09-02 01:34:07 | 45.88618 | 17.07354 | 84° | 73km/h | 7879m | -11.8m/s | -27.5°C | 10.5% | 0hPa | 2.5V | 08:07:00 | 00:00:00 | 00:00:00 | |
| 9A1FER-3 | 2026-09-02 01:34:05 | 45.88614 | 17.07275 | 84° | 71km/h | 7912m | -11.1m/s | -27.7°C | 10.4% | 0hPa | 2.5V | 00:00:00 | 02:33:18 | 00:00:00 | |
| 9A1FER-10 | 2026-09-02 01:34:01 | 45.88607 | 17.07169 | 85° | 69km/h | 7953m | -11.9m/s | -27.9°C | 10.2% | 0hPa | 2.5V | 00:00:00 | 02:33:14 | 00:00:00 | |
| OM5KV | 2026-09-02 01:34:00 | 45.88606 | 17.07169 | 86° | 75km/h | 7953m | -12.0m/s | -27.9°C | 8.9% | 0hPa | 2.5V | 08:07:00 | 00:00:00 | 00:00:00 | |
| OM5KV | 2026-09-02 01:33:54 | 45.88600 | 17.07014 | 86° | 71km/h | 8019m | -11.8m/s | -28.4°C | 7.5% | 0hPa | 2.5V | 08:07:00 | 00:00:00 | 00:00:00 | |
| 9A1FER-3 | 2026-09-02 01:33:50 | 45.88596 | 17.06888 | 91° | 66km/h | 8078m | -10.5m/s | -28.9°C | 9.1% | 0hPa | 2.5V | 00:00:00 | 02:33:03 | 00:00:00 | |
| OM5KV | 2026-09-02 01:33:49 | 45.88596 | 17.06888 | 92° | 69km/h | 8078m | -10.6m/s | -28.9°C | 7.8% | 0hPa | 2.5V | 08:07:00 | 00:00:00 | 00:00:00 | |
| 9A1FER-10 | 2026-09-02 01:33:46 | 45.88595 | 17.06790 | 88° | 64km/h | 8123m | -12.2m/s | -29.3°C | 9.4% | 0hPa | 2.5V | 00:00:00 | 02:32:59 | 00:00:00 | |
| OM5KV | 2026-09-02 01:33:43 | 45.88594 | 17.06743 | 92° | 66km/h | 8145m | -9.4m/s | -29.5°C | 8.1% | 0hPa | 2.5V | 08:08:00 | 00:00:00 | 00:00:00 | |
| OM5KV | 2026-09-02 01:33:37 | 45.88592 | 17.06605 | 87° | 62km/h | 8214m | -12.1m/s | -29.9°C | 7.4% | 0hPa | 2.5V | 08:08:00 | 00:00:00 | 00:00:00 | |
| OE3JTB-15 | 2026-09-02 01:33:36 | 45.88590 | 17.06559 | 88° | 64km/h | 8239m | -13.6m/s | -29.9°C | 8.5% | 0hPa | 2.5V | 00:00:00 | 00:00:00 | 00:00:00 | |
| 9A1FER-3 | 2026-09-02 01:33:35 | 45.88589 | 17.06536 | 84° | 66km/h | 8251m | -12.5m/s | -30.0°C | 8.6% | 0hPa | 2.5V | 08:07:00 | 02:32:48 | 00:00:00 | |
| 9A1FER-10 | 2026-09-02 01:33:31 | 45.88584 | 17.06442 | 86° | 66km/h | 8296m | -11.9m/s | -30.3°C | 9.0% | 0hPa | 2.5V | 00:00:00 | 02:32:44 | 00:00:00 | |
| OM5KV | 2026-09-02 01:33:22 | 45.88566 | 17.06224 | 81° | 66km/h | 8406m | -11.5m/s | -31.3°C | 9.8% | 0hPa | 2.5V | 08:08:00 | 00:00:00 | 00:00:00 | |
| 9A1FER-3 | 2026-09-02 01:33:20 | 45.88562 | 17.06176 | 81° | 60km/h | 8428m | -10.9m/s | -31.3°C | 12.4% | 0hPa | 2.5V | 00:00:00 | 02:32:33 | 00:00:00 | |
| 9A1FER-10 | 2026-09-02 01:33:16 | 45.88552 | 17.06084 | 83° | 58km/h | 8470m | -11.0m/s | -31.4°C | 10.0% | 0hPa | 2.5V | 00:00:00 | 02:32:29 | 00:00:00 | |
| OM5KV | 2026-09-02 01:33:11 | 45.88544 | 17.05997 | 81° | 58km/h | 8511m | -12.0m/s | -31.5°C | 7.0% | 0hPa | 2.5V | 08:08:00 | 00:00:00 | 00:00:00 | |
| OE3JTB-15 | 2026-09-02 01:33:07 | 45.88536 | 17.05892 | 88° | 58km/h | 8574m | -13.5m/s | -31.3°C | 7.9% | 0hPa | 2.5V | 00:00:00 | 02:32:20 | 00:00:00 | |
| 9A1FER-3 | 2026-09-02 01:33:05 | 45.88534 | 17.05852 | 86° | 58km/h | 8600m | -13.1m/s | -31.5°C | 7.8% | 0hPa | 2.5V | 00:00:00 | 02:32:18 | 00:00:00 | |
| 9A1FER-10 | 2026-09-02 01:33:01 | 45.88532 | 17.05768 | 89° | 60km/h | 8654m | -10.8m/s | -31.8°C | 7.4% | 0hPa | 2.5V | 00:00:00 | 02:32:14 | 00:00:00 | |
| OM5KV | 2026-09-02 01:32:54 | 45.88533 | 17.05640 | 93° | 62km/h | 8723m | -10.8m/s | -32.2°C | 5.5% | 0hPa | 2.5V | 00:00:00 | 00:00:00 | 00:00:00 | |
| 9A1FER-3 | 2026-09-02 01:32:50 | 45.88534 | 17.05530 | 92° | 58km/h | 8779m | -12.4m/s | -32.1°C | 5.5% | 0hPa | 2.5V | 00:00:00 | 02:32:03 | 00:00:00 | |
| OM5KV | 2026-09-02 01:32:48 | 45.88534 | 17.05508 | 89° | 58km/h | 8791m | -12.2m/s | -32.2°C | 4.3% | 0hPa | 2.5V | 00:00:00 | 00:00:00 | 00:00:00 | |
| 9A1FER-10 | 2026-09-02 01:32:46 | 45.88534 | 17.05443 | 89° | 58km/h | 8823m | -11.8m/s | -32.3°C | 5.4% | 0hPa | 2.5V | 08:08:00 | 02:31:59 | 00:00:00 | |
| OM5KV | 2026-09-02 01:32:42 | 45.88534 | 17.05379 | 89° | 57km/h | 8859m | -12.6m/s | -32.5°C | 4.4% | 0hPa | 2.6V | 00:00:00 | 00:00:00 | 00:00:00 | |
| OE3JTB-15 | 2026-09-02 01:32:38 | 45.88534 | 17.05271 | 89° | 60km/h | 8916m | -13.1m/s | -32.8°C | 6.2% | 0hPa | 2.6V | 00:00:00 | 00:00:00 | 00:00:00 | |
| 9A1FER-3 | 2026-09-02 01:32:35 | 45.88532 | 17.05208 | 89° | 60km/h | 8955m | -13.1m/s | -33.0°C | 7.3% | 0hPa | 2.5V | 00:00:00 | 02:31:48 | 00:00:00 | |
| 9A1FER-10 | 2026-09-02 01:32:31 | 45.88530 | 17.05123 | 90° | 62km/h | 9005m | -12.4m/s | -33.2°C | 11.8% | 0hPa | 2.5V | 00:00:00 | 02:31:44 | 00:00:00 | |
| OM5KV | 2026-09-02 01:32:26 | 45.88528 | 17.05036 | 87° | 60km/h | 9053m | -12.5m/s | -33.6°C | 10.2% | 0hPa | 2.5V | 00:00:00 | 00:00:00 | 00:00:00 | |
| 9A1FER-3 | 2026-09-02 01:32:20 | 45.88523 | 17.04879 | 89° | 64km/h | 9137m | -10.8m/s | -34.0°C | 11.6% | 0hPa | 2.5V | 00:00:00 | 02:31:33 | 00:00:00 | |
| 9A1FER-10 | 2026-09-02 01:32:16 | 45.88520 | 17.04788 | 86° | 64km/h | 9184m | -14.8m/s | -34.4°C | 12.6% | 0hPa | 2.5V | 00:00:00 | 02:31:29 | 00:00:00 | |
| OE3JTB-15 | 2026-09-02 01:32:09 | 45.88515 | 17.04625 | 86° | 64km/h | 9277m | -12.8m/s | -35.2°C | 15.6% | 0hPa | 2.5V | 00:00:00 | 00:00:00 | 00:00:00 | |
| OM5KV | 2026-09-02 01:32:07 | 45.88514 | 17.04602 | 88° | 66km/h | 9289m | -12.2m/s | -35.4°C | 13.2% | 0hPa | 2.5V | 00:00:00 | 00:00:00 | 00:00:00 | |
| 9A1FER-3 | 2026-09-02 01:32:05 | 45.88511 | 17.04532 | 88° | 64km/h | 9327m | -12.0m/s | -35.7°C | 16.0% | 0hPa | 2.5V | 00:00:00 | 02:31:18 | 00:00:00 | |
| 9A1FER-10 | 2026-09-02 01:32:01 | 45.88508 | 17.04440 | 85° | 64km/h | 9375m | -12.3m/s | -36.1°C | 16.9% | 0hPa | 2.5V | 00:00:00 | 02:31:14 | 00:00:00 | |
| OM5KV | 2026-09-02 01:31:59 | 45.88506 | 17.04416 | 88° | 68km/h | 9387m | -11.1m/s | -36.3°C | 14.4% | 0hPa | 2.5V | 08:09:00 | 00:00:00 | 00:00:00 | |
| 9A1FER-3 | 2026-09-02 01:31:50 | 45.88494 | 17.04184 | 84° | 66km/h | 9512m | -13.8m/s | -37.4°C | 16.6% | 0hPa | 2.5V | 00:00:00 | 02:31:03 | 00:00:00 | |
| 9A1FER-10 | 2026-09-02 01:31:46 | 45.88488 | 17.04092 | 83° | 66km/h | 9555m | -11.8m/s | -37.8°C | 16.3% | 0hPa | 2.5V | 00:00:00 | 02:30:59 | 00:00:00 | |
| OE3JTB-15 | 2026-09-02 01:31:40 | 45.88476 | 17.03951 | 83° | 68km/h | 9631m | -13.7m/s | -38.5°C | 18.6% | 0hPa | 2.5V | 00:00:00 | 02:30:53 | 00:00:00 | |
| 9A1FER-3 | 2026-09-02 01:31:35 | 45.88465 | 17.03833 | 82° | 68km/h | 9691m | -11.8m/s | -39.1°C | 21.4% | 0hPa | 2.5V | 00:00:00 | 02:30:48 | 00:00:00 | |
| 9A1FER-10 | 2026-09-02 01:31:31 | 45.88456 | 17.03738 | 81° | 68km/h | 9731m | -10.6m/s | -39.5°C | 22.8% | 0hPa | 2.5V | 00:00:00 | 02:30:44 | 00:00:00 | |
| OM5KV | 2026-09-02 01:31:21 | 45.88434 | 17.03522 | 83° | 69km/h | 9823m | -7.8m/s | -40.2°C | 19.4% | 0hPa | 2.5V | 08:09:00 | 00:00:00 | 00:00:00 | |
| 9A1FER-3 | 2026-09-02 01:31:20 | 45.88430 | 17.03473 | 84° | 69km/h | 9840m | -8.5m/s | -40.3°C | 22.8% | 0hPa | 2.5V | 08:09:00 | 02:30:33 | 00:00:00 | |
| 9A1FER-10 | 2026-09-02 01:31:16 | 45.88422 | 17.03374 | 84° | 69km/h | 9883m | -10.8m/s | -40.6°C | 22.7% | 0hPa | 2.5V | 00:00:00 | 02:30:29 | 00:00:00 | |
| OE3JTB-15 | 2026-09-02 01:31:11 | 45.88411 | 17.03252 | 83° | 73km/h | 9936m | -10.5m/s | -41.1°C | 22.4% | 0hPa | 2.5V | 00:00:00 | 00:00:00 | 00:00:00 | |
| 9A1FER-3 | 2026-09-02 01:31:05 | 45.88400 | 17.03101 | 84° | 73km/h | 10008m | -11.2m/s | -41.7°C | 22.0% | 0hPa | 2.5V | 00:00:00 | 02:30:18 | 00:00:00 | |
| 9A1FER-10 | 2026-09-02 01:31:01 | 45.88395 | 17.02997 | 85° | 73km/h | 10053m | -9.8m/s | -42.1°C | 22.1% | 0hPa | 2.5V | 00:00:00 | 02:30:14 | 00:00:00 | |
| OM5KV | 2026-09-02 01:30:56 | 45.88391 | 17.02894 | 89° | 71km/h | 10098m | -11.6m/s | -42.5°C | 18.3% | 0hPa | 2.5V | 08:10:00 | 00:00:00 | 00:00:00 | |
| 9A1FER-10 | 2026-09-02 01:30:46 | 45.88385 | 17.02594 | 89° | 77km/h | 10225m | -12.3m/s | -43.5°C | 21.5% | 0hPa | 2.5V | 00:00:00 | 02:29:59 | 00:00:00 | |
| OE3JTB-15 | 2026-09-02 01:30:42 | 45.88382 | 17.02483 | 88° | 77km/h | 10272m | -11.7m/s | -44.0°C | 22.1% | 0hPa | 2.5V | 00:00:00 | 00:00:00 | 00:00:00 | |
| OM5KV | 2026-09-02 01:30:36 | 45.88382 | 17.02343 | 90° | 78km/h | 10324m | -12.8m/s | -44.5°C | 18.3% | 0hPa | 2.5V | 08:10:00 | 00:00:00 | 00:00:00 | |
| 9A1FER-3 | 2026-09-02 01:30:35 | 45.88382 | 17.02287 | 90° | 77km/h | 10349m | -13.8m/s | -44.6°C | 22.3% | 0hPa | 2.5V | 00:00:00 | 02:29:48 | 00:00:00 | |
| 9A1FER-10 | 2026-09-02 01:30:31 | 45.88383 | 17.02175 | 90° | 77km/h | 10395m | -12.0m/s | -45.0°C | 22.4% | 0hPa | 2.5V | 08:10:00 | 02:29:44 | 00:00:00 | |
| OM5KV | 2026-09-02 01:30:25 | 45.88383 | 17.02036 | 91° | 75km/h | 10452m | -11.7m/s | -45.3°C | 17.5% | 0hPa | 2.5V | 08:10:00 | 00:00:00 | 00:00:00 | |
| 9A1FER-3 | 2026-09-02 01:30:20 | 45.88381 | 17.01870 | 90° | 77km/h | 10518m | -13.3m/s | -45.7°C | 21.7% | 0hPa | 2.5V | 00:00:00 | 02:29:33 | 00:00:00 | |
| OM5KV | 2026-09-02 01:30:19 | 45.88382 | 17.01870 | 91° | 77km/h | 10518m | -13.4m/s | -45.8°C | 17.6% | 0hPa | 2.5V | 00:00:00 | 00:00:00 | 00:00:00 | |
| 9A1FER-10 | 2026-09-02 01:30:17 | 45.88378 | 17.01761 | 89° | 77km/h | 10568m | -12.4m/s | -46.2°C | 22.3% | 0hPa | 2.5V | 00:00:00 | 02:29:29 | 00:00:00 | |
| OM5KV | 2026-09-02 01:30:16 | 45.88377 | 17.01734 | 87° | 77km/h | 10580m | -12.8m/s | -46.3°C | 18.2% | 0hPa | 2.5V | 00:00:00 | 00:00:00 | 00:00:00 | |
| OE3JTB-15 | 2026-09-02 01:30:13 | 45.88375 | 17.01680 | 89° | 75km/h | 10606m | -12.3m/s | -46.5°C | 22.4% | 0hPa | 2.5V | 00:00:00 | 02:29:26 | 00:00:00 | |
| OM5KV | 2026-09-02 01:30:09 | 45.88372 | 17.01599 | 90° | 75km/h | 10644m | -10.6m/s | -46.8°C | 18.8% | 0hPa | 2.5V | 00:00:00 | 00:00:00 | 00:00:00 | |
| 9A1FER-3 | 2026-09-02 01:30:05 | 45.88369 | 17.01460 | 87° | 77km/h | 10698m | -11.3m/s | -47.2°C | 24.5% | 0hPa | 2.5V | 00:00:00 | 02:29:18 | 00:00:00 | |
| OM5KV | 2026-09-02 01:30:04 | 45.88369 | 17.01460 | 88° | 73km/h | 10698m | -11.4m/s | -47.2°C | 20.0% | 0hPa | 2.5V | 00:00:00 | 00:00:00 | 00:00:00 | |
| 9A1FER-10 | 2026-09-02 01:30:01 | 45.88367 | 17.01351 | 88° | 77km/h | 10748m | -13.7m/s | -47.5°C | 25.7% | 0hPa | 2.5V | 00:00:00 | 02:29:14 | 00:00:00 | |
| OM5KV | 2026-09-02 01:29:52 | 45.88367 | 17.01131 | 90° | 77km/h | 10838m | -11.1m/s | -48.5°C | 24.8% | 0hPa | 2.5V | 00:00:00 | 00:00:00 | 00:00:00 | |
| 9A1FER-3 | 2026-09-02 01:29:50 | 45.88367 | 17.01049 | 90° | 73km/h | 10871m | -11.6m/s | -48.7°C | 32.9% | 0hPa | 2.5V | 00:00:00 | 02:29:03 | 00:00:00 | |
| OM5KV | 2026-09-02 01:29:47 | 45.88368 | 17.00995 | 90° | 73km/h | 10894m | -12.2m/s | -48.9°C | 28.8% | 0hPa | 2.6V | 00:00:00 | 00:00:00 | 00:00:00 | |
| 9A1FER-10 | 2026-09-02 01:29:46 | 45.88368 | 17.00941 | 92° | 73km/h | 10918m | -12.9m/s | -49.0°C | 36.3% | 0hPa | 2.6V | 00:00:00 | 02:28:59 | 00:00:00 | |
| OM5KV | 2026-09-02 01:29:42 | 45.88368 | 17.00861 | 93° | 73km/h | 10957m | -11.7m/s | -49.4°C | 32.0% | 0hPa | 2.5V | 00:00:00 | 00:00:00 | 00:00:00 | |
| 9A1FER-3 | 2026-09-02 01:29:35 | 45.88367 | 17.00651 | 87° | 73km/h | 11059m | -12.5m/s | -50.3°C | 43.6% | 0hPa | 2.5V | 00:00:00 | 02:28:48 | 00:00:00 | |
| 9A1FER-10 | 2026-09-02 01:29:31 | 45.88364 | 17.00547 | 87° | 73km/h | 11110m | -12.9m/s | -50.7°C | 44.7% | 0hPa | 2.5V | 00:00:00 | 02:28:44 | 00:00:00 | |
| 9A1FER-3 | 2026-09-02 01:29:20 | 45.88359 | 17.00254 | 89° | 75km/h | 11245m | -12.1m/s | -51.7°C | 47.1% | 0hPa | 2.5V | 00:00:00 | 02:28:33 | 00:00:00 | |
| 9A1FER-10 | 2026-09-02 01:29:16 | 45.88356 | 17.00147 | 89° | 75km/h | 11295m | -14.3m/s | -52.2°C | 47.5% | 0hPa | 2.5V | 00:00:00 | 02:28:29 | 00:00:00 | |
| OE3JTB-15 | 2026-09-02 01:29:15 | 45.88356 | 17.00121 | 88° | 75km/h | 11309m | -14.1m/s | -52.3°C | 47.5% | 0hPa | 2.5V | 00:00:00 | 00:00:00 | 00:00:00 | |
| 9A1FER-3 | 2026-09-02 01:29:05 | 45.88354 | 16.99849 | 89° | 75km/h | 11442m | -10.9m/s | -53.6°C | 48.7% | 0hPa | 2.5V | 08:11:00 | 02:28:18 | 00:00:00 | |
| 9A1FER-10 | 2026-09-02 01:29:01 | 45.88354 | 16.99738 | 89° | 75km/h | 11489m | -11.4m/s | -54.1°C | 47.6% | 0hPa | 2.5V | 00:00:00 | 02:28:14 | 00:00:00 | |
| 9A1FER-3 | 2026-09-02 01:28:50 | 45.88344 | 16.99440 | 88° | 75km/h | 11622m | -12.9m/s | -54.7°C | 41.3% | 0hPa | 2.5V | 00:00:00 | 02:28:03 | 00:00:00 | |
| OE3JTB-15 | 2026-09-02 01:28:46 | 45.88340 | 16.99334 | 87° | 77km/h | 11678m | -15.9m/s | -55.1°C | 40.3% | 0hPa | 2.5V | 00:00:00 | 02:27:59 | 00:00:00 | |
| 9A1FER-3 | 2026-09-02 01:28:35 | 45.88336 | 16.99026 | 90° | 77km/h | 11834m | -12.9m/s | -56.5°C | 41.2% | 0hPa | 2.5V | 00:00:00 | 02:27:48 | 00:00:00 | |
| 9A1FER-10 | 2026-09-02 01:28:31 | 45.88334 | 16.98915 | 87° | 78km/h | 11890m | -16.2m/s | -57.0°C | 40.3% | 0hPa | 2.5V | 00:00:00 | 02:27:44 | 00:00:00 | |
| PETON7-10 | 2026-09-02 01:28:28 | 45.88332 | 16.98830 | 90° | 82km/h | 11936m | -15.8m/s | -57.4°C | 39.4% | 0hPa | 2.5V | 00:00:00 | 00:00:00 | 00:00:00 | |
| 9A1FER-3 | 2026-09-02 01:28:20 | 45.88327 | 16.98605 | 87° | 84km/h | 12053m | -14.6m/s | -58.4°C | 40.1% | 0hPa | 2.5V | 00:00:00 | 02:27:33 | 00:00:00 | |
| OE3JTB-15 | 2026-09-02 01:28:17 | 45.88325 | 16.98519 | 87° | 91km/h | 12094m | -14.5m/s | -58.8°C | 39.5% | 0hPa | 2.6V | 00:00:00 | 00:00:00 | 00:00:00 | |
| 9A1FER-10 | 2026-09-02 01:28:16 | 45.88324 | 16.98489 | 89° | 88km/h | 12108m | -13.2m/s | -58.9°C | 38.7% | 0hPa | 2.6V | 08:12:00 | 02:27:29 | 00:00:00 | |
| 9A1FER-3 | 2026-09-02 01:28:05 | 45.88319 | 16.98144 | 91° | 95km/h | 12276m | -14.6m/s | -59.7°C | 33.0% | 0hPa | 2.5V | 00:00:00 | 02:27:18 | 00:00:00 | |
| 9A1FER-10 | 2026-09-02 01:28:01 | 45.88318 | 16.98009 | 90° | 97km/h | 12335m | -15.3m/s | -60.1°C | 29.3% | 0hPa | 2.5V | 00:00:00 | 02:27:14 | 00:00:00 | |
| 9A1FER-3 | 2026-09-02 01:27:50 | 45.88302 | 16.97623 | 85° | 99km/h | 12490m | -14.2m/s | -57.9°C | 16.9% | 0hPa | 2.5V | 00:00:00 | 02:27:03 | 00:00:00 | |
| OE3JTB-15 | 2026-09-02 01:27:48 | 45.88297 | 16.97550 | 86° | 95km/h | 12520m | -13.4m/s | -57.7°C | 16.0% | 0hPa | 2.5V | 00:00:00 | 00:00:00 | 00:00:00 | |
| 9A1FER-10 | 2026-09-02 01:27:46 | 45.88293 | 16.97479 | 84° | 97km/h | 12549m | -15.2m/s | -57.7°C | 15.6% | 0hPa | 2.5V | 00:00:00 | 02:26:59 | 00:00:00 | |
| PETON7-10 | 2026-09-02 01:27:41 | 45.88277 | 16.97298 | 83° | 95km/h | 12622m | -13.7m/s | -57.8°C | 15.1% | 0hPa | 2.5V | 00:00:00 | 02:26:54 | 00:00:00 | |
| 9A1FER-3 | 2026-09-02 01:27:35 | 45.88262 | 16.97090 | 85° | 93km/h | 12697m | -13.8m/s | -56.5°C | 12.0% | 0hPa | 2.5V | 00:00:00 | 02:26:48 | 00:00:00 | |
| 9A1FER-10 | 2026-09-02 01:27:31 | 45.88255 | 16.96955 | 87° | 93km/h | 12753m | -13.3m/s | -57.1°C | 12.0% | 0hPa | 2.6V | 00:00:00 | 02:26:44 | 00:00:00 | |
| PETON7-10 | 2026-09-02 01:27:22 | 45.88241 | 16.96650 | 86° | 89km/h | 12855m | -10.7m/s | -57.3°C | 11.2% | 0hPa | 2.5V | 00:00:00 | 00:00:00 | 00:00:00 | |
| 9A1FER-3 | 2026-09-02 01:27:20 | 45.88237 | 16.96583 | 85° | 89km/h | 12875m | -10.1m/s | -57.5°C | 11.0% | 0hPa | 2.6V | 00:00:00 | 02:26:33 | 00:00:00 | |
| OE3JTB-15 | 2026-09-02 01:27:19 | 45.88235 | 16.96549 | 84° | 89km/h | 12885m | -9.7m/s | -57.4°C | 10.7% | 0hPa | 2.6V | 00:00:00 | 02:26:32 | 00:00:00 | |
| 9A1FER-10 | 2026-09-02 01:27:16 | 45.88228 | 16.96452 | 85° | 88km/h | 12920m | -15.0m/s | -56.9°C | 9.6% | 0hPa | 2.6V | 00:00:00 | 02:26:29 | 00:00:00 | |
| PETON7-10 | 2026-09-02 01:27:07 | 45.88206 | 16.96165 | 84° | 88km/h | 13032m | -11.8m/s | -57.1°C | 9.0% | 0hPa | 2.6V | 00:00:00 | 00:00:00 | 00:00:00 | |
| 9A1FER-3 | 2026-09-02 01:27:05 | 45.88200 | 16.96104 | 82° | 91km/h | 13055m | -11.5m/s | -57.3°C | 9.0% | 0hPa | 2.6V | 00:00:00 | 02:26:18 | 00:00:00 | |
| 9A1FER-10 | 2026-09-02 01:27:01 | 45.88189 | 16.95983 | 82° | 97km/h | 13100m | -11.5m/s | -57.3°C | 8.8% | 0hPa | 2.6V | 00:00:00 | 02:26:14 | 00:00:00 | |
| PETON7-10 | 2026-09-02 01:26:52 | 45.88163 | 16.95685 | 84° | 102km/h | 13212m | -17.1m/s | -57.2°C | 8.0% | 0hPa | 2.6V | 00:00:00 | 02:26:05 | 00:00:00 | |
| 9A1FER-3 | 2026-09-02 01:26:50 | 45.88159 | 16.95612 | 84° | 100km/h | 13241m | -15.0m/s | -57.3°C | 8.0% | 0hPa | 2.6V | 08:14:00 | 02:26:03 | 00:00:00 | |
| 9A1FER-10 | 2026-09-02 01:26:46 | 45.88149 | 16.95460 | 87° | 97km/h | 13296m | -13.2m/s | -57.6°C | 7.9% | 0hPa | 2.5V | 00:00:00 | 02:25:59 | 00:00:00 | |
| PETON7-10 | 2026-09-02 01:26:37 | 45.88122 | 16.95140 | 81° | 95km/h | 13429m | -16.8m/s | -56.3°C | 6.7% | 0hPa | 2.5V | 00:00:00 | 00:00:00 | 00:00:00 | |
| 9A1FER-3 | 2026-09-02 01:26:35 | 45.88115 | 16.95074 | 82° | 95km/h | 13458m | -13.7m/s | -56.5°C | 6.9% | 0hPa | 2.6V | 00:00:00 | 02:25:48 | 00:00:00 | |
| 9A1FER-10 | 2026-09-02 01:26:31 | 45.88099 | 16.94940 | 80° | 95km/h | 13508m | -12.0m/s | -56.8°C | 7.1% | 0hPa | 2.6V | 00:00:00 | 02:25:44 | 00:00:00 | |
| PETON7-10 | 2026-09-02 01:26:22 | 45.88066 | 16.94631 | 85° | 95km/h | 13644m | -15.9m/s | -55.9°C | 6.0% | 0hPa | 2.6V | 00:00:00 | 00:00:00 | 00:00:00 | |
| OE3JTB-15 | 2026-09-02 01:26:21 | 45.88063 | 16.94597 | 83° | 93km/h | 13659m | -15.5m/s | -56.0°C | 6.1% | 0hPa | 2.6V | 00:00:00 | 00:00:00 | 00:00:00 | |
| 9A1FER-3 | 2026-09-02 01:26:20 | 45.88060 | 16.94562 | 83° | 93km/h | 13674m | -13.6m/s | -56.0°C | 6.2% | 0hPa | 2.6V | 00:00:00 | 02:25:33 | 00:00:00 | |
| 9A1FER-10 | 2026-09-02 01:26:16 | 45.88045 | 16.94428 | 81° | 93km/h | 13721m | -10.5m/s | -55.9°C | 6.2% | 0hPa | 2.6V | 00:00:00 | 02:25:29 | 00:00:00 | |
| PETON7-10 | 2026-09-02 01:26:07 | 45.88015 | 16.94129 | 85° | 91km/h | 13824m | -10.8m/s | -55.6°C | 5.8% | 0hPa | 2.6V | 00:00:00 | 02:25:20 | 00:00:00 | |
| 9A1FER-3 | 2026-09-02 01:26:05 | 45.88010 | 16.94062 | 83° | 91km/h | 13848m | -15.2m/s | -55.7°C | 5.6% | 0hPa | 2.6V | 00:00:00 | 02:25:18 | 00:00:00 | |
| 9A1FER-10 | 2026-09-02 01:26:01 | 45.88002 | 16.93930 | 86° | 89km/h | 13909m | -15.1m/s | -55.5°C | 5.6% | 0hPa | 2.5V | 08:14:00 | 02:25:14 | 00:00:00 | |
| OE3JTB-15 | 2026-09-02 01:25:52 | 45.87977 | 16.93639 | 84° | 84km/h | 14023m | -15.8m/s | -55.3°C | 5.4% | 0hPa | 2.6V | 00:00:00 | 02:25:05 | 00:00:00 | |
| 9A1FER-3 | 2026-09-02 01:25:50 | 45.87971 | 16.93575 | 82° | 82km/h | 14053m | -16.4m/s | -55.2°C | 5.3% | 0hPa | 2.6V | 00:00:00 | 02:25:03 | 00:00:00 | |
| 9A1FER-10 | 2026-09-02 01:25:46 | 45.87961 | 16.93451 | 86° | 80km/h | 14114m | -14.9m/s | -55.3°C | 5.3% | 0hPa | 2.6V | 00:00:00 | 02:24:59 | 00:00:00 | |
| 9A1FER-3 | 2026-09-02 01:25:35 | 45.87949 | 16.93129 | 87° | 84km/h | 14277m | -14.6m/s | -55.7°C | 5.4% | 0hPa | 2.6V | 00:00:00 | 02:24:48 | 00:00:00 | |
| OE5DRO-10 | 2026-09-02 01:25:32 | 45.87943 | 16.93043 | 83° | 89km/h | 14318m | -12.3m/s | -55.7°C | 5.4% | 0hPa | 2.6V | 00:00:00 | 00:00:00 | 00:00:00 | |
| 9A1FER-10 | 2026-09-02 01:25:31 | 45.87940 | 16.93015 | 81° | 88km/h | 14330m | -13.3m/s | -55.6°C | 5.4% | 0hPa | 2.6V | 00:00:00 | 02:24:44 | 00:00:00 | |
| PETON7-10 | 2026-09-02 01:25:24 | 45.87914 | 16.92804 | 79° | 93km/h | 14441m | -17.0m/s | -55.7°C | 5.2% | 0hPa | 2.6V | 08:15:00 | 00:00:00 | 00:00:00 | |
| OE3JTB-15 | 2026-09-02 01:25:23 | 45.87909 | 16.92773 | 78° | 89km/h | 14458m | -15.3m/s | -55.8°C | 5.2% | 0hPa | 2.5V | 08:15:00 | 00:00:00 | 00:00:00 | |
| 9A1FER-3 | 2026-09-02 01:25:20 | 45.87894 | 16.92676 | 79° | 91km/h | 14503m | -15.5m/s | -56.0°C | 5.3% | 0hPa | 2.6V | 00:00:00 | 02:24:33 | 00:00:00 | |
| 9A1FER-10 | 2026-09-02 01:25:16 | 45.87871 | 16.92545 | 76° | 89km/h | 14561m | -15.8m/s | -56.1°C | 5.4% | 0hPa | 2.5V | 00:00:00 | 02:24:29 | 00:00:00 | |
| OE5DRO-10 | 2026-09-02 01:25:12 | 45.87847 | 16.92414 | 74° | 86km/h | 14614m | -13.6m/s | -55.7°C | 5.2% | 0hPa | 2.6V | 00:00:00 | 00:00:00 | 00:00:00 | |
| PETON7-10 | 2026-09-02 01:25:08 | 45.87819 | 16.92290 | 74° | 84km/h | 14668m | -13.5m/s | -56.0°C | 5.3% | 0hPa | 2.6V | 00:00:00 | 00:00:00 | 00:00:00 | |
| 9A1FER-3 | 2026-09-02 01:25:05 | 45.87800 | 16.92201 | 72° | 86km/h | 14703m | -12.4m/s | -55.9°C | 5.3% | 0hPa | 2.6V | 00:00:00 | 02:24:18 | 00:00:00 | |
| 9A1FER-10 | 2026-09-02 01:25:01 | 45.87771 | 16.92085 | 71° | 84km/h | 14763m | -14.6m/s | -55.8°C | 5.1% | 0hPa | 2.6V | 00:00:00 | 02:24:14 | 00:00:00 | |
| OE3JTB-15 | 2026-09-02 01:24:54 | 45.87726 | 16.91877 | 75° | 78km/h | 14873m | -15.2m/s | -56.1°C | 5.3% | 0hPa | 2.6V | 00:00:00 | 00:00:00 | 00:00:00 | |
| PETON7-10 | 2026-09-02 01:24:51 | 45.87711 | 16.91788 | 78° | 86km/h | 14916m | -13.2m/s | -56.2°C | 5.4% | 0hPa | 2.6V | 00:00:00 | 02:24:04 | 00:00:00 | |
| 9A1FER-3 | 2026-09-02 01:24:50 | 45.87706 | 16.91757 | 78° | 80km/h | 14928m | -12.3m/s | -56.2°C | 5.3% | 0hPa | 2.6V | 00:00:00 | 02:24:03 | 00:00:00 | |
| 9A1FER-10 | 2026-09-02 01:24:46 | 45.87693 | 16.91636 | 82° | 77km/h | 14982m | -15.1m/s | -56.3°C | 5.3% | 0hPa | 2.6V | 00:00:00 | 02:23:59 | 00:00:00 | |
| 9A1FER-3 | 2026-09-02 01:24:35 | 45.87671 | 16.91325 | 82° | 71km/h | 15156m | -15.8m/s | -55.9°C | 5.0% | 0hPa | 2.6V | 08:16:00 | 02:23:48 | 00:00:00 | |
| 9A1FER-10 | 2026-09-02 01:24:31 | 45.87659 | 16.91222 | 80° | 71km/h | 15216m | -15.4m/s | -56.3°C | 5.1% | 0hPa | 2.5V | 00:00:00 | 02:23:44 | 00:00:00 | |
| OE3JTB-15 | 2026-09-02 01:24:25 | 45.87638 | 16.91075 | 78° | 71km/h | 15313m | -17.2m/s | -56.0°C | 4.9% | 0hPa | 2.6V | 00:00:00 | 02:23:38 | 00:00:00 | |
| OE5DRO-10 | 2026-09-02 01:24:23 | 45.87630 | 16.91023 | 81° | 75km/h | 15347m | -17.6m/s | -56.2°C | 4.9% | 0hPa | 2.6V | 00:00:00 | 00:00:00 | 00:00:00 | |
| 9A1FER-3 | 2026-09-02 01:24:20 | 45.87621 | 16.90946 | 82° | 77km/h | 15400m | -17.8m/s | -56.2°C | 4.9% | 0hPa | 2.6V | 00:00:00 | 02:23:33 | 00:00:00 | |
| 9A1FER-10 | 2026-09-02 01:24:16 | 45.87612 | 16.90838 | 84° | 75km/h | 15466m | -14.0m/s | -56.4°C | 5.1% | 0hPa | 2.6V | 00:00:00 | 02:23:29 | 00:00:00 | |
| 9A1FER-3 | 2026-09-02 01:24:05 | 45.87596 | 16.90537 | 89° | 62km/h | 15632m | -16.4m/s | -56.8°C | 5.2% | 0hPa | 2.6V | 00:00:00 | 02:23:18 | 00:00:00 | |
| OE5DRO-10 | 2026-09-02 01:24:04 | 45.87596 | 16.90512 | 89° | 60km/h | 15648m | -16.0m/s | -56.9°C | 5.3% | 0hPa | 2.6V | 00:00:00 | 00:00:00 | 00:00:00 | |
| 9A1FER-10 | 2026-09-02 01:24:01 | 45.87594 | 16.90438 | 91° | 58km/h | 15693m | -15.2m/s | -56.8°C | 5.1% | 0hPa | 2.6V | 00:00:00 | 02:23:14 | 00:00:00 | |
| OE3JTB-15 | 2026-09-02 01:23:56 | 45.87592 | 16.90329 | 88° | 57km/h | 15778m | -15.6m/s | -56.4°C | 5.0% | 0hPa | 2.6V | 00:00:00 | 00:00:00 | 00:00:00 | |
| 9A1FER-3 | 2026-09-02 01:23:50 | 45.87584 | 16.90207 | 82° | 57km/h | 15851m | -11.5m/s | -56.1°C | 4.8% | 0hPa | 2.6V | 00:00:00 | 02:23:03 | 00:00:00 | |
| 9A1FER-10 | 2026-09-02 01:23:46 | 45.87575 | 16.90127 | 82° | 57km/h | 15900m | -11.9m/s | -56.2°C | 4.8% | 0hPa | 2.5V | 08:17:00 | 02:22:59 | 00:00:00 | |
| OE5DRO-10 | 2026-09-02 01:23:45 | 45.87572 | 16.90106 | 81° | 58km/h | 15911m | -11.6m/s | -56.3°C | 4.9% | 0hPa | 2.6V | 00:00:00 | 00:00:00 | 00:00:00 | |
| 9A1FER-3 | 2026-09-02 01:23:35 | 45.87558 | 16.89902 | 87° | 62km/h | 16031m | -16.2m/s | -56.8°C | 5.0% | 0hPa | 2.6V | 00:00:00 | 02:22:48 | 00:00:00 | |
| 9A1FER-10 | 2026-09-02 01:23:31 | 45.87558 | 16.89818 | 94° | 64km/h | 16098m | -16.9m/s | -56.8°C | 5.0% | 0hPa | 2.6V | 00:00:00 | 02:22:44 | 00:00:00 | |
| OE3JTB-15 | 2026-09-02 01:23:27 | 45.87562 | 16.89729 | 97° | 57km/h | 16162m | -14.3m/s | -57.0°C | 5.2% | 0hPa | 2.6V | 00:00:00 | 00:00:00 | 00:00:00 | |
| OE5DRO-10 | 2026-09-02 01:23:26 | 45.87564 | 16.89706 | 98° | 60km/h | 16176m | -14.8m/s | -57.1°C | 5.3% | 0hPa | 2.6V | 00:00:00 | 00:00:00 | 00:00:00 | |
| 9A1FER-3 | 2026-09-02 01:23:20 | 45.87582 | 16.89567 | 107° | 57km/h | 16273m | -18.7m/s | -57.5°C | 5.4% | 0hPa | 2.6V | 00:00:00 | 02:22:33 | 00:00:00 | |
| 9A1FER-10 | 2026-09-02 01:23:16 | 45.87601 | 16.89476 | 106° | 53km/h | 16339m | -18.3m/s | -57.5°C | 5.5% | 0hPa | 2.6V | 00:00:00 | 02:22:29 | 00:00:00 | |
| OE5DRO-10 | 2026-09-02 01:23:07 | 45.87629 | 16.89306 | 96° | 51km/h | 16474m | -16.4m/s | -56.2°C | 4.9% | 0hPa | 2.6V | 00:00:00 | 00:00:00 | 00:00:00 | |
| 9A1FER-3 | 2026-09-02 01:23:05 | 45.87632 | 16.89272 | 95° | 53km/h | 16506m | -18.5m/s | -56.3°C | 5.0% | 0hPa | 2.6V | 00:00:00 | 02:22:18 | 00:00:00 | |
| 9A1FER-10 | 2026-09-02 01:23:01 | 45.87637 | 16.89201 | 94° | 51km/h | 16573m | -15.6m/s | -56.0°C | 5.1% | 0hPa | 2.6V | 00:00:00 | 02:22:14 | 00:00:00 | |
| PETON7-10 | 2026-09-02 01:22:58 | 45.87641 | 16.89144 | 98° | 47km/h | 16619m | -16.3m/s | -55.1°C | 4.7% | 0hPa | 2.5V | 00:00:00 | 00:00:00 | 00:00:00 | |
| 9A1FER-3 | 2026-09-02 01:22:50 | 45.87656 | 16.88992 | 97° | 46km/h | 16749m | -19.0m/s | -55.2°C | 4.6% | 0hPa | 2.5V | 00:00:00 | 02:22:03 | 00:00:00 | |
| OE5DRO-10 | 2026-09-02 01:22:48 | 45.87656 | 16.88960 | 92° | 46km/h | 16784m | -16.9m/s | -55.0°C | 4.5% | 0hPa | 2.5V | 00:00:00 | 00:00:00 | 00:00:00 | |
| 9A1FER-10 | 2026-09-02 01:22:46 | 45.87656 | 16.88929 | 85° | 46km/h | 16819m | -18.6m/s | -54.9°C | 4.3% | 0hPa | 2.5V | 00:00:00 | 02:21:59 | 00:00:00 | |
| OE5DXL-15 | 2026-09-02 01:22:40 | 45.87636 | 16.88838 | 65° | 53km/h | 16930m | -14.7m/s | -54.9°C | 4.3% | 0hPa | 2.5V | 00:00:00 | 00:00:00 | 00:00:00 | |
| 9A1FER-3 | 2026-09-02 01:22:35 | 45.87614 | 16.88761 | 68° | 53km/h | 17011m | -14.9m/s | -55.2°C | 4.4% | 0hPa | 2.5V | 00:00:00 | 02:21:48 | 00:00:00 | |
| PG1ADW-2 | 2026-09-02 01:22:33 | 45.87604 | 16.88729 | 69° | 49km/h | 17042m | -16.7m/s | -55.4°C | 4.4% | 0hPa | 2.5V | 00:00:00 | 02:21:46 | 00:00:00 | |
| 9A1FER-10 | 2026-09-02 01:22:31 | 45.87594 | 16.88696 | 66° | 55km/h | 17075m | -16.6m/s | -55.7°C | 4.5% | 0hPa | 2.5V | 00:00:00 | 02:21:44 | 00:00:00 | |
| OE5DRO-10 | 2026-09-02 01:22:29 | 45.87583 | 16.88661 | 67° | 55km/h | 17108m | -18.0m/s | -55.9°C | 4.5% | 0hPa | 2.5V | 00:00:00 | 00:00:00 | 00:00:00 | |
| 9A1FER-3 | 2026-09-02 01:22:20 | 45.87529 | 16.88494 | 72° | 49km/h | 17279m | -20.3m/s | -57.2°C | 4.9% | 0hPa | 2.5V | 08:18:00 | 02:21:33 | 00:00:00 | |
| 9A1FER-10 | 2026-09-02 01:22:16 | 45.87512 | 16.88417 | 76° | 47km/h | 17357m | -17.4m/s | -57.6°C | 5.1% | 0hPa | 2.6V | 00:00:00 | 02:21:29 | 00:00:00 | |
| OE5DXL-15 | 2026-09-02 01:22:10 | 45.87497 | 16.88312 | 80° | 46km/h | 17454m | -13.0m/s | -57.5°C | 5.1% | 0hPa | 2.5V | 00:00:00 | 00:00:00 | 00:00:00 | |
| 9A1FER-3 | 2026-09-02 01:22:05 | 45.87492 | 16.88231 | 90° | 47km/h | 17530m | -17.0m/s | -57.7°C | 4.9% | 0hPa | 2.5V | 00:00:00 | 02:21:18 | 00:00:00 | |
| 9A1FER-10 | 2026-09-02 01:22:01 | 45.87496 | 16.88166 | 97° | 47km/h | 17593m | -14.5m/s | -58.1°C | 5.2% | 0hPa | 2.5V | 00:00:00 | 02:21:14 | 00:00:00 | |
| OE3JTB-15 | 2026-09-02 01:22:00 | 45.87498 | 16.88149 | 98° | 44km/h | 17608m | -15.2m/s | -58.1°C | 5.3% | 0hPa | 2.5V | 00:00:00 | 00:00:00 | 00:00:00 | |
| PG1ADW-2 | 2026-09-02 01:21:55 | 45.87509 | 16.88068 | 102° | 44km/h | 17679m | -14.9m/s | -57.6°C | 5.2% | 0hPa | 2.5V | 00:00:00 | 00:00:00 | 00:00:00 | |
| OE5DRO-10 | 2026-09-02 01:21:51 | 45.87521 | 16.88000 | 102° | 44km/h | 17741m | -20.1m/s | -57.9°C | 5.1% | 0hPa | 2.5V | 08:19:00 | 00:00:00 | 00:00:00 | |
| 9A1FER-3 | 2026-09-02 01:21:50 | 45.87524 | 16.87983 | 106° | 46km/h | 17761m | -20.6m/s | -58.1°C | 5.2% | 0hPa | 2.5V | 00:00:00 | 02:21:03 | 00:00:00 | |
| 9A1FER-10 | 2026-09-02 01:21:46 | 45.87535 | 16.87914 | 105° | 42km/h | 17836m | -19.2m/s | -58.5°C | 5.3% | 0hPa | 2.5V | 00:00:00 | 02:20:59 | 00:00:00 | |
| OE5DXL-15 | 2026-09-02 01:21:40 | 45.87554 | 16.87821 | 107° | 42km/h | 17947m | -16.9m/s | -58.3°C | 5.4% | 0hPa | 2.5V | 00:00:00 | 00:00:00 | 00:00:00 | |
| PETON7-10 | 2026-09-02 01:21:35 | 45.87569 | 16.87750 | 101° | 47km/h | 18016m | -14.8m/s | -58.0°C | 5.3% | 0hPa | 2.5V | 00:00:00 | 00:00:00 | 00:00:00 | |
| PG1ADW-2 | 2026-09-02 01:21:33 | 45.87572 | 16.87722 | 95° | 47km/h | 18049m | -19.9m/s | -58.0°C | 5.4% | 0hPa | 2.5V | 08:19:00 | 00:00:00 | 00:00:00 | |
| OE5DRO-10 | 2026-09-02 01:21:32 | 45.87573 | 16.87708 | 93° | 49km/h | 18068m | -18.3m/s | -58.0°C | 5.5% | 0hPa | 2.5V | 00:00:00 | 00:00:00 | 00:00:00 | |
| 9A1FER-10 | 2026-09-02 01:21:31 | 45.87573 | 16.87694 | 92° | 49km/h | 18086m | -16.4m/s | -57.9°C | 5.5% | 0hPa | 2.5V | 08:19:00 | 02:20:44 | 00:00:00 | |
| PETON7-10 | 2026-09-02 01:21:20 | 45.87569 | 16.87497 | 92° | 44km/h | 18274m | -18.3m/s | -57.6°C | 5.4% | 0hPa | 2.5V | 00:00:00 | 02:20:33 | 00:00:00 | |
| 9A1FER-10 | 2026-09-02 01:21:16 | 45.87573 | 16.87421 | 97° | 37km/h | 18338m | -14.9m/s | -56.7°C | 5.0% | 0hPa | 2.5V | 00:00:00 | 02:20:29 | 00:00:00 | |
| PG1ADW-2 | 2026-09-02 01:21:13 | 45.87579 | 16.87371 | 101° | 27km/h | 18382m | -14.5m/s | -56.2°C | 4.8% | 0hPa | 2.5V | 00:00:00 | 00:00:00 | 00:00:00 | |
| OE5DRO-10 | 2026-09-02 01:21:12 | 45.87581 | 16.87356 | 102° | 26km/h | 18396m | -14.7m/s | -56.1°C | 4.8% | 0hPa | 2.5V | 00:00:00 | 00:00:00 | 00:00:00 | |
| PETON7-10 | 2026-09-02 01:21:05 | 45.87598 | 16.87265 | 109° | 16km/h | 18491m | -12.2m/s | -55.5°C | 4.7% | 0hPa | 2.5V | 00:00:00 | 00:00:00 | 00:00:00 | |
| OE5DXL-15 | 2026-09-02 01:21:04 | 45.87600 | 16.87255 | 107° | 24km/h | 18503m | -12.8m/s | -55.4°C | 4.6% | 0hPa | 2.5V | 00:00:00 | 00:00:00 | 00:00:00 | |
| 9A1FER-10 | 2026-09-02 01:21:01 | 45.87606 | 16.87230 | 108° | 15km/h | 18542m | -13.6m/s | -55.5°C | 4.5% | 0hPa | 2.5V | 00:00:00 | 02:20:14 | 00:00:00 | |
| OE5DRO-10 | 2026-09-02 01:20:53 | 45.87608 | 16.87194 | 78° | 26km/h | 18671m | -16.6m/s | -55.9°C | 4.8% | 0hPa | 2.5V | 00:00:00 | 00:00:00 | 00:00:00 | |
| PETON7-10 | 2026-09-02 01:20:50 | 45.87604 | 16.87177 | 71° | 27km/h | 18724m | -17.8m/s | -55.4°C | 4.6% | 0hPa | 2.6V | 00:00:00 | 00:00:00 | 00:00:00 | |
| 9A1FER-10 | 2026-09-02 01:20:46 | 45.87600 | 16.87151 | 86° | 16km/h | 18787m | -13.3m/s | -55.4°C | 4.7% | 0hPa | 2.6V | 00:00:00 | 02:19:59 | 00:00:00 | |
| PETON7-10 | 2026-09-02 01:20:35 | 45.87613 | 16.87030 | 107° | 20km/h | 18976m | -19.0m/s | -55.0°C | 4.7% | 0hPa | 2.5V | 00:00:00 | 02:19:48 | 00:00:00 | |
| OE5DXL-15 | 2026-09-02 01:20:34 | 45.87615 | 16.87019 | 108° | 13km/h | 18993m | -17.2m/s | -54.8°C | 4.6% | 0hPa | 2.5V | 00:00:00 | 00:00:00 | 00:00:00 | |
| PG1ADW-2 | 2026-09-02 01:20:33 | 45.87618 | 16.87010 | 110° | 15km/h | 19011m | -18.3m/s | -54.7°C | 4.5% | 0hPa | 2.5V | 00:00:00 | 00:00:00 | 00:00:00 | |
| 9A1FER-3 | 2026-09-02 01:20:20 | 45.87646 | 16.86934 | 151° | 5km/h | 19253m | -16.1m/s | -54.0°C | 4.1% | 0hPa | 2.6V | 00:00:00 | 02:19:33 | 00:00:00 | |
| OE5DRO-10 | 2026-09-02 01:20:15 | 45.87654 | 16.86927 | 174° | 9km/h | 19338m | -17.9m/s | -54.2°C | 4.1% | 0hPa | 2.6V | 00:00:00 | 00:00:00 | 00:00:00 | |
| PG1ADW-2 | 2026-09-02 01:20:13 | 45.87656 | 16.86925 | 115° | 11km/h | 19375m | -18.4m/s | -54.4°C | 4.1% | 0hPa | 2.6V | 00:00:00 | 00:00:00 | 00:00:00 | |
| 9A1FER-10 | 2026-09-02 01:20:05 | 45.87653 | 16.86915 | 12° | 20km/h | 19515m | -16.7m/s | -54.6°C | 4.3% | 0hPa | 2.6V | 00:00:00 | 02:19:18 | 00:00:00 | |
| OE5DXL-15 | 2026-09-02 01:20:04 | 45.87651 | 16.86914 | 12° | 20km/h | 19532m | -15.4m/s | -54.8°C | 4.3% | 0hPa | 2.6V | 00:00:00 | 00:00:00 | 00:00:00 | |
| OE5DRO-10 | 2026-09-02 01:19:56 | 45.87632 | 16.86885 | 57° | 24km/h | 19672m | -18.8m/s | -55.5°C | 4.7% | 0hPa | 2.6V | 00:00:00 | 00:00:00 | 00:00:00 | |
| PG1ADW-2 | 2026-09-02 01:19:53 | 45.87619 | 16.86860 | 56° | 22km/h | 19729m | -21.1m/s | -55.5°C | 4.7% | 0hPa | 2.5V | 00:00:00 | 00:00:00 | 00:00:00 | |
| PETON7-10 | 2026-09-02 01:19:50 | 45.87606 | 16.86832 | 55° | 20km/h | 19789m | -17.9m/s | -55.4°C | 4.7% | 0hPa | 2.5V | 00:00:00 | 02:19:03 | 00:00:00 | |
| OE5DRO-10 | 2026-09-02 01:19:37 | 45.87605 | 16.86744 | 132° | 11km/h | 20027m | -19.1m/s | -54.3°C | 4.2% | 0hPa | 2.5V | 00:00:00 | 00:00:00 | 00:00:00 | |
| 9A1FER-10 | 2026-09-02 01:19:35 | 45.87612 | 16.86737 | 150° | 13km/h | 20063m | -17.9m/s | -54.3°C | 4.2% | 0hPa | 2.5V | 00:00:00 | 02:18:48 | 00:00:00 | |
| OE5DXL-15 | 2026-09-02 01:19:34 | 45.87616 | 16.86734 | 154° | 11km/h | 20080m | -17.4m/s | -54.4°C | 4.3% | 0hPa | 2.5V | 00:00:00 | 00:00:00 | 00:00:00 | |
| PG1ADW-2 | 2026-09-02 01:19:33 | 45.87620 | 16.86732 | 169° | 9km/h | 20098m | -18.8m/s | -54.5°C | 4.3% | 0hPa | 2.5V | 00:00:00 | 02:18:46 | 00:00:00 | |
| DO3MHA-11 | 2026-09-02 01:19:22 | 45.87650 | 16.86713 | 182° | 4km/h | 20306m | -16.7m/s | 0°C | 0% | 0hPa | 2.5V | 00:00:00 | 02:18:35 | 00:00:00 | |
| 9A1FER-10 | 2026-09-02 01:19:20 | 45.87653 | 16.86713 | 163° | 7km/h | 20340m | -20.4m/s | -54.9°C | 4.3% | 0hPa | 2.5V | 00:00:00 | 02:18:33 | 00:00:00 | |
| OE5DRO-10 | 2026-09-02 01:19:18 | 45.87655 | 16.86713 | 267° | 13km/h | 20380m | -20.9m/s | -55.0°C | 4.3% | 0hPa | 2.5V | 00:00:00 | 00:00:00 | 00:00:00 | |
| PG1ADW-2 | 2026-09-02 01:19:13 | 45.87654 | 16.86713 | 46° | 16km/h | 20494m | -22.4m/s | -55.1°C | 4.3% | 0hPa | 2.5V | 00:00:00 | 00:00:00 | 00:00:00 | |
| DO3MHA-11 | 2026-09-02 01:19:12 | 45.87653 | 16.86712 | 60° | 16km/h | 20516m | -22.9m/s | 0°C | 0% | 0hPa | 2.5V | 08:21:00 | 02:18:25 | 00:00:00 | |
| PETON7-10 | 2026-09-02 01:19:05 | 45.87649 | 16.86676 | 84° | 18km/h | 20662m | -17.2m/s | -55.7°C | 4.6% | 0hPa | 2.5V | 00:00:00 | 02:18:18 | 00:00:00 | |
| OE5DXL-15 | 2026-09-02 01:19:04 | 45.87649 | 16.86668 | 79° | 16km/h | 20679m | -17.5m/s | -55.8°C | 4.6% | 0hPa | 2.5V | 08:21:00 | 00:00:00 | 00:00:00 | |
| DO3MHA-11 | 2026-09-02 01:19:02 | 45.87645 | 16.86652 | 66° | 18km/h | 20715m | -17.9m/s | 0°C | 0% | 0hPa | 2.5V | 00:00:00 | 02:18:15 | 00:00:00 | |
| OE5DRO-10 | 2026-09-02 01:18:59 | 45.87638 | 16.86633 | 48° | 15km/h | 20767m | -20.5m/s | -56.1°C | 4.8% | 0hPa | 2.5V | 08:22:00 | 00:00:00 | 00:00:00 | |
| PG1ADW-2 | 2026-09-02 01:18:53 | 45.87620 | 16.86609 | 44° | 13km/h | 20887m | -21.3m/s | -56.0°C | 4.7% | 0hPa | 2.5V | 00:00:00 | 00:00:00 | 00:00:00 | |
| DO3MHA-11 | 2026-09-02 01:18:52 | 45.87617 | 16.86604 | 65° | 18km/h | 20910m | -24.7m/s | 0°C | 0% | 0hPa | 2.5V | 00:00:00 | 02:18:05 | 00:00:00 | |
| PETON7-10 | 2026-09-02 01:18:50 | 45.87614 | 16.86592 | 76° | 13km/h | 20956m | -22.2m/s | -56.0°C | 4.8% | 0hPa | 2.5V | 00:00:00 | 00:00:00 | 00:00:00 | |
| OE5DRO-10 | 2026-09-02 01:18:40 | 45.87603 | 16.86554 | 21° | 22km/h | 21174m | -22.4m/s | -55.6°C | 4.8% | 0hPa | 2.5V | 00:00:00 | 00:00:00 | 00:00:00 | |
| PETON7-10 | 2026-09-02 01:18:35 | 45.87590 | 16.86543 | 28° | 27km/h | 21278m | -18.7m/s | -55.9°C | 5.1% | 0hPa | 2.5V | 00:00:00 | 00:00:00 | 00:00:00 | |
| OE5DXL-15 | 2026-09-02 01:18:34 | 45.87586 | 16.86540 | 35° | 24km/h | 21296m | -18.1m/s | -55.9°C | 5.0% | 0hPa | 2.5V | 00:00:00 | 00:00:00 | 00:00:00 | |
| PG1ADW-2 | 2026-09-02 01:18:33 | 45.87582 | 16.86537 | 29° | 27km/h | 21316m | -21.9m/s | -55.7°C | 5.0% | 0hPa | 2.5V | 08:22:00 | 00:00:00 | 00:00:00 | |
| DO3MHA-11 | 2026-09-02 01:18:26 | 45.87547 | 16.86489 | 48° | 29km/h | 21468m | -21.7m/s | 0°C | 0% | 0hPa | 2.7V | 00:00:00 | 02:17:39 | 00:00:00 | |
| OE5DRO-10 | 2026-09-02 01:18:21 | 45.87527 | 16.86443 | 62° | 18km/h | 21571m | -19.4m/s | -53.9°C | 4.3% | 0hPa | 2.7V | 00:00:00 | 00:00:00 | 00:00:00 | |
| 9A1FER-3 | 2026-09-02 01:18:20 | 45.87524 | 16.86434 | 60° | 20km/h | 21590m | -20.1m/s | -53.9°C | 4.3% | 0hPa | 2.7V | 00:00:00 | 02:17:33 | 00:00:00 | |
| DO3MHA-11 | 2026-09-02 01:18:15 | 45.87515 | 16.86387 | 86° | 16km/h | 21691m | -21.5m/s | 0°C | 0% | 0hPa | 2.7V | 00:00:00 | 02:17:28 | 00:00:00 | |
| PG1ADW-2 | 2026-09-02 01:18:13 | 45.87515 | 16.86369 | 100° | 11km/h | 21733m | -19.8m/s | -53.9°C | 4.3% | 0hPa | 2.7V | 00:00:00 | 02:17:26 | 00:00:00 | |
| DO3MHA-11 | 2026-09-02 01:18:05 | 45.87520 | 16.86334 | 72° | 7km/h | 21901m | -24.8m/s | 0°C | 0% | 0hPa | 2.7V | 00:00:00 | 02:17:18 | 00:00:00 | |
| OE5DXL-15 | 2026-09-02 01:18:04 | 45.87519 | 16.86333 | 23° | 13km/h | 21925m | -22.9m/s | -53.9°C | 4.2% | 0hPa | 2.7V | 00:00:00 | 00:00:00 | 00:00:00 | |
| OE5DRO-10 | 2026-09-02 01:18:02 | 45.87517 | 16.86331 | 3° | 13km/h | 21971m | -25.2m/s | -54.2°C | 4.4% | 0hPa | 2.7V | 00:00:00 | 00:00:00 | 00:00:00 | |
| DO3MHA-11 | 2026-09-02 01:17:55 | 45.87506 | 16.86318 | 63° | 11km/h | 22110m | -20.9m/s | 0°C | 0% | 0hPa | 2.5V | 00:00:00 | 02:17:08 | 00:00:00 | |
| PG1ADW-2 | 2026-09-02 01:17:53 | 45.87502 | 16.86307 | 66° | 15km/h | 22150m | -19.7m/s | -53.1°C | 4.0% | 0hPa | 2.5V | 00:00:00 | 00:00:00 | 00:00:00 | |
| PETON7-10 | 2026-09-02 01:17:50 | 45.87498 | 16.86288 | 83° | 13km/h | 22207m | -21.0m/s | -53.2°C | 4.0% | 0hPa | 2.5V | 00:00:00 | 00:00:00 | 00:00:00 | |
| OE5DRO-10 | 2026-09-02 01:17:43 | 45.87495 | 16.86251 | 90° | 15km/h | 22348m | -17.6m/s | -53.8°C | 4.4% | 0hPa | 2.5V | 00:00:00 | 00:00:00 | 00:00:00 | |
| 9A1FER-10 | 2026-09-02 01:17:35 | 45.87496 | 16.86220 | 112° | 15km/h | 22502m | -22.0m/s | -53.5°C | 4.3% | 0hPa | 2.5V | 00:00:00 | 02:16:48 | 00:00:00 | |
| OE5DXL-15 | 2026-09-02 01:17:34 | 45.87497 | 16.86216 | 101° | 15km/h | 22524m | -22.7m/s | -53.4°C | 4.3% | 0hPa | 2.5V | 00:00:00 | 00:00:00 | 00:00:00 | |
| PG1ADW-2 | 2026-09-02 01:17:33 | 45.87498 | 16.86210 | 116° | 16km/h | 22547m | -23.5m/s | -53.4°C | 4.2% | 0hPa | 2.5V | 00:00:00 | 00:00:00 | 00:00:00 | |
| OE5DRO-10 | 2026-09-02 01:17:24 | 45.87525 | 16.86178 | 177° | 15km/h | 22764m | -22.9m/s | -53.0°C | 4.1% | 0hPa | 2.5V | 00:00:00 | 00:00:00 | 00:00:00 | |
| PG1ADW-2 | 2026-09-02 01:17:13 | 45.87560 | 16.86221 | 223° | 15km/h | 22985m | -18.5m/s | -53.0°C | 4.3% | 0hPa | 2.5V | 00:00:00 | 00:00:00 | 00:00:00 | |
| 9A1FER-3 | 2026-09-02 01:17:05 | 45.87584 | 16.86225 | 135° | 15km/h | 23151m | -21.4m/s | -53.0°C | 4.3% | 0hPa | 2.5V | 00:00:00 | 02:16:18 | 00:00:00 | |
| OE5DXL-15 | 2026-09-02 01:17:04 | 45.87587 | 16.86221 | 141° | 15km/h | 23175m | -25.7m/s | -53.0°C | 4.3% | 0hPa | 2.5V | 00:00:00 | 00:00:00 | 00:00:00 | |
| PG1ADW-2 | 2026-09-02 01:16:53 | 45.87626 | 16.86204 | 191° | 15km/h | 23412m | -19.9m/s | -52.0°C | 3.9% | 0hPa | 2.5V | 00:00:00 | 02:16:06 | 00:00:00 | |
| 9A1FER-3 | 2026-09-02 01:16:50 | 45.87634 | 16.86208 | 209° | 16km/h | 23469m | -17.5m/s | -52.0°C | 3.9% | 0hPa | 2.5V | 00:00:00 | 02:16:03 | 00:00:00 | |
| 9A1FER-10 | 2026-09-02 01:16:46 | 45.87645 | 16.86226 | 240° | 13km/h | 23538m | -19.7m/s | -52.0°C | 3.9% | 0hPa | 2.5V | 00:00:00 | 02:15:59 | 00:00:00 | |
| OE3JTB-15 | 2026-09-02 01:16:37 | 45.87644 | 16.86274 | 287° | 7km/h | 23706m | -16.2m/s | -52.0°C | 3.9% | 0hPa | 2.5V | 08:24:00 | 00:00:00 | 00:00:00 | |
| PETON7-10 | 2026-09-02 01:16:35 | 45.87642 | 16.86283 | 294° | 5km/h | 23739m | -20.1m/s | -52.1°C | 3.9% | 0hPa | 2.6V | 00:00:00 | 00:00:00 | 00:00:00 | |
| OE5DXL-15 | 2026-09-02 01:16:34 | 45.87642 | 16.86286 | 281° | 7km/h | 23760m | -22.5m/s | -52.1°C | 3.9% | 0hPa | 2.5V | 00:00:00 | 00:00:00 | 00:00:00 | |
| PG1ADW-2 | 2026-09-02 01:16:33 | 45.87642 | 16.86288 | 283° | 5km/h | 23782m | -22.7m/s | -52.0°C | 3.9% | 0hPa | 2.5V | 00:00:00 | 00:00:00 | 00:00:00 | |
| 9A1FER-10 | 2026-09-02 01:16:31 | 45.87642 | 16.86292 | 258° | 5km/h | 23828m | -21.0m/s | -52.1°C | 3.9% | 0hPa | 2.5V | 08:24:00 | 02:15:44 | 00:00:00 | |
| OE5DRO-10 | 2026-09-02 01:16:27 | 45.87643 | 16.86295 | 226° | 7km/h | 23916m | -22.6m/s | -52.1°C | 3.9% | 0hPa | 2.5V | 00:00:00 | 00:00:00 | 00:00:00 | |
| 9A1FER-3 | 2026-09-02 01:16:20 | 45.87652 | 16.86295 | 179° | 9km/h | 24076m | -19.4m/s | -52.2°C | 4.0% | 0hPa | 2.5V | 00:00:00 | 02:15:33 | 00:00:00 | |
| 9A1FER-10 | 2026-09-02 01:16:16 | 45.87661 | 16.86291 | 185° | 7km/h | 24156m | -23.6m/s | -52.2°C | 4.0% | 0hPa | 2.6V | 00:00:00 | 02:15:29 | 00:00:00 | |
| PG1ADW-2 | 2026-09-02 01:16:13 | 45.87665 | 16.86292 | 193° | 9km/h | 24222m | -21.8m/s | -52.2°C | 4.0% | 0hPa | 2.6V | 00:00:00 | 00:00:00 | 00:00:00 | |
| OE5DRO-10 | 2026-09-02 01:16:08 | 45.87677 | 16.86293 | 182° | 9km/h | 24326m | -18.9m/s | -52.3°C | 4.1% | 0hPa | 2.6V | 08:24:00 | 00:00:00 | 00:00:00 | |
| PETON7-10 | 2026-09-02 01:16:05 | 45.87682 | 16.86292 | 190° | 9km/h | 24382m | -20.1m/s | -52.2°C | 4.1% | 0hPa | 2.5V | 00:00:00 | 02:15:18 | 00:00:00 | |
| OE5DXL-15 | 2026-09-02 01:16:04 | 45.87682 | 16.86292 | 241° | 13km/h | 24403m | -21.9m/s | -52.1°C | 4.1% | 0hPa | 2.5V | 00:00:00 | 00:00:00 | 00:00:00 | |
| 9A1FER-10 | 2026-09-02 01:16:01 | 45.87684 | 16.86296 | 233° | 11km/h | 24473m | -22.4m/s | -51.9°C | 4.0% | 0hPa | 2.6V | 00:00:00 | 02:15:14 | 00:00:00 | |
| PG1ADW-2 | 2026-09-02 01:15:53 | 45.87692 | 16.86328 | 276° | 16km/h | 24663m | -26.3m/s | -51.4°C | 3.9% | 0hPa | 2.6V | 00:00:00 | 00:00:00 | 00:00:00 | |
| PETON7-10 | 2026-09-02 01:15:50 | 45.87688 | 16.86342 | 309° | 16km/h | 24741m | -27.6m/s | -51.2°C | 3.7% | 0hPa | 2.6V | 08:25:00 | 00:00:00 | 00:00:00 | |
| OE5DRO-10 | 2026-09-02 01:15:49 | 45.87685 | 16.86347 | 310° | 15km/h | 24768m | -26.3m/s | -51.3°C | 3.8% | 0hPa | 2.5V | 00:00:00 | 00:00:00 | 00:00:00 | |
| 9A1FER-10 | 2026-09-02 01:15:46 | 45.87675 | 16.86356 | 355° | 15km/h | 24840m | -22.5m/s | -51.8°C | 4.0% | 0hPa | 2.5V | 00:00:00 | 02:14:59 | 00:00:00 | |
| OE3JTB-15 | 2026-09-02 01:15:39 | 45.87643 | 16.86353 | 12° | 13km/h | 24989m | -20.3m/s | -51.7°C | 4.1% | 0hPa | 2.5V | 00:00:00 | 02:14:52 | 00:00:00 | |
| PETON7-10 | 2026-09-02 01:15:35 | 45.87634 | 16.86342 | 79° | 13km/h | 25073m | -22.6m/s | -51.1°C | 3.9% | 0hPa | 2.5V | 00:00:00 | 00:00:00 | 00:00:00 | |
| PG1ADW-2 | 2026-09-02 01:15:33 | 45.87635 | 16.86334 | 120° | 13km/h | 25119m | -23.7m/s | -50.8°C | 3.8% | 0hPa | 2.5V | 08:25:00 | 02:14:46 | 00:00:00 | |
| 9A1FER-10 | 2026-09-02 01:15:31 | 45.87639 | 16.86326 | 134° | 13km/h | 25168m | -23.6m/s | -50.7°C | 3.7% | 0hPa | 2.5V | 00:00:00 | 02:14:44 | 00:00:00 | |
| OE5DRO-10 | 2026-09-02 01:15:30 | 45.87642 | 16.86322 | 135° | 13km/h | 25190m | -22.1m/s | -50.6°C | 3.7% | 0hPa | 2.5V | 00:00:00 | 00:00:00 | 00:00:00 | |
| PETON7-10 | 2026-09-02 01:15:20 | 45.87673 | 16.86303 | 205° | 13km/h | 25414m | -21.9m/s | -50.4°C | 3.7% | 0hPa | 2.5V | 00:00:00 | 02:14:33 | 00:00:00 | |
| 9A1FER-10 | 2026-09-02 01:15:16 | 45.87677 | 16.86317 | 277° | 13km/h | 25511m | -23.7m/s | -50.1°C | 3.6% | 0hPa | 2.5V | 00:00:00 | 02:14:29 | 00:00:00 | |
| PG1ADW-2 | 2026-09-02 01:15:13 | 45.87675 | 16.86333 | 285° | 11km/h | 25581m | -23.5m/s | -50.2°C | 3.6% | 0hPa | 2.5V | 00:00:00 | 00:00:00 | 00:00:00 | |
| OE5DRO-10 | 2026-09-02 01:15:11 | 45.87673 | 16.86343 | 291° | 11km/h | 25625m | -21.7m/s | -50.5°C | 3.7% | 0hPa | 2.5V | 00:00:00 | 00:00:00 | 00:00:00 | |
| OE3JTB-15 | 2026-09-02 01:15:10 | 45.87672 | 16.86348 | 309° | 15km/h | 25647m | -24.4m/s | -50.5°C | 3.7% | 0hPa | 2.5V | 00:00:00 | 00:00:00 | 00:00:00 | |
| PETON7-10 | 2026-09-02 01:15:05 | 45.87662 | 16.86364 | 336° | 11km/h | 25759m | -19.1m/s | -50.4°C | 3.8% | 0hPa | 2.6V | 00:00:00 | 00:00:00 | 00:00:00 | |
| OE5DXL-15 | 2026-09-02 01:15:04 | 45.87660 | 16.86364 | 3° | 16km/h | 25779m | -19.2m/s | -50.3°C | 3.7% | 0hPa | 2.7V | 00:00:00 | 00:00:00 | 00:00:00 | |
| 9A1FER-10 | 2026-09-02 01:15:01 | 45.87653 | 16.86362 | 47° | 15km/h | 25843m | -22.5m/s | -50.6°C | 3.8% | 0hPa | 2.7V | 00:00:00 | 02:14:14 | 00:00:00 | |
| PG1ADW-2 | 2026-09-02 01:14:53 | 45.87666 | 16.86366 | 216° | 20km/h | 26017m | -19.4m/s | -49.7°C | 3.6% | 0hPa | 2.5V | 00:00:00 | 00:00:00 | 00:00:00 | |
| OE5DRO-10 | 2026-09-02 01:14:52 | 45.87670 | 16.86371 | 223° | 20km/h | 26039m | -24.1m/s | -49.6°C | 3.6% | 0hPa | 2.5V | 00:00:00 | 00:00:00 | 00:00:00 | |
| PETON7-10 | 2026-09-02 01:14:50 | 45.87678 | 16.86382 | 234° | 20km/h | 26083m | -22.0m/s | -49.5°C | 3.5% | 0hPa | 2.5V | 00:00:00 | 00:00:00 | 00:00:00 | |
| 9A1FER-10 | 2026-09-02 01:14:46 | 45.87685 | 16.86413 | 268° | 18km/h | 26173m | -22.9m/s | -49.5°C | 3.6% | 0hPa | 2.5V | 00:00:00 | 02:13:59 | 00:00:00 | |
| OE3JTB-15 | 2026-09-02 01:14:41 | 45.87674 | 16.86454 | 306° | 7km/h | 26286m | -23.6m/s | -49.6°C | 3.7% | 0hPa | 2.5V | 00:00:00 | 00:00:00 | 00:00:00 | |
| PETON7-10 | 2026-09-02 01:14:35 | 45.87656 | 16.86473 | 358° | 7km/h | 26446m | -25.7m/s | -49.5°C | 3.7% | 0hPa | 2.5V | 00:00:00 | 02:13:48 | 00:00:00 | |
| OE5DXL-15 | 2026-09-02 01:14:34 | 45.87654 | 16.86472 | 17° | 5km/h | 26471m | -24.6m/s | -49.5°C | 3.7% | 0hPa | 2.5V | 08:26:00 | 00:00:00 | 00:00:00 | |
| PG1ADW-2 | 2026-09-02 01:14:33 | 45.87653 | 16.86472 | 12° | 7km/h | 26495m | -22.6m/s | -49.4°C | 3.6% | 0hPa | 2.5V | 00:00:00 | 00:00:00 | 00:00:00 | |
| 9A1FER-10 | 2026-09-02 01:14:31 | 45.87650 | 16.86469 | 32° | 5km/h | 26537m | -22.5m/s | -48.9°C | 3.5% | 0hPa | 2.5V | 00:00:00 | 02:13:44 | 00:00:00 | |
| PETON7-10 | 2026-09-02 01:14:20 | 45.87641 | 16.86466 | 217° | 5km/h | 26764m | -25.4m/s | -48.1°C | 3.3% | 0hPa | 2.5V | 00:00:00 | 00:00:00 | 00:00:00 | |
| 9A1FER-3 | 2026-09-02 01:14:16 | 45.87645 | 16.86472 | 241° | 5km/h | 26858m | -21.9m/s | -47.9°C | 3.3% | 0hPa | 2.5V | 00:00:00 | 02:13:29 | 00:00:00 | |
| OE5DRO-10 | 2026-09-02 01:14:14 | 45.87645 | 16.86474 | 317° | 5km/h | 26904m | -25.0m/s | -47.9°C | 3.3% | 0hPa | 2.5V | 00:00:00 | 00:00:00 | 00:00:00 | |
| PG1ADW-2 | 2026-09-02 01:14:13 | 45.87644 | 16.86474 | 19° | 7km/h | 26929m | -25.4m/s | -47.8°C | 3.2% | 0hPa | 2.5V | 00:00:00 | 02:13:26 | 00:00:00 | |
| OE3JTB-15 | 2026-09-02 01:14:12 | 45.87642 | 16.86474 | 351° | 7km/h | 26954m | -26.7m/s | -47.9°C | 3.2% | 0hPa | 2.5V | 00:00:00 | 02:13:25 | 00:00:00 | |
| PETON7-10 | 2026-09-02 01:14:05 | 45.87635 | 16.86482 | 325° | 9km/h | 27112m | -22.1m/s | -48.0°C | 3.3% | 0hPa | 2.5V | 00:00:00 | 00:00:00 | 00:00:00 | |
| OE5DXL-15 | 2026-09-02 01:14:04 | 45.87634 | 16.86483 | 337° | 9km/h | 27135m | -24.4m/s | -47.9°C | 3.3% | 0hPa | 2.5V | 00:00:00 | 02:13:17 | 00:00:00 | |
| 9A1FER-3 | 2026-09-02 01:14:01 | 45.87629 | 16.86486 | 319° | 7km/h | 27202m | -19.9m/s | -47.9°C | 3.3% | 0hPa | 2.5V | 00:00:00 | 02:13:14 | 00:00:00 | |
| 9A1FER-10 | 2026-09-02 01:13:56 | 45.87621 | 16.86486 | 28° | 9km/h | 27333m | -28.6m/s | -47.9°C | 3.3% | 0hPa | 2.5V | 00:00:00 | 02:13:09 | 00:00:00 | |
| OE5DRO-10 | 2026-09-02 01:13:55 | 45.87619 | 16.86484 | 34° | 11km/h | 27360m | -27.2m/s | -47.9°C | 3.3% | 0hPa | 2.5V | 00:00:00 | 00:00:00 | 00:00:00 | |
| PG1ADW-2 | 2026-09-02 01:13:53 | 45.87614 | 16.86480 | 46° | 11km/h | 27416m | -29.1m/s | -47.9°C | 3.3% | 0hPa | 2.5V | 00:00:00 | 00:00:00 | 00:00:00 | |
| PETON7-10 | 2026-09-02 01:13:50 | 45.87608 | 16.86474 | 31° | 11km/h | 27499m | -24.4m/s | -47.9°C | 3.3% | 0hPa | 2.5V | 00:00:00 | 02:13:03 | 00:00:00 | |
| 9A1FER-3 | 2026-09-02 01:13:46 | 45.87601 | 16.86469 | 28° | 7km/h | 27601m | -24.1m/s | -48.1°C | 3.4% | 0hPa | 2.5V | 00:00:00 | 02:12:59 | 00:00:00 | |
| OE3JTB-15 | 2026-09-02 01:13:42 | 45.87593 | 16.86462 | 49° | 9km/h | 27705m | -27.7m/s | -47.7°C | 3.4% | 0hPa | 2.5V | 00:00:00 | 00:00:00 | 00:00:00 | |
| 9A1FER-10 | 2026-09-02 01:13:41 | 45.87592 | 16.86459 | 75° | 11km/h | 27733m | -28.9m/s | -47.6°C | 3.4% | 0hPa | 2.5V | 00:00:00 | 02:12:54 | 00:00:00 | |
| OE5DRO-10 | 2026-09-02 01:13:36 | 45.87592 | 16.86433 | 106° | 7km/h | 27873m | -26.6m/s | -48.1°C | 3.6% | 0hPa | 2.5V | 00:00:00 | 00:00:00 | 00:00:00 | |
| PETON7-10 | 2026-09-02 01:13:35 | 45.87593 | 16.86429 | 102° | 7km/h | 27898m | -25.1m/s | -48.1°C | 3.5% | 0hPa | 2.5V | 08:27:00 | 00:00:00 | 00:00:00 | |
| OE5DXL-15 | 2026-09-02 01:13:34 | 45.87593 | 16.86425 | 83° | 11km/h | 27925m | -30.2m/s | -48.0°C | 3.5% | 0hPa | 2.6V | 00:00:00 | 00:00:00 | 00:00:00 | |
| PG1ADW-2 | 2026-09-02 01:13:33 | 45.87592 | 16.86422 | 50° | 7km/h | 27957m | -33.5m/s | -47.9°C | 3.5% | 0hPa | 2.6V | 00:00:00 | 00:00:00 | 00:00:00 | |
| 9A1FER-3 | 2026-09-02 01:13:27 | 45.87581 | 16.86417 | 9° | 9km/h | 28136m | -27.8m/s | -47.4°C | 3.4% | 0hPa | 2.6V | 00:00:00 | 02:12:40 | 00:00:00 | |
| 9A1FER-10 | 2026-09-02 01:13:26 | 45.87581 | 16.86417 | 177° | 7km/h | 28163m | -24.3m/s | -47.2°C | 3.4% | 0hPa | 2.6V | 00:00:00 | 02:12:39 | 00:00:00 | |
| DO3MHA-11 | 2026-09-02 01:13:25 | 45.87582 | 16.86417 | 151° | 5km/h | 28187m | -25.5m/s | 0°C | 0% | 0hPa | 2.5V | 00:00:00 | 02:12:38 | 00:00:00 | |
| PETON7-10 | 2026-09-02 01:13:20 | 45.87590 | 16.86415 | 170° | 15km/h | 28304m | -25.1m/s | -46.3°C | 3.3% | 0hPa | 2.5V | 00:00:00 | 00:00:00 | 00:00:00 | |
| OE5DRO-10 | 2026-09-02 01:13:17 | 45.87592 | 16.86416 | 352° | 18km/h | 28378m | -26.1m/s | -46.2°C | 3.3% | 0hPa | 2.5V | 08:27:00 | 00:00:00 | 00:00:00 | |
| DO3MHA-11 | 2026-09-02 01:13:15 | 45.87589 | 16.86418 | 337° | 20km/h | 28431m | -27.4m/s | 0°C | 0% | 0hPa | 2.5V | 00:00:00 | 02:12:28 | 00:00:00 | |
| PG1ADW-2 | 2026-09-02 01:13:13 | 45.87582 | 16.86420 | 2° | 18km/h | 28485m | -28.3m/s | -46.0°C | 3.3% | 0hPa | 2.5V | 00:00:00 | 00:00:00 | 00:00:00 | |
| 9A1FER-10 | 2026-09-02 01:13:11 | 45.87573 | 16.86421 | 10° | 20km/h | 28540m | -26.9m/s | -46.0°C | 3.3% | 0hPa | 2.5V | 00:00:00 | 02:12:24 | 00:00:00 | |
| 9A1FER-3 | 2026-09-02 01:13:09 | 45.87563 | 16.86418 | 14° | 15km/h | 28602m | -35.5m/s | -45.6°C | 3.3% | 0hPa | 2.5V | 08:27:00 | 02:12:22 | 00:00:00 | |
| DO3MHA-11 | 2026-09-02 01:13:05 | 45.87541 | 16.86412 | 19° | 20km/h | 28739m | -38.0m/s | 0°C | 0% | 0hPa | 2.5V | 00:00:00 | 02:12:18 | 00:00:00 | |
| OE5DXL-15 | 2026-09-02 01:13:04 | 45.87536 | 16.86409 | 25° | 13km/h | 28777m | -37.7m/s | -44.2°C | 2.9% | 0hPa | 2.5V | 00:00:00 | 00:00:00 | 00:00:00 | |
| OE5DRO-10 | 2026-09-02 01:12:58 | 45.87517 | 16.86385 | 65° | 11km/h | 28991m | -31.6m/s | -43.8°C | 2.8% | 0hPa | 2.5V | 00:00:00 | 00:00:00 | 00:00:00 | |
| 9A1FER-10 | 2026-09-02 01:12:56 | 45.87514 | 16.86376 | 46° | 11km/h | 29049m | -28.3m/s | -44.0°C | 2.9% | 0hPa | 2.5V | 00:00:00 | 02:12:09 | 00:00:00 | |
| PG1ADW-2 | 2026-09-02 01:12:53 | 45.87507 | 16.86369 | 24° | 11km/h | 29128m | -23.0m/s | -43.9°C | 2.9% | 0hPa | 2.5V | 00:00:00 | 02:12:06 | 00:00:00 | |
| 9A1FER-3 | 2026-09-02 01:12:51 | 45.87503 | 16.86365 | 45° | 11km/h | 29176m | -24.0m/s | -43.7°C | 2.9% | 0hPa | 2.5V | 00:00:00 | 02:12:04 | 00:00:00 | |
| PETON7-10 | 2026-09-02 01:12:50 | 45.87502 | 16.86363 | 44° | 11km/h | 29200m | -22.6m/s | -43.5°C | 2.8% | 0hPa | 2.5V | 00:00:00 | 00:00:00 | 00:00:00 | |
| OE3JTB-15 | 2026-09-02 01:12:44 | 45.87510 | 16.86367 | 198° | 20km/h | 29355m | -19.3m/s | -42.3°C | 2.6% | 0hPa | 2.6V | 00:00:00 | 02:11:57 | 00:00:00 | |
| 9A1FER-10 | 2026-09-02 01:12:41 | 45.87521 | 16.86375 | 206° | 11km/h | 29415m | -22.7m/s | -42.3°C | 2.6% | 0hPa | 2.6V | 00:00:00 | 02:11:54 | 00:00:00 | |
| OE5DRO-10 | 2026-09-02 01:12:39 | 45.87527 | 16.86380 | 219° | 20km/h | 29459m | -21.7m/s | 0°C | 0% | 0hPa | 2.5V | 00:00:00 | 00:00:00 | 00:00:00 | |
| 9A1FER-3 | 2026-09-02 01:12:36 | 45.87530 | 16.86389 | 268° | 20km/h | 29533m | -30.0m/s | -42.1°C | 2.5% | 0hPa | 2.5V | 00:00:00 | 02:11:49 | 00:00:00 | |
| PETON7-10 | 2026-09-02 01:12:35 | 45.87531 | 16.86392 | 263° | 22km/h | 29564m | -33.9m/s | -42.1°C | 2.5% | 0hPa | 2.5V | 00:00:00 | 00:00:00 | 00:00:00 | |
| OE5DXL-15 | 2026-09-02 01:12:34 | 45.87531 | 16.86396 | 266° | 24km/h | 29598m | -35.2m/s | -42.1°C | 2.5% | 0hPa | 2.5V | 00:00:00 | 00:00:00 | 00:00:00 | |
| PG1ADW-2 | 2026-09-02 01:12:33 | 45.87531 | 16.86401 | 284° | 26km/h | 29633m | -35.6m/s | -42.1°C | 2.5% | 0hPa | 2.5V | 08:28:00 | 00:00:00 | 00:00:00 | |
| OE8JPQ-2 | 2026-09-02 01:12:27 | 45.87519 | 16.86414 | 4° | 29km/h | 29850m | -30.4m/s | -42.4°C | 2.6% | 0hPa | 2.5V | 08:28:00 | 00:00:00 | 00:00:00 | |
| 9A1FER-10 | 2026-09-02 01:12:26 | 45.87513 | 16.86413 | 17° | 29km/h | 29880m | -29.2m/s | -42.5°C | 2.6% | 0hPa | 2.6V | 00:00:00 | 02:11:39 | 00:00:00 | |
| 9A1FER-3 | 2026-09-02 01:12:21 | 45.87469 | 16.86393 | 23° | 27km/h | 30018m | -25.9m/s | -42.8°C | 2.7% | 0hPa | 2.6V | 00:00:00 | 02:11:34 | 00:00:00 | |
| OE5DRO-10 | 2026-09-02 01:12:20 | 45.87460 | 16.86389 | 19° | 24km/h | 30044m | -26.5m/s | -42.9°C | 2.7% | 0hPa | 2.5V | 00:00:00 | 00:00:00 | 00:00:00 | |
| OE3JTB-15 | 2026-09-02 01:12:15 | 45.87431 | 16.86371 | 31° | 15km/h | 30175m | -29.7m/s | -42.8°C | 2.7% | 0hPa | 2.5V | 08:28:00 | 00:00:00 | 00:00:00 | |
| PG1ADW-2 | 2026-09-02 01:12:13 | 45.87423 | 16.86360 | 50° | 16km/h | 30233m | -28.5m/s | -42.6°C | 2.7% | 0hPa | 2.5V | 00:00:00 | 00:00:00 | 00:00:00 | |
| 9A1FER-10 | 2026-09-02 01:12:11 | 45.87416 | 16.86345 | 64° | 18km/h | 30289m | -28.3m/s | -42.1°C | 2.6% | 0hPa | 2.5V | 00:00:00 | 02:11:24 | 00:00:00 | |
| OE8JPQ-2 | 2026-09-02 01:12:06 | 45.87411 | 16.86302 | 98° | 9km/h | 30461m | -34.6m/s | -41.6°C | 2.5% | 0hPa | 2.5V | 00:00:00 | 00:00:00 | 00:00:00 | |
| PETON7-10 | 2026-09-02 01:12:05 | 45.87412 | 16.86296 | 102° | 11km/h | 30494m | -32.4m/s | -41.6°C | 2.5% | 0hPa | 2.5V | 00:00:00 | 00:00:00 | 00:00:00 | |
| OE5DXL-15 | 2026-09-02 01:12:04 | 45.87413 | 16.86291 | 109° | 9km/h | 30526m | -30.9m/s | -41.5°C | 2.5% | 0hPa | 2.5V | 00:00:00 | 00:00:00 | 00:00:00 | |
| OE5DRO-10 | 2026-09-02 01:12:01 | 45.87419 | 16.86282 | 162° | 7km/h | 30625m | -33.4m/s | -41.3°C | 2.4% | 0hPa | 2.5V | 00:00:00 | 00:00:00 | 00:00:00 | |
| 9A1FER-10 | 2026-09-02 01:11:56 | 45.87433 | 16.86278 | 171° | 5km/h | 30790m | -32.5m/s | -41.8°C | 2.5% | 0hPa | 2.5V | 08:29:00 | 02:11:09 | 00:00:00 | |
| PG1ADW-2 | 2026-09-02 01:11:53 | 45.87441 | 16.86277 | 176° | 9km/h | 30878m | -25.6m/s | -42.2°C | 2.6% | 0hPa | 2.5V | 00:00:00 | 00:00:00 | 00:00:00 | |
| 9A1FER-3 | 2026-09-02 01:11:51 | 45.87446 | 16.86277 | 171° | 7km/h | 30936m | -31.6m/s | -42.2°C | 2.6% | 0hPa | 2.5V | 00:00:00 | 02:11:04 | 00:00:00 | |
| PETON7-10 | 2026-09-02 01:11:50 | 45.87447 | 16.86277 | 185° | 7km/h | 30968m | -33.0m/s | -42.3°C | 2.6% | 0hPa | 2.5V | 00:00:00 | 00:00:00 | 00:00:00 | |
| NBG1-10 | 2026-09-02 01:11:48 | 45.87447 | 16.86277 | 67° | 13km/h | 31029m | -29.3m/s | 0°C | 0% | 0hPa | 2.5V | 00:00:00 | 02:11:01 | 00:00:00 | |
| OE3JTB-15 | 2026-09-02 01:11:46 | 45.87446 | 16.86276 | 26° | 11km/h | 31086m | -28.9m/s | -42.6°C | 2.8% | 0hPa | 2.5V | 00:00:00 | 00:00:00 | 00:00:00 | |
| OE8JPQ-2 | 2026-09-02 01:11:45 | 45.87445 | 16.86275 | 47° | 15km/h | 31114m | -27.6m/s | -42.5°C | 2.8% | 0hPa | 2.5V | 00:00:00 | 02:10:58 | 00:00:00 | |
| OE5DRO-10 | 2026-09-02 01:11:42 | 45.87442 | 16.86269 | 41° | 15km/h | 31200m | -31.4m/s | -42.1°C | 2.8% | 0hPa | 2.5V | 00:00:00 | 00:00:00 | 00:00:00 | |
| 9A1FER-10 | 2026-09-02 01:11:40 | 45.87439 | 16.86267 | 19° | 15km/h | 31260m | -29.7m/s | -41.8°C | 2.7% | 0hPa | 2.5V | 00:00:00 | 02:10:53 | 00:00:00 | |
| 9A1FER-3 | 2026-09-02 01:11:36 | 45.87430 | 16.86261 | 33° | 16km/h | 31383m | -28.5m/s | -41.2°C | 2.6% | 0hPa | 2.5V | 00:00:00 | 02:10:49 | 00:00:00 | |
| PETON7-10 | 2026-09-02 01:11:35 | 45.87427 | 16.86257 | 52° | 16km/h | 31412m | -29.7m/s | -41.0°C | 2.6% | 0hPa | 2.6V | 00:00:00 | 02:10:48 | 00:00:00 | |
| OE5DXL-15 | 2026-09-02 01:11:34 | 45.87425 | 16.86253 | 55° | 15km/h | 31443m | -29.9m/s | -40.8°C | 2.6% | 0hPa | 2.6V | 00:00:00 | 00:00:00 | 00:00:00 | |
| PG1ADW-2 | 2026-09-02 01:11:33 | 45.87422 | 16.86246 | 64° | 13km/h | 31473m | -31.1m/s | -40.7°C | 2.6% | 0hPa | 2.6V | 00:00:00 | 02:10:46 | 00:00:00 | |
| OE5DRO-10 | 2026-09-02 01:11:23 | 45.87422 | 16.86196 | 167° | 13km/h | 31809m | -35.5m/s | -39.6°C | 2.4% | 0hPa | 2.5V | 00:00:00 | 00:00:00 | 00:00:00 | |
| OE8JPQ-2 | 2026-09-02 01:11:22 | 45.87425 | 16.86195 | 178° | 16km/h | 31843m | -33.8m/s | -39.3°C | 2.4% | 0hPa | 2.6V | 00:00:00 | 00:00:00 | 00:00:00 | |
| 9A1FER-3 | 2026-09-02 01:11:21 | 45.87427 | 16.86195 | 159° | 11km/h | 31876m | -32.3m/s | -39.0°C | 2.3% | 0hPa | 2.5V | 00:00:00 | 02:10:34 | 00:00:00 | |
| PETON7-10 | 2026-09-02 01:11:20 | 45.87430 | 16.86193 | 135° | 13km/h | 31908m | -32.7m/s | -38.7°C | 2.2% | 0hPa | 2.5V | 00:00:00 | 00:00:00 | 08:30:00 | |
| OE3JTB-15 | 2026-09-02 01:11:17 | 45.87431 | 16.86186 | 85° | 7km/h | 31999m | -26.2m/s | -38.2°C | 2.2% | 0hPa | 2.5V | 00:00:00 | 02:10:30 | 00:00:00 | |
| PG1ADW-2 | 2026-09-02 01:11:13 | 45.87430 | 16.86177 | 139° | 18km/h | 32134m | -36.9m/s | -38.1°C | 2.2% | 0hPa | 2.5V | 00:00:00 | 00:00:00 | 00:00:00 | |
| 9A1FER-10 | 2026-09-02 01:11:08 | 45.87447 | 16.86164 | 167° | 20km/h | 32287m | -28.6m/s | -37.8°C | 2.1% | 0hPa | 2.5V | 00:00:00 | 02:10:21 | 00:00:00 | |
| 9A1FER-3 | 2026-09-02 01:11:06 | 45.87459 | 16.86160 | 174° | 18km/h | 32337m | -22.0m/s | -37.6°C | 2.1% | 0hPa | 2.7V | 00:00:00 | 02:10:19 | 00:00:00 | |
| PETON7-10 | 2026-09-02 01:11:05 | 45.87466 | 16.86159 | 177° | 16km/h | 32357m | -19.2m/s | -37.6°C | 2.0% | 0hPa | 2.7V | 00:00:00 | 00:00:00 | 00:00:00 | |
| OE5DXL-15 | 2026-09-02 01:11:04 | 45.87472 | 16.86159 | 182° | 15km/h | 32376m | -21.4m/s | -37.5°C | 2.0% | 0hPa | 2.7V | 00:00:00 | 00:00:00 | 00:00:00 | |
| OE8JPQ-2 | 2026-09-02 01:11:02 | 45.87481 | 16.86163 | 220° | 13km/h | 32420m | -22.6m/s | -37.4°C | 2.0% | 0hPa | 2.7V | 00:00:00 | 00:00:00 | 00:00:00 | |
| 9A1FER-10 | 2026-09-02 01:10:53 | 45.87480 | 16.86214 | 307° | 9km/h | 32646m | -24.6m/s | -38.2°C | 2.1% | 0hPa | 2.7V | 00:00:00 | 02:10:06 | 00:00:00 | |
| 9A1FER-3 | 2026-09-02 01:10:51 | 45.87477 | 16.86217 | 346° | 11km/h | 32695m | -22.5m/s | -38.4°C | 2.1% | 0hPa | 2.7V | 00:00:00 | 02:10:04 | 08:30:00 | |
| PETON7-10 | 2026-09-02 01:10:50 | 45.87476 | 16.86217 | 356° | 13km/h | 32715m | -18.0m/s | -38.5°C | 2.2% | 0hPa | 2.5V | 00:00:00 | 02:10:03 | 00:00:00 | |
| OE3JTB-15 | 2026-09-02 01:10:48 | 45.87474 | 16.86219 | 341° | 13km/h | 32745m | -12.7m/s | -38.7°C | 2.2% | 0hPa | 2.5V | 00:00:00 | 00:00:00 | 00:00:00 | |
| OE5DRO-10 | 2026-09-02 01:10:45 | 45.87470 | 16.86225 | 308° | 20km/h | 32781m | -13.3m/s | -38.6°C | 2.2% | 0hPa | 2.7V | 00:00:00 | 00:00:00 | 00:00:00 | |
| OE8JPQ-2 | 2026-09-02 01:10:41 | 45.87462 | 16.86237 | 349° | 16km/h | 32845m | -20.7m/s | -38.5°C | 2.2% | 0hPa | 2.7V | 00:00:00 | 02:09:54 | 00:00:00 | |
| 9A1FER-10 | 2026-09-02 01:10:38 | 45.87458 | 16.86225 | 91° | 15km/h | 32913m | -25.5m/s | -38.3°C | 2.1% | 0hPa | 2.7V | 00:00:00 | 02:09:51 | 00:00:00 | |
| 9A1FER-3 | 2026-09-02 01:10:36 | 45.87462 | 16.86207 | 116° | 20km/h | 32964m | -25.0m/s | -38.3°C | 2.1% | 0hPa | 2.7V | 00:00:00 | 02:09:49 | 00:00:00 | |
| PETON7-10 | 2026-09-02 01:10:35 | 45.87466 | 16.86203 | 195° | 18km/h | 32995m | -38.2m/s | -38.2°C | 2.0% | 0hPa | 2.7V | 00:00:00 | 00:00:00 | 00:00:00 | |
| OE5DXL-15 | 2026-09-02 01:10:34 | 45.87473 | 16.86206 | 201° | 16km/h | 33031m | -33.7m/s | -38.4°C | 2.1% | 0hPa | 2.7V | 00:00:00 | 00:00:00 | 00:00:00 | |
| PG1ADW-2 | 2026-09-02 01:10:33 | 45.87480 | 16.86210 | 200° | 18km/h | 33061m | -25.6m/s | -38.6°C | 2.1% | 0hPa | 2.7V | 00:00:00 | 00:00:00 | 00:00:00 | |
| OE5DRO-10 | 2026-09-02 01:10:26 | 45.87514 | 16.86245 | 265° | 13km/h | 33074m | 5.2m/s | -38.7°C | 2.2% | 0hPa | 2.5V | 00:00:00 | 00:00:00 | 08:30:00 | |
| 9A1FER-3 | 2026-09-02 01:10:21 | 45.87516 | 16.86262 | 182° | 13km/h | 33049m | 4.7m/s | -38.7°C | 2.2% | 0hPa | 2.7V | 00:00:00 | 02:09:34 | 00:00:00 | |
| PETON7-10 | 2026-09-02 01:10:20 | 45.87519 | 16.86262 | 162° | 13km/h | 33045m | 4.9m/s | -38.7°C | 2.2% | 0hPa | 2.7V | 00:00:00 | 00:00:00 | 00:00:00 | |
| PG1ADW-2 | 2026-09-02 01:10:13 | 45.87546 | 16.86248 | 194° | 11km/h | 33008m | 4.2m/s | -38.6°C | 2.2% | 0hPa | 2.7V | 00:00:00 | 02:09:26 | 00:00:00 | |
| OE5DRO-10 | 2026-09-02 01:10:07 | 45.87544 | 16.86252 | 36° | 11km/h | 32978m | 5.3m/s | -38.6°C | 2.2% | 0hPa | 2.7V | 00:00:00 | 00:00:00 | 00:00:00 | |
| 9A1FER-3 | 2026-09-02 01:10:06 | 45.87543 | 16.86250 | 83° | 11km/h | 32972m | 5.2m/s | -38.7°C | 2.2% | 0hPa | 2.7V | 00:00:00 | 02:09:19 | 00:00:00 | |
| PETON7-10 | 2026-09-02 01:10:05 | 45.87543 | 16.86247 | 125° | 11km/h | 32967m | 4.8m/s | -38.7°C | 2.2% | 0hPa | 2.7V | 00:00:00 | 02:09:18 | 00:00:00 | |
| OE5DXL-15 | 2026-09-02 01:10:04 | 45.87545 | 16.86243 | 139° | 9km/h | 32963m | 4.5m/s | -38.7°C | 2.2% | 0hPa | 2.7V | 00:00:00 | 00:00:00 | 08:30:00 | |
| OE8JPQ-2 | 2026-09-02 01:10:00 | 45.87558 | 16.86227 | 126° | 9km/h | 32942m | 4.6m/s | -38.8°C | 2.2% | 0hPa | 2.6V | 00:00:00 | 00:00:00 | 00:00:00 | |
| PG1ADW-2 | 2026-09-02 01:09:53 | 45.87556 | 16.86228 | 2° | 7km/h | 32906m | 5.7m/s | -38.8°C | 2.2% | 0hPa | 2.6V | 00:00:00 | 00:00:00 | 00:00:00 | |
| 9A1FER-3 | 2026-09-02 01:09:51 | 45.87550 | 16.86225 | 42° | 7km/h | 32896m | 4.4m/s | -38.8°C | 2.2% | 0hPa | 2.6V | 00:00:00 | 02:09:04 | 00:00:00 | |
| PETON7-10 | 2026-09-02 01:09:50 | 45.87548 | 16.86221 | 54° | 5km/h | 32891m | 4.8m/s | -38.8°C | 2.2% | 0hPa | 2.6V | 00:00:00 | 00:00:00 | 00:00:00 | |
| 9A1FER-10 | 2026-09-02 01:09:49 | 45.87547 | 16.86218 | 69° | 5km/h | 32886m | 5.4m/s | -38.8°C | 2.2% | 0hPa | 2.7V | 00:00:00 | 02:09:02 | 00:00:00 | |
| OE5DRO-10 | 2026-09-02 01:09:48 | 45.87546 | 16.86215 | 104° | 5km/h | 32881m | 5.2m/s | -38.8°C | 2.2% | 0hPa | 2.6V | 00:00:00 | 00:00:00 | 00:00:00 | |
| OE8JPQ-2 | 2026-09-02 01:09:39 | 45.87541 | 16.86226 | 293° | 9km/h | 32835m | 5.3m/s | -38.9°C | 2.2% | 0hPa | 2.6V | 00:00:00 | 02:08:52 | 00:00:00 | |
| 9A1FER-3 | 2026-09-02 01:09:36 | 45.87540 | 16.86230 | 347° | 9km/h | 32821m | 5.7m/s | -38.9°C | 2.2% | 0hPa | 2.6V | 00:00:00 | 02:08:49 | 00:00:00 | |
| PETON7-10 | 2026-09-02 01:09:35 | 45.87539 | 16.86230 | 28° | 11km/h | 32815m | 4.8m/s | -39.0°C | 2.3% | 0hPa | 2.6V | 00:00:00 | 00:00:00 | 00:00:00 | |
| OE5DXL-15 | 2026-09-02 01:09:34 | 45.87539 | 16.86230 | 56° | 11km/h | 32811m | 4.7m/s | -39.0°C | 2.2% | 0hPa | 2.6V | 00:00:00 | 00:00:00 | 00:00:00 | |
| PG1ADW-2 | 2026-09-02 01:09:33 | 45.87539 | 16.86229 | 178° | 11km/h | 32805m | 5.4m/s | -39.0°C | 2.3% | 0hPa | 2.6V | 00:00:00 | 00:00:00 | 08:30:00 | |
| 9A1FER-3 | 2026-09-02 01:09:21 | 45.87525 | 16.86270 | 276° | 13km/h | 32745m | 4.5m/s | -38.7°C | 2.2% | 0hPa | 2.6V | 00:00:00 | 02:08:34 | 00:00:00 | |
| PETON7-10 | 2026-09-02 01:09:20 | 45.87525 | 16.86274 | 282° | 13km/h | 32740m | 5.0m/s | -38.7°C | 2.2% | 0hPa | 2.7V | 00:00:00 | 02:08:33 | 00:00:00 | |
| 9A1FER-10 | 2026-09-02 01:09:19 | 45.87524 | 16.86278 | 297° | 13km/h | 32735m | 5.7m/s | -38.6°C | 2.2% | 0hPa | 2.7V | 00:00:00 | 02:08:32 | 00:00:00 | |
| OE8JPQ-2 | 2026-09-02 01:09:18 | 45.87522 | 16.86281 | 309° | 13km/h | 32730m | 4.7m/s | -38.6°C | 2.2% | 0hPa | 2.7V | 00:00:00 | 00:00:00 | 08:30:00 | |
| PG1ADW-2 | 2026-09-02 01:09:13 | 45.87518 | 16.86297 | 275° | 13km/h | 32704m | 4.5m/s | -38.6°C | 2.2% | 0hPa | 2.5V | 00:00:00 | 00:00:00 | 00:00:00 | |
| OE5DRO-10 | 2026-09-02 01:09:10 | 45.87514 | 16.86310 | 308° | 13km/h | 32688m | 4.7m/s | -38.5°C | 2.2% | 0hPa | 2.5V | 00:00:00 | 00:00:00 | 00:00:00 | |
| 9A1FER-3 | 2026-09-02 01:09:06 | 45.87508 | 16.86329 | 254° | 13km/h | 32669m | 5.7m/s | -38.4°C | 2.2% | 0hPa | 2.5V | 00:00:00 | 02:08:19 | 00:00:00 | |
| PETON7-10 | 2026-09-02 01:09:05 | 45.87510 | 16.86333 | 236° | 13km/h | 32663m | 5.0m/s | -38.4°C | 2.2% | 0hPa | 2.5V | 00:00:00 | 00:00:00 | 08:30:00 | |
| OE5DXL-15 | 2026-09-02 01:09:04 | 45.87512 | 16.86337 | 227° | 13km/h | 32658m | 4.5m/s | -38.4°C | 2.2% | 0hPa | 2.7V | 00:00:00 | 00:00:00 | 00:00:00 | |
| OE8JPQ-2 | 2026-09-02 01:08:55 | 45.87516 | 16.86375 | 269° | 13km/h | 32612m | 5.0m/s | -38.1°C | 2.2% | 0hPa | 2.7V | 00:00:00 | 00:00:00 | 00:00:00 | |
| PG1ADW-2 | 2026-09-02 01:08:53 | 45.87515 | 16.86386 | 274° | 13km/h | 32601m | 5.1m/s | -38.1°C | 2.2% | 0hPa | 2.7V | 00:00:00 | 02:08:06 | 00:00:00 | |
| OE5DRO-10 | 2026-09-02 01:08:51 | 45.87517 | 16.86395 | 245° | 15km/h | 32591m | 5.5m/s | -38.0°C | 2.2% | 0hPa | 2.7V | 00:00:00 | 00:00:00 | 00:00:00 | |
| PETON7-10 | 2026-09-02 01:08:50 | 45.87519 | 16.86399 | 227° | 13km/h | 32585m | 6.2m/s | -38.0°C | 2.1% | 0hPa | 2.7V | 00:00:00 | 00:00:00 | 00:00:00 | |
| 9A1FER-10 | 2026-09-02 01:08:49 | 45.87522 | 16.86403 | 217° | 13km/h | 32579m | 5.0m/s | -38.0°C | 2.1% | 0hPa | 2.7V | 00:00:00 | 02:08:02 | 00:00:00 | |
| 9A1FER-3 | 2026-09-02 01:08:36 | 45.87542 | 16.86450 | 223° | 15km/h | 32510m | 5.3m/s | -37.9°C | 2.1% | 0hPa | 2.7V | 00:00:00 | 02:07:49 | 08:30:00 | |
| OE8JPQ-2 | 2026-09-02 01:08:35 | 45.87545 | 16.86453 | 208° | 18km/h | 32504m | 6.3m/s | -37.9°C | 2.1% | 0hPa | 2.6V | 00:00:00 | 02:07:48 | 00:00:00 | |
| OE5DXL-15 | 2026-09-02 01:08:34 | 45.87550 | 16.86456 | 200° | 15km/h | 32497m | 5.7m/s | -37.9°C | 2.1% | 0hPa | 2.6V | 00:00:00 | 00:00:00 | 00:00:00 | |
| PG1ADW-2 | 2026-09-02 01:08:33 | 45.87555 | 16.86458 | 197° | 16km/h | 32493m | 4.5m/s | -37.9°C | 2.1% | 0hPa | 2.5V | 00:00:00 | 00:00:00 | 00:00:00 | |
| OE5DRO-10 | 2026-09-02 01:08:32 | 45.87560 | 16.86460 | 197° | 15km/h | 32488m | 4.5m/s | -37.9°C | 2.1% | 0hPa | 2.5V | 00:00:00 | 00:00:00 | 00:00:00 | |
| 9A1FER-3 | 2026-09-02 01:08:21 | 45.87588 | 16.86492 | 194° | 13km/h | 32427m | 5.5m/s | -38.2°C | 2.1% | 0hPa | 2.7V | 00:00:00 | 02:07:34 | 00:00:00 | |
| PETON7-10 | 2026-09-02 01:08:20 | 45.87591 | 16.86492 | 183° | 13km/h | 32422m | 5.3m/s | -38.2°C | 2.1% | 0hPa | 2.7V | 00:00:00 | 00:00:00 | 00:00:00 | |
| 9A1FER-10 | 2026-09-02 01:08:19 | 45.87595 | 16.86492 | 173° | 13km/h | 32416m | 5.6m/s | -38.2°C | 2.1% | 0hPa | 2.7V | 00:00:00 | 02:07:32 | 00:00:00 | |
| PG1ADW-2 | 2026-09-02 01:08:13 | 45.87623 | 16.86483 | 162° | 11km/h | 32382m | 5.9m/s | -38.3°C | 2.1% | 0hPa | 2.5V | 00:00:00 | 00:00:00 | 00:00:00 | |
| 9A1FER-3 | 2026-09-02 01:08:06 | 45.87638 | 16.86478 | 177° | 13km/h | 32342m | 6.2m/s | -38.5°C | 2.2% | 0hPa | 2.5V | 00:00:00 | 02:07:19 | 00:00:00 | |
| PETON7-10 | 2026-09-02 01:08:05 | 45.87640 | 16.86478 | 181° | 13km/h | 32336m | 5.3m/s | -38.6°C | 2.2% | 0hPa | 2.5V | 00:00:00 | 00:00:00 | 00:00:00 | |
| OE5DXL-15 | 2026-09-02 01:08:04 | 45.87642 | 16.86478 | 186° | 15km/h | 32331m | 5.3m/s | -38.6°C | 2.2% | 0hPa | 2.5V | 00:00:00 | 00:00:00 | 00:00:00 | |
| OE5DRO-10 | 2026-09-02 01:07:54 | 45.87664 | 16.86459 | 81° | 15km/h | 32275m | 6.2m/s | -38.8°C | 2.2% | 0hPa | 2.5V | 00:00:00 | 00:00:00 | 00:00:00 | |
| PG1ADW-2 | 2026-09-02 01:07:53 | 45.87664 | 16.86455 | 102° | 15km/h | 32269m | 5.7m/s | -38.8°C | 2.2% | 0hPa | 2.5V | 00:00:00 | 00:00:00 | 00:00:00 | |
| 9A1FER-3 | 2026-09-02 01:07:51 | 45.87668 | 16.86447 | 125° | 15km/h | 32258m | 5.1m/s | -38.8°C | 2.2% | 0hPa | 2.5V | 00:00:00 | 02:07:04 | 00:00:00 | |
| PETON7-10 | 2026-09-02 01:07:50 | 45.87669 | 16.86442 | 126° | 15km/h | 32252m | 6.5m/s | -38.8°C | 2.2% | 0hPa | 2.5V | 00:00:00 | 02:07:03 | 00:00:00 | |
| 9A1FER-10 | 2026-09-02 01:07:49 | 45.87671 | 16.86438 | 124° | 15km/h | 32246m | 6.3m/s | -38.8°C | 2.3% | 0hPa | 2.5V | 00:00:00 | 02:07:02 | 00:00:00 | |
| OE3JTB-15 | 2026-09-02 01:07:39 | 45.87680 | 16.86395 | 55° | 11km/h | 32188m | 5.1m/s | -38.7°C | 2.2% | 0hPa | 2.5V | 00:00:00 | 00:00:00 | 00:00:00 | |
| 9A1FER-3 | 2026-09-02 01:07:36 | 45.87677 | 16.86380 | 116° | 11km/h | 32171m | 5.7m/s | -38.7°C | 2.2% | 0hPa | 2.7V | 00:00:00 | 02:06:49 | 00:00:00 | |
| PETON7-10 | 2026-09-02 01:07:35 | 45.87679 | 16.86377 | 138° | 11km/h | 32165m | 5.2m/s | -38.7°C | 2.2% | 0hPa | 2.7V | 00:00:00 | 00:00:00 | 00:00:00 | |
| OE5DXL-15 | 2026-09-02 01:07:34 | 45.87681 | 16.86374 | 147° | 9km/h | 32159m | 5.9m/s | -38.7°C | 2.2% | 0hPa | 2.7V | 00:00:00 | 00:00:00 | 00:00:00 | |
| 9A1FER-3 | 2026-09-02 01:07:21 | 45.87684 | 16.86332 | 20° | 9km/h | 32082m | 6.4m/s | -38.6°C | 2.2% | 0hPa | 2.7V | 00:00:00 | 02:06:34 | 00:00:00 | |
| PETON7-10 | 2026-09-02 01:07:20 | 45.87683 | 16.86332 | 234° | 9km/h | 32076m | 6.8m/s | -38.6°C | 2.2% | 0hPa | 2.7V | 00:00:00 | 00:00:00 | 00:00:00 | |
| 9A1FER-10 | 2026-09-02 01:07:19 | 45.87684 | 16.86333 | 215° | 9km/h | 32069m | 6.3m/s | -38.6°C | 2.2% | 0hPa | 2.7V | 00:00:00 | 02:06:32 | 00:00:00 | |
| OE5DRO-10 | 2026-09-02 01:07:16 | 45.87691 | 16.86339 | 202° | 11km/h | 32050m | 5.9m/s | -38.7°C | 2.2% | 0hPa | 2.7V | 00:00:00 | 00:00:00 | 00:00:00 | |
| PG1ADW-2 | 2026-09-02 01:07:13 | 45.87698 | 16.86337 | 148° | 13km/h | 32032m | 6.8m/s | -38.7°C | 2.2% | 0hPa | 2.7V | 00:00:00 | 00:00:00 | 00:00:00 | |
| OE3JTB-15 | 2026-09-02 01:07:10 | 45.87704 | 16.86326 | 101° | 13km/h | 32014m | 6.2m/s | -38.8°C | 2.2% | 0hPa | 2.7V | 00:00:00 | 00:00:00 | 00:00:00 | |
| 9A1FER-3 | 2026-09-02 01:07:06 | 45.87701 | 16.86316 | 277° | 13km/h | 31991m | 6.2m/s | -38.9°C | 2.2% | 0hPa | 2.7V | 00:00:00 | 02:06:19 | 00:00:00 | |
| PETON7-10 | 2026-09-02 01:07:05 | 45.87702 | 16.86317 | 216° | 13km/h | 31985m | 6.6m/s | -38.9°C | 2.2% | 0hPa | 2.7V | 00:00:00 | 02:06:18 | 00:00:00 | |
| 9A1FER-10 | 2026-09-02 01:07:04 | 45.87705 | 16.86319 | 212° | 13km/h | 31978m | 5.9m/s | -38.9°C | 2.2% | 0hPa | 2.7V | 00:00:00 | 02:06:17 | 00:00:00 | |
| OE5DRO-10 | 2026-09-02 01:06:57 | 45.87727 | 16.86340 | 194° | 13km/h | 31937m | 6.2m/s | -39.2°C | 2.2% | 0hPa | 2.7V | 00:00:00 | 00:00:00 | 00:00:00 | |
| PG1ADW-2 | 2026-09-02 01:06:53 | 45.87741 | 16.86338 | 163° | 13km/h | 31913m | 5.2m/s | -39.4°C | 2.2% | 0hPa | 2.7V | 00:00:00 | 00:00:00 | 00:00:00 | |
| 9A1FER-3 | 2026-09-02 01:06:51 | 45.87746 | 16.86336 | 168° | 13km/h | 31901m | 6.5m/s | -39.5°C | 2.2% | 0hPa | 2.7V | 00:00:00 | 02:06:04 | 00:00:00 | |
| PETON7-10 | 2026-09-02 01:06:50 | 45.87747 | 16.86336 | 191° | 13km/h | 31895m | 5.9m/s | -39.6°C | 2.2% | 0hPa | 2.7V | 00:00:00 | 00:00:00 | 08:30:00 | |
| 9A1FER-10 | 2026-09-02 01:06:49 | 45.87749 | 16.86336 | 200° | 13km/h | 31889m | 5.9m/s | -39.7°C | 2.3% | 0hPa | 2.5V | 00:00:00 | 02:06:02 | 08:30:00 | |
| OE3JTB-15 | 2026-09-02 01:06:41 | 45.87774 | 16.86330 | 119° | 18km/h | 31841m | 6.0m/s | -40.0°C | 2.3% | 0hPa | 2.5V | 00:00:00 | 02:05:54 | 00:00:00 | |
| OE5DRO-10 | 2026-09-02 01:06:38 | 45.87781 | 16.86312 | 125° | 18km/h | 31824m | 4.9m/s | -40.1°C | 2.3% | 0hPa | 2.5V | 00:00:00 | 00:00:00 | 00:00:00 | |
| 9A1FER-3 | 2026-09-02 01:06:36 | 45.87784 | 16.86306 | 114° | 18km/h | 31813m | 6.3m/s | -40.1°C | 2.3% | 0hPa | 2.7V | 00:00:00 | 02:05:49 | 00:00:00 | |
| PETON7-10 | 2026-09-02 01:06:35 | 45.87784 | 16.86304 | 78° | 20km/h | 31806m | 6.4m/s | -40.1°C | 2.3% | 0hPa | 2.7V | 00:00:00 | 00:00:00 | 00:00:00 | |
| 9A1FER-10 | 2026-09-02 01:06:34 | 45.87783 | 16.86302 | 65° | 20km/h | 31800m | 5.4m/s | -40.1°C | 2.3% | 0hPa | 2.7V | 00:00:00 | 02:05:47 | 00:00:00 | |
| NBG1-10 | 2026-09-02 01:06:33 | 45.87783 | 16.86299 | 84° | 22km/h | 31795m | 5.2m/s | 0°C | 0% | 0hPa | 2.7V | 00:00:00 | 02:05:46 | 00:00:00 | |
| 9A1FER-3 | 2026-09-02 01:06:21 | 45.87797 | 16.86211 | 92° | 22km/h | 31726m | 5.0m/s | -40.6°C | 2.3% | 0hPa | 2.7V | 00:00:00 | 02:05:34 | 08:30:00 | |
| PETON7-10 | 2026-09-02 01:06:20 | 45.87797 | 16.86204 | 97° | 24km/h | 31721m | 5.1m/s | -40.7°C | 2.3% | 0hPa | 2.7V | 00:00:00 | 02:05:33 | 00:00:00 | |
| 9A1FER-10 | 2026-09-02 01:06:19 | 45.87797 | 16.86199 | 95° | 24km/h | 31715m | 6.0m/s | -40.8°C | 2.4% | 0hPa | 2.7V | 00:00:00 | 02:05:32 | 00:00:00 | |
| OE8JPQ-2 | 2026-09-02 01:06:15 | 45.87793 | 16.86185 | 69° | 24km/h | 31693m | 5.5m/s | -41.3°C | 2.5% | 0hPa | 2.7V | 00:00:00 | 00:00:00 | 00:00:00 | |
| PG1ADW-2 | 2026-09-02 01:06:12 | 45.87791 | 16.86156 | 91° | 27km/h | 31675m | 5.3m/s | -41.5°C | 2.5% | 0hPa | 2.7V | 00:00:00 | 02:05:25 | 00:00:00 | |
| PETON7-10 | 2026-09-02 01:06:06 | 45.87774 | 16.86085 | 49° | 24km/h | 31635m | 5.1m/s | -41.3°C | 2.5% | 0hPa | 2.7V | 00:00:00 | 00:00:00 | 00:00:00 | |
| 9A1FER-10 | 2026-09-02 01:06:05 | 45.87770 | 16.86079 | 50° | 24km/h | 31629m | 6.4m/s | -41.2°C | 2.5% | 0hPa | 2.5V | 00:00:00 | 02:05:17 | 00:00:00 | |
| OE5DXL-15 | 2026-09-02 01:06:04 | 45.87770 | 16.86079 | 50° | 20km/h | 31629m | 6.4m/s | -41.2°C | 2.5% | 0hPa | 2.7V | 00:00:00 | 00:00:00 | 00:00:00 | |
| OE5DRO-10 | 2026-09-02 01:06:00 | 45.87762 | 16.86058 | 62° | 22km/h | 31607m | 6.0m/s | -41.2°C | 2.5% | 0hPa | 2.7V | 00:00:00 | 00:00:00 | 00:00:00 | |
| PG1ADW-2 | 2026-09-02 01:05:52 | 45.87727 | 16.85996 | 65° | 16km/h | 31562m | 5.5m/s | -41.0°C | 2.4% | 0hPa | 2.7V | 00:00:00 | 00:00:00 | 00:00:00 | |
| 9A1FER-3 | 2026-09-02 01:05:51 | 45.87725 | 16.85989 | 69° | 18km/h | 31556m | 6.7m/s | -41.0°C | 2.4% | 0hPa | 2.7V | 00:00:00 | 02:05:04 | 00:00:00 | |
| PETON7-10 | 2026-09-02 01:05:50 | 45.87723 | 16.85981 | 70° | 18km/h | 31550m | 5.5m/s | -40.9°C | 2.5% | 0hPa | 2.7V | 00:00:00 | 00:00:00 | 00:00:00 | |
| 9A1FER-10 | 2026-09-02 01:05:49 | 45.87721 | 16.85974 | 72° | 16km/h | 31545m | 4.8m/s | -40.9°C | 2.5% | 0hPa | 2.7V | 00:00:00 | 02:05:02 | 00:00:00 | |
| OE5DRO-10 | 2026-09-02 01:05:41 | 45.87697 | 16.85938 | 51° | 16km/h | 31501m | 4.4m/s | -40.7°C | 2.4% | 0hPa | 2.7V | 00:00:00 | 00:00:00 | 00:00:00 | |
| 9A1FER-3 | 2026-09-02 01:05:36 | 45.87690 | 16.85907 | 86° | 15km/h | 31475m | 5.6m/s | -40.7°C | 2.4% | 0hPa | 2.7V | 00:00:00 | 02:04:49 | 00:00:00 | |
| PETON7-10 | 2026-09-02 01:05:35 | 45.87689 | 16.85904 | 65° | 15km/h | 31469m | 5.3m/s | -40.7°C | 2.4% | 0hPa | 2.5V | 00:00:00 | 02:04:48 | 00:00:00 | |
| OE5DXL-15 | 2026-09-02 01:05:34 | 45.87688 | 16.85902 | 47° | 15km/h | 31464m | 5.1m/s | -40.7°C | 2.4% | 0hPa | 2.5V | 00:00:00 | 00:00:00 | 08:30:00 | |
| PG1ADW-2 | 2026-09-02 01:05:32 | 45.87684 | 16.85896 | 53° | 16km/h | 31453m | 5.3m/s | -40.7°C | 2.4% | 0hPa | 2.5V | 00:00:00 | 00:00:00 | 00:00:00 | |
| NBG1-10 | 2026-09-02 01:05:25 | 45.87662 | 16.85867 | 45° | 15km/h | 31416m | 4.9m/s | 0°C | 0% | 0hPa | 2.6V | 00:00:00 | 02:04:38 | 00:00:00 | |
| OE5DRO-10 | 2026-09-02 01:05:22 | 45.87656 | 16.85851 | 81° | 13km/h | 31399m | 5.9m/s | -41.0°C | 2.4% | 0hPa | 2.6V | 00:00:00 | 00:00:00 | 00:00:00 | |
| 9A1FER-3 | 2026-09-02 01:05:21 | 45.87656 | 16.85849 | 95° | 15km/h | 31393m | 5.4m/s | -41.1°C | 2.4% | 0hPa | 2.6V | 00:00:00 | 02:04:34 | 00:00:00 | |
| PETON7-10 | 2026-09-02 01:05:20 | 45.87656 | 16.85848 | 30° | 15km/h | 31388m | 5.2m/s | -41.1°C | 2.4% | 0hPa | 2.6V | 00:00:00 | 00:00:00 | 00:00:00 | |
| 9A1FER-10 | 2026-09-02 01:05:19 | 45.87655 | 16.85848 | 341° | 15km/h | 31383m | 5.4m/s | -41.2°C | 2.4% | 0hPa | 2.5V | 00:00:00 | 02:04:32 | 00:00:00 | |
| OE8JPQ-2 | 2026-09-02 01:05:14 | 45.87633 | 16.85843 | 28° | 11km/h | 31357m | 5.6m/s | -41.2°C | 2.4% | 0hPa | 2.7V | 00:00:00 | 00:00:00 | 00:00:00 | |
| PG1ADW-2 | 2026-09-02 01:05:12 | 45.87624 | 16.85836 | 29° | 11km/h | 31346m | 4.8m/s | -41.3°C | 2.4% | 0hPa | 2.7V | 00:00:00 | 00:00:00 | 00:00:00 | |
| OE3JTB-15 | 2026-09-02 01:05:11 | 45.87620 | 16.85833 | 23° | 9km/h | 31341m | 5.3m/s | -41.4°C | 2.5% | 0hPa | 2.7V | 00:00:00 | 00:00:00 | 00:00:00 | |
| 9A1FER-3 | 2026-09-02 01:05:06 | 45.87604 | 16.85830 | 4° | 9km/h | 31314m | 6.3m/s | -41.6°C | 2.5% | 0hPa | 2.7V | 00:00:00 | 02:04:19 | 00:00:00 | |
| PETON7-10 | 2026-09-02 01:05:05 | 45.87603 | 16.85830 | 33° | 9km/h | 31308m | 5.5m/s | -41.6°C | 2.5% | 0hPa | 2.7V | 00:00:00 | 00:00:00 | 00:00:00 | |
| OE5DXL-15 | 2026-09-02 01:05:04 | 45.87603 | 16.85830 | 56° | 9km/h | 31303m | 4.8m/s | -41.6°C | 2.5% | 0hPa | 2.7V | 00:00:00 | 00:00:00 | 00:00:00 | |
| OE5DRO-10 | 2026-09-02 01:05:03 | 45.87602 | 16.85829 | 19° | 9km/h | 31298m | 5.5m/s | -41.6°C | 2.5% | 0hPa | 2.7V | 00:00:00 | 00:00:00 | 00:00:00 | |
| PG1ADW-2 | 2026-09-02 01:04:52 | 45.87573 | 16.85837 | 355° | 9km/h | 31238m | 5.4m/s | -41.8°C | 2.5% | 0hPa | 2.7V | 00:00:00 | 02:04:05 | 00:00:00 | |
| 9A1FER-3 | 2026-09-02 01:04:51 | 45.87573 | 16.85836 | 92° | 9km/h | 31232m | 6.5m/s | -41.9°C | 2.5% | 0hPa | 2.7V | 00:00:00 | 02:04:04 | 00:00:00 | |
| PETON7-10 | 2026-09-02 01:04:50 | 45.87573 | 16.85834 | 116° | 9km/h | 31226m | 5.4m/s | -42.0°C | 2.5% | 0hPa | 2.5V | 00:00:00 | 02:04:03 | 00:00:00 | |
| 9A1FER-10 | 2026-09-02 01:04:49 | 45.87574 | 16.85832 | 109° | 9km/h | 31220m | 4.4m/s | -42.0°C | 2.5% | 0hPa | 2.5V | 00:00:00 | 02:04:02 | 00:00:00 | |
| OE8JPQ-2 | 2026-09-02 01:04:48 | 45.87574 | 16.85829 | 89° | 11km/h | 31216m | 5.1m/s | -42.1°C | 2.5% | 0hPa | 2.5V | 00:00:00 | 02:04:01 | 00:00:00 | |
| OE5DRO-10 | 2026-09-02 01:04:44 | 45.87566 | 16.85825 | 1° | 11km/h | 31194m | 6.3m/s | -42.2°C | 2.5% | 0hPa | 2.5V | 00:00:00 | 00:00:00 | 08:30:00 | |
| OE3JTB-15 | 2026-09-02 01:04:42 | 45.87560 | 16.85826 | 338° | 11km/h | 31183m | 4.6m/s | -42.3°C | 2.6% | 0hPa | 2.6V | 00:00:00 | 02:03:55 | 00:00:00 | |
| LZ4TU-5 | 2026-09-02 01:04:40 | 45.87558 | 16.85827 | 325° | 11km/h | 31178m | 5.1m/s | 0°C | 0% | 0hPa | 2.6V | 00:00:00 | 00:00:00 | 00:00:00 | |
| 9A1FER-3 | 2026-09-02 01:04:36 | 45.87550 | 16.85840 | 131° | 9km/h | 31152m | 6.3m/s | -42.5°C | 2.6% | 0hPa | 2.6V | 00:00:00 | 02:03:49 | 00:00:00 | |
| PETON7-10 | 2026-09-02 01:04:35 | 45.87551 | 16.85839 | 119° | 11km/h | 31146m | 6.3m/s | -42.5°C | 2.6% | 0hPa | 2.6V | 00:00:00 | 00:00:00 | 08:30:00 | |
| OE5DXL-15 | 2026-09-02 01:04:34 | 45.87552 | 16.85835 | 113° | 9km/h | 31140m | 5.3m/s | -42.5°C | 2.6% | 0hPa | 2.5V | 00:00:00 | 00:00:00 | 00:00:00 | |
| PG1ADW-2 | 2026-09-02 01:04:32 | 45.87554 | 16.85823 | 90° | 11km/h | 31130m | 6.1m/s | -42.5°C | 2.6% | 0hPa | 2.5V | 00:00:00 | 00:00:00 | 00:00:00 | |
| OE8JPQ-2 | 2026-09-02 01:04:27 | 45.87546 | 16.85812 | 335° | 9km/h | 31103m | 5.5m/s | -42.6°C | 2.7% | 0hPa | 2.5V | 00:00:00 | 00:00:00 | 00:00:00 | |
| OE5DRO-10 | 2026-09-02 01:04:25 | 45.87545 | 16.85816 | 275° | 9km/h | 31092m | 5.4m/s | -42.7°C | 2.6% | 0hPa | 2.5V | 00:00:00 | 00:00:00 | 00:00:00 | |
| 9A1FER-3 | 2026-09-02 01:04:21 | 45.87546 | 16.85828 | 215° | 7km/h | 31071m | 5.8m/s | -42.7°C | 2.6% | 0hPa | 2.5V | 00:00:00 | 02:03:34 | 00:00:00 | |
| PETON7-10 | 2026-09-02 01:04:20 | 45.87547 | 16.85828 | 162° | 7km/h | 31065m | 6.2m/s | -42.7°C | 2.7% | 0hPa | 2.5V | 00:00:00 | 00:00:00 | 00:00:00 | |
| 9A1FER-10 | 2026-09-02 01:04:15 | 45.87552 | 16.85805 | 68° | 5km/h | 31038m | 4.6m/s | -42.6°C | 2.6% | 0hPa | 2.5V | 00:00:00 | 02:03:28 | 00:00:00 | |
| OE3JTB-15 | 2026-09-02 01:04:13 | 45.87549 | 16.85799 | 60° | 7km/h | 31027m | 6.1m/s | -42.5°C | 2.6% | 0hPa | 2.5V | 00:00:00 | 00:00:00 | 00:00:00 | |
| PG1ADW-2 | 2026-09-02 01:04:12 | 45.87549 | 16.85797 | 80° | 5km/h | 31021m | 5.7m/s | -42.5°C | 2.6% | 0hPa | 2.5V | 00:00:00 | 00:00:00 | 00:00:00 | |
| OE5DRO-10 | 2026-09-02 01:04:06 | 45.87551 | 16.85800 | 141° | 9km/h | 30987m | 6.4m/s | -42.4°C | 2.6% | 0hPa | 2.5V | 00:00:00 | 00:00:00 | 00:00:00 | |
| PETON7-10 | 2026-09-02 01:04:05 | 45.87552 | 16.85798 | 131° | 7km/h | 30981m | 5.3m/s | -42.4°C | 2.6% | 0hPa | 2.5V | 00:00:00 | 02:03:18 | 00:00:00 | |
| OE5DXL-15 | 2026-09-02 01:04:04 | 45.87553 | 16.85795 | 119° | 11km/h | 30977m | 4.6m/s | -42.3°C | 2.6% | 0hPa | 2.5V | 00:00:00 | 00:00:00 | 00:00:00 | |
| PG1ADW-2 | 2026-09-02 01:03:52 | 45.87563 | 16.85795 | 203° | 15km/h | 30912m | 5.3m/s | -42.5°C | 2.6% | 0hPa | 2.6V | 00:00:00 | 00:00:00 | 00:00:00 | |
| 9A1FER-3 | 2026-09-02 01:03:51 | 45.87566 | 16.85797 | 196° | 15km/h | 30906m | 6.4m/s | -42.4°C | 2.6% | 0hPa | 2.6V | 00:00:00 | 02:03:04 | 00:00:00 | |
| PETON7-10 | 2026-09-02 01:03:50 | 45.87570 | 16.85798 | 191° | 15km/h | 30900m | 5.4m/s | -42.4°C | 2.7% | 0hPa | 2.6V | 00:00:00 | 00:00:00 | 00:00:00 | |
| OE5DRO-10 | 2026-09-02 01:03:47 | 45.87580 | 16.85802 | 211° | 13km/h | 30884m | 6.6m/s | -42.4°C | 2.6% | 0hPa | 2.5V | 00:00:00 | 00:00:00 | 00:00:00 | |
| OE3JTB-15 | 2026-09-02 01:03:44 | 45.87584 | 16.85808 | 226° | 15km/h | 30867m | 5.6m/s | -42.3°C | 2.6% | 0hPa | 2.5V | 00:00:00 | 00:00:00 | 00:00:00 | |
| OE8JPQ-2 | 2026-09-02 01:03:43 | 45.87586 | 16.85810 | 205° | 13km/h | 30861m | 6.2m/s | -42.3°C | 2.6% | 0hPa | 2.5V | 00:00:00 | 02:02:56 | 00:00:00 | |
| 9A1FER-3 | 2026-09-02 01:03:36 | 45.87618 | 16.85810 | 164° | 13km/h | 30821m | 5.6m/s | -42.1°C | 2.6% | 0hPa | 2.5V | 00:00:00 | 02:02:49 | 00:00:00 | |
| PETON7-10 | 2026-09-02 01:03:35 | 45.87623 | 16.85808 | 160° | 13km/h | 30816m | 4.4m/s | -42.1°C | 2.6% | 0hPa | 2.5V | 00:00:00 | 00:00:00 | 00:00:00 | |
| OE5DXL-15 | 2026-09-02 01:03:34 | 45.87627 | 16.85805 | 156° | 13km/h | 30811m | 4.8m/s | -42.1°C | 2.6% | 0hPa | 2.5V | 00:00:00 | 00:00:00 | 00:00:00 | |
| PG1ADW-2 | 2026-09-02 01:03:32 | 45.87631 | 16.85801 | 140° | 11km/h | 30799m | 6.0m/s | -42.0°C | 2.6% | 0hPa | 2.5V | 00:00:00 | 02:02:45 | 08:30:00 | |
| 9A1FER-10 | 2026-09-02 01:03:29 | 45.87634 | 16.85800 | 184° | 13km/h | 30781m | 5.7m/s | -42.0°C | 2.6% | 0hPa | 2.5V | 00:00:00 | 02:02:42 | 00:00:00 | |
| OE5DRO-10 | 2026-09-02 01:03:28 | 45.87636 | 16.85801 | 182° | 13km/h | 30776m | 4.8m/s | -42.0°C | 2.6% | 0hPa | 2.5V | 00:00:00 | 00:00:00 | 00:00:00 | |
| OE8JPQ-2 | 2026-09-02 01:03:23 | 45.87655 | 16.85795 | 160° | 15km/h | 30748m | 6.4m/s | -41.9°C | 0% | 0hPa | 2.5V | 00:00:00 | 00:00:00 | 08:30:00 | |
| PETON7-10 | 2026-09-02 01:03:20 | 45.87669 | 16.85783 | 137° | 13km/h | 30732m | 5.9m/s | -41.8°C | 2.6% | 0hPa | 2.6V | 00:00:00 | 02:02:33 | 00:00:00 | |
| OE3JTB-15 | 2026-09-02 01:03:15 | 45.87673 | 16.85770 | 156° | 18km/h | 30704m | 5.7m/s | -41.7°C | 2.5% | 0hPa | 2.6V | 00:00:00 | 02:02:28 | 00:00:00 | |
| 9A1FER-10 | 2026-09-02 01:03:14 | 45.87674 | 16.85770 | 176° | 15km/h | 30699m | 4.8m/s | -41.7°C | 2.5% | 0hPa | 2.6V | 00:00:00 | 02:02:27 | 00:00:00 | |
| PG1ADW-2 | 2026-09-02 01:03:12 | 45.87678 | 16.85768 | 155° | 16km/h | 30688m | 6.2m/s | -41.7°C | 2.5% | 0hPa | 2.6V | 00:00:00 | 00:00:00 | 00:00:00 | |
| OE5DRO-10 | 2026-09-02 01:03:09 | 45.87683 | 16.85758 | 119° | 18km/h | 30672m | 4.8m/s | -41.7°C | 2.5% | 0hPa | 2.6V | 00:00:00 | 00:00:00 | 00:00:00 | |
| 9A1FER-3 | 2026-09-02 01:03:06 | 45.87693 | 16.85739 | 133° | 16km/h | 30654m | 5.3m/s | -41.8°C | 2.5% | 0hPa | 2.6V | 00:00:00 | 02:02:19 | 00:00:00 | |
| PETON7-10 | 2026-09-02 01:03:05 | 45.87697 | 16.85733 | 131° | 18km/h | 30649m | 4.6m/s | -41.8°C | 2.5% | 0hPa | 2.6V | 00:00:00 | 00:00:00 | 00:00:00 | |
| OE5DXL-15 | 2026-09-02 01:03:04 | 45.87700 | 16.85727 | 121° | 18km/h | 30644m | 6.0m/s | -41.8°C | 2.5% | 0hPa | 2.5V | 00:00:00 | 00:00:00 | 00:00:00 | |
| OE8JPQ-2 | 2026-09-02 01:03:03 | 45.87701 | 16.85721 | 104° | 18km/h | 30638m | 6.0m/s | 0°C | 0% | 0hPa | 2.5V | 00:00:00 | 00:00:00 | 00:00:00 | |
| 9A1FER-10 | 2026-09-02 01:02:59 | 45.87701 | 16.85707 | 95° | 20km/h | 30614m | 5.1m/s | -42.0°C | 2.5% | 0hPa | 2.5V | 00:00:00 | 02:02:12 | 00:00:00 | |
| PG1ADW-2 | 2026-09-02 01:02:52 | 45.87715 | 16.85667 | 128° | 22km/h | 30575m | 5.3m/s | -42.2°C | 2.5% | 0hPa | 2.7V | 00:00:00 | 00:00:00 | 00:00:00 | |
| 9A1FER-3 | 2026-09-02 01:02:51 | 45.87719 | 16.85658 | 123° | 20km/h | 30569m | 5.4m/s | -42.2°C | 2.5% | 0hPa | 2.7V | 00:00:00 | 02:02:04 | 00:00:00 | |
| PETON7-10 | 2026-09-02 01:02:50 | 45.87723 | 16.85648 | 114° | 20km/h | 30564m | 5.7m/s | -42.3°C | 2.5% | 0hPa | 2.7V | 00:00:00 | 00:00:00 | 00:00:00 | |
| OE3JTB-15 | 2026-09-02 01:02:46 | 45.87726 | 16.85614 | 86° | 24km/h | 30542m | 5.9m/s | -42.3°C | 2.5% | 0hPa | 2.7V | 00:00:00 | 00:00:00 | 00:00:00 | |
| 9A1FER-10 | 2026-09-02 01:02:44 | 45.87725 | 16.85605 | 60° | 22km/h | 30531m | 5.7m/s | -42.3°C | 2.5% | 0hPa | 2.5V | 00:00:00 | 02:01:57 | 00:00:00 | |
| OE8JPQ-2 | 2026-09-02 01:02:43 | 45.87723 | 16.85601 | 50° | 24km/h | 30524m | 6.5m/s | 0°C | 0% | 0hPa | 2.5V | 00:00:00 | 02:01:56 | 00:00:00 | |
| PETON7-10 | 2026-09-02 01:02:35 | 45.87725 | 16.85545 | 96° | 27km/h | 30480m | 5.6m/s | -42.7°C | 2.6% | 0hPa | 2.5V | 00:00:00 | 02:01:48 | 00:00:00 | |
| OE5DXL-15 | 2026-09-02 01:02:34 | 45.87725 | 16.85535 | 83° | 24km/h | 30475m | 4.9m/s | -42.7°C | 2.6% | 0hPa | 2.5V | 00:00:00 | 00:00:00 | 00:00:00 | |
| PG1ADW-2 | 2026-09-02 01:02:32 | 45.87721 | 16.85517 | 64° | 24km/h | 30464m | 6.5m/s | -42.8°C | 2.6% | 0hPa | 2.5V | 00:00:00 | 00:00:00 | 00:00:00 | |
| OE5DRO-10 | 2026-09-02 01:02:31 | 45.87718 | 16.85510 | 53° | 24km/h | 30457m | 5.6m/s | -42.9°C | 2.6% | 0hPa | 2.6V | 00:00:00 | 00:00:00 | 00:00:00 | |
| 9A1FER-10 | 2026-09-02 01:02:29 | 45.87709 | 16.85499 | 32° | 24km/h | 30446m | 6.0m/s | -42.9°C | 2.6% | 0hPa | 2.6V | 00:00:00 | 02:01:42 | 00:00:00 | |
| OE8JPQ-2 | 2026-09-02 01:02:23 | 45.87689 | 16.85456 | 101° | 26km/h | 30414m | 5.4m/s | 0°C | 0% | 0hPa | 2.6V | 00:00:00 | 00:00:00 | 00:00:00 | |
| PETON7-10 | 2026-09-02 01:02:21 | 45.87694 | 16.85421 | 94° | 22km/h | 30398m | 5.1m/s | -43.2°C | 2.7% | 0hPa | 2.6V | 00:00:00 | 00:00:00 | 08:30:00 | |
| OE3JTB-15 | 2026-09-02 01:02:16 | 45.87688 | 16.85393 | 41° | 24km/h | 30375m | 6.0m/s | -43.4°C | 2.7% | 0hPa | 2.5V | 00:00:00 | 00:00:00 | 00:00:00 | |
| 9A1FER-10 | 2026-09-02 01:02:14 | 45.87683 | 16.85390 | 12° | 24km/h | 30365m | 5.4m/s | -43.4°C | 2.7% | 0hPa | 2.5V | 00:00:00 | 02:01:27 | 08:30:00 | |
| PG1ADW-2 | 2026-09-02 01:02:12 | 45.87676 | 16.85386 | 33° | 26km/h | 30353m | 5.0m/s | -43.5°C | 2.7% | 0hPa | 2.5V | 00:00:00 | 02:01:25 | 00:00:00 | |
| 9A1FER-3 | 2026-09-02 01:02:06 | 45.87666 | 16.85334 | 84° | 26km/h | 30320m | 6.2m/s | -43.6°C | 2.8% | 0hPa | 2.5V | 00:00:00 | 02:01:19 | 00:00:00 | |
| PETON7-10 | 2026-09-02 01:02:05 | 45.87664 | 16.85321 | 76° | 26km/h | 30314m | 5.5m/s | -43.6°C | 2.8% | 0hPa | 2.5V | 00:00:00 | 00:00:00 | 00:00:00 | |
| OE5DXL-15 | 2026-09-02 01:02:04 | 45.87662 | 16.85311 | 67° | 27km/h | 30309m | 4.9m/s | -43.5°C | 2.8% | 0hPa | 2.5V | 00:00:00 | 00:00:00 | 00:00:00 | |
| OE8JPQ-2 | 2026-09-02 01:02:03 | 45.87658 | 16.85301 | 60° | 26km/h | 30304m | 5.5m/s | 0°C | 0% | 0hPa | 2.5V | 00:00:00 | 00:00:00 | 00:00:00 | |
| 9A1FER-10 | 2026-09-02 01:01:59 | 45.87642 | 16.85281 | 22° | 26km/h | 30281m | 6.7m/s | -43.4°C | 2.7% | 0hPa | 2.5V | 00:00:00 | 02:01:12 | 00:00:00 | |
| OE5DRO-10 | 2026-09-02 01:01:53 | 45.87615 | 16.85251 | 73° | 27km/h | 30248m | 4.4m/s | -43.6°C | 2.7% | 0hPa | 2.5V | 00:00:00 | 00:00:00 | 08:30:00 | |
| PG1ADW-2 | 2026-09-02 01:01:52 | 45.87613 | 16.85242 | 73° | 27km/h | 30243m | 5.2m/s | -43.6°C | 2.7% | 0hPa | 2.7V | 00:00:00 | 00:00:00 | 00:00:00 | |
| 9A1FER-3 | 2026-09-02 01:01:51 | 45.87611 | 16.85234 | 66° | 29km/h | 30237m | 6.2m/s | -43.6°C | 2.7% | 0hPa | 2.7V | 00:00:00 | 02:01:04 | 08:30:00 | |
| PETON7-10 | 2026-09-02 01:01:50 | 45.87607 | 16.85224 | 58° | 29km/h | 30231m | 5.5m/s | -43.7°C | 2.7% | 0hPa | 2.5V | 00:00:00 | 02:01:03 | 00:00:00 | |
| OE3JTB-15 | 2026-09-02 01:01:47 | 45.87593 | 16.85201 | 38° | 26km/h | 30214m | 5.9m/s | -43.9°C | 2.8% | 0hPa | 2.5V | 00:00:00 | 02:01:00 | 00:00:00 | |
| 9A1FER-10 | 2026-09-02 01:01:44 | 45.87575 | 16.85191 | 10° | 29km/h | 30197m | 6.3m/s | -43.9°C | 2.8% | 0hPa | 2.5V | 00:00:00 | 02:00:57 | 00:00:00 | |
| OE8JPQ-2 | 2026-09-02 01:01:41 | 45.87551 | 16.85186 | 10° | 26km/h | 30180m | 5.8m/s | 0°C | 0% | 0hPa | 2.5V | 00:00:00 | 02:00:54 | 00:00:00 | |
| 9A1FER-3 | 2026-09-02 01:01:36 | 45.87519 | 16.85168 | 26° | 26km/h | 30151m | 5.0m/s | -43.8°C | 2.8% | 0hPa | 2.5V | 00:00:00 | 02:00:49 | 00:00:00 | |
| PETON7-10 | 2026-09-02 01:01:35 | 45.87512 | 16.85163 | 23° | 24km/h | 30147m | 4.3m/s | -43.8°C | 2.8% | 0hPa | 2.5V | 00:00:00 | 00:00:00 | 00:00:00 | |
| OE5DXL-15 | 2026-09-02 01:01:34 | 45.87505 | 16.85159 | 21° | 20km/h | 30142m | 5.8m/s | -43.8°C | 2.8% | 0hPa | 2.5V | 00:00:00 | 00:00:00 | 00:00:00 | |
| 9A1FER-10 | 2026-09-02 01:01:29 | 45.87474 | 16.85156 | 350° | 20km/h | 30113m | 4.8m/s | -43.7°C | 2.8% | 0hPa | 2.5V | 00:00:00 | 02:00:42 | 00:00:00 | |
| 9A1FER-3 | 2026-09-02 01:01:21 | 45.87430 | 16.85148 | 36° | 16km/h | 30069m | 4.6m/s | -43.6°C | 2.8% | 0hPa | 2.7V | 00:00:00 | 02:00:34 | 00:00:00 | |
| PETON7-10 | 2026-09-02 01:01:20 | 45.87426 | 16.85143 | 39° | 16km/h | 30064m | 6.1m/s | -43.6°C | 2.8% | 0hPa | 2.7V | 00:00:00 | 00:00:00 | 00:00:00 | |
| OE3JTB-15 | 2026-09-02 01:01:18 | 45.87419 | 16.85136 | 29° | 13km/h | 30052m | 5.0m/s | -43.6°C | 2.8% | 0hPa | 2.7V | 00:00:00 | 00:00:00 | 08:30:00 | |
| OE5DRO-10 | 2026-09-02 01:01:15 | 45.87406 | 16.85135 | 347° | 13km/h | 30035m | 5.2m/s | -43.5°C | 2.8% | 0hPa | 2.5V | 00:00:00 | 00:00:00 | 00:00:00 | |
| PG1ADW-2 | 2026-09-02 01:01:12 | 45.87391 | 16.85143 | 339° | 13km/h | 30019m | 5.8m/s | -43.4°C | 2.7% | 0hPa | 2.5V | 00:00:00 | 00:00:00 | 00:00:00 | |
| 9A1FER-10 | 2026-09-02 01:01:11 | 45.87388 | 16.85144 | 358° | 11km/h | 30014m | 4.8m/s | -43.4°C | 2.7% | 0hPa | 2.5V | 00:00:00 | 02:00:24 | 00:00:00 | |
| LZ4TU-5 | 2026-09-02 01:01:10 | 45.87388 | 16.85144 | 359° | 9km/h | 30014m | 4.8m/s | 0°C | 0% | 0hPa | 2.5V | 00:00:00 | 00:00:00 | 00:00:00 | |
| 9A1FER-3 | 2026-09-02 01:01:06 | 45.87377 | 16.85130 | 44° | 13km/h | 29986m | 4.7m/s | -43.4°C | 2.8% | 0hPa | 2.5V | 00:00:00 | 02:00:19 | 00:00:00 | |
| PETON7-10 | 2026-09-02 01:01:05 | 45.87375 | 16.85127 | 42° | 13km/h | 29981m | 5.8m/s | -43.5°C | 2.8% | 0hPa | 2.5V | 00:00:00 | 02:00:18 | 00:00:00 | |
| OE5DXL-15 | 2026-09-02 01:01:04 | 45.87374 | 16.85126 | 33° | 11km/h | 29975m | 5.9m/s | -43.4°C | 2.8% | 0hPa | 2.5V | 00:00:00 | 00:00:00 | 08:30:00 | |
| OE5DRO-10 | 2026-09-02 01:00:57 | 45.87355 | 16.85140 | 316° | 11km/h | 29928m | 5.3m/s | -43.3°C | 2.8% | 0hPa | 2.7V | 00:00:00 | 00:00:00 | 00:00:00 | |
| OE8JPQ-2 | 2026-09-02 01:00:56 | 45.87355 | 16.85140 | 316° | 11km/h | 29928m | 5.3m/s | 0°C | 0% | 0hPa | 2.7V | 00:00:00 | 00:00:00 | 00:00:00 | |
| PG1ADW-2 | 2026-09-02 01:00:52 | 45.87341 | 16.85153 | 336° | 11km/h | 29905m | 4.6m/s | -43.2°C | 2.8% | 0hPa | 2.7V | 00:00:00 | 02:00:05 | 00:00:00 | |
| 9A1FER-3 | 2026-09-02 01:00:51 | 45.87338 | 16.85156 | 326° | 9km/h | 29900m | 6.1m/s | -43.2°C | 2.7% | 0hPa | 2.7V | 00:00:00 | 02:00:04 | 00:00:00 | |
| PETON7-10 | 2026-09-02 01:00:50 | 45.87336 | 16.85158 | 302° | 9km/h | 29894m | 6.1m/s | -43.1°C | 2.7% | 0hPa | 2.7V | 00:00:00 | 00:00:00 | 00:00:00 | |
| OE3JTB-15 | 2026-09-02 01:00:49 | 45.87336 | 16.85161 | 276° | 13km/h | 29888m | 5.2m/s | -43.1°C | 2.7% | 0hPa | 2.5V | 00:00:00 | 00:00:00 | 00:00:00 | |
| 9A1FER-10 | 2026-09-02 01:00:41 | 45.87339 | 16.85175 | 259° | 15km/h | 29841m | 5.6m/s | -43.3°C | 2.8% | 0hPa | 2.5V | 00:00:00 | 01:59:54 | 00:00:00 | |
| OE5DRO-10 | 2026-09-02 01:00:37 | 45.87335 | 16.85196 | 294° | 15km/h | 29818m | 5.2m/s | -43.2°C | 2.8% | 0hPa | 2.5V | 00:00:00 | 00:00:00 | 00:00:00 | |
| 9A1FER-3 | 2026-09-02 01:00:36 | 45.87333 | 16.85203 | 284° | 15km/h | 29812m | 6.4m/s | -43.2°C | 2.8% | 0hPa | 2.5V | 00:00:00 | 01:59:49 | 00:00:00 | |
| PETON7-10 | 2026-09-02 01:00:35 | 45.87333 | 16.85209 | 271° | 15km/h | 29806m | 5.4m/s | -43.2°C | 2.7% | 0hPa | 2.5V | 00:00:00 | 00:00:00 | 00:00:00 | |
| OE5DXL-15 | 2026-09-02 01:00:34 | 45.87333 | 16.85215 | 259° | 15km/h | 29801m | 4.6m/s | -43.2°C | 2.8% | 0hPa | 2.5V | 00:00:00 | 00:00:00 | 00:00:00 | |
| OE8JPQ-2 | 2026-09-02 01:00:33 | 45.87334 | 16.85221 | 252° | 13km/h | 29796m | 5.9m/s | 0°C | 0% | 0hPa | 2.5V | 00:00:00 | 01:59:46 | 00:00:00 | |
| PG1ADW-2 | 2026-09-02 01:00:32 | 45.87336 | 16.85225 | 248° | 15km/h | 29790m | 6.2m/s | -43.1°C | 2.7% | 0hPa | 2.5V | 00:00:00 | 00:00:00 | 08:30:00 | |
| 9A1FER-10 | 2026-09-02 01:00:26 | 45.87354 | 16.85238 | 209° | 15km/h | 29756m | 5.2m/s | -43.0°C | 2.7% | 0hPa | 2.7V | 00:00:00 | 01:59:39 | 00:00:00 | |
| 9A1FER-3 | 2026-09-02 01:00:22 | 45.87361 | 16.85261 | 265° | 15km/h | 29726m | 6.3m/s | -43.1°C | 2.7% | 0hPa | 2.7V | 00:00:00 | 01:59:34 | 00:00:00 | |
| PETON7-10 | 2026-09-02 01:00:20 | 45.87362 | 16.85267 | 264° | 15km/h | 29720m | 5.0m/s | -43.1°C | 2.7% | 0hPa | 2.5V | 00:00:00 | 01:59:33 | 00:00:00 | |
| OE5DRO-10 | 2026-09-02 01:00:18 | 45.87363 | 16.85278 | 261° | 16km/h | 29709m | 6.3m/s | -43.1°C | 2.7% | 0hPa | 2.5V | 00:00:00 | 00:00:00 | 00:00:00 | |
| OE8JPQ-2 | 2026-09-02 01:00:12 | 45.87381 | 16.85284 | 174° | 18km/h | 29674m | 5.5m/s | 0°C | 0% | 0hPa | 2.5V | 00:00:00 | 00:00:00 | 00:00:00 | |
| 9A1FER-10 | 2026-09-02 01:00:11 | 45.87386 | 16.85283 | 178° | 20km/h | 29668m | 6.0m/s | -43.1°C | 2.7% | 0hPa | 2.5V | 00:00:00 | 01:59:24 | 00:00:00 | |
| 9A1FER-3 | 2026-09-02 01:00:06 | 45.87396 | 16.85301 | 254° | 20km/h | 29638m | 5.7m/s | -43.0°C | 2.7% | 0hPa | 2.5V | 00:00:00 | 01:59:19 | 00:00:00 | |
| PETON7-10 | 2026-09-02 01:00:05 | 45.87398 | 16.85308 | 257° | 20km/h | 29632m | 6.4m/s | -43.0°C | 2.7% | 0hPa | 2.5V | 00:00:00 | 00:00:00 | 08:30:00 | |
| OE5DXL-15 | 2026-09-02 01:00:04 | 45.87399 | 16.85315 | 255° | 18km/h | 29626m | 5.3m/s | -43.0°C | 2.7% | 0hPa | 2.6V | 00:00:00 | 00:00:00 | 00:00:00 | |
| OE5DRO-10 | 2026-09-02 00:59:59 | 45.87420 | 16.85336 | 193° | 18km/h | 29598m | 5.6m/s | -42.9°C | 2.7% | 0hPa | 2.6V | 00:00:00 | 00:00:00 | 00:00:00 | |
| 9A1FER-10 | 2026-09-02 00:59:56 | 45.87437 | 16.85339 | 187° | 16km/h | 29581m | 4.6m/s | -42.9°C | 2.7% | 0hPa | 2.5V | 00:00:00 | 01:59:09 | 08:30:00 | |
| PG1ADW-2 | 2026-09-02 00:59:52 | 45.87448 | 16.85353 | 241° | 16km/h | 29559m | 4.9m/s | -42.9°C | 2.7% | 0hPa | 2.5V | 00:00:00 | 00:00:00 | 00:00:00 | |
| 9A1FER-3 | 2026-09-02 00:59:51 | 45.87450 | 16.85358 | 242° | 16km/h | 29553m | 5.0m/s | -42.9°C | 2.6% | 0hPa | 2.5V | 00:00:00 | 01:59:04 | 00:00:00 | |
| PETON7-10 | 2026-09-02 00:59:50 | 45.87452 | 16.85364 | 241° | 16km/h | 29548m | 6.1m/s | -42.8°C | 2.7% | 0hPa | 2.5V | 00:00:00 | 00:00:00 | 00:00:00 | |
| 9A1FER-10 | 2026-09-02 00:59:41 | 45.87488 | 16.85382 | 187° | 13km/h | 29495m | 5.2m/s | -42.9°C | 2.7% | 0hPa | 2.5V | 00:00:00 | 01:58:54 | 00:00:00 | |
| OE5DRO-10 | 2026-09-02 00:59:40 | 45.87492 | 16.85383 | 190° | 11km/h | 29489m | 5.0m/s | -42.9°C | 2.7% | 0hPa | 2.5V | 00:00:00 | 00:00:00 | 00:00:00 | |
| 9A1FER-3 | 2026-09-02 00:59:36 | 45.87508 | 16.85392 | 209° | 11km/h | 29467m | 5.2m/s | -42.9°C | 2.7% | 0hPa | 2.5V | 00:00:00 | 01:58:49 | 08:30:00 | |
| PETON7-10 | 2026-09-02 00:59:35 | 45.87510 | 16.85393 | 201° | 9km/h | 29461m | 6.9m/s | -42.9°C | 2.7% | 0hPa | 2.5V | 00:00:00 | 01:58:48 | 00:00:00 | |
| OE5DXL-15 | 2026-09-02 00:59:34 | 45.87512 | 16.85394 | 177° | 7km/h | 29454m | 5.8m/s | -42.9°C | 2.6% | 0hPa | 2.5V | 00:00:00 | 00:00:00 | 00:00:00 | |
| PG1ADW-2 | 2026-09-02 00:59:32 | 45.87515 | 16.85393 | 178° | 9km/h | 29442m | 6.6m/s | -42.8°C | 2.6% | 0hPa | 2.7V | 00:00:00 | 01:58:45 | 00:00:00 | |
| 9A1FER-10 | 2026-09-02 00:59:26 | 45.87532 | 16.85386 | 149° | 9km/h | 29409m | 5.3m/s | -42.9°C | 2.6% | 0hPa | 2.7V | 00:00:00 | 01:58:39 | 00:00:00 | |
| OE3JTB-15 | 2026-09-02 00:59:22 | 45.87542 | 16.85386 | 219° | 9km/h | 29385m | 5.7m/s | -43.2°C | 2.6% | 0hPa | 2.7V | 00:00:00 | 00:00:00 | 00:00:00 | |
| OE5DRO-10 | 2026-09-02 00:59:21 | 45.87542 | 16.85388 | 257° | 7km/h | 29379m | 6.6m/s | -43.2°C | 2.6% | 0hPa | 2.7V | 00:00:00 | 00:00:00 | 00:00:00 | |
| PETON7-10 | 2026-09-02 00:59:20 | 45.87542 | 16.85388 | 19° | 5km/h | 29373m | 5.5m/s | -43.3°C | 2.6% | 0hPa | 2.7V | 00:00:00 | 00:00:00 | 00:00:00 | |
| PG1ADW-2 | 2026-09-02 00:59:12 | 45.87543 | 16.85367 | 111° | 11km/h | 29328m | 5.5m/s | -43.9°C | 2.7% | 0hPa | 2.5V | 00:00:00 | 00:00:00 | 00:00:00 | |
| 9A1FER-10 | 2026-09-02 00:59:10 | 45.87546 | 16.85364 | 195° | 9km/h | 29316m | 5.1m/s | -44.0°C | 2.8% | 0hPa | 2.5V | 00:00:00 | 01:58:23 | 00:00:00 | |
| 9A1FER-3 | 2026-09-02 00:59:06 | 45.87547 | 16.85365 | 58° | 13km/h | 29295m | 5.0m/s | -44.2°C | 2.8% | 0hPa | 2.6V | 00:00:00 | 01:58:19 | 00:00:00 | |
| PETON7-10 | 2026-09-02 00:59:05 | 45.87546 | 16.85362 | 70° | 13km/h | 29289m | 6.0m/s | -44.2°C | 2.8% | 0hPa | 2.6V | 00:00:00 | 00:00:00 | 00:00:00 | |
| OE5DXL-15 | 2026-09-02 00:59:04 | 45.87545 | 16.85358 | 78° | 15km/h | 29283m | 6.3m/s | -44.2°C | 2.8% | 0hPa | 2.6V | 00:00:00 | 00:00:00 | 00:00:00 | |
| OE5DRO-10 | 2026-09-02 00:59:02 | 45.87544 | 16.85349 | 74° | 15km/h | 29271m | 5.2m/s | -44.3°C | 2.8% | 0hPa | 2.6V | 00:00:00 | 00:00:00 | 08:30:00 | |
| OE3JTB-15 | 2026-09-02 00:58:53 | 45.87523 | 16.85349 | 320° | 15km/h | 29221m | 5.4m/s | -44.6°C | 2.9% | 0hPa | 2.7V | 00:00:00 | 01:58:06 | 00:00:00 | |
| PG1ADW-2 | 2026-09-02 00:58:52 | 45.87521 | 16.85350 | 360° | 15km/h | 29215m | 5.1m/s | -44.7°C | 2.9% | 0hPa | 2.7V | 00:00:00 | 00:00:00 | 00:00:00 | |
| 9A1FER-3 | 2026-09-02 00:58:51 | 45.87520 | 16.85349 | 50° | 15km/h | 29210m | 5.0m/s | -44.7°C | 2.9% | 0hPa | 2.7V | 00:00:00 | 01:58:04 | 00:00:00 | |
| PETON7-10 | 2026-09-02 00:58:50 | 45.87519 | 16.85346 | 79° | 16km/h | 29204m | 6.2m/s | -44.7°C | 2.9% | 0hPa | 2.5V | 00:00:00 | 01:58:03 | 00:00:00 | |
| OE5DRO-10 | 2026-09-02 00:58:43 | 45.87516 | 16.85300 | 73° | 16km/h | 29163m | 6.0m/s | -44.7°C | 2.9% | 0hPa | 2.5V | 00:00:00 | 00:00:00 | 00:00:00 | |
| LZ4TU-5 | 2026-09-02 00:58:38 | 45.87511 | 16.85277 | 62° | 15km/h | 29135m | 5.9m/s | 0°C | 0% | 0hPa | 2.5V | 00:00:00 | 00:00:00 | 00:00:00 | |
| 9A1FER-3 | 2026-09-02 00:58:36 | 45.87507 | 16.85267 | 69° | 16km/h | 29123m | 6.6m/s | -44.8°C | 2.9% | 0hPa | 2.5V | 00:00:00 | 01:57:49 | 00:00:00 | |
| PETON7-10 | 2026-09-02 00:58:35 | 45.87506 | 16.85262 | 75° | 16km/h | 29117m | 5.5m/s | -44.8°C | 2.9% | 0hPa | 2.5V | 00:00:00 | 00:00:00 | 00:00:00 | |
| OE5DXL-15 | 2026-09-02 00:58:34 | 45.87505 | 16.85257 | 71° | 16km/h | 29112m | 4.9m/s | -44.7°C | 3.0% | 0hPa | 2.6V | 00:00:00 | 00:00:00 | 00:00:00 | |
| LZ4TU-5 | 2026-09-02 00:58:33 | 45.87503 | 16.85252 | 60° | 16km/h | 29106m | 6.6m/s | 0°C | 0% | 0hPa | 2.6V | 00:00:00 | 00:00:00 | 00:00:00 | |
| PG1ADW-2 | 2026-09-02 00:58:32 | 45.87501 | 16.85247 | 46° | 16km/h | 29100m | 6.2m/s | -44.7°C | 2.9% | 0hPa | 2.6V | 00:00:00 | 00:00:00 | 00:00:00 | |
| OE5DRO-10 | 2026-09-02 00:58:24 | 45.87473 | 16.85221 | 38° | 16km/h | 29054m | 5.3m/s | -44.5°C | 2.9% | 0hPa | 2.5V | 00:00:00 | 00:00:00 | 00:00:00 | |
| 9A1FER-3 | 2026-09-02 00:58:21 | 45.87466 | 16.85208 | 66° | 16km/h | 29037m | 4.8m/s | -44.5°C | 2.9% | 0hPa | 2.5V | 00:00:00 | 01:57:34 | 00:00:00 | |
| PETON7-10 | 2026-09-02 00:58:20 | 45.87464 | 16.85203 | 57° | 16km/h | 29032m | 6.0m/s | -44.5°C | 2.9% | 0hPa | 2.5V | 00:00:00 | 00:00:00 | 00:00:00 | |
| PG1ADW-2 | 2026-09-02 00:58:12 | 45.87436 | 16.85194 | 5° | 22km/h | 28987m | 5.8m/s | -44.4°C | 2.9% | 0hPa | 2.5V | 00:00:00 | 01:57:25 | 00:00:00 | |
| 9A1FER-3 | 2026-09-02 00:58:06 | 45.87412 | 16.85175 | 40° | 24km/h | 28953m | 6.5m/s | -44.7°C | 2.9% | 0hPa | 2.5V | 00:00:00 | 01:57:19 | 00:00:00 | |
| PETON7-10 | 2026-09-02 00:58:05 | 45.87407 | 16.85170 | 32° | 24km/h | 28947m | 5.1m/s | -44.7°C | 2.9% | 0hPa | 2.7V | 00:00:00 | 01:57:18 | 00:00:00 | |
| OE5DXL-15 | 2026-09-02 00:58:04 | 45.87403 | 16.85167 | 28° | 24km/h | 28942m | 4.9m/s | -44.7°C | 2.9% | 0hPa | 2.7V | 00:00:00 | 00:00:00 | 00:00:00 | |
| OE3JTB-15 | 2026-09-02 00:57:55 | 45.87348 | 16.85167 | 2° | 22km/h | 28891m | 5.7m/s | -44.7°C | 2.8% | 0hPa | 2.6V | 00:00:00 | 00:00:00 | 00:00:00 | |
| PG1ADW-2 | 2026-09-02 00:57:52 | 45.87332 | 16.85164 | 14° | 22km/h | 28874m | 5.6m/s | -44.7°C | 2.9% | 0hPa | 2.6V | 00:00:00 | 00:00:00 | 00:00:00 | |
| 9A1FER-3 | 2026-09-02 00:57:51 | 45.87326 | 16.85162 | 14° | 22km/h | 28869m | 4.7m/s | -44.7°C | 2.8% | 0hPa | 2.6V | 00:00:00 | 01:57:04 | 00:00:00 | |
| PETON7-10 | 2026-09-02 00:57:50 | 45.87320 | 16.85160 | 13° | 22km/h | 28864m | 5.2m/s | -44.7°C | 2.8% | 0hPa | 2.6V | 00:00:00 | 00:00:00 | 08:30:00 | |
| OE5DRO-10 | 2026-09-02 00:57:46 | 45.87301 | 16.85157 | 357° | 22km/h | 28840m | 6.2m/s | -44.8°C | 2.8% | 0hPa | 2.7V | 00:00:00 | 00:00:00 | 00:00:00 | |
| 9A1FER-3 | 2026-09-02 00:57:36 | 45.87244 | 16.85146 | 44° | 22km/h | 28787m | 6.2m/s | -45.0°C | 2.8% | 0hPa | 2.7V | 00:00:00 | 01:56:49 | 00:00:00 | |
| 9A1FER-10 | 2026-09-02 00:57:35 | 45.87240 | 16.85140 | 57° | 11km/h | 28781m | 6.0m/s | -45.1°C | 2.8% | 0hPa | 2.7V | 00:00:00 | 01:56:48 | 00:00:00 | |
| OE5DXL-15 | 2026-09-02 00:57:34 | 45.87238 | 16.85133 | 63° | 18km/h | 28776m | 4.6m/s | -45.1°C | 2.8% | 0hPa | 2.7V | 00:00:00 | 00:00:00 | 00:00:00 | |
| PG1ADW-2 | 2026-09-02 00:57:32 | 45.87232 | 16.85121 | 48° | 18km/h | 28765m | 5.8m/s | -45.3°C | 2.8% | 0hPa | 2.7V | 00:00:00 | 00:00:00 | 08:30:00 | |
| OE5DRO-10 | 2026-09-02 00:57:27 | 45.87210 | 16.85108 | 8° | 18km/h | 28738m | 4.7m/s | -45.8°C | 3.0% | 0hPa | 2.7V | 00:00:00 | 00:00:00 | 00:00:00 | |
| OE3JTB-15 | 2026-09-02 00:57:26 | 45.87203 | 16.85108 | 3° | 16km/h | 28733m | 6.4m/s | -45.9°C | 3.0% | 0hPa | 2.7V | 00:00:00 | 01:56:39 | 00:00:00 | |
| 9A1FER-3 | 2026-09-02 00:57:21 | 45.87174 | 16.85108 | 11° | 16km/h | 28705m | 4.4m/s | -46.1°C | 3.1% | 0hPa | 2.7V | 00:00:00 | 01:56:34 | 08:30:00 | |
| PETON7-10 | 2026-09-02 00:57:20 | 45.87171 | 16.85107 | 12° | 16km/h | 28701m | 4.9m/s | -46.1°C | 3.0% | 0hPa | 2.5V | 00:00:00 | 01:56:33 | 00:00:00 | |
| PG1ADW-2 | 2026-09-02 00:57:12 | 45.87140 | 16.85108 | 351° | 13km/h | 28657m | 6.3m/s | -46.4°C | 3.1% | 0hPa | 2.5V | 00:00:00 | 00:00:00 | 00:00:00 | |
| OE5DRO-10 | 2026-09-02 00:57:08 | 45.87121 | 16.85112 | 7° | 11km/h | 28635m | 4.7m/s | -46.6°C | 3.2% | 0hPa | 2.5V | 00:00:00 | 00:00:00 | 00:00:00 | |
| 9A1FER-3 | 2026-09-02 00:57:06 | 45.87115 | 16.85110 | 17° | 11km/h | 28626m | 6.2m/s | -46.7°C | 3.2% | 0hPa | 2.5V | 00:00:00 | 01:56:19 | 00:00:00 | |
| PETON7-10 | 2026-09-02 00:57:05 | 45.87112 | 16.85109 | 10° | 11km/h | 28620m | 5.3m/s | -46.7°C | 3.2% | 0hPa | 2.5V | 00:00:00 | 00:00:00 | 00:00:00 | |
| OE5DXL-15 | 2026-09-02 00:57:04 | 45.87109 | 16.85109 | 3° | 9km/h | 28615m | 4.7m/s | -46.7°C | 3.2% | 0hPa | 2.7V | 00:00:00 | 00:00:00 | 00:00:00 | |
| OE3JTB-15 | 2026-09-02 00:56:57 | 45.87092 | 16.85119 | 318° | 9km/h | 28577m | 4.5m/s | -46.7°C | 3.2% | 0hPa | 2.7V | 00:00:00 | 00:00:00 | 08:30:00 | |
| PG1ADW-2 | 2026-09-02 00:56:52 | 45.87083 | 16.85129 | 12° | 7km/h | 28551m | 6.3m/s | -46.6°C | 3.1% | 0hPa | 2.5V | 00:00:00 | 01:56:05 | 00:00:00 | |
| 9A1FER-3 | 2026-09-02 00:56:51 | 45.87081 | 16.85128 | 29° | 7km/h | 28545m | 5.2m/s | -46.6°C | 3.1% | 0hPa | 2.5V | 00:00:00 | 01:56:04 | 00:00:00 | |
| PETON7-10 | 2026-09-02 00:56:50 | 45.87080 | 16.85126 | 45° | 7km/h | 28540m | 4.5m/s | -46.6°C | 3.2% | 0hPa | 2.5V | 00:00:00 | 00:00:00 | 00:00:00 | |
| OE5DRO-10 | 2026-09-02 00:56:49 | 45.87078 | 16.85124 | 64° | 7km/h | 28534m | 6.2m/s | -46.5°C | 3.1% | 0hPa | 2.5V | 00:00:00 | 00:00:00 | 00:00:00 | |
| 9A1FER-10 | 2026-09-02 00:56:42 | 45.87083 | 16.85130 | 234° | 11km/h | 28495m | 5.1m/s | -46.6°C | 3.1% | 0hPa | 2.5V | 00:00:00 | 01:55:55 | 08:30:00 | |
| 9A1FER-3 | 2026-09-02 00:56:36 | 45.87088 | 16.85134 | 123° | 15km/h | 28463m | 5.5m/s | -47.0°C | 3.2% | 0hPa | 2.5V | 00:00:00 | 01:55:49 | 00:00:00 | |
| PETON7-10 | 2026-09-02 00:56:35 | 45.87090 | 16.85131 | 123° | 16km/h | 28458m | 4.7m/s | -47.0°C | 3.2% | 0hPa | 2.5V | 00:00:00 | 01:55:48 | 00:00:00 | |
| OE5DXL-15 | 2026-09-02 00:56:34 | 45.87092 | 16.85127 | 122° | 13km/h | 28452m | 6.1m/s | -47.0°C | 3.2% | 0hPa | 2.5V | 00:00:00 | 00:00:00 | 08:30:00 | |
| PG1ADW-2 | 2026-09-02 00:56:32 | 45.87095 | 16.85123 | 160° | 15km/h | 28442m | 4.3m/s | -47.1°C | 3.2% | 0hPa | 2.7V | 00:00:00 | 00:00:00 | 00:00:00 | |
| OE5DRO-10 | 2026-09-02 00:56:30 | 45.87100 | 16.85123 | 188° | 15km/h | 28431m | 6.2m/s | -47.1°C | 3.2% | 0hPa | 2.6V | 00:00:00 | 00:00:00 | 00:00:00 | |
| OE3JTB-15 | 2026-09-02 00:56:28 | 45.87111 | 16.85125 | 186° | 11km/h | 28421m | 4.0m/s | -47.1°C | 3.2% | 0hPa | 2.6V | 00:00:00 | 00:00:00 | 00:00:00 | |
| 9A1FER-10 | 2026-09-02 00:56:27 | 45.87116 | 16.85125 | 184° | 15km/h | 28417m | 5.0m/s | -47.1°C | 3.2% | 0hPa | 2.6V | 00:00:00 | 01:55:40 | 00:00:00 | |
| 9A1FER-3 | 2026-09-02 00:56:21 | 45.87140 | 16.85117 | 153° | 9km/h | 28385m | 4.3m/s | -47.0°C | 3.2% | 0hPa | 2.6V | 00:00:00 | 01:55:34 | 00:00:00 | |
| PETON7-10 | 2026-09-02 00:56:20 | 45.87144 | 16.85114 | 152° | 9km/h | 28380m | 6.0m/s | -46.9°C | 3.2% | 0hPa | 2.6V | 00:00:00 | 00:00:00 | 00:00:00 | |
| 9A1FER-10 | 2026-09-02 00:56:12 | 45.87166 | 16.85112 | 224° | 4km/h | 28334m | 5.2m/s | -46.9°C | 3.1% | 0hPa | 2.7V | 00:00:00 | 01:55:25 | 00:00:00 | |
| OE5DRO-10 | 2026-09-02 00:56:11 | 45.87167 | 16.85114 | 216° | 5km/h | 28329m | 5.1m/s | -46.9°C | 3.1% | 0hPa | 2.7V | 00:00:00 | 00:00:00 | 08:30:00 | |
| 9A1FER-3 | 2026-09-02 00:56:06 | 45.87172 | 16.85112 | 75° | 5km/h | 28301m | 5.4m/s | -47.1°C | 3.1% | 0hPa | 2.5V | 00:00:00 | 01:55:19 | 00:00:00 | |
| PETON7-10 | 2026-09-02 00:56:05 | 45.87172 | 16.85110 | 77° | 5km/h | 28295m | 4.8m/s | -47.1°C | 3.1% | 0hPa | 2.5V | 00:00:00 | 00:00:00 | 00:00:00 | |
| OE5DXL-15 | 2026-09-02 00:56:04 | 45.87172 | 16.85108 | 98° | 4km/h | 28290m | 6.4m/s | -47.2°C | 3.2% | 0hPa | 2.5V | 00:00:00 | 00:00:00 | 00:00:00 | |
| LZ4TU-5 | 2026-09-02 00:56:01 | 45.87173 | 16.85106 | 129° | 4km/h | 28279m | 4.7m/s | 0°C | 0% | 0hPa | 2.5V | 00:00:00 | 00:00:00 | 00:00:00 | |
| OE3JTB-15 | 2026-09-02 00:55:59 | 45.87172 | 16.85105 | 4° | 5km/h | 28262m | 4.9m/s | -47.5°C | 3.2% | 0hPa | 2.5V | 00:00:00 | 01:55:12 | 00:00:00 | |
| PG1ADW-2 | 2026-09-02 00:55:52 | 45.87162 | 16.85100 | 21° | 4km/h | 28224m | 5.7m/s | -47.8°C | 3.3% | 0hPa | 2.5V | 00:00:00 | 00:00:00 | 00:00:00 | |
| 9A1FER-3 | 2026-09-02 00:55:51 | 45.87160 | 16.85099 | 33° | 4km/h | 28218m | 5.9m/s | -47.9°C | 3.3% | 0hPa | 2.5V | 00:00:00 | 01:55:04 | 00:00:00 | |
| PETON7-10 | 2026-09-02 00:55:50 | 45.87159 | 16.85098 | 53° | 4km/h | 28212m | 5.3m/s | -48.0°C | 3.3% | 0hPa | 2.5V | 00:00:00 | 01:55:03 | 00:00:00 | |
| 9A1FER-10 | 2026-09-02 00:55:42 | 45.87161 | 16.85096 | 82° | 7km/h | 28167m | 6.5m/s | -48.1°C | 3.3% | 0hPa | 2.5V | 00:00:00 | 01:54:55 | 00:00:00 | |
| 9A1FER-3 | 2026-09-02 00:55:36 | 45.87153 | 16.85091 | 353° | 9km/h | 28132m | 6.3m/s | -48.3°C | 3.4% | 0hPa | 2.5V | 00:00:00 | 01:54:49 | 00:00:00 | |
| PETON7-10 | 2026-09-02 00:55:35 | 45.87152 | 16.85092 | 343° | 9km/h | 28127m | 4.7m/s | -48.3°C | 3.4% | 0hPa | 2.5V | 00:00:00 | 00:00:00 | 08:30:00 | |
| OE5DXL-15 | 2026-09-02 00:55:34 | 45.87151 | 16.85092 | 299° | 13km/h | 28122m | 4.8m/s | -48.3°C | 3.4% | 0hPa | 2.7V | 00:00:00 | 00:00:00 | 00:00:00 | |
| OE5DRO-10 | 2026-09-02 00:55:33 | 45.87152 | 16.85093 | 201° | 11km/h | 28116m | 6.6m/s | -48.3°C | 3.4% | 0hPa | 2.7V | 00:00:00 | 00:00:00 | 00:00:00 | |
| PG1ADW-2 | 2026-09-02 00:55:32 | 45.87154 | 16.85093 | 183° | 13km/h | 28110m | 5.5m/s | -48.2°C | 3.4% | 0hPa | 2.7V | 00:00:00 | 01:54:45 | 00:00:00 | |
| OE3JTB-15 | 2026-09-02 00:55:30 | 45.87160 | 16.85092 | 168° | 15km/h | 28100m | 6.2m/s | -48.1°C | 3.4% | 0hPa | 2.5V | 00:00:00 | 00:00:00 | 00:00:00 | |
| 9A1FER-10 | 2026-09-02 00:55:27 | 45.87166 | 16.85086 | 114° | 13km/h | 28083m | 5.4m/s | -48.1°C | 3.3% | 0hPa | 2.5V | 00:00:00 | 01:54:40 | 00:00:00 | |
| 9A1FER-3 | 2026-09-02 00:55:21 | 45.87169 | 16.85064 | 69° | 15km/h | 28049m | 5.5m/s | -48.1°C | 3.3% | 0hPa | 2.5V | 00:00:00 | 01:54:34 | 00:00:00 | |
| PETON7-10 | 2026-09-02 00:55:20 | 45.87169 | 16.85061 | 79° | 15km/h | 28043m | 5.2m/s | -48.1°C | 3.3% | 0hPa | 2.5V | 00:00:00 | 00:00:00 | 00:00:00 | |
| OE5DRO-10 | 2026-09-02 00:55:14 | 45.87175 | 16.85034 | 99° | 18km/h | 28010m | 5.2m/s | -48.4°C | 3.4% | 0hPa | 2.5V | 00:00:00 | 00:00:00 | 00:00:00 | |
| 9A1FER-10 | 2026-09-02 00:55:12 | 45.87176 | 16.85022 | 106° | 20km/h | 27999m | 6.4m/s | -48.4°C | 3.4% | 0hPa | 2.7V | 00:00:00 | 01:54:25 | 00:00:00 | |
| 9A1FER-3 | 2026-09-02 00:55:06 | 45.87173 | 16.84987 | 62° | 18km/h | 27966m | 5.3m/s | -48.3°C | 3.4% | 0hPa | 2.7V | 00:00:00 | 01:54:19 | 08:30:00 | |
| PETON7-10 | 2026-09-02 00:55:05 | 45.87171 | 16.84981 | 67° | 18km/h | 27960m | 6.3m/s | -48.3°C | 3.4% | 0hPa | 2.5V | 00:00:00 | 01:54:18 | 00:00:00 | |
| OE5DXL-15 | 2026-09-02 00:55:04 | 45.87170 | 16.84975 | 75° | 15km/h | 27955m | 4.8m/s | -48.3°C | 3.4% | 0hPa | 2.5V | 00:00:00 | 00:00:00 | 00:00:00 | |
| OE3JTB-15 | 2026-09-02 00:55:01 | 45.87167 | 16.84954 | 78° | 13km/h | 27938m | 6.1m/s | -48.3°C | 3.4% | 0hPa | 2.5V | 00:00:00 | 00:00:00 | 00:00:00 | |
| 9A1FER-10 | 2026-09-02 00:54:57 | 45.87164 | 16.84918 | 88° | 13km/h | 27915m | 5.4m/s | -48.3°C | 3.5% | 0hPa | 2.5V | 00:00:00 | 01:54:10 | 00:00:00 | |
| OE5DRO-10 | 2026-09-02 00:54:55 | 45.87162 | 16.84906 | 71° | 11km/h | 27904m | 6.3m/s | -48.4°C | 3.5% | 0hPa | 2.5V | 00:00:00 | 00:00:00 | 00:00:00 | |
| PG1ADW-2 | 2026-09-02 00:54:52 | 45.87157 | 16.84893 | 57° | 9km/h | 27887m | 6.2m/s | -48.3°C | 3.5% | 0hPa | 2.5V | 00:00:00 | 00:00:00 | 00:00:00 | |
| 9A1FER-3 | 2026-09-02 00:54:51 | 45.87155 | 16.84890 | 68° | 9km/h | 27881m | 6.0m/s | -48.3°C | 3.5% | 0hPa | 2.5V | 00:00:00 | 01:54:04 | 00:00:00 | |
| PETON7-10 | 2026-09-02 00:54:50 | 45.87154 | 16.84885 | 76° | 9km/h | 27875m | 5.3m/s | -48.2°C | 3.5% | 0hPa | 2.5V | 00:00:00 | 00:00:00 | 00:00:00 | |
| 9A1FER-10 | 2026-09-02 00:54:42 | 45.87149 | 16.84852 | 16° | 7km/h | 27829m | 6.3m/s | -48.0°C | 3.4% | 0hPa | 2.5V | 00:00:00 | 01:53:55 | 00:00:00 | |
| 9A1FER-3 | 2026-09-02 00:54:36 | 45.87142 | 16.84855 | 48° | 9km/h | 27793m | 6.2m/s | -47.8°C | 3.4% | 0hPa | 2.5V | 00:00:00 | 01:53:49 | 00:00:00 | |
| PETON7-10 | 2026-09-02 00:54:35 | 45.87140 | 16.84853 | 66° | 9km/h | 27788m | 5.4m/s | -47.8°C | 3.3% | 0hPa | 2.5V | 00:00:00 | 00:00:00 | 00:00:00 | |
| OE5DXL-15 | 2026-09-02 00:54:34 | 45.87140 | 16.84849 | 81° | 9km/h | 27782m | 5.3m/s | -47.8°C | 3.4% | 0hPa | 2.5V | 00:00:00 | 00:00:00 | 00:00:00 | |
| PG1ADW-2 | 2026-09-02 00:54:32 | 45.87140 | 16.84842 | 116° | 9km/h | 27770m | 4.8m/s | -47.7°C | 3.3% | 0hPa | 2.5V | 00:00:00 | 00:00:00 | 08:30:00 | |
| 9A1FER-10 | 2026-09-02 00:54:27 | 45.87142 | 16.84839 | 278° | 11km/h | 27742m | 6.4m/s | -47.6°C | 3.3% | 0hPa | 2.7V | 00:00:00 | 01:53:40 | 08:30:00 | |
| 9A1FER-3 | 2026-09-02 00:54:21 | 45.87134 | 16.84852 | 33° | 9km/h | 27708m | 5.4m/s | -47.7°C | 3.3% | 0hPa | 2.7V | 00:00:00 | 01:53:34 | 00:00:00 | |
| PETON7-10 | 2026-09-02 00:54:20 | 45.87132 | 16.84850 | 58° | 9km/h | 27702m | 6.9m/s | -47.7°C | 3.3% | 0hPa | 2.5V | 00:00:00 | 01:53:33 | 00:00:00 | |
| OE5DRO-10 | 2026-09-02 00:54:17 | 45.87130 | 16.84836 | 81° | 11km/h | 27685m | 6.2m/s | -47.8°C | 3.4% | 0hPa | 2.5V | 00:00:00 | 00:00:00 | 00:00:00 | |
| PG1ADW-2 | 2026-09-02 00:54:12 | 45.87127 | 16.84825 | 264° | 9km/h | 27656m | 5.7m/s | -48.0°C | 3.4% | 0hPa | 2.7V | 00:00:00 | 01:53:25 | 00:00:00 | |
| 9A1FER-3 | 2026-09-02 00:54:06 | 45.87120 | 16.84830 | 72° | 9km/h | 27623m | 5.3m/s | -48.0°C | 3.4% | 0hPa | 2.7V | 00:00:00 | 01:53:19 | 00:00:00 | |
| PETON7-10 | 2026-09-02 00:54:05 | 45.87119 | 16.84825 | 76° | 11km/h | 27618m | 5.7m/s | -48.0°C | 3.4% | 0hPa | 2.7V | 00:00:00 | 00:00:00 | 00:00:00 | |
| OE5DXL-15 | 2026-09-02 00:54:04 | 45.87118 | 16.84820 | 70° | 9km/h | 27611m | 6.7m/s | -48.0°C | 3.4% | 0hPa | 2.5V | 00:00:00 | 00:00:00 | 00:00:00 | |
| OE3JTB-15 | 2026-09-02 00:54:03 | 45.87116 | 16.84814 | 63° | 9km/h | 27605m | 5.7m/s | -48.0°C | 3.4% | 0hPa | 2.5V | 00:00:00 | 00:00:00 | 00:00:00 | |
| OE5DRO-10 | 2026-09-02 00:53:58 | 45.87108 | 16.84792 | 18° | 7km/h | 27578m | 6.0m/s | -48.0°C | 3.4% | 0hPa | 2.5V | 00:00:00 | 00:00:00 | 00:00:00 | |
| 9A1FER-10 | 2026-09-02 00:53:57 | 45.87106 | 16.84792 | 348° | 7km/h | 27572m | 5.7m/s | -48.0°C | 3.4% | 0hPa | 2.5V | 00:00:00 | 01:53:10 | 00:00:00 | |
| PG1ADW-2 | 2026-09-02 00:53:52 | 45.87101 | 16.84796 | 10° | 7km/h | 27544m | 6.0m/s | -47.9°C | 3.4% | 0hPa | 2.5V | 00:00:00 | 00:00:00 | 00:00:00 | |
| PETON7-10 | 2026-09-02 00:53:50 | 45.87097 | 16.84794 | 21° | 7km/h | 27533m | 5.0m/s | -47.9°C | 3.4% | 0hPa | 2.5V | 00:00:00 | 00:00:00 | 00:00:00 | |
| 9A1FER-10 | 2026-09-02 00:53:42 | 45.87084 | 16.84782 | 55° | 7km/h | 27487m | 5.0m/s | -47.9°C | 3.4% | 0hPa | 2.5V | 00:00:00 | 01:52:55 | 00:00:00 | |
| OE5DRO-10 | 2026-09-02 00:53:39 | 45.87079 | 16.84776 | 24° | 7km/h | 27470m | 5.2m/s | -47.9°C | 3.4% | 0hPa | 2.5V | 00:00:00 | 00:00:00 | 00:00:00 | |
| 9A1FER-3 | 2026-09-02 00:53:35 | 45.87072 | 16.84773 | 11° | 7km/h | 27449m | 4.7m/s | -47.9°C | 3.4% | 0hPa | 2.5V | 00:00:00 | 01:52:48 | 00:00:00 | |
| OE5DXL-15 | 2026-09-02 00:53:34 | 45.87071 | 16.84773 | 351° | 7km/h | 27444m | 6.0m/s | -47.9°C | 3.4% | 0hPa | 2.5V | 00:00:00 | 00:00:00 | 00:00:00 | |
| PG1ADW-2 | 2026-09-02 00:53:32 | 45.87068 | 16.84774 | 345° | 7km/h | 27431m | 5.4m/s | -47.9°C | 3.4% | 0hPa | 2.7V | 00:00:00 | 00:00:00 | 00:00:00 | |
| 9A1FER-10 | 2026-09-02 00:53:27 | 45.87060 | 16.84775 | 12° | 7km/h | 27404m | 6.2m/s | -47.9°C | 3.4% | 0hPa | 2.7V | 00:00:00 | 01:52:40 | 00:00:00 | |
| OE5DRO-10 | 2026-09-02 00:53:20 | 45.87048 | 16.84767 | 20° | 7km/h | 27365m | 5.0m/s | -47.9°C | 3.3% | 0hPa | 2.7V | 00:00:00 | 00:00:00 | 08:30:00 | |
| PG1ADW-2 | 2026-09-02 00:53:12 | 45.87035 | 16.84756 | 30° | 7km/h | 27321m | 5.8m/s | -48.0°C | 3.4% | 0hPa | 2.5V | 00:00:00 | 00:00:00 | 00:00:00 | |
| 9A1FER-3 | 2026-09-02 00:53:05 | 45.87025 | 16.84756 | 335° | 9km/h | 27283m | 6.1m/s | -48.0°C | 3.4% | 0hPa | 2.5V | 00:00:00 | 01:52:18 | 00:00:00 | |
| OE5DXL-15 | 2026-09-02 00:53:04 | 45.87023 | 16.84757 | 324° | 7km/h | 27277m | 5.0m/s | -48.0°C | 3.3% | 0hPa | 2.5V | 00:00:00 | 00:00:00 | 00:00:00 | |
| OE5DRO-10 | 2026-09-02 00:53:01 | 45.87018 | 16.84760 | 354° | 7km/h | 27260m | 4.5m/s | -48.0°C | 3.4% | 0hPa | 2.5V | 00:00:00 | 00:00:00 | 00:00:00 | |
| 9A1FER-10 | 2026-09-02 00:52:57 | 45.87014 | 16.84762 | 322° | 9km/h | 27238m | 5.2m/s | -48.0°C | 3.3% | 0hPa | 2.5V | 00:00:00 | 01:52:10 | 00:00:00 | |
| PG1ADW-2 | 2026-09-02 00:52:52 | 45.87001 | 16.84772 | 310° | 7km/h | 27211m | 6.0m/s | -48.1°C | 3.4% | 0hPa | 2.5V | 00:00:00 | 01:52:05 | 00:00:00 | |
| 9A1FER-3 | 2026-09-02 00:52:50 | 45.86998 | 16.84780 | 298° | 5km/h | 27200m | 5.8m/s | -48.1°C | 3.4% | 0hPa | 2.5V | 00:00:00 | 01:52:03 | 08:30:00 | |
| OE5DRO-10 | 2026-09-02 00:52:42 | 45.86998 | 16.84794 | 275° | 7km/h | 27155m | 5.1m/s | -48.1°C | 3.4% | 0hPa | 2.5V | 00:00:00 | 00:00:00 | 00:00:00 | |
| OE3JTB-15 | 2026-09-02 00:52:36 | 45.86993 | 16.84803 | 344° | 9km/h | 27123m | 4.4m/s | -48.2°C | 3.4% | 0hPa | 2.5V | 00:00:00 | 00:00:00 | 08:30:00 | |
| PETON7-10 | 2026-09-02 00:52:35 | 45.86991 | 16.84804 | 330° | 7km/h | 27117m | 5.8m/s | -48.2°C | 3.4% | 0hPa | 2.5V | 00:00:00 | 00:00:00 | 00:00:00 | |
| OE5DXL-15 | 2026-09-02 00:52:34 | 45.86990 | 16.84805 | 298° | 9km/h | 27112m | 5.6m/s | -48.2°C | 3.4% | 0hPa | 2.7V | 00:00:00 | 00:00:00 | 00:00:00 | |
| PG1ADW-2 | 2026-09-02 00:52:32 | 45.86989 | 16.84810 | 285° | 11km/h | 27102m | 5.7m/s | -48.2°C | 3.4% | 0hPa | 2.7V | 00:00:00 | 00:00:00 | 00:00:00 | |
| 9A1FER-10 | 2026-09-02 00:52:26 | 45.86984 | 16.84823 | 336° | 13km/h | 27069m | 6.2m/s | -48.3°C | 3.5% | 0hPa | 2.7V | 00:00:00 | 01:51:39 | 00:00:00 | |
| OE5DRO-10 | 2026-09-02 00:52:23 | 45.86977 | 16.84822 | 17° | 9km/h | 27051m | 5.7m/s | -48.3°C | 3.5% | 0hPa | 2.7V | 00:00:00 | 00:00:00 | 00:00:00 | |
| 9A1FER-3 | 2026-09-02 00:52:20 | 45.86971 | 16.84822 | 330° | 11km/h | 27035m | 5.0m/s | -48.2°C | 3.5% | 0hPa | 2.7V | 00:00:00 | 01:51:33 | 00:00:00 | |
| PG1ADW-2 | 2026-09-02 00:52:12 | 45.86960 | 16.84862 | 285° | 9km/h | 26991m | 3.8m/s | -48.0°C | 3.4% | 0hPa | 2.7V | 00:00:00 | 00:00:00 | 00:00:00 | |
| 9A1FER-10 | 2026-09-02 00:52:11 | 45.86960 | 16.84865 | 267° | 5km/h | 26986m | 5.8m/s | -48.0°C | 3.4% | 0hPa | 2.7V | 00:00:00 | 01:51:24 | 08:30:00 | |
| OE3JTB-15 | 2026-09-02 00:52:07 | 45.86962 | 16.84864 | 78° | 13km/h | 26963m | 5.6m/s | -47.9°C | 3.3% | 0hPa | 2.5V | 00:00:00 | 00:00:00 | 00:00:00 | |
| 9A1FER-3 | 2026-09-02 00:52:05 | 45.86962 | 16.84862 | 102° | 11km/h | 26952m | 6.2m/s | -47.8°C | 3.4% | 0hPa | 2.5V | 00:00:00 | 01:51:18 | 00:00:00 | |
| OE5DXL-15 | 2026-09-02 00:52:04 | 45.86962 | 16.84862 | 215° | 11km/h | 26946m | 5.6m/s | -47.8°C | 3.4% | 0hPa | 2.5V | 00:00:00 | 01:51:17 | 08:30:00 | |
| PETON7-10 | 2026-09-02 00:51:50 | 45.86986 | 16.84884 | 168° | 13km/h | 26869m | 5.3m/s | -47.8°C | 3.3% | 0hPa | 2.7V | 00:00:00 | 00:00:00 | 00:00:00 | |
| OE5DRO-10 | 2026-09-02 00:51:45 | 45.87005 | 16.84892 | 218° | 11km/h | 26841m | 6.1m/s | -47.7°C | 3.3% | 0hPa | 2.5V | 00:00:00 | 00:00:00 | 00:00:00 | |
| OE3JTB-15 | 2026-09-02 00:51:38 | 45.87018 | 16.84900 | 100° | 9km/h | 26804m | 5.4m/s | -47.7°C | 3.3% | 0hPa | 2.5V | 00:00:00 | 01:50:51 | 00:00:00 | |
| 9A1FER-3 | 2026-09-02 00:51:35 | 45.87019 | 16.84891 | 84° | 9km/h | 26788m | 5.8m/s | -47.7°C | 3.3% | 0hPa | 2.5V | 00:00:00 | 01:50:48 | 00:00:00 | |
| OE5DXL-15 | 2026-09-02 00:51:34 | 45.87019 | 16.84890 | 299° | 9km/h | 26782m | 5.6m/s | -47.7°C | 3.3% | 0hPa | 2.5V | 00:00:00 | 00:00:00 | 00:00:00 | |
| PG1ADW-2 | 2026-09-02 00:51:32 | 45.87019 | 16.84895 | 242° | 11km/h | 26771m | 7.0m/s | -47.8°C | 3.3% | 0hPa | 2.5V | 00:00:00 | 01:50:45 | 08:30:00 | |
| LZ4TU-5 | 2026-09-02 00:51:28 | 45.87025 | 16.84908 | 250° | 13km/h | 26754m | 5.8m/s | 0°C | 0% | 0hPa | 2.5V | 00:00:00 | 00:00:00 | 00:00:00 | |
| OE5DRO-10 | 2026-09-02 00:51:26 | 45.87025 | 16.84915 | 21° | 9km/h | 26738m | 6.1m/s | -47.8°C | 3.3% | 0hPa | 2.5V | 00:00:00 | 00:00:00 | 00:00:00 | |
| PETON7-10 | 2026-09-02 00:51:20 | 45.87010 | 16.84911 | 344° | 9km/h | 26702m | 5.3m/s | -48.0°C | 3.4% | 0hPa | 2.5V | 00:00:00 | 01:50:33 | 00:00:00 | |
| PG1ADW-2 | 2026-09-02 00:51:12 | 45.87003 | 16.84933 | 191° | 7km/h | 26658m | 4.8m/s | -48.2°C | 3.4% | 0hPa | 2.5V | 00:00:00 | 00:00:00 | 00:00:00 | |
| OE3JTB-15 | 2026-09-02 00:51:09 | 45.87003 | 16.84929 | 50° | 9km/h | 26641m | 5.3m/s | -48.3°C | 3.5% | 0hPa | 2.5V | 00:00:00 | 00:00:00 | 00:00:00 | |
| OE5DRO-10 | 2026-09-02 00:51:07 | 45.86999 | 16.84922 | 66° | 7km/h | 26629m | 6.2m/s | -48.3°C | 3.4% | 0hPa | 2.5V | 00:00:00 | 00:00:00 | 00:00:00 | |
| PETON7-10 | 2026-09-02 00:51:05 | 45.86997 | 16.84914 | 64° | 7km/h | 26619m | 4.4m/s | -48.4°C | 3.4% | 0hPa | 2.5V | 00:00:00 | 00:00:00 | 08:30:00 | |
| OE5DXL-15 | 2026-09-02 00:51:04 | 45.86996 | 16.84912 | 45° | 9km/h | 26614m | 6.7m/s | -48.4°C | 3.4% | 0hPa | 2.5V | 00:00:00 | 00:00:00 | 00:00:00 | |
| 9A1FER-3 | 2026-09-02 00:51:03 | 45.86994 | 16.84911 | 15° | 7km/h | 26608m | 5.4m/s | -48.4°C | 3.5% | 0hPa | 2.5V | 00:00:00 | 01:50:16 | 00:00:00 | |
| 9A1FER-10 | 2026-09-02 00:50:58 | 45.86991 | 16.84910 | 34° | 9km/h | 26581m | 4.9m/s | -48.3°C | 3.5% | 0hPa | 2.5V | 00:00:00 | 01:50:11 | 00:00:00 | |
| PG1ADW-2 | 2026-09-02 00:50:52 | 45.86979 | 16.84907 | 25° | 13km/h | 26546m | 5.0m/s | -48.2°C | 3.4% | 0hPa | 2.5V | 00:00:00 | 00:00:00 | 00:00:00 | |
| PETON7-10 | 2026-09-02 00:50:50 | 45.86974 | 16.84905 | 8° | 13km/h | 26533m | 5.3m/s | -48.2°C | 3.4% | 0hPa | 2.5V | 00:00:00 | 00:00:00 | 00:00:00 | |
| 9A1FER-3 | 2026-09-02 00:50:45 | 45.86963 | 16.84904 | 345° | 15km/h | 26505m | 6.7m/s | -48.3°C | 3.4% | 0hPa | 2.5V | 00:00:00 | 01:49:58 | 00:00:00 | |
| 9A1FER-10 | 2026-09-02 00:50:43 | 45.86956 | 16.84908 | 339° | 16km/h | 26492m | 5.6m/s | -48.4°C | 3.4% | 0hPa | 2.5V | 00:00:00 | 01:49:56 | 00:00:00 | |
| OE3JTB-15 | 2026-09-02 00:50:40 | 45.86945 | 16.84912 | 349° | 18km/h | 26475m | 4.9m/s | -48.4°C | 3.4% | 0hPa | 2.5V | 00:00:00 | 00:00:00 | 00:00:00 | |
| PETON7-10 | 2026-09-02 00:50:35 | 45.86926 | 16.84915 | 15° | 20km/h | 26446m | 5.2m/s | -48.7°C | 3.5% | 0hPa | 2.5V | 00:00:00 | 01:49:48 | 00:00:00 | |
| OE5DXL-15 | 2026-09-02 00:50:34 | 45.86922 | 16.84914 | 10° | 22km/h | 26440m | 5.7m/s | -48.7°C | 3.5% | 0hPa | 2.5V | 00:00:00 | 00:00:00 | 00:00:00 | |
| PG1ADW-2 | 2026-09-02 00:50:32 | 45.86915 | 16.84914 | 349° | 20km/h | 26428m | 4.8m/s | -48.8°C | 3.5% | 0hPa | 2.5V | 00:00:00 | 00:00:00 | 00:00:00 | |
| 9A1FER-3 | 2026-09-02 00:50:30 | 45.86908 | 16.84916 | 353° | 20km/h | 26417m | 5.9m/s | -48.8°C | 3.5% | 0hPa | 2.7V | 00:00:00 | 01:49:43 | 08:30:00 | |
| OE5DRO-10 | 2026-09-02 00:50:29 | 45.86903 | 16.84917 | 356° | 20km/h | 26412m | 4.9m/s | -48.8°C | 3.5% | 0hPa | 2.5V | 00:00:00 | 00:00:00 | 08:30:00 | |
| 9A1FER-10 | 2026-09-02 00:50:28 | 45.86899 | 16.84918 | 354° | 20km/h | 26407m | 5.0m/s | -48.8°C | 3.5% | 0hPa | 2.5V | 00:00:00 | 01:49:41 | 00:00:00 | |
| PETON7-10 | 2026-09-02 00:50:20 | 45.86851 | 16.84930 | 324° | 22km/h | 26360m | 6.2m/s | -48.7°C | 3.5% | 0hPa | 2.6V | 00:00:00 | 00:00:00 | 00:00:00 | |
| 9A1FER-3 | 2026-09-02 00:50:15 | 45.86840 | 16.84951 | 303° | 24km/h | 26331m | 6.4m/s | -48.7°C | 3.5% | 0hPa | 2.5V | 00:00:00 | 01:49:28 | 00:00:00 | |
| 9A1FER-10 | 2026-09-02 00:50:13 | 45.86834 | 16.84962 | 316° | 26km/h | 26319m | 4.6m/s | -48.7°C | 3.5% | 0hPa | 2.5V | 00:00:00 | 01:49:26 | 00:00:00 | |
| PG1ADW-2 | 2026-09-02 00:50:12 | 45.86829 | 16.84968 | 322° | 26km/h | 26314m | 5.6m/s | -48.6°C | 3.4% | 0hPa | 2.5V | 00:00:00 | 01:49:25 | 00:00:00 | |
| OE3JTB-15 | 2026-09-02 00:50:11 | 45.86824 | 16.84973 | 328° | 26km/h | 26308m | 6.4m/s | -48.6°C | 3.5% | 0hPa | 2.5V | 00:00:00 | 01:49:24 | 00:00:00 | |
| OE5DRO-10 | 2026-09-02 00:50:10 | 45.86818 | 16.84978 | 333° | 26km/h | 26302m | 5.5m/s | -48.7°C | 3.5% | 0hPa | 2.5V | 00:00:00 | 00:00:00 | 00:00:00 | |
| PETON7-10 | 2026-09-02 00:50:05 | 45.86791 | 16.85008 | 308° | 26km/h | 26273m | 5.4m/s | -48.8°C | 3.6% | 0hPa | 2.5V | 00:00:00 | 00:00:00 | 00:00:00 | |
| OE5DXL-15 | 2026-09-02 00:50:04 | 45.86787 | 16.85016 | 305° | 24km/h | 26267m | 6.3m/s | -48.8°C | 3.5% | 0hPa | 2.5V | 00:00:00 | 00:00:00 | 00:00:00 | |
| 9A1FER-3 | 2026-09-02 00:50:00 | 45.86775 | 16.85041 | 303° | 26km/h | 26244m | 6.1m/s | -48.7°C | 3.5% | 0hPa | 2.5V | 00:00:00 | 01:49:13 | 00:00:00 | |
| 9A1FER-10 | 2026-09-02 00:49:58 | 45.86769 | 16.85056 | 306° | 24km/h | 26233m | 5.3m/s | -48.7°C | 3.5% | 0hPa | 2.5V | 00:00:00 | 01:49:11 | 00:00:00 | |
| PG1ADW-2 | 2026-09-02 00:49:52 | 45.86745 | 16.85104 | 296° | 24km/h | 26197m | 4.9m/s | -48.6°C | 3.5% | 0hPa | 2.5V | 00:00:00 | 00:00:00 | 00:00:00 | |
| OE5DRO-10 | 2026-09-02 00:49:51 | 45.86742 | 16.85114 | 293° | 24km/h | 26191m | 6.9m/s | -48.6°C | 3.5% | 0hPa | 2.5V | 00:00:00 | 00:00:00 | 00:00:00 | |
| PETON7-10 | 2026-09-02 00:49:50 | 45.86740 | 16.85124 | 290° | 22km/h | 26185m | 5.5m/s | -48.5°C | 3.5% | 0hPa | 2.5V | 00:00:00 | 01:49:03 | 00:00:00 | |
| 9A1FER-3 | 2026-09-02 00:49:45 | 45.86732 | 16.85162 | 278° | 22km/h | 26156m | 6.5m/s | -48.5°C | 3.5% | 0hPa | 2.5V | 00:00:00 | 01:48:58 | 00:00:00 | |
| OE3JTB-15 | 2026-09-02 00:49:42 | 45.86732 | 16.85177 | 271° | 20km/h | 26139m | 6.0m/s | -48.5°C | 3.5% | 0hPa | 2.7V | 00:00:00 | 00:00:00 | 00:00:00 | |
| PETON7-10 | 2026-09-02 00:49:35 | 45.86718 | 16.85240 | 283° | 20km/h | 26101m | 6.1m/s | -48.5°C | 3.4% | 0hPa | 2.5V | 00:00:00 | 00:00:00 | 00:00:00 | |
| OE5DXL-15 | 2026-09-02 00:49:34 | 45.86717 | 16.85249 | 274° | 16km/h | 26095m | 5.6m/s | -48.5°C | 3.5% | 0hPa | 2.7V | 00:00:00 | 00:00:00 | 00:00:00 | |
| OE5DRO-10 | 2026-09-02 00:49:32 | 45.86718 | 16.85266 | 263° | 18km/h | 26083m | 6.8m/s | -48.5°C | 3.4% | 0hPa | 2.7V | 00:00:00 | 00:00:00 | 00:00:00 | |
| 9A1FER-3 | 2026-09-02 00:49:29 | 45.86721 | 16.85284 | 245° | 18km/h | 26066m | 6.4m/s | -48.5°C | 3.4% | 0hPa | 2.7V | 00:00:00 | 01:48:42 | 00:00:00 | |
| 9A1FER-10 | 2026-09-02 00:49:28 | 45.86723 | 16.85291 | 243° | 18km/h | 26059m | 6.3m/s | -48.5°C | 3.4% | 0hPa | 2.7V | 00:00:00 | 01:48:41 | 00:00:00 | |
| PETON7-10 | 2026-09-02 00:49:20 | 45.86738 | 16.85339 | 238° | 15km/h | 26012m | 5.8m/s | -48.5°C | 3.3% | 0hPa | 2.7V | 00:00:00 | 00:00:00 | 00:00:00 | |
| 9A1FER-3 | 2026-09-02 00:49:14 | 45.86760 | 16.85362 | 201° | 15km/h | 25976m | 6.1m/s | -48.7°C | 3.4% | 0hPa | 2.7V | 00:00:00 | 01:48:27 | 00:00:00 | |
| 9A1FER-10 | 2026-09-02 00:49:13 | 45.86764 | 16.85363 | 189° | 13km/h | 25970m | 6.2m/s | -48.8°C | 3.4% | 0hPa | 2.7V | 00:00:00 | 01:48:26 | 00:00:00 | |
| PG1ADW-2 | 2026-09-02 00:49:12 | 45.86768 | 16.85364 | 181° | 11km/h | 25964m | 5.0m/s | -48.8°C | 3.4% | 0hPa | 2.7V | 00:00:00 | 00:00:00 | 00:00:00 | |
| OE3JTB-15 | 2026-09-02 00:49:09 | 45.86777 | 16.85367 | 208° | 9km/h | 25947m | 4.9m/s | -49.0°C | 3.4% | 0hPa | 2.7V | 00:00:00 | 00:00:00 | 00:00:00 | |
| PETON7-10 | 2026-09-02 00:49:06 | 45.86789 | 16.85373 | 191° | 11km/h | 25925m | 5.6m/s | -49.2°C | 3.4% | 0hPa | 2.7V | 00:00:00 | 01:48:18 | 00:00:00 | |
| OE5DXL-15 | 2026-09-02 00:49:04 | 45.86792 | 16.85374 | 193° | 9km/h | 25919m | 6.2m/s | -49.3°C | 3.5% | 0hPa | 2.7V | 00:00:00 | 00:00:00 | 00:00:00 | |
| 9A1FER-3 | 2026-09-02 00:48:59 | 45.86806 | 16.85367 | 129° | 9km/h | 25891m | 5.5m/s | -49.8°C | 3.6% | 0hPa | 2.7V | 00:00:00 | 01:48:12 | 00:00:00 | |
| 9A1FER-10 | 2026-09-02 00:48:58 | 45.86808 | 16.85364 | 129° | 7km/h | 25885m | 6.4m/s | -49.9°C | 3.6% | 0hPa | 2.5V | 00:00:00 | 01:48:11 | 08:30:00 | |
| OE5DRO-10 | 2026-09-02 00:48:54 | 45.86810 | 16.85353 | 78° | 9km/h | 25863m | 4.6m/s | -50.0°C | 3.7% | 0hPa | 2.5V | 00:00:00 | 00:00:00 | 00:00:00 | |
| PG1ADW-2 | 2026-09-02 00:48:52 | 45.86808 | 16.85347 | 67° | 9km/h | 25853m | 6.0m/s | -50.1°C | 3.7% | 0hPa | 2.5V | 00:00:00 | 01:48:05 | 00:00:00 | |
| PETON7-10 | 2026-09-02 00:48:50 | 45.86808 | 16.85343 | 107° | 9km/h | 25842m | 4.9m/s | -50.1°C | 3.7% | 0hPa | 2.5V | 00:00:00 | 00:00:00 | 08:30:00 | |
| 9A1FER-3 | 2026-09-02 00:48:44 | 45.86814 | 16.85327 | 76° | 9km/h | 25809m | 4.3m/s | -50.1°C | 3.7% | 0hPa | 2.7V | 00:00:00 | 01:47:57 | 00:00:00 | |
| 9A1FER-10 | 2026-09-02 00:48:43 | 45.86813 | 16.85325 | 57° | 7km/h | 25803m | 5.8m/s | -50.0°C | 3.7% | 0hPa | 2.7V | 00:00:00 | 01:47:56 | 00:00:00 | |
| OE3JTB-15 | 2026-09-02 00:48:39 | 45.86805 | 16.85314 | 26° | 5km/h | 25781m | 6.4m/s | -50.0°C | 3.6% | 0hPa | 2.7V | 00:00:00 | 01:47:52 | 00:00:00 | |
| PETON7-10 | 2026-09-02 00:48:35 | 45.86795 | 16.85308 | 55° | 5km/h | 25758m | 4.9m/s | -49.9°C | 3.6% | 0hPa | 2.7V | 00:00:00 | 00:00:00 | 00:00:00 | |
| OE5DXL-15 | 2026-09-02 00:48:34 | 45.86795 | 16.85306 | 68° | 7km/h | 25753m | 4.7m/s | -49.9°C | 3.6% | 0hPa | 2.7V | 00:00:00 | 00:00:00 | 00:00:00 | |
| PG1ADW-2 | 2026-09-02 00:48:32 | 45.86794 | 16.85304 | 169° | 5km/h | 25742m | 5.2m/s | -49.8°C | 3.6% | 0hPa | 2.7V | 00:00:00 | 00:00:00 | 08:30:00 | |
| 9A1FER-3 | 2026-09-02 00:48:29 | 45.86797 | 16.85303 | 141° | 16km/h | 25725m | 4.2m/s | -49.8°C | 3.6% | 0hPa | 2.5V | 00:00:00 | 01:47:42 | 00:00:00 | |
| 9A1FER-10 | 2026-09-02 00:48:22 | 45.86785 | 16.85308 | 13° | 7km/h | 25689m | 4.3m/s | -50.1°C | 3.7% | 0hPa | 2.5V | 00:00:00 | 01:47:35 | 00:00:00 | |
| PETON7-10 | 2026-09-02 00:48:20 | 45.86784 | 16.85308 | 244° | 9km/h | 25679m | 5.7m/s | -50.2°C | 3.7% | 0hPa | 2.5V | 00:00:00 | 01:47:33 | 00:00:00 | |
| OE5DRO-10 | 2026-09-02 00:48:16 | 45.86784 | 16.85316 | 297° | 11km/h | 25658m | 6.0m/s | -50.3°C | 3.7% | 0hPa | 2.5V | 00:00:00 | 00:00:00 | 00:00:00 | |
| PG1ADW-2 | 2026-09-02 00:48:12 | 45.86777 | 16.85323 | 326° | 9km/h | 25636m | 5.0m/s | -50.4°C | 3.8% | 0hPa | 2.5V | 00:00:00 | 00:00:00 | 00:00:00 | |
| OE3JTB-15 | 2026-09-02 00:48:10 | 45.86773 | 16.85329 | 313° | 13km/h | 25626m | 5.8m/s | -50.4°C | 3.7% | 0hPa | 2.5V | 00:00:00 | 00:00:00 | 08:30:00 | |
| 9A1FER-10 | 2026-09-02 00:48:07 | 45.86773 | 16.85339 | 250° | 9km/h | 25609m | 5.6m/s | -50.4°C | 3.7% | 0hPa | 2.7V | 00:00:00 | 01:47:20 | 00:00:00 | |
| PETON7-10 | 2026-09-02 00:48:05 | 45.86777 | 16.85350 | 233° | 9km/h | 25599m | 6.0m/s | -50.4°C | 3.7% | 0hPa | 2.5V | 00:00:00 | 00:00:00 | 00:00:00 | |
| OE5DRO-10 | 2026-09-02 00:47:57 | 45.86786 | 16.85374 | 346° | 7km/h | 25557m | 5.2m/s | -50.4°C | 3.7% | 0hPa | 2.5V | 00:00:00 | 00:00:00 | 00:00:00 | |
| PG1ADW-2 | 2026-09-02 00:47:52 | 45.86787 | 16.85379 | 202° | 13km/h | 25530m | 5.5m/s | -50.4°C | 3.7% | 0hPa | 2.5V | 00:00:00 | 00:00:00 | 00:00:00 | |
| PETON7-10 | 2026-09-02 00:47:50 | 45.86793 | 16.85383 | 213° | 9km/h | 25519m | 5.8m/s | -50.5°C | 3.7% | 0hPa | 2.5V | 00:00:00 | 00:00:00 | 00:00:00 | |
| OE5DRO-10 | 2026-09-02 00:47:38 | 45.86812 | 16.85384 | 163° | 20km/h | 25458m | 6.1m/s | -51.0°C | 3.8% | 0hPa | 2.5V | 00:00:00 | 00:00:00 | 08:30:00 | |
| 9A1FER-10 | 2026-09-02 00:47:37 | 45.86816 | 16.85383 | 178° | 18km/h | 25453m | 4.9m/s | -51.0°C | 3.8% | 0hPa | 2.5V | 00:00:00 | 01:46:50 | 00:00:00 | |
| PETON7-10 | 2026-09-02 00:47:35 | 45.86826 | 16.85382 | 177° | 20km/h | 25443m | 5.9m/s | -51.1°C | 3.8% | 0hPa | 2.5V | 00:00:00 | 01:46:48 | 00:00:00 | |
| OE5DXL-15 | 2026-09-02 00:47:34 | 45.86832 | 16.85381 | 171° | 20km/h | 25437m | 5.1m/s | -51.1°C | 3.9% | 0hPa | 2.5V | 00:00:00 | 00:00:00 | 08:30:00 | |
| PG1ADW-2 | 2026-09-02 00:47:32 | 45.86843 | 16.85378 | 167° | 18km/h | 25427m | 5.5m/s | -51.2°C | 3.9% | 0hPa | 2.5V | 00:00:00 | 01:46:45 | 00:00:00 | |
| 9A1FER-10 | 2026-09-02 00:47:22 | 45.86872 | 16.85331 | 147° | 20km/h | 25375m | 3.7m/s | -51.2°C | 3.9% | 0hPa | 2.5V | 00:00:00 | 01:46:35 | 00:00:00 | |
| PG1ADW-2 | 2026-09-02 00:47:12 | 45.86903 | 16.85288 | 102° | 18km/h | 25324m | 5.9m/s | -51.1°C | 3.9% | 0hPa | 2.5V | 00:00:00 | 00:00:00 | 00:00:00 | |
| 9A1FER-10 | 2026-09-02 00:47:07 | 45.86913 | 16.85248 | 130° | 13km/h | 25297m | 5.0m/s | -51.1°C | 3.8% | 0hPa | 2.5V | 00:00:00 | 01:46:20 | 00:00:00 | |
| 9A1FER-3 | 2026-09-02 00:47:06 | 45.86916 | 16.85243 | 132° | 16km/h | 25291m | 5.6m/s | -51.2°C | 3.9% | 0hPa | 2.5V | 00:00:00 | 01:46:19 | 08:30:00 | |
| OE5DXL-15 | 2026-09-02 00:47:05 | 45.86920 | 16.85236 | 128° | 15km/h | 25281m | 4.8m/s | -51.3°C | 3.9% | 0hPa | 2.5V | 00:00:00 | 00:00:00 | 00:00:00 | |
| OE5DRO-10 | 2026-09-02 00:47:00 | 45.86922 | 16.85224 | 85° | 16km/h | 25260m | 5.7m/s | -51.4°C | 3.9% | 0hPa | 2.5V | 00:00:00 | 00:00:00 | 00:00:00 | |
| PG1ADW-2 | 2026-09-02 00:46:52 | 45.86925 | 16.85167 | 113° | 13km/h | 25220m | 5.0m/s | -51.4°C | 3.8% | 0hPa | 2.5V | 00:00:00 | 00:00:00 | 00:00:00 | |
| 9A1FER-3 | 2026-09-02 00:46:51 | 45.86927 | 16.85161 | 126° | 13km/h | 25214m | 6.3m/s | -51.4°C | 3.8% | 0hPa | 2.5V | 00:00:00 | 01:46:04 | 00:00:00 | |
| PETON7-10 | 2026-09-02 00:46:50 | 45.86929 | 16.85157 | 139° | 13km/h | 25208m | 4.8m/s | -51.4°C | 3.8% | 0hPa | 2.5V | 00:00:00 | 01:46:03 | 00:00:00 | |
| OE5DRO-10 | 2026-09-02 00:46:41 | 45.86921 | 16.85128 | 63° | 15km/h | 25162m | 5.8m/s | -51.7°C | 3.9% | 0hPa | 2.5V | 00:00:00 | 00:00:00 | 00:00:00 | |
| 9A1FER-3 | 2026-09-02 00:46:36 | 45.86921 | 16.85102 | 110° | 15km/h | 25135m | 5.2m/s | -51.8°C | 3.9% | 0hPa | 2.5V | 00:00:00 | 01:45:49 | 00:00:00 | |
| PETON7-10 | 2026-09-02 00:46:35 | 45.86921 | 16.85098 | 96° | 15km/h | 25130m | 5.4m/s | -51.8°C | 3.9% | 0hPa | 2.5V | 00:00:00 | 00:00:00 | 08:30:00 | |
| OE5DXL-15 | 2026-09-02 00:46:34 | 45.86921 | 16.85095 | 73° | 16km/h | 25125m | 4.5m/s | -51.9°C | 4.0% | 0hPa | 2.7V | 00:00:00 | 00:00:00 | 00:00:00 | |
| PG1ADW-2 | 2026-09-02 00:46:32 | 45.86918 | 16.85090 | 18° | 18km/h | 25115m | 5.8m/s | -51.9°C | 4.0% | 0hPa | 2.7V | 00:00:00 | 00:00:00 | 00:00:00 | |
| 9A1FER-10 | 2026-09-02 00:46:27 | 45.86899 | 16.85085 | 23° | 18km/h | 25088m | 5.8m/s | -52.1°C | 4.0% | 0hPa | 2.7V | 00:00:00 | 01:45:40 | 00:00:00 | |
| OE5DRO-10 | 2026-09-02 00:46:22 | 45.86880 | 16.85065 | 44° | 18km/h | 25061m | 4.6m/s | -52.1°C | 4.1% | 0hPa | 2.7V | 00:00:00 | 00:00:00 | 00:00:00 | |
| 9A1FER-3 | 2026-09-02 00:46:21 | 45.86877 | 16.85062 | 39° | 18km/h | 25056m | 6.3m/s | -52.1°C | 4.1% | 0hPa | 2.7V | 00:00:00 | 01:45:34 | 00:00:00 | |
| PETON7-10 | 2026-09-02 00:46:20 | 45.86874 | 16.85060 | 13° | 18km/h | 25050m | 5.0m/s | -52.1°C | 4.1% | 0hPa | 2.5V | 00:00:00 | 00:00:00 | 00:00:00 | |
| PG1ADW-2 | 2026-09-02 00:46:12 | 45.86835 | 16.85073 | 353° | 18km/h | 25007m | 6.1m/s | -52.2°C | 4.1% | 0hPa | 2.5V | 00:00:00 | 01:45:25 | 00:00:00 | |
| 9A1FER-3 | 2026-09-02 00:46:06 | 45.86809 | 16.85075 | 347° | 16km/h | 24976m | 5.3m/s | -52.0°C | 4.0% | 0hPa | 2.5V | 00:00:00 | 01:45:19 | 00:00:00 | |
| PETON7-10 | 2026-09-02 00:46:05 | 45.86805 | 16.85075 | 348° | 16km/h | 24971m | 5.3m/s | -52.0°C | 4.0% | 0hPa | 2.5V | 00:00:00 | 01:45:18 | 00:00:00 | |
| OE5DXL-15 | 2026-09-02 00:46:04 | 45.86802 | 16.85077 | 344° | 16km/h | 24966m | 4.6m/s | -52.0°C | 4.0% | 0hPa | 2.5V | 00:00:00 | 00:00:00 | 00:00:00 | |
| OE5DRO-10 | 2026-09-02 00:46:03 | 45.86798 | 16.85079 | 334° | 16km/h | 24961m | 5.3m/s | -52.0°C | 4.1% | 0hPa | 2.7V | 00:00:00 | 00:00:00 | 00:00:00 | |
| 9A1FER-10 | 2026-09-02 00:45:57 | 45.86774 | 16.85100 | 333° | 18km/h | 24927m | 6.3m/s | -52.0°C | 4.1% | 0hPa | 2.7V | 00:00:00 | 01:45:10 | 00:00:00 | |
| PG1ADW-2 | 2026-09-02 00:45:52 | 45.86754 | 16.85110 | 340° | 16km/h | 24901m | 4.8m/s | -52.0°C | 4.0% | 0hPa | 2.7V | 00:00:00 | 00:00:00 | 00:00:00 | |
| 9A1FER-3 | 2026-09-02 00:45:51 | 45.86751 | 16.85113 | 324° | 16km/h | 24895m | 5.9m/s | -52.0°C | 4.0% | 0hPa | 2.7V | 00:00:00 | 01:45:04 | 00:00:00 | |
| PETON7-10 | 2026-09-02 00:45:50 | 45.86748 | 16.85117 | 307° | 16km/h | 24890m | 4.9m/s | -51.9°C | 4.1% | 0hPa | 2.7V | 00:00:00 | 00:00:00 | 00:00:00 | |
| OE5DRO-10 | 2026-09-02 00:45:44 | 45.86735 | 16.85145 | 308° | 16km/h | 24856m | 5.0m/s | -51.8°C | 4.0% | 0hPa | 2.7V | 00:00:00 | 00:00:00 | 00:00:00 | |
| 9A1FER-10 | 2026-09-02 00:45:41 | 45.86723 | 16.85159 | 328° | 15km/h | 24840m | 4.3m/s | -51.8°C | 4.1% | 0hPa | 2.5V | 00:00:00 | 01:44:54 | 00:00:00 | |
| 9A1FER-3 | 2026-09-02 00:45:36 | 45.86711 | 16.85184 | 283° | 15km/h | 24812m | 5.4m/s | -51.7°C | 4.0% | 0hPa | 2.5V | 00:00:00 | 01:44:49 | 00:00:00 | |
| PETON7-10 | 2026-09-02 00:45:35 | 45.86711 | 16.85190 | 270° | 15km/h | 24806m | 5.1m/s | -51.6°C | 4.0% | 0hPa | 2.7V | 00:00:00 | 00:00:00 | 00:00:00 | |
| OE5DXL-15 | 2026-09-02 00:45:34 | 45.86711 | 16.85196 | 261° | 16km/h | 24800m | 6.6m/s | -51.6°C | 4.0% | 0hPa | 2.7V | 00:00:00 | 00:00:00 | 00:00:00 | |
| PG1ADW-2 | 2026-09-02 00:45:32 | 45.86714 | 16.85208 | 255° | 16km/h | 24790m | 4.7m/s | -51.6°C | 4.0% | 0hPa | 2.7V | 00:00:00 | 00:00:00 | 08:30:00 | |
| 9A1FER-10 | 2026-09-02 00:45:26 | 45.86715 | 16.85233 | 268° | 18km/h | 24757m | 5.3m/s | -51.6°C | 3.9% | 0hPa | 2.5V | 00:00:00 | 01:44:39 | 00:00:00 | |
| OE5DRO-10 | 2026-09-02 00:45:25 | 45.86715 | 16.85238 | 273° | 18km/h | 24751m | 5.7m/s | -51.6°C | 4.0% | 0hPa | 2.7V | 00:00:00 | 00:00:00 | 00:00:00 | |
| 9A1FER-3 | 2026-09-02 00:45:21 | 45.86714 | 16.85262 | 262° | 18km/h | 24729m | 6.5m/s | -51.6°C | 4.0% | 0hPa | 2.7V | 00:00:00 | 01:44:34 | 00:00:00 | |
| PETON7-10 | 2026-09-02 00:45:20 | 45.86715 | 16.85270 | 256° | 18km/h | 24723m | 5.4m/s | -51.6°C | 4.0% | 0hPa | 2.7V | 00:00:00 | 01:44:33 | 00:00:00 | |
| PG1ADW-2 | 2026-09-02 00:45:12 | 45.86737 | 16.85319 | 222° | 16km/h | 24676m | 5.9m/s | -51.8°C | 4.0% | 0hPa | 2.7V | 00:00:00 | 00:00:00 | 00:00:00 | |
| 9A1FER-10 | 2026-09-02 00:45:11 | 45.86740 | 16.85322 | 221° | 18km/h | 24670m | 6.3m/s | -51.8°C | 4.1% | 0hPa | 2.7V | 00:00:00 | 01:44:24 | 00:00:00 | |
| OE5DRO-10 | 2026-09-02 00:45:06 | 45.86755 | 16.85343 | 234° | 18km/h | 24641m | 5.0m/s | -51.6°C | 4.1% | 0hPa | 2.7V | 00:00:00 | 00:00:00 | 00:00:00 | |
| PETON7-10 | 2026-09-02 00:45:05 | 45.86757 | 16.85348 | 234° | 18km/h | 24635m | 7.0m/s | -51.6°C | 4.0% | 0hPa | 2.7V | 00:00:00 | 00:00:00 | 00:00:00 | |
| OE5DXL-15 | 2026-09-02 00:45:04 | 45.86761 | 16.85354 | 233° | 16km/h | 24628m | 5.4m/s | -51.5°C | 4.0% | 0hPa | 2.6V | 00:00:00 | 00:00:00 | 00:00:00 | |
| 9A1FER-10 | 2026-09-02 00:44:56 | 45.86777 | 16.85401 | 253° | 15km/h | 24582m | 6.6m/s | -51.4°C | 4.0% | 0hPa | 2.6V | 00:00:00 | 01:44:09 | 00:00:00 | |
| PG1ADW-2 | 2026-09-02 00:44:52 | 45.86782 | 16.85420 | 244° | 15km/h | 24559m | 5.0m/s | -51.3°C | 3.9% | 0hPa | 2.6V | 00:00:00 | 01:44:05 | 00:00:00 | |
| 9A1FER-3 | 2026-09-02 00:44:51 | 45.86784 | 16.85426 | 247° | 15km/h | 24553m | 6.5m/s | -51.3°C | 3.9% | 0hPa | 2.6V | 00:00:00 | 01:44:04 | 08:30:00 | |
| PETON7-10 | 2026-09-02 00:44:50 | 45.86786 | 16.85432 | 252° | 15km/h | 24547m | 5.5m/s | -51.3°C | 3.9% | 0hPa | 2.5V | 00:00:00 | 00:00:00 | 00:00:00 | |
| OE5DRO-10 | 2026-09-02 00:44:47 | 45.86791 | 16.85452 | 245° | 13km/h | 24530m | 4.7m/s | -51.2°C | 3.9% | 0hPa | 2.5V | 00:00:00 | 00:00:00 | 08:30:00 | |
| 9A1FER-10 | 2026-09-02 00:44:41 | 45.86794 | 16.85478 | 254° | 13km/h | 24496m | 5.4m/s | -51.2°C | 3.9% | 0hPa | 2.5V | 00:00:00 | 01:43:54 | 00:00:00 | |
| 9A1FER-3 | 2026-09-02 00:44:36 | 45.86801 | 16.85497 | 226° | 11km/h | 24468m | 6.6m/s | -51.3°C | 3.8% | 0hPa | 2.6V | 00:00:00 | 01:43:49 | 00:00:00 | |
| PETON7-10 | 2026-09-02 00:44:35 | 45.86804 | 16.85502 | 219° | 9km/h | 24462m | 5.6m/s | -51.3°C | 3.9% | 0hPa | 2.6V | 00:00:00 | 01:43:48 | 00:00:00 | |
| OE5DXL-15 | 2026-09-02 00:44:34 | 45.86808 | 16.85506 | 219° | 9km/h | 24456m | 5.9m/s | -51.3°C | 3.9% | 0hPa | 2.6V | 00:00:00 | 00:00:00 | 00:00:00 | |
| PG1ADW-2 | 2026-09-02 00:44:32 | 45.86814 | 16.85514 | 223° | 9km/h | 24445m | 4.7m/s | -51.4°C | 3.9% | 0hPa | 2.7V | 00:00:00 | 00:00:00 | 00:00:00 | |
| OE5DRO-10 | 2026-09-02 00:44:28 | 45.86823 | 16.85524 | 231° | 7km/h | 24421m | 6.5m/s | -51.5°C | 3.9% | 0hPa | 2.5V | 00:00:00 | 00:00:00 | 00:00:00 | |
| 9A1FER-10 | 2026-09-02 00:44:26 | 45.86823 | 16.85525 | 327° | 9km/h | 24411m | 5.2m/s | -51.5°C | 3.9% | 0hPa | 2.5V | 00:00:00 | 01:43:39 | 00:00:00 | |
| 9A1FER-3 | 2026-09-02 00:44:21 | 45.86830 | 16.85532 | 217° | 9km/h | 24382m | 5.3m/s | -51.7°C | 4.0% | 0hPa | 2.5V | 00:00:00 | 01:43:34 | 00:00:00 | |
| PETON7-10 | 2026-09-02 00:44:20 | 45.86833 | 16.85535 | 212° | 9km/h | 24376m | 5.8m/s | -51.7°C | 4.0% | 0hPa | 2.5V | 00:00:00 | 00:00:00 | 08:30:00 | |
| PG1ADW-2 | 2026-09-02 00:44:12 | 45.86851 | 16.85535 | 137° | 7km/h | 24330m | 5.2m/s | -51.8°C | 4.0% | 0hPa | 2.7V | 00:00:00 | 00:00:00 | 00:00:00 | |
| 9A1FER-10 | 2026-09-02 00:44:11 | 45.86851 | 16.85534 | 150° | 9km/h | 24324m | 6.7m/s | -51.8°C | 4.0% | 0hPa | 2.7V | 00:00:00 | 01:43:24 | 00:00:00 | |
| OE5DRO-10 | 2026-09-02 00:44:09 | 45.86853 | 16.85535 | 223° | 9km/h | 24312m | 5.0m/s | -51.9°C | 4.0% | 0hPa | 2.7V | 00:00:00 | 00:00:00 | 00:00:00 | |
| 9A1FER-3 | 2026-09-02 00:44:06 | 45.86860 | 16.85539 | 194° | 7km/h | 24296m | 5.4m/s | -51.9°C | 4.0% | 0hPa | 2.7V | 00:00:00 | 01:43:19 | 00:00:00 | |
| PETON7-10 | 2026-09-02 00:44:05 | 45.86864 | 16.85540 | 193° | 7km/h | 24290m | 6.1m/s | -51.9°C | 4.0% | 0hPa | 2.5V | 00:00:00 | 00:00:00 | 00:00:00 | |
| OE5DXL-15 | 2026-09-02 00:44:04 | 45.86868 | 16.85541 | 187° | 9km/h | 24284m | 5.0m/s | -52.0°C | 4.0% | 0hPa | 2.5V | 00:00:00 | 00:00:00 | 00:00:00 | |
| 9A1FER-10 | 2026-09-02 00:43:56 | 45.86878 | 16.85541 | 316° | 9km/h | 24240m | 6.0m/s | -52.0°C | 4.0% | 0hPa | 2.5V | 00:00:00 | 01:43:09 | 08:30:00 | |
| PG1ADW-2 | 2026-09-02 00:43:52 | 45.86880 | 16.85545 | 197° | 9km/h | 24217m | 5.2m/s | -52.1°C | 4.0% | 0hPa | 2.5V | 00:00:00 | 00:00:00 | 00:00:00 | |
| 9A1FER-3 | 2026-09-02 00:43:51 | 45.86883 | 16.85545 | 184° | 9km/h | 24211m | 6.6m/s | -52.1°C | 4.1% | 0hPa | 2.5V | 00:00:00 | 01:43:04 | 00:00:00 | |
| OE5DRO-10 | 2026-09-02 00:43:50 | 45.86886 | 16.85545 | 178° | 9km/h | 24205m | 5.7m/s | -52.1°C | 4.0% | 0hPa | 2.5V | 00:00:00 | 00:00:00 | 00:00:00 | |
| PETON7-10 | 2026-09-02 00:43:49 | 45.86890 | 16.85545 | 173° | 9km/h | 24200m | 4.3m/s | -52.1°C | 4.0% | 0hPa | 2.7V | 00:00:00 | 01:43:02 | 00:00:00 | |
| 9A1FER-10 | 2026-09-02 00:43:41 | 45.86903 | 16.85531 | 72° | 7km/h | 24156m | 4.5m/s | -52.1°C | 4.0% | 0hPa | 2.7V | 00:00:00 | 01:42:54 | 00:00:00 | |
| 9A1FER-3 | 2026-09-02 00:43:36 | 45.86908 | 16.85522 | 192° | 5km/h | 24129m | 5.1m/s | -52.2°C | 4.0% | 0hPa | 2.7V | 00:00:00 | 01:42:49 | 00:00:00 | |
| OE5DXL-15 | 2026-09-02 00:43:34 | 45.86912 | 16.85523 | 193° | 7km/h | 24118m | 6.3m/s | -52.2°C | 4.0% | 0hPa | 2.7V | 00:00:00 | 00:00:00 | 00:00:00 | |
| OE3JTB-15 | 2026-09-02 00:43:33 | 45.86914 | 16.85524 | 183° | 7km/h | 24112m | 4.8m/s | -52.2°C | 4.1% | 0hPa | 2.7V | 00:00:00 | 01:42:46 | 00:00:00 | |
| PG1ADW-2 | 2026-09-02 00:43:32 | 45.86917 | 16.85524 | 170° | 5km/h | 24108m | 4.5m/s | -52.2°C | 4.0% | 0hPa | 2.7V | 00:00:00 | 01:42:45 | 00:00:00 | |
| OE5DRO-10 | 2026-09-02 00:43:31 | 45.86918 | 16.85523 | 149° | 5km/h | 24102m | 6.3m/s | -52.2°C | 4.0% | 0hPa | 2.7V | 00:00:00 | 00:00:00 | 00:00:00 | |
| 9A1FER-10 | 2026-09-02 00:43:26 | 45.86916 | 16.85513 | 89° | 7km/h | 24074m | 4.9m/s | -52.1°C | 4.1% | 0hPa | 2.7V | 00:00:00 | 01:42:39 | 00:00:00 | |
| 9A1FER-3 | 2026-09-02 00:43:21 | 45.86920 | 16.85514 | 200° | 7km/h | 24047m | 5.3m/s | -52.2°C | 4.0% | 0hPa | 2.7V | 00:00:00 | 01:42:34 | 00:00:00 | |
| PETON7-10 | 2026-09-02 00:43:19 | 45.86925 | 16.85516 | 207° | 7km/h | 24035m | 5.3m/s | -52.2°C | 4.0% | 0hPa | 2.7V | 00:00:00 | 00:00:00 | 00:00:00 | |
| PG1ADW-2 | 2026-09-02 00:43:12 | 45.86932 | 16.85510 | 77° | 5km/h | 23998m | 5.3m/s | -52.4°C | 4.1% | 0hPa | 2.7V | 00:00:00 | 00:00:00 | 00:00:00 | |
| 9A1FER-10 | 2026-09-02 00:43:11 | 45.86931 | 16.85507 | 90° | 13km/h | 23993m | 5.7m/s | -52.4°C | 4.1% | 0hPa | 2.7V | 00:00:00 | 01:42:24 | 00:00:00 | |
| 9A1FER-3 | 2026-09-02 00:43:06 | 45.86933 | 16.85507 | 264° | 7km/h | 23967m | 4.3m/s | -52.5°C | 4.1% | 0hPa | 2.7V | 00:00:00 | 01:42:19 | 00:00:00 | |
| PETON7-10 | 2026-09-02 00:43:04 | 45.86935 | 16.85516 | 245° | 7km/h | 23956m | 4.8m/s | -52.6°C | 4.2% | 0hPa | 2.7V | 00:00:00 | 01:42:17 | 00:00:00 | |
| OE5DRO-10 | 2026-09-02 00:42:53 | 45.86936 | 16.85518 | 249° | 11km/h | 23899m | 4.1m/s | -52.8°C | 4.2% | 0hPa | 2.7V | 00:00:00 | 00:00:00 | 00:00:00 | |
| PG1ADW-2 | 2026-09-02 00:42:52 | 45.86937 | 16.85520 | 266° | 11km/h | 23894m | 4.6m/s | -52.8°C | 4.2% | 0hPa | 2.7V | 00:00:00 | 00:00:00 | 00:00:00 | |
| 9A1FER-3 | 2026-09-02 00:42:51 | 45.86936 | 16.85523 | 280° | 9km/h | 23889m | 6.1m/s | -52.8°C | 4.2% | 0hPa | 2.7V | 00:00:00 | 01:42:04 | 00:00:00 | |
| PETON7-10 | 2026-09-02 00:42:49 | 45.86934 | 16.85531 | 300° | 11km/h | 23879m | 4.3m/s | -52.8°C | 4.2% | 0hPa | 2.7V | 00:00:00 | 00:00:00 | 00:00:00 | |
| 9A1FER-3 | 2026-09-02 00:42:36 | 45.86925 | 16.85576 | 277° | 16km/h | 23809m | 4.9m/s | -52.8°C | 4.2% | 0hPa | 2.5V | 00:00:00 | 01:41:49 | 08:30:00 | |
| OE5DRO-10 | 2026-09-02 00:42:34 | 45.86924 | 16.85590 | 283° | 18km/h | 23798m | 5.6m/s | -52.7°C | 4.1% | 0hPa | 2.7V | 00:00:00 | 00:00:00 | 00:00:00 | |
| PG1ADW-2 | 2026-09-02 00:42:32 | 45.86922 | 16.85600 | 274° | 18km/h | 23788m | 6.1m/s | -52.7°C | 4.1% | 0hPa | 2.7V | 00:00:00 | 00:00:00 | 08:30:00 | |
| 9A1FER-10 | 2026-09-02 00:42:29 | 45.86923 | 16.85612 | 270° | 22km/h | 23772m | 5.7m/s | -52.7°C | 4.2% | 0hPa | 2.7V | 00:00:00 | 01:41:42 | 00:00:00 | |
| OE3JTB-15 | 2026-09-02 00:42:27 | 45.86923 | 16.85620 | 259° | 18km/h | 23762m | 6.0m/s | -52.8°C | 4.3% | 0hPa | 2.7V | 00:00:00 | 00:00:00 | 00:00:00 | |
| 9A1FER-3 | 2026-09-02 00:42:21 | 45.86928 | 16.85669 | 256° | 22km/h | 23732m | 5.8m/s | -52.8°C | 4.2% | 0hPa | 2.7V | 00:00:00 | 01:41:34 | 00:00:00 | |
| PETON7-10 | 2026-09-02 00:42:19 | 45.86933 | 16.85687 | 244° | 20km/h | 23722m | 4.4m/s | -52.8°C | 4.2% | 0hPa | 2.7V | 00:00:00 | 01:41:32 | 00:00:00 | |
| OE5DRO-10 | 2026-09-02 00:42:15 | 45.86942 | 16.85714 | 236° | 16km/h | 23702m | 6.3m/s | -52.7°C | 4.2% | 0hPa | 2.7V | 00:00:00 | 00:00:00 | 00:00:00 | |
| 9A1FER-10 | 2026-09-02 00:42:14 | 45.86945 | 16.85719 | 232° | 16km/h | 23696m | 4.2m/s | -52.6°C | 4.2% | 0hPa | 2.7V | 00:00:00 | 01:41:27 | 00:00:00 | |
| PG1ADW-2 | 2026-09-02 00:42:12 | 45.86950 | 16.85730 | 247° | 16km/h | 23686m | 5.4m/s | -52.6°C | 4.1% | 0hPa | 2.7V | 00:00:00 | 01:41:25 | 00:00:00 | |
| 9A1FER-3 | 2026-09-02 00:42:06 | 45.86962 | 16.85773 | 249° | 15km/h | 23657m | 6.0m/s | -52.7°C | 4.1% | 0hPa | 2.7V | 00:00:00 | 01:41:19 | 00:00:00 | |
| PETON7-10 | 2026-09-02 00:42:04 | 45.86965 | 16.85785 | 252° | 13km/h | 23646m | 5.1m/s | -52.7°C | 4.2% | 0hPa | 2.7V | 00:00:00 | 00:00:00 | 08:30:00 | |
| 9A1FER-10 | 2026-09-02 00:41:59 | 45.86972 | 16.85803 | 241° | 11km/h | 23621m | 4.4m/s | -52.8°C | 4.1% | 0hPa | 2.7V | 00:00:00 | 01:41:12 | 00:00:00 | |
| OE3JTB-15 | 2026-09-02 00:41:58 | 45.86974 | 16.85807 | 233° | 13km/h | 23616m | 5.4m/s | -52.8°C | 4.2% | 0hPa | 2.5V | 00:00:00 | 01:41:11 | 00:00:00 | |
| OE5DRO-10 | 2026-09-02 00:41:56 | 45.86980 | 16.85816 | 222° | 13km/h | 23606m | 4.9m/s | -52.8°C | 4.2% | 0hPa | 2.5V | 00:00:00 | 00:00:00 | 08:30:00 | |
| PG1ADW-2 | 2026-09-02 00:41:52 | 45.86991 | 16.85832 | 221° | 11km/h | 23585m | 6.3m/s | -52.7°C | 4.1% | 0hPa | 2.5V | 00:00:00 | 00:00:00 | 00:00:00 | |
| 9A1FER-3 | 2026-09-02 00:41:51 | 45.86993 | 16.85835 | 208° | 11km/h | 23579m | 4.8m/s | -52.7°C | 4.1% | 0hPa | 2.5V | 00:00:00 | 01:41:04 | 00:00:00 | |
| PETON7-10 | 2026-09-02 00:41:49 | 45.86995 | 16.85836 | 166° | 11km/h | 23569m | 5.1m/s | -52.7°C | 4.2% | 0hPa | 2.7V | 00:00:00 | 00:00:00 | 00:00:00 | |
| 9A1FER-10 | 2026-09-02 00:41:44 | 45.87002 | 16.85836 | 211° | 15km/h | 23545m | 5.3m/s | -52.8°C | 4.2% | 0hPa | 2.7V | 00:00:00 | 01:40:57 | 00:00:00 | |
| OE5DRO-10 | 2026-09-02 00:41:37 | 45.87025 | 16.85861 | 201° | 13km/h | 23510m | 5.2m/s | -52.7°C | 4.1% | 0hPa | 2.7V | 00:00:00 | 00:00:00 | 00:00:00 | |
| 9A1FER-3 | 2026-09-02 00:41:36 | 45.87027 | 16.85862 | 186° | 13km/h | 23505m | 4.5m/s | -52.7°C | 4.2% | 0hPa | 2.7V | 00:00:00 | 01:40:49 | 00:00:00 | |
| PETON7-10 | 2026-09-02 00:41:34 | 45.87031 | 16.85860 | 157° | 15km/h | 23495m | 4.9m/s | -52.8°C | 4.1% | 0hPa | 2.7V | 00:00:00 | 01:40:47 | 00:00:00 | |
| PG1ADW-2 | 2026-09-02 00:41:32 | 45.87037 | 16.85857 | 168° | 15km/h | 23486m | 5.7m/s | -52.8°C | 4.1% | 0hPa | 2.7V | 00:00:00 | 00:00:00 | 00:00:00 | |
| 9A1FER-10 | 2026-09-02 00:41:29 | 45.87046 | 16.85858 | 191° | 15km/h | 23471m | 4.5m/s | -52.8°C | 4.1% | 0hPa | 2.5V | 00:00:00 | 01:40:42 | 00:00:00 | |
| 9A1FER-3 | 2026-09-02 00:41:21 | 45.87077 | 16.85854 | 150° | 16km/h | 23431m | 4.7m/s | -52.8°C | 4.0% | 0hPa | 2.5V | 00:00:00 | 01:40:34 | 00:00:00 | |
| PETON7-10 | 2026-09-02 00:41:19 | 45.87084 | 16.85849 | 149° | 16km/h | 23420m | 6.1m/s | -52.8°C | 4.0% | 0hPa | 2.5V | 00:00:00 | 00:00:00 | 00:00:00 | |
| OE5DRO-10 | 2026-09-02 00:41:18 | 45.87086 | 16.85847 | 155° | 16km/h | 23414m | 4.9m/s | -52.8°C | 4.0% | 0hPa | 2.7V | 00:00:00 | 00:00:00 | 00:00:00 | |
| 9A1FER-10 | 2026-09-02 00:41:14 | 45.87101 | 16.85837 | 161° | 16km/h | 23394m | 5.1m/s | -53.3°C | 4.2% | 0hPa | 2.7V | 00:00:00 | 01:40:27 | 08:30:00 | |
| PG1ADW-2 | 2026-09-02 00:41:12 | 45.87110 | 16.85834 | 169° | 16km/h | 23384m | 4.0m/s | -53.4°C | 4.2% | 0hPa | 2.5V | 00:00:00 | 00:00:00 | 00:00:00 | |
| 9A1FER-3 | 2026-09-02 00:41:06 | 45.87134 | 16.85813 | 122° | 16km/h | 23355m | 4.6m/s | -53.7°C | 4.3% | 0hPa | 2.5V | 00:00:00 | 01:40:19 | 00:00:00 | |
| PETON7-10 | 2026-09-02 00:41:04 | 45.87137 | 16.85803 | 107° | 15km/h | 23344m | 4.0m/s | -53.8°C | 4.4% | 0hPa | 2.7V | 00:00:00 | 00:00:00 | 00:00:00 | |
| OE5DRO-10 | 2026-09-02 00:40:59 | 45.87141 | 16.85777 | 111° | 13km/h | 23320m | 5.0m/s | -53.9°C | 4.4% | 0hPa | 2.7V | 00:00:00 | 00:00:00 | 00:00:00 | |
| PG1ADW-2 | 2026-09-02 00:40:52 | 45.87160 | 16.85747 | 156° | 13km/h | 23285m | 4.1m/s | -53.8°C | 4.4% | 0hPa | 2.6V | 00:00:00 | 01:40:05 | 00:00:00 | |
| 9A1FER-3 | 2026-09-02 00:40:51 | 45.87164 | 16.85745 | 168° | 13km/h | 23280m | 5.9m/s | -53.9°C | 4.4% | 0hPa | 2.6V | 00:00:00 | 01:40:04 | 00:00:00 | |
| PETON7-10 | 2026-09-02 00:40:49 | 45.87170 | 16.85745 | 180° | 13km/h | 23270m | 5.0m/s | -53.9°C | 4.4% | 0hPa | 2.6V | 00:00:00 | 01:40:02 | 00:00:00 | |
| 9A1FER-10 | 2026-09-02 00:40:44 | 45.87182 | 16.85736 | 135° | 13km/h | 23244m | 4.4m/s | -54.0°C | 4.5% | 0hPa | 2.6V | 00:00:00 | 01:39:57 | 00:00:00 | |
| OE5DRO-10 | 2026-09-02 00:40:40 | 45.87192 | 16.85728 | 172° | 13km/h | 23224m | 6.2m/s | -53.9°C | 4.4% | 0hPa | 2.6V | 00:00:00 | 00:00:00 | 00:00:00 | |
| 9A1FER-3 | 2026-09-02 00:40:36 | 45.87205 | 16.85732 | 187° | 13km/h | 23203m | 5.0m/s | -53.8°C | 4.4% | 0hPa | 2.6V | 00:00:00 | 01:39:49 | 00:00:00 | |
| OE5DXL-15 | 2026-09-02 00:40:34 | 45.87212 | 16.85733 | 195° | 16km/h | 23193m | 5.7m/s | -53.8°C | 4.4% | 0hPa | 2.6V | 00:00:00 | 00:00:00 | 00:00:00 | |
| PG1ADW-2 | 2026-09-02 00:40:32 | 45.87218 | 16.85736 | 200° | 16km/h | 23183m | 4.8m/s | -53.9°C | 4.4% | 0hPa | 2.6V | 00:00:00 | 00:00:00 | 00:00:00 | |
| OE3JTB-15 | 2026-09-02 00:40:30 | 45.87225 | 16.85738 | 188° | 18km/h | 23173m | 4.3m/s | -53.9°C | 4.4% | 0hPa | 2.5V | 00:00:00 | 01:39:43 | 00:00:00 | |
| 9A1FER-10 | 2026-09-02 00:40:29 | 45.87228 | 16.85739 | 194° | 16km/h | 23168m | 5.8m/s | -53.9°C | 4.4% | 0hPa | 2.5V | 00:00:00 | 01:39:42 | 00:00:00 | |
| 9A1FER-3 | 2026-09-02 00:40:21 | 45.87254 | 16.85752 | 210° | 20km/h | 23128m | 4.5m/s | -53.9°C | 4.4% | 0hPa | 2.6V | 00:00:00 | 01:39:34 | 08:30:00 | |
| PETON7-10 | 2026-09-02 00:40:19 | 45.87262 | 16.85758 | 204° | 20km/h | 23118m | 4.9m/s | -53.9°C | 4.4% | 0hPa | 2.5V | 00:00:00 | 00:00:00 | 00:00:00 | |
| 9A1FER-10 | 2026-09-02 00:40:14 | 45.87286 | 16.85777 | 212° | 18km/h | 23092m | 5.6m/s | -54.0°C | 4.5% | 0hPa | 2.5V | 00:00:00 | 01:39:27 | 00:00:00 | |
| PG1ADW-2 | 2026-09-02 00:40:12 | 45.87295 | 16.85786 | 218° | 18km/h | 23082m | 6.0m/s | -54.0°C | 4.5% | 0hPa | 2.5V | 00:00:00 | 00:00:00 | 00:00:00 | |
| 9A1FER-3 | 2026-09-02 00:40:06 | 45.87315 | 16.85814 | 232° | 18km/h | 23050m | 4.9m/s | -54.0°C | 4.4% | 0hPa | 2.5V | 00:00:00 | 01:39:19 | 00:00:00 | |
| PETON7-10 | 2026-09-02 00:40:04 | 45.87321 | 16.85824 | 226° | 20km/h | 23040m | 6.0m/s | -54.0°C | 4.4% | 0hPa | 2.5V | 00:00:00 | 01:39:17 | 00:00:00 | |
| OE5DRO-10 | 2026-09-02 00:40:02 | 45.87328 | 16.85832 | 220° | 20km/h | 23029m | 4.3m/s | -53.9°C | 4.4% | 0hPa | 2.5V | 00:00:00 | 00:00:00 | 00:00:00 | |
| 9A1FER-10 | 2026-09-02 00:39:59 | 45.87338 | 16.85844 | 215° | 20km/h | 23015m | 5.6m/s | -53.9°C | 4.4% | 0hPa | 2.5V | 00:00:00 | 01:39:12 | 00:00:00 | |
| PG1ADW-2 | 2026-09-02 00:39:52 | 45.87370 | 16.85861 | 190° | 20km/h | 22979m | 5.3m/s | -53.8°C | 4.4% | 0hPa | 2.5V | 00:00:00 | 00:00:00 | 00:00:00 | |
| 9A1FER-3 | 2026-09-02 00:39:51 | 45.87375 | 16.85862 | 190° | 18km/h | 22974m | 4.2m/s | -53.8°C | 4.4% | 0hPa | 2.5V | 00:00:00 | 01:39:04 | 00:00:00 | |
| PETON7-10 | 2026-09-02 00:39:49 | 45.87387 | 16.85867 | 201° | 18km/h | 22963m | 5.2m/s | -53.8°C | 4.4% | 0hPa | 2.5V | 00:00:00 | 00:00:00 | 08:30:00 | |
| 9A1FER-10 | 2026-09-02 00:39:44 | 45.87413 | 16.85878 | 188° | 16km/h | 22938m | 5.1m/s | -53.7°C | 4.4% | 0hPa | 2.5V | 00:00:00 | 01:38:57 | 00:00:00 | |
| OE5DRO-10 | 2026-09-02 00:39:43 | 45.87417 | 16.85879 | 191° | 18km/h | 22933m | 5.5m/s | -53.7°C | 4.3% | 0hPa | 2.7V | 00:00:00 | 00:00:00 | 00:00:00 | |
| 9A1FER-3 | 2026-09-02 00:39:36 | 45.87446 | 16.85875 | 172° | 20km/h | 22895m | 6.2m/s | -53.7°C | 4.3% | 0hPa | 2.7V | 00:00:00 | 01:38:49 | 00:00:00 | |
| PETON7-10 | 2026-09-02 00:39:34 | 45.87456 | 16.85873 | 172° | 22km/h | 22884m | 5.5m/s | -53.7°C | 4.4% | 0hPa | 2.6V | 00:00:00 | 00:00:00 | 00:00:00 | |
| PG1ADW-2 | 2026-09-02 00:39:32 | 45.87466 | 16.85871 | 173° | 22km/h | 22874m | 4.2m/s | -53.7°C | 4.3% | 0hPa | 2.6V | 00:00:00 | 01:38:45 | 08:30:00 | |
| 9A1FER-3 | 2026-09-02 00:39:21 | 45.87523 | 16.85847 | 160° | 24km/h | 22816m | 6.1m/s | -53.7°C | 4.3% | 0hPa | 2.5V | 00:00:00 | 01:38:34 | 00:00:00 | |
| PETON7-10 | 2026-09-02 00:39:19 | 45.87535 | 16.85839 | 154° | 22km/h | 22806m | 5.1m/s | -53.7°C | 4.4% | 0hPa | 2.5V | 00:00:00 | 01:38:32 | 00:00:00 | |
| 9A1FER-10 | 2026-09-02 00:39:16 | 45.87550 | 16.85826 | 143° | 22km/h | 22791m | 4.7m/s | -53.7°C | 4.3% | 0hPa | 2.5V | 00:00:00 | 01:38:29 | 00:00:00 | |
| PG1ADW-2 | 2026-09-02 00:39:12 | 45.87567 | 16.85803 | 138° | 18km/h | 22772m | 5.7m/s | -53.7°C | 4.3% | 0hPa | 2.5V | 00:00:00 | 00:00:00 | 00:00:00 | |
| 9A1FER-3 | 2026-09-02 00:39:06 | 45.87595 | 16.85784 | 155° | 18km/h | 22741m | 5.9m/s | -53.9°C | 4.3% | 0hPa | 2.5V | 00:00:00 | 01:38:19 | 00:00:00 | |
| OE5DRO-10 | 2026-09-02 00:39:05 | 45.87599 | 16.85780 | 144° | 18km/h | 22735m | 4.5m/s | -53.9°C | 4.3% | 0hPa | 2.5V | 00:00:00 | 00:00:00 | 08:30:00 | |
| OE5DXL-15 | 2026-09-02 00:39:04 | 45.87603 | 16.85776 | 129° | 15km/h | 22731m | 4.3m/s | -53.9°C | 4.3% | 0hPa | 2.7V | 00:00:00 | 00:00:00 | 00:00:00 | |
| 9A1FER-10 | 2026-09-02 00:39:00 | 45.87609 | 16.85749 | 98° | 16km/h | 22710m | 5.5m/s | -54.1°C | 4.4% | 0hPa | 2.7V | 00:00:00 | 01:38:13 | 00:00:00 | |
| PG1ADW-2 | 2026-09-02 00:38:52 | 45.87619 | 16.85703 | 123° | 13km/h | 22669m | 5.4m/s | -54.2°C | 4.4% | 0hPa | 2.7V | 00:00:00 | 00:00:00 | 00:00:00 | |
| 9A1FER-3 | 2026-09-02 00:38:51 | 45.87622 | 16.85698 | 128° | 15km/h | 22664m | 4.9m/s | -54.2°C | 4.4% | 0hPa | 2.7V | 00:00:00 | 01:38:04 | 00:00:00 | |
| PETON7-10 | 2026-09-02 00:38:49 | 45.87628 | 16.85689 | 138° | 13km/h | 22653m | 5.2m/s | -54.3°C | 4.4% | 0hPa | 2.5V | 00:00:00 | 00:00:00 | 00:00:00 | |
| OE5DRO-10 | 2026-09-02 00:38:46 | 45.87636 | 16.85676 | 121° | 11km/h | 22637m | 5.0m/s | -54.3°C | 4.4% | 0hPa | 2.5V | 00:00:00 | 00:00:00 | 00:00:00 | |
| 9A1FER-3 | 2026-09-02 00:38:36 | 45.87651 | 16.85637 | 128° | 13km/h | 22583m | 5.5m/s | -54.4°C | 4.5% | 0hPa | 2.5V | 00:00:00 | 01:37:49 | 00:00:00 | |
| PETON7-10 | 2026-09-02 00:38:34 | 45.87653 | 16.85632 | 117° | 13km/h | 22573m | 6.0m/s | -54.4°C | 4.4% | 0hPa | 2.5V | 00:00:00 | 01:37:47 | 00:00:00 | |
| 9A1FER-10 | 2026-09-02 00:38:32 | 45.87654 | 16.85627 | 92° | 13km/h | 22563m | 4.7m/s | -54.5°C | 4.5% | 0hPa | 2.5V | 00:00:00 | 01:37:45 | 08:30:00 | |
| OE5DRO-10 | 2026-09-02 00:38:27 | 45.87655 | 16.85603 | 102° | 15km/h | 22535m | 4.8m/s | -54.7°C | 4.5% | 0hPa | 2.7V | 00:00:00 | 00:00:00 | 00:00:00 | |
| 9A1FER-3 | 2026-09-02 00:38:21 | 45.87669 | 16.85575 | 153° | 15km/h | 22504m | 4.0m/s | -54.8°C | 4.6% | 0hPa | 2.7V | 00:00:00 | 01:37:34 | 00:00:00 | |
| PETON7-10 | 2026-09-02 00:38:19 | 45.87674 | 16.85569 | 134° | 15km/h | 22493m | 4.6m/s | -54.8°C | 4.6% | 0hPa | 2.7V | 00:00:00 | 00:00:00 | 00:00:00 | |
| 9A1FER-10 | 2026-09-02 00:38:16 | 45.87677 | 16.85558 | 88° | 15km/h | 22477m | 4.9m/s | -54.8°C | 4.7% | 0hPa | 2.7V | 00:00:00 | 01:37:29 | 00:00:00 | |
| PG1ADW-2 | 2026-09-02 00:38:12 | 45.87676 | 16.85536 | 87° | 15km/h | 22457m | 4.4m/s | -54.7°C | 4.6% | 0hPa | 2.7V | 00:00:00 | 01:37:25 | 00:00:00 | |
| OE5DRO-10 | 2026-09-02 00:38:08 | 45.87674 | 16.85512 | 89° | 15km/h | 22436m | 6.1m/s | -54.5°C | 4.6% | 0hPa | 2.7V | 00:00:00 | 00:00:00 | 00:00:00 | |
| 9A1FER-3 | 2026-09-02 00:38:06 | 45.87675 | 16.85502 | 105° | 15km/h | 22426m | 4.7m/s | -54.5°C | 4.5% | 0hPa | 2.6V | 00:00:00 | 01:37:19 | 08:30:00 | |
| OE5DXL-15 | 2026-09-02 00:38:04 | 45.87677 | 16.85495 | 114° | 16km/h | 22414m | 5.0m/s | -54.4°C | 4.5% | 0hPa | 2.7V | 00:00:00 | 00:00:00 | 00:00:00 | |
| 9A1FER-10 | 2026-09-02 00:38:01 | 45.87679 | 16.85484 | 101° | 16km/h | 22399m | 4.4m/s | -54.3°C | 4.5% | 0hPa | 2.7V | 00:00:00 | 01:37:14 | 00:00:00 | |
| PG1ADW-2 | 2026-09-02 00:37:52 | 45.87680 | 16.85430 | 74° | 16km/h | 22353m | 5.1m/s | -54.3°C | 4.5% | 0hPa | 2.7V | 00:00:00 | 00:00:00 | 00:00:00 | |
| 9A1FER-3 | 2026-09-02 00:37:51 | 45.87678 | 16.85423 | 73° | 18km/h | 22347m | 6.5m/s | -54.2°C | 4.5% | 0hPa | 2.7V | 00:00:00 | 01:37:04 | 00:00:00 | |
| PETON7-10 | 2026-09-02 00:37:49 | 45.87675 | 16.85409 | 70° | 16km/h | 22337m | 4.8m/s | -54.2°C | 4.4% | 0hPa | 2.7V | 00:00:00 | 01:37:02 | 00:00:00 | |
| 9A1FER-10 | 2026-09-02 00:37:46 | 45.87672 | 16.85395 | 87° | 16km/h | 22321m | 5.0m/s | -54.2°C | 4.5% | 0hPa | 2.7V | 00:00:00 | 01:36:59 | 00:00:00 | |
| 9A1FER-3 | 2026-09-02 00:37:36 | 45.87660 | 16.85332 | 54° | 13km/h | 22269m | 5.5m/s | -54.0°C | 4.4% | 0hPa | 2.5V | 00:00:00 | 01:36:49 | 00:00:00 | |
| OE5DXL-15 | 2026-09-02 00:37:34 | 45.87655 | 16.85323 | 55° | 9km/h | 22259m | 5.7m/s | -54.0°C | 4.3% | 0hPa | 2.5V | 00:00:00 | 00:00:00 | 00:00:00 | |
| PG1ADW-2 | 2026-09-02 00:37:32 | 45.87652 | 16.85316 | 70° | 9km/h | 22249m | 4.2m/s | -54.0°C | 4.3% | 0hPa | 2.5V | 00:00:00 | 00:00:00 | 00:00:00 | |
| 9A1FER-10 | 2026-09-02 00:37:31 | 45.87651 | 16.85314 | 66° | 9km/h | 22243m | 6.1m/s | -53.9°C | 4.2% | 0hPa | 2.6V | 00:00:00 | 01:36:44 | 00:00:00 | |
| OE5DRO-10 | 2026-09-02 00:37:30 | 45.87651 | 16.85311 | 69° | 9km/h | 22238m | 4.9m/s | -54.0°C | 4.2% | 0hPa | 2.6V | 00:00:00 | 00:00:00 | 00:00:00 | |
| 9A1FER-3 | 2026-09-02 00:37:21 | 45.87638 | 16.85276 | 42° | 7km/h | 22190m | 5.9m/s | -54.9°C | 4.6% | 0hPa | 2.6V | 00:00:00 | 01:36:34 | 00:00:00 | |
| PETON7-10 | 2026-09-02 00:37:19 | 45.87636 | 16.85273 | 20° | 7km/h | 22180m | 5.0m/s | -55.0°C | 4.6% | 0hPa | 2.5V | 00:00:00 | 00:00:00 | 00:00:00 | |
| PG1ADW-2 | 2026-09-02 00:37:12 | 45.87630 | 16.85268 | 44° | 7km/h | 22144m | 5.7m/s | -55.1°C | 4.7% | 0hPa | 2.5V | 00:00:00 | 00:00:00 | 00:00:00 | |
| OE5DRO-10 | 2026-09-02 00:37:11 | 45.87629 | 16.85265 | 49° | 7km/h | 22139m | 4.2m/s | -55.2°C | 4.7% | 0hPa | 2.5V | 00:00:00 | 00:00:00 | 00:00:00 | |
| 9A1FER-3 | 2026-09-02 00:37:06 | 45.87619 | 16.85253 | 55° | 5km/h | 22113m | 4.3m/s | -55.3°C | 4.8% | 0hPa | 2.6V | 00:00:00 | 01:36:19 | 00:00:00 | |
| OE5DXL-15 | 2026-09-02 00:37:04 | 45.87617 | 16.85250 | 31° | 7km/h | 22103m | 5.6m/s | -55.2°C | 4.7% | 0hPa | 2.6V | 00:00:00 | 00:00:00 | 00:00:00 | |
| PETON7-10 | 2026-09-02 00:37:03 | 45.87616 | 16.85249 | 6° | 5km/h | 22098m | 4.8m/s | -55.2°C | 4.7% | 0hPa | 2.7V | 00:00:00 | 01:36:16 | 00:00:00 | |
| 9A1FER-10 | 2026-09-02 00:37:01 | 45.87613 | 16.85249 | 46° | 7km/h | 22088m | 5.8m/s | -55.2°C | 4.7% | 0hPa | 2.7V | 00:00:00 | 01:36:14 | 00:00:00 | |
| PG1ADW-2 | 2026-09-02 00:36:52 | 45.87613 | 16.85229 | 98° | 11km/h | 22041m | 4.7m/s | -54.9°C | 4.7% | 0hPa | 2.5V | 00:00:00 | 01:36:05 | 00:00:00 | |
| 9A1FER-3 | 2026-09-02 00:36:51 | 45.87613 | 16.85227 | 98° | 9km/h | 22037m | 4.2m/s | -54.9°C | 4.6% | 0hPa | 2.5V | 00:00:00 | 01:36:04 | 00:00:00 | |
| PETON7-10 | 2026-09-02 00:36:48 | 45.87614 | 16.85219 | 105° | 11km/h | 22021m | 5.3m/s | -54.8°C | 4.6% | 0hPa | 2.5V | 00:00:00 | 00:00:00 | 00:00:00 | |
| 9A1FER-10 | 2026-09-02 00:36:46 | 45.87615 | 16.85214 | 101° | 11km/h | 22011m | 4.2m/s | -54.7°C | 4.6% | 0hPa | 2.6V | 00:00:00 | 01:35:59 | 00:00:00 | |
| OM5KV | 2026-09-02 00:36:44 | 45.87616 | 16.85211 | 107° | 9km/h | 22006m | 6.0m/s | -54.8°C | 1.4% | 0hPa | 2.6V | 00:00:00 | 00:00:00 | 00:00:00 | |
| OM5KV | 2026-09-02 00:36:38 | 45.87623 | 16.85191 | 128° | 13km/h | 21975m | 5.4m/s | -54.7°C | 1.4% | 0hPa | 2.6V | 00:00:00 | 00:00:00 | 00:00:00 | |
| 9A1FER-3 | 2026-09-02 00:36:36 | 45.87627 | 16.85180 | 110° | 15km/h | 21960m | 4.5m/s | -54.6°C | 4.6% | 0hPa | 2.6V | 00:00:00 | 01:35:49 | 00:00:00 | |
| OM5KV | 2026-09-02 00:36:33 | 45.87629 | 16.85166 | 97° | 16km/h | 21945m | 4.2m/s | -54.6°C | 1.4% | 0hPa | 2.5V | 00:00:00 | 00:00:00 | 00:00:00 | |
| PG1ADW-2 | 2026-09-02 00:36:32 | 45.87630 | 16.85160 | 91° | 18km/h | 21940m | 5.9m/s | -54.6°C | 4.5% | 0hPa | 2.5V | 00:00:00 | 00:00:00 | 08:30:00 | |
| OM5KV | 2026-09-02 00:36:21 | 45.87640 | 16.85099 | 112° | 16km/h | 21884m | 4.3m/s | -54.6°C | 1.3% | 0hPa | 2.5V | 00:00:00 | 00:00:00 | 00:00:00 | |
| PETON7-10 | 2026-09-02 00:36:18 | 45.87643 | 16.85078 | 95° | 20km/h | 21869m | 4.5m/s | -54.5°C | 4.5% | 0hPa | 2.5V | 00:00:00 | 01:35:31 | 00:00:00 | |
| 9A1FER-10 | 2026-09-02 00:36:16 | 45.87642 | 16.85062 | 83° | 20km/h | 21859m | 4.7m/s | -54.5°C | 4.5% | 0hPa | 2.5V | 00:00:00 | 01:35:29 | 08:30:00 | |
| OE5DRO-10 | 2026-09-02 00:36:14 | 45.87641 | 16.85046 | 84° | 27km/h | 21850m | 5.5m/s | -54.5°C | 4.5% | 0hPa | 2.6V | 00:00:00 | 00:00:00 | 08:30:00 | |
| PG1ADW-2 | 2026-09-02 00:36:12 | 45.87640 | 16.85030 | 84° | 22km/h | 21840m | 5.0m/s | -54.5°C | 4.5% | 0hPa | 2.6V | 00:00:00 | 00:00:00 | 00:00:00 | |
| OM5KV | 2026-09-02 00:36:09 | 45.87638 | 16.85017 | 78° | 18km/h | 21830m | 3.8m/s | -54.5°C | 1.4% | 0hPa | 2.6V | 00:00:00 | 00:00:00 | 00:00:00 | |
| 9A1FER-3 | 2026-09-02 00:36:06 | 45.87636 | 16.84989 | 86° | 24km/h | 21812m | 5.1m/s | -54.5°C | 4.5% | 0hPa | 2.6V | 00:00:00 | 01:35:19 | 00:00:00 | |
| OE5DXL-15 | 2026-09-02 00:36:04 | 45.87634 | 16.84975 | 69° | 29km/h | 21801m | 3.9m/s | -54.4°C | 4.5% | 0hPa | 2.6V | 00:00:00 | 00:00:00 | 00:00:00 | |
| PETON7-10 | 2026-09-02 00:36:03 | 45.87632 | 16.84967 | 69° | 26km/h | 21797m | 4.3m/s | -54.4°C | 4.5% | 0hPa | 2.6V | 00:00:00 | 00:00:00 | 00:00:00 | |
| OM5KV | 2026-09-02 00:36:02 | 45.87632 | 16.84967 | 70° | 24km/h | 21797m | 4.4m/s | -54.4°C | 1.3% | 0hPa | 2.7V | 00:00:00 | 00:00:00 | 00:00:00 | |
| 9A1FER-10 | 2026-09-02 00:36:01 | 45.87628 | 16.84950 | 74° | 26km/h | 21787m | 4.1m/s | -54.4°C | 4.5% | 0hPa | 2.7V | 00:00:00 | 01:35:14 | 00:00:00 | |
| OM5KV | 2026-09-02 00:35:57 | 45.87622 | 16.84926 | 67° | 22km/h | 21773m | 3.9m/s | -54.5°C | 1.4% | 0hPa | 2.7V | 00:00:00 | 00:00:00 | 00:00:00 | |
| PG1ADW-2 | 2026-09-02 00:35:52 | 45.87606 | 16.84879 | 51° | 31km/h | 21744m | 3.9m/s | -54.3°C | 4.5% | 0hPa | 2.7V | 00:00:00 | 00:00:00 | 00:00:00 | |
| 9A1FER-3 | 2026-09-02 00:35:51 | 45.87602 | 16.84872 | 52° | 33km/h | 21740m | 5.6m/s | -54.3°C | 4.5% | 0hPa | 2.7V | 00:00:00 | 01:35:04 | 08:30:00 | |
| OM5KV | 2026-09-02 00:35:50 | 45.87602 | 16.84872 | 52° | 27km/h | 21740m | 5.6m/s | -54.4°C | 1.4% | 0hPa | 2.5V | 00:00:00 | 00:00:00 | 00:00:00 | |
| PETON7-10 | 2026-09-02 00:35:48 | 45.87588 | 16.84849 | 48° | 33km/h | 21725m | 5.1m/s | -54.4°C | 4.5% | 0hPa | 2.5V | 00:00:00 | 00:00:00 | 00:00:00 | |
| 9A1FER-10 | 2026-09-02 00:35:46 | 45.87580 | 16.84833 | 56° | 33km/h | 21715m | 5.5m/s | -54.4°C | 4.5% | 0hPa | 2.5V | 00:00:00 | 01:34:59 | 00:00:00 | |
| OM5KV | 2026-09-02 00:35:45 | 45.87575 | 16.84824 | 59° | 31km/h | 21710m | 4.1m/s | -54.4°C | 1.4% | 0hPa | 2.5V | 00:00:00 | 00:00:00 | 00:00:00 | |
| OM5KV | 2026-09-02 00:35:39 | 45.87549 | 16.84772 | 54° | 40km/h | 21685m | 4.1m/s | -54.3°C | 1.3% | 0hPa | 2.5V | 00:00:00 | 00:00:00 | 00:00:00 | |
| OM5KV | 2026-09-02 00:35:38 | 45.87543 | 16.84761 | 52° | 38km/h | 21681m | 4.7m/s | -54.3°C | 1.4% | 0hPa | 2.5V | 00:00:00 | 00:00:00 | 00:00:00 | |
| 9A1FER-3 | 2026-09-02 00:35:36 | 45.87527 | 16.84734 | 49° | 33km/h | 21667m | 4.7m/s | -54.3°C | 4.5% | 0hPa | 2.5V | 00:00:00 | 01:34:49 | 00:00:00 | |
| OM5KV | 2026-09-02 00:35:34 | 45.87522 | 16.84725 | 52° | 31km/h | 21662m | 5.3m/s | -54.4°C | 1.4% | 0hPa | 2.5V | 00:00:00 | 00:00:00 | 00:00:00 | |
| PETON7-10 | 2026-09-02 00:35:33 | 45.87513 | 16.84708 | 53° | 33km/h | 21653m | 5.3m/s | -54.4°C | 4.4% | 0hPa | 2.5V | 00:00:00 | 01:34:46 | 00:00:00 | |
| PG1ADW-2 | 2026-09-02 00:35:32 | 45.87508 | 16.84700 | 51° | 31km/h | 21648m | 4.8m/s | -54.4°C | 4.4% | 0hPa | 2.5V | 00:00:00 | 01:34:45 | 00:00:00 | |
| 9A1FER-10 | 2026-09-02 00:35:31 | 45.87503 | 16.84692 | 50° | 33km/h | 21643m | 3.7m/s | -54.4°C | 4.5% | 0hPa | 2.6V | 00:00:00 | 01:34:44 | 00:00:00 | |
| OM5KV | 2026-09-02 00:35:25 | 45.87474 | 16.84643 | 47° | 35km/h | 21620m | 4.7m/s | -54.5°C | 1.4% | 0hPa | 2.7V | 00:00:00 | 00:00:00 | 00:00:00 | |
| 9A1FER-3 | 2026-09-02 00:35:21 | 45.87444 | 16.84601 | 42° | 31km/h | 21597m | 5.4m/s | -54.4°C | 4.4% | 0hPa | 2.7V | 00:00:00 | 01:34:34 | 00:00:00 | |
| OM5KV | 2026-09-02 00:35:20 | 45.87444 | 16.84601 | 42° | 29km/h | 21597m | 5.4m/s | -54.5°C | 1.3% | 0hPa | 2.7V | 00:00:00 | 00:00:00 | 00:00:00 | |
| PETON7-10 | 2026-09-02 00:35:18 | 45.87429 | 16.84582 | 42° | 31km/h | 21582m | 4.9m/s | -54.4°C | 4.4% | 0hPa | 2.7V | 00:00:00 | 00:00:00 | 08:30:00 | |
| OE5DXL-15 | 2026-09-02 00:35:16 | 45.87417 | 16.84568 | 42° | 20km/h | 21573m | 5.4m/s | -54.4°C | 4.4% | 0hPa | 2.6V | 00:00:00 | 00:00:00 | 00:00:00 | |
| PG1ADW-2 | 2026-09-02 00:35:12 | 45.87392 | 16.84539 | 37° | 33km/h | 21554m | 3.7m/s | -54.4°C | 4.4% | 0hPa | 2.7V | 00:00:00 | 00:00:00 | 00:00:00 | |
| OM5KV | 2026-09-02 00:35:10 | 45.87385 | 16.84531 | 36° | 37km/h | 21550m | 4.7m/s | -54.5°C | 1.4% | 0hPa | 2.7V | 00:00:00 | 00:00:00 | 00:00:00 | |
| OM5KV | 2026-09-02 00:35:09 | 45.87378 | 16.84524 | 35° | 33km/h | 21545m | 4.9m/s | -54.5°C | 1.3% | 0hPa | 2.7V | 00:00:00 | 00:00:00 | 00:00:00 | |
| 9A1FER-3 | 2026-09-02 00:35:06 | 45.87351 | 16.84499 | 37° | 33km/h | 21526m | 3.8m/s | -54.5°C | 4.3% | 0hPa | 2.7V | 00:00:00 | 01:34:19 | 00:00:00 | |
| OM5KV | 2026-09-02 00:35:04 | 45.87345 | 16.84492 | 40° | 29km/h | 21521m | 5.6m/s | -54.6°C | 1.3% | 0hPa | 2.6V | 00:00:00 | 00:00:00 | 00:00:00 | |
| PETON7-10 | 2026-09-02 00:35:02 | 45.87328 | 16.84472 | 37° | 35km/h | 21508m | 5.4m/s | -54.6°C | 4.5% | 0hPa | 2.6V | 00:00:00 | 00:00:00 | 00:00:00 | |
| 9A1FER-10 | 2026-09-02 00:35:01 | 45.87321 | 16.84465 | 33° | 35km/h | 21503m | 4.3m/s | -54.6°C | 4.4% | 0hPa | 2.6V | 00:00:00 | 01:34:14 | 00:00:00 | |
| OM5KV | 2026-09-02 00:34:57 | 45.87297 | 16.84446 | 26° | 35km/h | 21489m | 4.1m/s | -54.8°C | 1.3% | 0hPa | 2.6V | 00:00:00 | 00:00:00 | 00:00:00 | |
| OM5KV | 2026-09-02 00:34:53 | 45.87264 | 16.84426 | 21° | 35km/h | 21470m | 5.7m/s | -54.9°C | 1.4% | 0hPa | 2.6V | 00:00:00 | 00:00:00 | 00:00:00 | |
| PG1ADW-2 | 2026-09-02 00:34:52 | 45.87249 | 16.84419 | 17° | 27km/h | 21461m | 3.4m/s | -54.9°C | 4.5% | 0hPa | 2.6V | 00:00:00 | 00:00:00 | 00:00:00 | |
| 9A1FER-3 | 2026-09-02 00:34:51 | 45.87241 | 16.84415 | 17° | 27km/h | 21456m | 5.5m/s | -54.9°C | 4.5% | 0hPa | 2.6V | 00:00:00 | 01:34:04 | 00:00:00 | |
| OM5KV | 2026-09-02 00:34:48 | 45.87208 | 16.84403 | 15° | 31km/h | 21437m | 4.8m/s | -55.1°C | 1.4% | 0hPa | 2.6V | 00:00:00 | 00:00:00 | 00:00:00 | |
| 9A1FER-10 | 2026-09-02 00:34:47 | 45.87201 | 16.84400 | 18° | 26km/h | 21432m | 4.4m/s | -55.1°C | 4.6% | 0hPa | 2.6V | 00:00:00 | 01:33:59 | 00:00:00 | |
| OM5KV | 2026-09-02 00:34:41 | 45.87176 | 16.84383 | 30° | 26km/h | 21413m | 5.6m/s | -55.1°C | 1.4% | 0hPa | 2.6V | 00:00:00 | 00:00:00 | 00:00:00 | |
| OM5KV | 2026-09-02 00:34:37 | 45.87154 | 16.84370 | 20° | 26km/h | 21394m | 5.0m/s | -55.3°C | 1.4% | 0hPa | 2.6V | 00:00:00 | 00:00:00 | 00:00:00 | |
| 9A1FER-3 | 2026-09-02 00:34:36 | 45.87141 | 16.84365 | 10° | 22km/h | 21384m | 5.5m/s | -55.3°C | 4.6% | 0hPa | 2.6V | 00:00:00 | 01:33:49 | 00:00:00 | |
| PG1ADW-2 | 2026-09-02 00:34:32 | 45.87113 | 16.84361 | 12° | 20km/h | 21364m | 3.5m/s | -55.3°C | 4.7% | 0hPa | 2.6V | 00:00:00 | 00:00:00 | 00:00:00 | |
| 9A1FER-10 | 2026-09-02 00:34:31 | 45.87107 | 16.84359 | 16° | 20km/h | 21361m | 4.1m/s | -55.3°C | 4.6% | 0hPa | 2.5V | 00:00:00 | 01:33:44 | 00:00:00 | |
| OE5DRO-10 | 2026-09-02 00:34:29 | 45.87096 | 16.84354 | 25° | 16km/h | 21351m | 4.8m/s | -55.4°C | 4.6% | 0hPa | 2.5V | 00:00:00 | 00:00:00 | 00:00:00 | |
| OM5KV | 2026-09-02 00:34:25 | 45.87086 | 16.84344 | 40° | 18km/h | 21335m | 4.3m/s | -55.4°C | 0% | 0hPa | 2.5V | 00:00:00 | 00:00:00 | 00:00:00 | |
| OM5KV | 2026-09-02 00:34:23 | 45.87079 | 16.84336 | 29° | 16km/h | 21327m | 5.4m/s | -55.5°C | 1.4% | 0hPa | 2.5V | 00:00:00 | 00:00:00 | 00:00:00 | |
| 9A1FER-3 | 2026-09-02 00:34:21 | 45.87064 | 16.84331 | 9° | 16km/h | 21312m | 5.2m/s | -55.7°C | 4.7% | 0hPa | 2.5V | 00:00:00 | 01:33:34 | 00:00:00 | |
| OM5KV | 2026-09-02 00:34:19 | 45.87058 | 16.84330 | 5° | 26km/h | 21307m | 4.4m/s | -55.8°C | 0% | 0hPa | 2.6V | 00:00:00 | 00:00:00 | 00:00:00 | |
| PETON7-10 | 2026-09-02 00:34:17 | 45.87040 | 16.84331 | 356° | 15km/h | 21291m | 5.4m/s | -55.8°C | 4.8% | 0hPa | 2.6V | 00:00:00 | 00:00:00 | 00:00:00 | |
| 9A1FER-10 | 2026-09-02 00:34:16 | 45.87034 | 16.84332 | 359° | 15km/h | 21286m | 4.7m/s | -55.8°C | 4.9% | 0hPa | 2.6V | 00:00:00 | 01:33:29 | 00:00:00 | |
| OM5KV | 2026-09-02 00:34:13 | 45.87027 | 16.84332 | 358° | 11km/h | 21277m | 5.9m/s | -55.9°C | 0% | 0hPa | 2.6V | 00:00:00 | 00:00:00 | 00:00:00 | |
| PG1ADW-2 | 2026-09-02 00:34:12 | 45.87023 | 16.84332 | 12° | 11km/h | 21266m | 5.5m/s | -55.8°C | 4.9% | 0hPa | 2.6V | 00:00:00 | 01:33:25 | 00:00:00 | |
| OM5KV | 2026-09-02 00:34:11 | 45.87023 | 16.84332 | 12° | 7km/h | 21266m | 5.5m/s | -55.9°C | 1.5% | 0hPa | 2.6V | 00:00:00 | 00:00:00 | 00:00:00 | |
| OM5KV | 2026-09-02 00:34:07 | 45.87013 | 16.84329 | 1° | 15km/h | 21245m | 4.6m/s | -55.8°C | 0% | 0hPa | 2.6V | 00:00:00 | 00:00:00 | 00:00:00 | |
| 9A1FER-3 | 2026-09-02 00:34:06 | 45.87004 | 16.84330 | 360° | 11km/h | 21235m | 5.5m/s | -55.7°C | 4.7% | 0hPa | 2.6V | 00:00:00 | 01:33:19 | 00:00:00 | |
| OM5KV | 2026-09-02 00:34:05 | 45.87004 | 16.84330 | 360° | 20km/h | 21235m | 5.5m/s | -55.8°C | 1.4% | 0hPa | 2.6V | 00:00:00 | 00:00:00 | 00:00:00 | |
| PETON7-10 | 2026-09-02 00:34:02 | 45.86984 | 16.84333 | 349° | 9km/h | 21215m | 5.0m/s | -55.7°C | 4.7% | 0hPa | 2.6V | 00:00:00 | 01:33:15 | 00:00:00 | |
| OE5DXL-15 | 2026-09-02 00:34:01 | 45.86981 | 16.84334 | 354° | 9km/h | 21210m | 5.3m/s | -55.7°C | 4.7% | 0hPa | 2.6V | 00:00:00 | 00:00:00 | 00:00:00 | |
| OM5KV | 2026-09-02 00:34:00 | 45.86981 | 16.84334 | 355° | 11km/h | 21210m | 5.4m/s | -55.7°C | 1.4% | 0hPa | 2.6V | 00:00:00 | 00:00:00 | 00:00:00 | |
| OM5KV | 2026-09-02 00:33:56 | 45.86975 | 16.84337 | 310° | 5km/h | 21190m | 4.8m/s | -55.7°C | 0% | 0hPa | 2.6V | 00:00:00 | 00:00:00 | 00:00:00 | |
| OM5KV | 2026-09-02 00:33:54 | 45.86972 | 16.84339 | 351° | 7km/h | 21180m | 4.6m/s | -55.7°C | 1.4% | 0hPa | 2.6V | 00:00:00 | 00:00:00 | 00:00:00 | |
| PG1ADW-2 | 2026-09-02 00:33:52 | 45.86965 | 16.84341 | 352° | 9km/h | 21164m | 5.0m/s | -55.6°C | 4.7% | 0hPa | 2.6V | 00:00:00 | 00:00:00 | 00:00:00 | |
| 9A1FER-3 | 2026-09-02 00:33:51 | 45.86962 | 16.84342 | 4° | 9km/h | 21159m | 6.0m/s | -55.6°C | 4.7% | 0hPa | 2.6V | 00:00:00 | 01:33:04 | 00:00:00 | |
| OM5KV | 2026-09-02 00:33:48 | 45.86956 | 16.84339 | 24° | 13km/h | 21149m | 4.1m/s | -55.6°C | 1.4% | 0hPa | 2.6V | 00:00:00 | 00:00:00 | 00:00:00 | |
| PETON7-10 | 2026-09-02 00:33:47 | 45.86951 | 16.84337 | 11° | 9km/h | 21139m | 4.3m/s | -55.7°C | 4.7% | 0hPa | 2.6V | 00:00:00 | 00:00:00 | 00:00:00 | |
| 9A1FER-10 | 2026-09-02 00:33:46 | 45.86949 | 16.84336 | 8° | 9km/h | 21135m | 4.8m/s | -55.8°C | 4.7% | 0hPa | 2.6V | 00:00:00 | 01:32:59 | 00:00:00 | |
| OM5KV | 2026-09-02 00:33:43 | 45.86944 | 16.84335 | 360° | 7km/h | 21120m | 4.8m/s | -56.0°C | 1.5% | 0hPa | 2.6V | 00:00:00 | 00:00:00 | 00:00:00 | |
| OM5KV | 2026-09-02 00:33:38 | 45.86936 | 16.84335 | 40° | 9km/h | 21100m | 5.2m/s | -56.0°C | 0% | 0hPa | 2.6V | 00:00:00 | 00:00:00 | 00:00:00 | |
| OM5KV | 2026-09-02 00:33:37 | 45.86934 | 16.84328 | 71° | 13km/h | 21090m | 5.7m/s | -56.0°C | 1.5% | 0hPa | 2.6V | 00:00:00 | 00:00:00 | 00:00:00 | |
| 9A1FER-3 | 2026-09-02 00:33:36 | 45.86933 | 16.84324 | 78° | 13km/h | 21085m | 4.9m/s | -55.9°C | 4.8% | 0hPa | 2.6V | 00:00:00 | 01:32:49 | 08:30:00 | |
| PETON7-10 | 2026-09-02 00:33:32 | 45.86928 | 16.84309 | 54° | 13km/h | 21065m | 4.2m/s | -55.9°C | 4.8% | 0hPa | 2.5V | 00:00:00 | 00:00:00 | 00:00:00 | |
| 9A1FER-10 | 2026-09-02 00:33:31 | 45.86926 | 16.84306 | 52° | 13km/h | 21060m | 5.7m/s | -55.9°C | 4.8% | 0hPa | 2.5V | 00:00:00 | 01:32:44 | 00:00:00 | |
| OE5DXL-15 | 2026-09-02 00:33:30 | 45.86925 | 16.84303 | 51° | 15km/h | 21054m | 5.0m/s | -55.9°C | 4.8% | 0hPa | 2.5V | 00:00:00 | 00:00:00 | 00:00:00 | |
| OM5KV | 2026-09-02 00:33:27 | 45.86922 | 16.84299 | 41° | 9km/h | 21044m | 5.8m/s | 0°C | 0% | 0hPa | 2.5V | 00:00:00 | 00:00:00 | 00:00:00 | |
| OE5DRO-10 | 2026-09-02 00:33:26 | 45.86917 | 16.84293 | 41° | 15km/h | 21035m | 3.8m/s | -55.9°C | 4.8% | 0hPa | 2.5V | 00:00:00 | 00:00:00 | 00:00:00 | |
| OM5KV | 2026-09-02 00:33:25 | 45.86917 | 16.84293 | 41° | 15km/h | 21035m | 3.9m/s | -55.9°C | 1.5% | 0hPa | 2.5V | 00:00:00 | 00:00:00 | 00:00:00 | |
| 9A1FER-3 | 2026-09-02 00:33:21 | 45.86903 | 16.84270 | 47° | 15km/h | 21009m | 4.6m/s | -55.8°C | 4.8% | 0hPa | 2.5V | 00:00:00 | 01:32:34 | 00:00:00 | |
| PETON7-10 | 2026-09-02 00:33:17 | 45.86891 | 16.84259 | 12° | 15km/h | 20988m | 5.9m/s | -55.8°C | 4.8% | 0hPa | 2.5V | 00:00:00 | 01:32:30 | 00:00:00 | |
| 9A1FER-10 | 2026-09-02 00:33:16 | 45.86888 | 16.84258 | 6° | 15km/h | 20982m | 4.9m/s | -55.8°C | 4.8% | 0hPa | 2.5V | 00:00:00 | 01:32:29 | 00:00:00 | |
| OM5KV | 2026-09-02 00:33:13 | 45.86882 | 16.84258 | 5° | 11km/h | 20972m | 5.3m/s | -55.8°C | 1.5% | 0hPa | 2.7V | 00:00:00 | 00:00:00 | 00:00:00 | |
| PG1ADW-2 | 2026-09-02 00:33:12 | 45.86877 | 16.84256 | 15° | 16km/h | 20962m | 6.1m/s | -55.8°C | 4.8% | 0hPa | 2.7V | 00:00:00 | 00:00:00 | 00:00:00 | |
| OE5DRO-10 | 2026-09-02 00:33:07 | 45.86859 | 16.84240 | 46° | 16km/h | 20937m | 4.5m/s | -55.8°C | 4.8% | 0hPa | 2.7V | 00:00:00 | 00:00:00 | 00:00:00 | |
| 9A1FER-3 | 2026-09-02 00:33:06 | 45.86856 | 16.84235 | 41° | 16km/h | 20932m | 5.7m/s | -55.8°C | 4.8% | 0hPa | 2.6V | 00:00:00 | 01:32:19 | 00:00:00 | |
| OM5KV | 2026-09-02 00:33:03 | 45.86845 | 16.84228 | 4° | 13km/h | 20915m | 4.9m/s | -55.7°C | 1.5% | 0hPa | 2.6V | 00:00:00 | 00:00:00 | 00:00:00 | |
| PETON7-10 | 2026-09-02 00:33:02 | 45.86842 | 16.84228 | 350° | 16km/h | 20910m | 5.1m/s | -55.6°C | 4.8% | 0hPa | 2.6V | 00:00:00 | 00:00:00 | 08:30:00 | |
| 9A1FER-10 | 2026-09-02 00:33:01 | 45.86838 | 16.84230 | 345° | 16km/h | 20905m | 5.7m/s | -55.5°C | 4.8% | 0hPa | 2.7V | 00:00:00 | 01:32:14 | 00:00:00 | |
| OE5DXL-15 | 2026-09-02 00:33:00 | 45.86834 | 16.84232 | 341° | 16km/h | 20900m | 4.9m/s | -55.5°C | 4.8% | 0hPa | 2.7V | 00:00:00 | 00:00:00 | 08:30:00 | |
| OM5KV | 2026-09-02 00:32:56 | 45.86822 | 16.84238 | 340° | 15km/h | 20884m | 4.5m/s | -55.4°C | 1.4% | 0hPa | 2.5V | 00:00:00 | 00:00:00 | 00:00:00 | |
| PG1ADW-2 | 2026-09-02 00:32:52 | 45.86803 | 16.84238 | 26° | 16km/h | 20857m | 4.5m/s | -55.2°C | 4.6% | 0hPa | 2.5V | 00:00:00 | 01:32:05 | 00:00:00 | |
| OM5KV | 2026-09-02 00:32:51 | 45.86799 | 16.84236 | 30° | 16km/h | 20852m | 6.1m/s | -55.2°C | 1.4% | 0hPa | 2.5V | 00:00:00 | 00:00:00 | 00:00:00 | |
| OE5DRO-10 | 2026-09-02 00:32:48 | 45.86789 | 16.84228 | 16° | 16km/h | 20836m | 4.9m/s | -55.1°C | 4.6% | 0hPa | 2.5V | 00:00:00 | 00:00:00 | 00:00:00 | |
| PETON7-10 | 2026-09-02 00:32:47 | 45.86786 | 16.84227 | 1° | 16km/h | 20831m | 5.0m/s | -55.1°C | 4.6% | 0hPa | 2.5V | 00:00:00 | 00:00:00 | 00:00:00 | |
| 9A1FER-10 | 2026-09-02 00:32:46 | 45.86782 | 16.84228 | 349° | 16km/h | 20825m | 6.1m/s | -55.2°C | 4.5% | 0hPa | 2.5V | 00:00:00 | 01:31:59 | 00:00:00 | |
| OM5KV | 2026-09-02 00:32:44 | 45.86779 | 16.84230 | 340° | 16km/h | 20819m | 5.5m/s | -55.3°C | 0% | 0hPa | 2.5V | 00:00:00 | 00:00:00 | 00:00:00 | |
| OM5KV | 2026-09-02 00:32:38 | 45.86756 | 16.84242 | 9° | 15km/h | 20787m | 6.4m/s | -55.5°C | 0% | 0hPa | 2.5V | 00:00:00 | 00:00:00 | 00:00:00 | |
| 9A1FER-3 | 2026-09-02 00:32:36 | 45.86745 | 16.84233 | 43° | 18km/h | 20770m | 5.8m/s | -55.3°C | 4.7% | 0hPa | 2.5V | 00:00:00 | 01:31:49 | 00:00:00 | |
| PG1ADW-2 | 2026-09-02 00:32:32 | 45.86731 | 16.84214 | 36° | 18km/h | 20749m | 6.2m/s | -55.3°C | 4.7% | 0hPa | 2.5V | 00:00:00 | 00:00:00 | 00:00:00 | |
| 9A1FER-10 | 2026-09-02 00:32:31 | 45.86727 | 16.84211 | 27° | 18km/h | 20743m | 4.7m/s | -55.3°C | 4.6% | 0hPa | 2.6V | 00:00:00 | 01:31:44 | 00:00:00 | |
| OE5DXL-15 | 2026-09-02 00:32:30 | 45.86723 | 16.84209 | 17° | 18km/h | 20738m | 5.9m/s | -55.3°C | 4.7% | 0hPa | 2.7V | 00:00:00 | 00:00:00 | 00:00:00 | |
| OE5DRO-10 | 2026-09-02 00:32:29 | 45.86719 | 16.84207 | 8° | 18km/h | 20732m | 5.3m/s | -55.5°C | 4.8% | 0hPa | 2.7V | 00:00:00 | 00:00:00 | 00:00:00 | |
| OM5KV | 2026-09-02 00:32:25 | 45.86705 | 16.84205 | 14° | 20km/h | 20717m | 4.2m/s | -55.5°C | 0% | 0hPa | 2.7V | 00:00:00 | 00:00:00 | 00:00:00 | |
| 9A1FER-3 | 2026-09-02 00:32:21 | 45.86684 | 16.84189 | 42° | 16km/h | 20691m | 5.4m/s | -55.3°C | 4.8% | 0hPa | 2.7V | 00:00:00 | 01:31:34 | 00:00:00 | |
| OM5KV | 2026-09-02 00:32:19 | 45.86680 | 16.84184 | 44° | 20km/h | 20686m | 5.0m/s | -55.3°C | 0% | 0hPa | 2.7V | 00:00:00 | 00:00:00 | 00:00:00 | |
| PETON7-10 | 2026-09-02 00:32:17 | 45.86670 | 16.84171 | 37° | 16km/h | 20669m | 5.6m/s | -55.1°C | 4.7% | 0hPa | 2.7V | 00:00:00 | 00:00:00 | 00:00:00 | |
| 9A1FER-10 | 2026-09-02 00:32:16 | 45.86667 | 16.84168 | 34° | 15km/h | 20663m | 5.5m/s | -55.0°C | 4.7% | 0hPa | 2.5V | 00:00:00 | 01:31:29 | 00:00:00 | |
| OE5DRO-10 | 2026-09-02 00:32:10 | 45.86648 | 16.84146 | 46° | 16km/h | 20631m | 5.3m/s | -54.9°C | 4.6% | 0hPa | 2.5V | 00:00:00 | 00:00:00 | 08:30:00 | |
| 9A1FER-3 | 2026-09-02 00:32:06 | 45.86638 | 16.84128 | 46° | 18km/h | 20610m | 5.2m/s | -54.8°C | 4.6% | 0hPa | 2.7V | 00:00:00 | 01:31:19 | 00:00:00 | |
| PETON7-10 | 2026-09-02 00:32:02 | 45.86625 | 16.84111 | 45° | 16km/h | 20589m | 5.9m/s | -54.6°C | 4.6% | 0hPa | 2.5V | 00:00:00 | 00:00:00 | 00:00:00 | |
| OE5DXL-15 | 2026-09-02 00:32:00 | 45.86619 | 16.84101 | 58° | 18km/h | 20578m | 5.0m/s | -54.6°C | 4.6% | 0hPa | 2.5V | 00:00:00 | 00:00:00 | 00:00:00 | |
| PG1ADW-2 | 2026-09-02 00:31:52 | 45.86609 | 16.84053 | 63° | 11km/h | 20537m | 5.4m/s | -54.3°C | 4.6% | 0hPa | 2.5V | 00:00:00 | 00:00:00 | 00:00:00 | |
| 9A1FER-3 | 2026-09-02 00:31:51 | 45.86607 | 16.84048 | 57° | 11km/h | 20532m | 4.7m/s | -54.3°C | 4.5% | 0hPa | 2.5V | 00:00:00 | 01:31:04 | 00:00:00 | |
| PETON7-10 | 2026-09-02 00:31:47 | 45.86599 | 16.84031 | 64° | 11km/h | 20511m | 5.6m/s | -54.2°C | 4.5% | 0hPa | 2.5V | 00:00:00 | 01:31:00 | 00:00:00 | |
| 9A1FER-10 | 2026-09-02 00:31:38 | 45.86592 | 16.83998 | 61° | 7km/h | 20466m | 5.4m/s | -53.8°C | 4.4% | 0hPa | 2.5V | 00:00:00 | 01:30:51 | 00:00:00 | |
| 9A1FER-3 | 2026-09-02 00:31:36 | 45.86589 | 16.83993 | 48° | 7km/h | 20456m | 5.3m/s | -53.8°C | 4.4% | 0hPa | 2.5V | 00:00:00 | 01:30:49 | 00:00:00 | |
| OE5DRO-10 | 2026-09-02 00:31:32 | 45.86582 | 16.83981 | 65° | 5km/h | 20435m | 4.5m/s | -53.7°C | 4.3% | 0hPa | 2.5V | 00:00:00 | 00:00:00 | 00:00:00 | |
| 9A1FER-10 | 2026-09-02 00:31:22 | 45.86579 | 16.83963 | 77° | 5km/h | 20385m | 4.2m/s | -53.5°C | 4.2% | 0hPa | 2.5V | 00:00:00 | 01:30:35 | 08:30:00 | |
| 9A1FER-3 | 2026-09-02 00:31:21 | 45.86578 | 16.83960 | 63° | 5km/h | 20380m | 5.8m/s | -53.6°C | 4.2% | 0hPa | 2.6V | 00:00:00 | 01:30:34 | 08:30:00 | |
| PETON7-10 | 2026-09-02 00:31:17 | 45.86575 | 16.83953 | 187° | 5km/h | 20360m | 4.6m/s | -53.9°C | 4.3% | 0hPa | 2.6V | 00:00:00 | 00:00:00 | 00:00:00 | |
| OE5DRO-10 | 2026-09-02 00:31:13 | 45.86578 | 16.83962 | 231° | 7km/h | 20341m | 5.2m/s | -53.9°C | 4.4% | 0hPa | 2.6V | 00:00:00 | 00:00:00 | 00:00:00 | |
| PG1ADW-2 | 2026-09-02 00:31:12 | 45.86580 | 16.83964 | 213° | 5km/h | 20336m | 4.8m/s | -53.9°C | 4.4% | 0hPa | 2.6V | 00:00:00 | 00:00:00 | 00:00:00 | |
| 9A1FER-10 | 2026-09-02 00:31:07 | 45.86584 | 16.83964 | 136° | 7km/h | 20310m | 4.5m/s | -53.7°C | 4.3% | 0hPa | 2.6V | 00:00:00 | 01:30:20 | 00:00:00 | |
| 9A1FER-3 | 2026-09-02 00:31:06 | 45.86585 | 16.83963 | 141° | 7km/h | 20305m | 5.4m/s | -53.7°C | 4.3% | 0hPa | 2.6V | 00:00:00 | 01:30:19 | 00:00:00 | |
| PETON7-10 | 2026-09-02 00:31:01 | 45.86593 | 16.83959 | 172° | 5km/h | 20281m | 4.8m/s | -53.6°C | 4.3% | 0hPa | 2.6V | 00:00:00 | 01:30:14 | 00:00:00 | |
| OE5DRO-10 | 2026-09-02 00:30:54 | 45.86604 | 16.83951 | 110° | 7km/h | 20249m | 5.1m/s | -53.6°C | 4.3% | 0hPa | 2.6V | 00:00:00 | 00:00:00 | 00:00:00 | |
| PG1ADW-2 | 2026-09-02 00:30:52 | 45.86605 | 16.83947 | 125° | 9km/h | 20239m | 5.5m/s | -53.7°C | 4.3% | 0hPa | 2.6V | 00:00:00 | 00:00:00 | 00:00:00 | |
| 9A1FER-3 | 2026-09-02 00:30:51 | 45.86606 | 16.83946 | 144° | 7km/h | 20234m | 4.3m/s | -53.7°C | 4.3% | 0hPa | 2.6V | 00:00:00 | 01:30:04 | 00:00:00 | |
| PETON7-10 | 2026-09-02 00:30:46 | 45.86610 | 16.83943 | 127° | 11km/h | 20210m | 4.0m/s | -53.7°C | 4.3% | 0hPa | 2.6V | 00:00:00 | 00:00:00 | 08:30:00 | |
| 9A1FER-10 | 2026-09-02 00:30:37 | 45.86612 | 16.83911 | 99° | 15km/h | 20169m | 4.6m/s | -53.7°C | 4.4% | 0hPa | 2.7V | 00:00:00 | 01:29:50 | 00:00:00 | |
| 9A1FER-3 | 2026-09-02 00:30:36 | 45.86612 | 16.83908 | 104° | 15km/h | 20165m | 3.9m/s | -53.7°C | 4.4% | 0hPa | 2.7V | 00:00:00 | 01:29:49 | 00:00:00 | |
| OE5DRO-10 | 2026-09-02 00:30:35 | 45.86613 | 16.83903 | 110° | 15km/h | 20160m | 5.6m/s | -53.7°C | 4.3% | 0hPa | 2.7V | 00:00:00 | 00:00:00 | 00:00:00 | |
| PG1ADW-2 | 2026-09-02 00:30:32 | 45.86619 | 16.83891 | 133° | 16km/h | 20145m | 4.6m/s | -53.6°C | 4.3% | 0hPa | 2.7V | 00:00:00 | 00:00:00 | 08:30:00 | |
| 9A1FER-10 | 2026-09-02 00:30:22 | 45.86637 | 16.83846 | 131° | 18km/h | 20099m | 5.3m/s | -53.6°C | 4.3% | 0hPa | 2.7V | 00:00:00 | 01:29:35 | 00:00:00 | |
| 9A1FER-3 | 2026-09-02 00:30:21 | 45.86640 | 16.83843 | 142° | 18km/h | 20094m | 4.6m/s | -53.6°C | 4.2% | 0hPa | 2.7V | 00:00:00 | 01:29:34 | 00:00:00 | |
| PETON7-10 | 2026-09-02 00:30:17 | 45.86659 | 16.83827 | 157° | 20km/h | 20071m | 4.2m/s | -53.9°C | 4.3% | 0hPa | 2.7V | 00:00:00 | 01:29:29 | 00:00:00 | |
| OE5DRO-10 | 2026-09-02 00:30:16 | 45.86659 | 16.83827 | 157° | 20km/h | 20071m | 4.2m/s | -53.9°C | 4.3% | 0hPa | 2.7V | 00:00:00 | 00:00:00 | 00:00:00 | |
| PG1ADW-2 | 2026-09-02 00:30:12 | 45.86675 | 16.83812 | 139° | 22km/h | 20053m | 4.0m/s | -53.9°C | 4.4% | 0hPa | 2.6V | 00:00:00 | 01:29:25 | 00:00:00 | |
| 9A1FER-10 | 2026-09-02 00:30:07 | 45.86695 | 16.83787 | 139° | 22km/h | 20030m | 4.3m/s | -53.8°C | 4.4% | 0hPa | 2.6V | 00:00:00 | 01:29:20 | 00:00:00 | |
| 9A1FER-3 | 2026-09-02 00:30:06 | 45.86699 | 16.83782 | 137° | 22km/h | 20025m | 5.5m/s | -53.8°C | 4.3% | 0hPa | 2.6V | 00:00:00 | 01:29:19 | 00:00:00 | |
| PETON7-10 | 2026-09-02 00:30:01 | 45.86714 | 16.83753 | 119° | 22km/h | 20003m | 4.3m/s | -53.8°C | 4.4% | 0hPa | 2.6V | 00:00:00 | 00:00:00 | 00:00:00 | |
| OE5DRO-10 | 2026-09-02 00:29:57 | 45.86722 | 16.83720 | 110° | 22km/h | 19984m | 4.3m/s | -53.7°C | 4.3% | 0hPa | 2.6V | 00:00:00 | 00:00:00 | 00:00:00 | |
| PG1ADW-2 | 2026-09-02 00:29:52 | 45.86730 | 16.83678 | 103° | 20km/h | 19961m | 5.1m/s | -53.7°C | 4.2% | 0hPa | 2.6V | 00:00:00 | 00:00:00 | 00:00:00 | |
| 9A1FER-3 | 2026-09-02 00:29:51 | 45.86731 | 16.83670 | 104° | 20km/h | 19957m | 2.6m/s | -53.7°C | 4.2% | 0hPa | 2.6V | 00:00:00 | 01:29:04 | 00:00:00 | |
| PETON7-10 | 2026-09-02 00:29:46 | 45.86737 | 16.83637 | 117° | 20km/h | 19935m | 3.7m/s | -53.9°C | 4.2% | 0hPa | 2.6V | 00:00:00 | 00:00:00 | 00:00:00 | |
| OE5DRO-10 | 2026-09-02 00:29:38 | 45.86741 | 16.83576 | 79° | 24km/h | 19899m | 4.3m/s | -54.2°C | 4.2% | 0hPa | 2.6V | 00:00:00 | 00:00:00 | 00:00:00 | |
| 9A1FER-10 | 2026-09-02 00:29:37 | 45.86740 | 16.83568 | 78° | 22km/h | 19895m | 4.4m/s | -54.2°C | 4.2% | 0hPa | 2.6V | 00:00:00 | 01:28:50 | 00:00:00 | |
| 9A1FER-3 | 2026-09-02 00:29:36 | 45.86739 | 16.83561 | 82° | 22km/h | 19890m | 4.7m/s | -54.2°C | 4.2% | 0hPa | 2.6V | 00:00:00 | 01:28:49 | 00:00:00 | |
| PG1ADW-2 | 2026-09-02 00:29:32 | 45.86734 | 16.83534 | 67° | 27km/h | 19871m | 4.0m/s | -54.4°C | 4.2% | 0hPa | 2.6V | 00:00:00 | 00:00:00 | 00:00:00 | |
| PETON7-10 | 2026-09-02 00:29:31 | 45.86732 | 16.83526 | 69° | 26km/h | 19867m | 5.0m/s | -54.4°C | 4.2% | 0hPa | 2.7V | 00:00:00 | 01:28:44 | 00:00:00 | |
| 9A1FER-10 | 2026-09-02 00:29:22 | 45.86712 | 16.83453 | 68° | 33km/h | 19826m | 3.7m/s | -55.2°C | 4.5% | 0hPa | 2.7V | 00:00:00 | 01:28:35 | 00:00:00 | |
| 9A1FER-3 | 2026-09-02 00:29:21 | 45.86710 | 16.83443 | 71° | 33km/h | 19821m | 5.0m/s | -55.3°C | 4.5% | 0hPa | 2.7V | 00:00:00 | 01:28:34 | 00:00:00 | |
| OE5DRO-10 | 2026-09-02 00:29:19 | 45.86705 | 16.83423 | 69° | 33km/h | 19813m | 3.5m/s | -55.4°C | 4.5% | 0hPa | 2.7V | 00:00:00 | 00:00:00 | 08:30:00 | |
| PETON7-10 | 2026-09-02 00:29:16 | 45.86693 | 16.83393 | 59° | 33km/h | 19798m | 5.1m/s | -55.6°C | 4.6% | 0hPa | 2.6V | 00:00:00 | 00:00:00 | 00:00:00 | |
| PG1ADW-2 | 2026-09-02 00:29:12 | 45.86674 | 16.83351 | 56° | 29km/h | 19780m | 3.2m/s | -55.8°C | 4.6% | 0hPa | 2.7V | 00:00:00 | 00:00:00 | 00:00:00 | |
| 9A1FER-10 | 2026-09-02 00:29:07 | 45.86654 | 16.83293 | 66° | 27km/h | 19757m | 4.3m/s | -56.0°C | 4.7% | 0hPa | 2.7V | 00:00:00 | 01:28:20 | 08:30:00 | |
| 9A1FER-3 | 2026-09-02 00:29:06 | 45.86651 | 16.83282 | 69° | 26km/h | 19752m | 5.4m/s | -56.1°C | 4.7% | 0hPa | 2.6V | 00:00:00 | 01:28:19 | 08:30:00 | |
| PETON7-10 | 2026-09-02 00:29:01 | 45.86638 | 16.83237 | 66° | 22km/h | 19729m | 5.5m/s | -56.1°C | 4.9% | 0hPa | 2.6V | 00:00:00 | 00:00:00 | 00:00:00 | |
| OE5DRO-10 | 2026-09-02 00:29:00 | 45.86636 | 16.83229 | 68° | 20km/h | 19724m | 4.6m/s | -56.1°C | 4.9% | 0hPa | 2.6V | 00:00:00 | 00:00:00 | 00:00:00 | |
| PG1ADW-2 | 2026-09-02 00:28:52 | 45.86614 | 16.83162 | 61° | 16km/h | 19686m | 3.6m/s | -55.9°C | 4.8% | 0hPa | 2.6V | 00:00:00 | 01:28:05 | 00:00:00 | |
| 9A1FER-3 | 2026-09-02 00:28:51 | 45.86612 | 16.83156 | 63° | 16km/h | 19682m | 5.1m/s | -55.9°C | 4.9% | 0hPa | 2.6V | 00:00:00 | 01:28:04 | 00:00:00 | |
| PETON7-10 | 2026-09-02 00:28:46 | 45.86600 | 16.83128 | 64° | 15km/h | 19657m | 5.5m/s | -55.7°C | 4.8% | 0hPa | 2.6V | 00:00:00 | 01:27:59 | 00:00:00 | |
| OE5DRO-10 | 2026-09-02 00:28:41 | 45.86594 | 16.83104 | 85° | 15km/h | 19632m | 5.4m/s | -55.5°C | 4.7% | 0hPa | 2.6V | 00:00:00 | 00:00:00 | 00:00:00 | |
| 9A1FER-10 | 2026-09-02 00:28:37 | 45.86592 | 16.83083 | 78° | 15km/h | 19614m | 4.2m/s | -55.4°C | 4.6% | 0hPa | 2.6V | 00:00:00 | 01:27:50 | 00:00:00 | |
| 9A1FER-3 | 2026-09-02 00:28:36 | 45.86592 | 16.83077 | 87° | 15km/h | 19609m | 5.6m/s | -55.3°C | 4.7% | 0hPa | 2.6V | 00:00:00 | 01:27:49 | 00:00:00 | |
| PG1ADW-2 | 2026-09-02 00:28:32 | 45.86591 | 16.83055 | 86° | 15km/h | 19589m | 3.8m/s | -55.3°C | 4.6% | 0hPa | 2.6V | 00:00:00 | 00:00:00 | 00:00:00 | |
| PETON7-10 | 2026-09-02 00:28:31 | 45.86591 | 16.83051 | 95° | 15km/h | 19584m | 5.7m/s | -55.3°C | 4.6% | 0hPa | 2.6V | 00:00:00 | 00:00:00 | 08:30:00 | |
| OE5DRO-10 | 2026-09-02 00:28:22 | 45.86592 | 16.83003 | 97° | 15km/h | 19539m | 4.8m/s | -55.5°C | 4.7% | 0hPa | 2.6V | 00:00:00 | 00:00:00 | 00:00:00 | |
| 9A1FER-3 | 2026-09-02 00:28:21 | 45.86593 | 16.82997 | 107° | 15km/h | 19534m | 5.5m/s | -55.5°C | 4.7% | 0hPa | 2.6V | 00:00:00 | 01:27:34 | 00:00:00 | |
| PETON7-10 | 2026-09-02 00:28:16 | 45.86602 | 16.82975 | 142° | 15km/h | 19508m | 4.7m/s | -55.4°C | 4.7% | 0hPa | 2.7V | 00:00:00 | 00:00:00 | 00:00:00 | |
| PG1ADW-2 | 2026-09-02 00:28:12 | 45.86609 | 16.82964 | 124° | 15km/h | 19489m | 5.5m/s | -55.4°C | 4.7% | 0hPa | 2.7V | 00:00:00 | 00:00:00 | 00:00:00 | |
| 9A1FER-10 | 2026-09-02 00:28:07 | 45.86618 | 16.82940 | 106° | 15km/h | 19464m | 5.1m/s | -55.2°C | 4.6% | 0hPa | 2.7V | 00:00:00 | 01:27:20 | 00:00:00 | |
| 9A1FER-3 | 2026-09-02 00:28:06 | 45.86619 | 16.82933 | 107° | 13km/h | 19459m | 4.9m/s | -55.2°C | 4.6% | 0hPa | 2.7V | 00:00:00 | 01:27:19 | 00:00:00 | |
| OE5DRO-10 | 2026-09-02 00:28:03 | 45.86622 | 16.82912 | 90° | 13km/h | 19444m | 4.2m/s | -55.2°C | 4.6% | 0hPa | 2.7V | 00:00:00 | 00:00:00 | 00:00:00 | |
| PETON7-10 | 2026-09-02 00:28:01 | 45.86622 | 16.82902 | 98° | 11km/h | 19436m | 5.5m/s | -55.2°C | 4.6% | 0hPa | 2.7V | 00:00:00 | 01:27:14 | 00:00:00 | |
| 9A1FER-10 | 2026-09-02 00:27:52 | 45.86632 | 16.82870 | 105° | 18km/h | 19391m | 4.8m/s | -55.2°C | 4.5% | 0hPa | 2.7V | 00:00:00 | 01:27:05 | 00:00:00 | |
| 9A1FER-3 | 2026-09-02 00:27:51 | 45.86632 | 16.82866 | 104° | 18km/h | 19386m | 4.8m/s | -55.2°C | 4.5% | 0hPa | 2.7V | 00:00:00 | 01:27:04 | 00:00:00 | |
| PETON7-10 | 2026-09-02 00:27:46 | 45.86640 | 16.82843 | 114° | 20km/h | 19361m | 4.0m/s | -55.6°C | 4.6% | 0hPa | 2.7V | 00:00:00 | 00:00:00 | 00:00:00 | |
| OE5DRO-10 | 2026-09-02 00:27:44 | 45.86644 | 16.82830 | 113° | 24km/h | 19351m | 4.5m/s | -55.7°C | 4.7% | 0hPa | 2.6V | 00:00:00 | 00:00:00 | 00:00:00 | |
| 9A1FER-10 | 2026-09-02 00:27:37 | 45.86651 | 16.82777 | 104° | 27km/h | 19317m | 4.3m/s | -55.9°C | 4.7% | 0hPa | 2.6V | 00:00:00 | 01:26:50 | 00:00:00 | |
| 9A1FER-3 | 2026-09-02 00:27:36 | 45.86652 | 16.82770 | 101° | 27km/h | 19312m | 5.5m/s | -55.9°C | 4.7% | 0hPa | 2.6V | 00:00:00 | 01:26:49 | 00:00:00 | |
| PG1ADW-2 | 2026-09-02 00:27:33 | 45.86658 | 16.82744 | 115° | 29km/h | 19292m | 4.5m/s | -56.1°C | 4.8% | 0hPa | 2.6V | 00:00:00 | 01:26:45 | 08:30:00 | |
| PETON7-10 | 2026-09-02 00:27:31 | 45.86661 | 16.82736 | 113° | 31km/h | 19287m | 5.3m/s | -56.1°C | 4.8% | 0hPa | 2.7V | 00:00:00 | 00:00:00 | 00:00:00 | |
| OE5DXL-15 | 2026-09-02 00:27:30 | 45.86663 | 16.82728 | 112° | 29km/h | 19282m | 4.4m/s | 0°C | 0% | 0hPa | 2.7V | 00:00:00 | 00:00:00 | 00:00:00 | |
| OE5DRO-10 | 2026-09-02 00:27:25 | 45.86673 | 16.82673 | 95° | 31km/h | 19256m | 4.9m/s | -56.1°C | 4.8% | 0hPa | 2.7V | 00:00:00 | 00:00:00 | 00:00:00 | |
| 9A1FER-10 | 2026-09-02 00:27:22 | 45.86675 | 16.82636 | 93° | 31km/h | 19241m | 5.6m/s | -56.1°C | 4.8% | 0hPa | 2.6V | 00:00:00 | 01:26:35 | 00:00:00 | |
| 9A1FER-3 | 2026-09-02 00:27:21 | 45.86675 | 16.82625 | 94° | 31km/h | 19236m | 4.2m/s | -56.1°C | 4.8% | 0hPa | 2.6V | 00:00:00 | 01:26:34 | 00:00:00 | |
| PETON7-10 | 2026-09-02 00:27:16 | 45.86682 | 16.82577 | 105° | 31km/h | 19211m | 4.5m/s | -56.2°C | 4.8% | 0hPa | 2.6V | 00:00:00 | 01:26:29 | 00:00:00 | |
| PG1ADW-2 | 2026-09-02 00:27:12 | 45.86690 | 16.82534 | 100° | 33km/h | 19191m | 5.7m/s | -56.3°C | 4.8% | 0hPa | 2.6V | 00:00:00 | 00:00:00 | 00:00:00 | |
| 9A1FER-10 | 2026-09-02 00:27:07 | 45.86695 | 16.82475 | 93° | 33km/h | 19167m | 5.9m/s | -56.3°C | 4.7% | 0hPa | 2.6V | 00:00:00 | 01:26:20 | 00:00:00 | |
| 9A1FER-3 | 2026-09-02 00:27:06 | 45.86695 | 16.82464 | 91° | 33km/h | 19161m | 4.5m/s | -56.3°C | 4.7% | 0hPa | 2.6V | 00:00:00 | 01:26:19 | 00:00:00 | |
| PETON7-10 | 2026-09-02 00:27:01 | 45.86697 | 16.82416 | 94° | 35km/h | 19137m | 4.2m/s | -56.6°C | 4.8% | 0hPa | 2.6V | 00:00:00 | 00:00:00 | 00:00:00 | |
| PG1ADW-2 | 2026-09-02 00:26:52 | 45.86711 | 16.82300 | 99° | 33km/h | 19092m | 4.8m/s | -57.2°C | 5.1% | 0hPa | 2.6V | 00:00:00 | 00:00:00 | 00:00:00 | |
| OE5DRO-10 | 2026-09-02 00:26:46 | 45.86717 | 16.82231 | 92° | 33km/h | 19063m | 3.3m/s | -57.1°C | 5.1% | 0hPa | 2.6V | 00:00:00 | 00:00:00 | 00:00:00 | |
| 9A1FER-10 | 2026-09-02 00:26:37 | 45.86724 | 16.82109 | 94° | 27km/h | 19021m | 4.9m/s | -56.9°C | 5.1% | 0hPa | 2.6V | 00:00:00 | 01:25:50 | 00:00:00 | |
| 9A1FER-3 | 2026-09-02 00:26:36 | 45.86724 | 16.82099 | 87° | 27km/h | 19016m | 5.2m/s | -56.9°C | 5.2% | 0hPa | 2.6V | 00:00:00 | 01:25:49 | 00:00:00 | |
| PG1ADW-2 | 2026-09-02 00:26:32 | 45.86722 | 16.82064 | 85° | 24km/h | 18996m | 5.4m/s | -56.8°C | 5.1% | 0hPa | 2.6V | 00:00:00 | 00:00:00 | 00:00:00 | |
| PETON7-10 | 2026-09-02 00:26:31 | 45.86722 | 16.82055 | 85° | 26km/h | 18991m | 4.7m/s | -56.7°C | 5.0% | 0hPa | 2.6V | 00:00:00 | 01:25:44 | 00:00:00 | |
| OE5DXL-15 | 2026-09-02 00:26:30 | 45.86721 | 16.82045 | 89° | 35km/h | 18986m | 4.5m/s | 0°C | 0% | 0hPa | 2.6V | 00:00:00 | 00:00:00 | 00:00:00 | |
| OE5DRO-10 | 2026-09-02 00:26:27 | 45.86723 | 16.82012 | 99° | 22km/h | 18972m | 4.6m/s | -56.6°C | 4.9% | 0hPa | 2.6V | 00:00:00 | 00:00:00 | 08:30:00 | |
| 9A1FER-10 | 2026-09-02 00:26:22 | 45.86725 | 16.81958 | 90° | 20km/h | 18948m | 4.6m/s | -56.5°C | 5.0% | 0hPa | 2.6V | 00:00:00 | 01:25:35 | 00:00:00 | |
| 9A1FER-3 | 2026-09-02 00:26:21 | 45.86725 | 16.81950 | 83° | 20km/h | 18942m | 6.0m/s | -56.5°C | 5.0% | 0hPa | 2.6V | 00:00:00 | 01:25:34 | 00:00:00 | |
| PETON7-10 | 2026-09-02 00:26:16 | 45.86719 | 16.81921 | 87° | 18km/h | 18919m | 3.8m/s | -56.4°C | 4.9% | 0hPa | 2.6V | 00:00:00 | 00:00:00 | 08:30:00 | |
| PG1ADW-2 | 2026-09-02 00:26:12 | 45.86717 | 16.81892 | 85° | 15km/h | 18900m | 5.1m/s | -56.3°C | 4.8% | 0hPa | 2.7V | 00:00:00 | 01:25:25 | 00:00:00 | |
| OE5DRO-10 | 2026-09-02 00:26:08 | 45.86715 | 16.81860 | 83° | 13km/h | 18881m | 4.6m/s | -56.3°C | 4.9% | 0hPa | 2.7V | 00:00:00 | 00:00:00 | 00:00:00 | |
| 9A1FER-10 | 2026-09-02 00:26:07 | 45.86715 | 16.81852 | 86° | 13km/h | 18876m | 5.3m/s | -56.3°C | 4.9% | 0hPa | 2.7V | 00:00:00 | 01:25:20 | 00:00:00 | |
| 9A1FER-3 | 2026-09-02 00:26:06 | 45.86714 | 16.81845 | 90° | 13km/h | 18870m | 4.7m/s | -56.2°C | 4.9% | 0hPa | 2.7V | 00:00:00 | 01:25:19 | 00:00:00 | |
| PETON7-10 | 2026-09-02 00:26:01 | 45.86714 | 16.81821 | 84° | 9km/h | 18846m | 5.9m/s | -56.1°C | 4.7% | 0hPa | 2.6V | 00:00:00 | 00:00:00 | 00:00:00 | |
| 9A1FER-10 | 2026-09-02 00:25:52 | 45.86719 | 16.81785 | 99° | 5km/h | 18801m | 4.2m/s | -56.5°C | 4.8% | 0hPa | 2.6V | 00:00:00 | 01:25:05 | 00:00:00 | |
| 9A1FER-3 | 2026-09-02 00:25:51 | 45.86719 | 16.81781 | 99° | 5km/h | 18796m | 5.4m/s | -56.7°C | 4.9% | 0hPa | 2.6V | 00:00:00 | 01:25:04 | 00:00:00 | |
| OE5DRO-10 | 2026-09-02 00:25:49 | 45.86719 | 16.81777 | 63° | 5km/h | 18787m | 3.9m/s | -56.7°C | 5.0% | 0hPa | 2.6V | 00:00:00 | 00:00:00 | 00:00:00 | |
| PETON7-10 | 2026-09-02 00:25:46 | 45.86716 | 16.81778 | 345° | 5km/h | 18773m | 3.8m/s | -56.7°C | 5.0% | 0hPa | 2.6V | 00:00:00 | 01:24:59 | 00:00:00 | |
| 9A1FER-10 | 2026-09-02 00:25:37 | 45.86722 | 16.81772 | 168° | 11km/h | 18732m | 5.3m/s | -56.6°C | 5.0% | 0hPa | 2.6V | 00:00:00 | 01:24:50 | 00:00:00 | |
| 9A1FER-3 | 2026-09-02 00:25:36 | 45.86724 | 16.81771 | 157° | 11km/h | 18727m | 4.4m/s | -56.6°C | 5.0% | 0hPa | 2.6V | 00:00:00 | 01:24:49 | 00:00:00 | |
| PG1ADW-2 | 2026-09-02 00:25:32 | 45.86732 | 16.81767 | 156° | 13km/h | 18709m | 4.4m/s | -56.6°C | 5.0% | 0hPa | 2.6V | 00:00:00 | 00:00:00 | 00:00:00 | |
| PETON7-10 | 2026-09-02 00:25:31 | 45.86734 | 16.81766 | 136° | 13km/h | 18704m | 5.5m/s | -56.6°C | 5.0% | 0hPa | 2.6V | 00:00:00 | 00:00:00 | 00:00:00 | |
| OE5DRO-10 | 2026-09-02 00:25:30 | 45.86735 | 16.81763 | 116° | 13km/h | 18699m | 4.1m/s | -56.5°C | 5.0% | 0hPa | 2.7V | 00:00:00 | 00:00:00 | 00:00:00 | |
| 9A1FER-10 | 2026-09-02 00:25:22 | 45.86754 | 16.81742 | 153° | 15km/h | 18664m | 3.8m/s | -56.3°C | 5.0% | 0hPa | 2.6V | 00:00:00 | 01:24:35 | 00:00:00 | |
| 9A1FER-3 | 2026-09-02 00:25:21 | 45.86757 | 16.81739 | 149° | 15km/h | 18660m | 3.8m/s | -56.3°C | 4.9% | 0hPa | 2.6V | 00:00:00 | 01:24:34 | 00:00:00 | |
| PETON7-10 | 2026-09-02 00:25:16 | 45.86771 | 16.81720 | 140° | 16km/h | 18636m | 4.9m/s | -56.2°C | 5.0% | 0hPa | 2.7V | 00:00:00 | 00:00:00 | 00:00:00 | |
| PG1ADW-2 | 2026-09-02 00:25:11 | 45.86783 | 16.81701 | 124° | 18km/h | 18614m | 4.4m/s | -56.0°C | 4.9% | 0hPa | 2.7V | 00:00:00 | 00:00:00 | 00:00:00 | |
| 9A1FER-10 | 2026-09-02 00:25:07 | 45.86793 | 16.81685 | 131° | 20km/h | 18594m | 4.9m/s | -55.9°C | 4.8% | 0hPa | 2.7V | 00:00:00 | 01:24:20 | 00:00:00 | |
| 9A1FER-3 | 2026-09-02 00:25:06 | 45.86796 | 16.81680 | 129° | 22km/h | 18590m | 3.9m/s | -55.9°C | 4.8% | 0hPa | 2.7V | 00:00:00 | 01:24:19 | 00:00:00 | |
| PETON7-10 | 2026-09-02 00:25:01 | 45.86812 | 16.81657 | 130° | 26km/h | 18566m | 4.5m/s | -55.9°C | 4.8% | 0hPa | 2.7V | 00:00:00 | 01:24:14 | 00:00:00 | |
| OE5DRO-10 | 2026-09-02 00:24:52 | 45.86841 | 16.81596 | 116° | 31km/h | 18521m | 5.0m/s | -55.7°C | 4.9% | 0hPa | 2.7V | 00:00:00 | 00:00:00 | 00:00:00 | |
| 9A1FER-3 | 2026-09-02 00:24:51 | 45.86844 | 16.81587 | 116° | 31km/h | 18516m | 3.6m/s | -55.7°C | 4.8% | 0hPa | 2.7V | 00:00:00 | 01:24:04 | 00:00:00 | |
| PETON7-10 | 2026-09-02 00:24:46 | 45.86864 | 16.81538 | 116° | 33km/h | 18494m | 4.1m/s | -55.5°C | 4.8% | 0hPa | 2.7V | 00:00:00 | 00:00:00 | 00:00:00 | |
| 9A1FER-10 | 2026-09-02 00:24:37 | 45.86887 | 16.81445 | 107° | 37km/h | 18450m | 6.3m/s | -55.2°C | 4.6% | 0hPa | 2.6V | 00:00:00 | 01:23:50 | 08:30:00 | |
| 9A1FER-3 | 2026-09-02 00:24:36 | 45.86890 | 16.81433 | 108° | 37km/h | 18444m | 4.6m/s | -55.2°C | 4.5% | 0hPa | 2.7V | 00:00:00 | 01:23:49 | 08:30:00 | |
| OE5DRO-10 | 2026-09-02 00:24:33 | 45.86900 | 16.81396 | 112° | 38km/h | 18430m | 4.2m/s | -55.1°C | 4.5% | 0hPa | 2.6V | 00:00:00 | 00:00:00 | 00:00:00 | |
| PETON7-10 | 2026-09-02 00:24:31 | 45.86906 | 16.81369 | 107° | 38km/h | 18420m | 4.5m/s | -55.1°C | 4.4% | 0hPa | 2.7V | 00:00:00 | 00:00:00 | 00:00:00 | |
| 9A1FER-10 | 2026-09-02 00:24:22 | 45.86929 | 16.81255 | 106° | 47km/h | 18378m | 4.1m/s | -55.8°C | 4.5% | 0hPa | 2.7V | 00:00:00 | 01:23:35 | 00:00:00 | |
| 9A1FER-3 | 2026-09-02 00:24:21 | 45.86932 | 16.81241 | 104° | 47km/h | 18373m | 5.1m/s | -56.0°C | 4.6% | 0hPa | 2.7V | 00:00:00 | 01:23:34 | 00:00:00 | |
| PETON7-10 | 2026-09-02 00:24:16 | 45.86943 | 16.81166 | 104° | 51km/h | 18350m | 3.6m/s | -56.2°C | 4.6% | 0hPa | 2.7V | 00:00:00 | 01:23:29 | 00:00:00 | |
| OE5DRO-10 | 2026-09-02 00:24:14 | 45.86948 | 16.81134 | 99° | 53km/h | 18340m | 5.4m/s | -56.3°C | 4.7% | 0hPa | 2.7V | 00:00:00 | 00:00:00 | 00:00:00 | |
| 9A1FER-10 | 2026-09-02 00:24:07 | 45.86954 | 16.81003 | 92° | 55km/h | 18308m | 4.8m/s | -56.9°C | 4.9% | 0hPa | 2.7V | 00:00:00 | 01:23:20 | 00:00:00 | |
| 9A1FER-3 | 2026-09-02 00:24:06 | 45.86954 | 16.80984 | 93° | 57km/h | 18303m | 4.7m/s | -56.9°C | 5.0% | 0hPa | 2.7V | 00:00:00 | 01:23:19 | 00:00:00 | |
| PETON7-10 | 2026-09-02 00:24:01 | 45.86957 | 16.80892 | 88° | 57km/h | 18280m | 5.1m/s | -57.1°C | 5.1% | 0hPa | 2.7V | 00:00:00 | 00:00:00 | 08:30:00 | |
| OE5DRO-10 | 2026-09-02 00:23:55 | 45.86944 | 16.80766 | 82° | 53km/h | 18252m | 4.6m/s | -57.3°C | 5.1% | 0hPa | 2.7V | 00:00:00 | 00:00:00 | 00:00:00 | |
| PG1ADW-2 | 2026-09-02 00:23:54 | 45.86942 | 16.80745 | 84° | 51km/h | 18248m | 4.7m/s | -57.3°C | 5.1% | 0hPa | 2.7V | 00:00:00 | 00:00:00 | 08:30:00 | |
| 9A1FER-10 | 2026-09-02 00:23:52 | 45.86940 | 16.80703 | 88° | 51km/h | 18238m | 3.9m/s | -57.3°C | 5.1% | 0hPa | 2.6V | 00:00:00 | 01:23:05 | 00:00:00 | |
| 9A1FER-3 | 2026-09-02 00:23:51 | 45.86939 | 16.80683 | 88° | 51km/h | 18233m | 5.1m/s | -57.3°C | 5.0% | 0hPa | 2.6V | 00:00:00 | 01:23:04 | 00:00:00 | |
| PETON7-10 | 2026-09-02 00:23:46 | 45.86932 | 16.80588 | 80° | 49km/h | 18210m | 5.7m/s | -57.3°C | 5.1% | 0hPa | 2.6V | 00:00:00 | 00:00:00 | 00:00:00 | |
| 9A1FER-10 | 2026-09-02 00:23:37 | 45.86910 | 16.80430 | 83° | 46km/h | 18167m | 4.1m/s | -57.5°C | 5.3% | 0hPa | 2.6V | 00:00:00 | 01:22:50 | 00:00:00 | |
| OE5DRO-10 | 2026-09-02 00:23:36 | 45.86909 | 16.80413 | 81° | 44km/h | 18162m | 5.3m/s | -57.5°C | 5.2% | 0hPa | 2.6V | 00:00:00 | 00:00:00 | 08:30:00 | |
| PG1ADW-2 | 2026-09-02 00:23:34 | 45.86905 | 16.80380 | 80° | 47km/h | 18153m | 4.6m/s | -57.5°C | 5.2% | 0hPa | 2.6V | 00:00:00 | 00:00:00 | 00:00:00 | |
| PETON7-10 | 2026-09-02 00:23:31 | 45.86899 | 16.80329 | 79° | 42km/h | 18139m | 5.7m/s | -57.4°C | 5.2% | 0hPa | 2.6V | 00:00:00 | 01:22:44 | 00:00:00 | |
| 9A1FER-10 | 2026-09-02 00:23:22 | 45.86883 | 16.80185 | 88° | 40km/h | 18096m | 3.8m/s | -57.4°C | 5.2% | 0hPa | 2.6V | 00:00:00 | 01:22:35 | 00:00:00 | |
| 9A1FER-3 | 2026-09-02 00:23:21 | 45.86882 | 16.80170 | 86° | 40km/h | 18092m | 4.8m/s | -57.3°C | 5.2% | 0hPa | 2.6V | 00:00:00 | 01:22:34 | 00:00:00 | |
| OE5DRO-10 | 2026-09-02 00:23:17 | 45.86878 | 16.80110 | 87° | 38km/h | 18073m | 3.9m/s | -57.3°C | 5.2% | 0hPa | 2.6V | 00:00:00 | 00:00:00 | 00:00:00 | |
| PG1ADW-2 | 2026-09-02 00:23:14 | 45.86875 | 16.80067 | 86° | 37km/h | 18058m | 5.2m/s | 0°C | 0% | 0hPa | 2.6V | 00:00:00 | 00:00:00 | 00:00:00 | |
| 9A1FER-10 | 2026-09-02 00:23:07 | 45.86868 | 16.79968 | 81° | 35km/h | 18023m | 5.7m/s | -57.1°C | 5.2% | 0hPa | 2.6V | 00:00:00 | 01:22:20 | 00:00:00 | |
| PETON7-10 | 2026-09-02 00:22:59 | 45.86864 | 16.79863 | 94° | 35km/h | 17986m | 5.2m/s | -56.9°C | 5.1% | 0hPa | 2.7V | 00:00:00 | 00:00:00 | 00:00:00 | |
| OE5DRO-10 | 2026-09-02 00:22:58 | 45.86865 | 16.79851 | 99° | 35km/h | 17980m | 5.0m/s | -56.9°C | 5.1% | 0hPa | 2.7V | 00:00:00 | 00:00:00 | 00:00:00 | |
| PG1ADW-2 | 2026-09-02 00:22:54 | 45.86869 | 16.79805 | 96° | 35km/h | 17962m | 5.6m/s | 0°C | 0% | 0hPa | 2.7V | 00:00:00 | 01:22:07 | 00:00:00 | |
| 9A1FER-10 | 2026-09-02 00:22:52 | 45.86871 | 16.79780 | 93° | 37km/h | 17952m | 5.5m/s | -56.8°C | 5.1% | 0hPa | 2.7V | 00:00:00 | 01:22:05 | 00:00:00 | |
| 9A1FER-3 | 2026-09-02 00:22:51 | 45.86871 | 16.79767 | 91° | 37km/h | 17946m | 4.8m/s | -56.8°C | 5.1% | 0hPa | 2.7V | 00:00:00 | 01:22:04 | 00:00:00 | |
| PETON7-10 | 2026-09-02 00:22:44 | 45.86879 | 16.79677 | 106° | 37km/h | 17911m | 5.6m/s | -56.7°C | 5.0% | 0hPa | 2.7V | 00:00:00 | 01:21:57 | 00:00:00 | |
| OE5DRO-10 | 2026-09-02 00:22:38 | 45.86893 | 16.79602 | 106° | 40km/h | 17882m | 5.6m/s | -56.5°C | 4.9% | 0hPa | 2.7V | 00:00:00 | 00:00:00 | 00:00:00 | |
| 9A1FER-10 | 2026-09-02 00:22:37 | 45.86896 | 16.79589 | 106° | 40km/h | 17877m | 4.5m/s | -56.5°C | 4.9% | 0hPa | 2.6V | 00:00:00 | 01:21:50 | 00:00:00 | |
| 9A1FER-3 | 2026-09-02 00:22:36 | 45.86898 | 16.79577 | 105° | 40km/h | 17871m | 5.7m/s | -56.4°C | 4.9% | 0hPa | 2.6V | 00:00:00 | 01:21:49 | 00:00:00 | |
| PG1ADW-2 | 2026-09-02 00:22:31 | 45.86914 | 16.79512 | 115° | 44km/h | 17847m | 5.4m/s | 0°C | 0% | 0hPa | 2.6V | 00:00:00 | 00:00:00 | 00:00:00 | |
| PETON7-10 | 2026-09-02 00:22:29 | 45.86922 | 16.79486 | 115° | 42km/h | 17836m | 4.4m/s | -56.4°C | 4.9% | 0hPa | 2.6V | 00:00:00 | 00:00:00 | 00:00:00 | |
| 9A1FER-10 | 2026-09-02 00:22:22 | 45.86946 | 16.79387 | 105° | 46km/h | 17800m | 5.6m/s | -56.3°C | 4.9% | 0hPa | 2.7V | 00:00:00 | 01:21:35 | 08:30:00 | |
| 9A1FER-3 | 2026-09-02 00:22:21 | 45.86949 | 16.79371 | 104° | 46km/h | 17795m | 4.8m/s | -56.3°C | 4.9% | 0hPa | 2.7V | 00:00:00 | 01:21:34 | 08:30:00 | |
| OE5DRO-10 | 2026-09-02 00:22:19 | 45.86954 | 16.79342 | 105° | 49km/h | 17784m | 4.4m/s | -56.4°C | 4.9% | 0hPa | 2.6V | 00:00:00 | 00:00:00 | 00:00:00 | |
| PETON7-10 | 2026-09-02 00:22:14 | 45.86970 | 16.79269 | 106° | 51km/h | 17759m | 5.2m/s | -56.8°C | 5.1% | 0hPa | 2.6V | 00:00:00 | 00:00:00 | 00:00:00 | |
| PG1ADW-2 | 2026-09-02 00:22:11 | 45.86980 | 16.79221 | 110° | 53km/h | 17743m | 5.1m/s | 0°C | 0% | 0hPa | 2.6V | 00:00:00 | 00:00:00 | 00:00:00 | |
| 9A1FER-10 | 2026-09-02 00:22:07 | 45.86993 | 16.79151 | 102° | 55km/h | 17721m | 6.1m/s | -56.8°C | 5.1% | 0hPa | 2.6V | 00:00:00 | 01:21:20 | 00:00:00 | |
| 9A1FER-3 | 2026-09-02 00:22:06 | 45.86996 | 16.79132 | 101° | 55km/h | 17715m | 4.9m/s | -56.9°C | 5.1% | 0hPa | 2.6V | 00:00:00 | 01:21:19 | 00:00:00 | |
| OE5DRO-10 | 2026-09-02 00:22:00 | 45.87007 | 16.79013 | 98° | 53km/h | 17685m | 6.2m/s | -56.7°C | 5.0% | 0hPa | 2.6V | 00:00:00 | 00:00:00 | 00:00:00 | |
| PETON7-10 | 2026-09-02 00:21:59 | 45.87009 | 16.78993 | 96° | 51km/h | 17679m | 5.5m/s | -56.7°C | 5.0% | 0hPa | 2.6V | 00:00:00 | 01:21:12 | 00:00:00 | |
| 9A1FER-10 | 2026-09-02 00:21:52 | 45.87014 | 16.78855 | 93° | 47km/h | 17644m | 4.8m/s | -56.8°C | 5.1% | 0hPa | 2.6V | 00:00:00 | 01:21:05 | 00:00:00 | |
| PG1ADW-2 | 2026-09-02 00:21:51 | 45.87014 | 16.78836 | 93° | 44km/h | 17639m | 4.4m/s | 0°C | 0% | 0hPa | 2.6V | 00:00:00 | 00:00:00 | 00:00:00 | |
| PETON7-10 | 2026-09-02 00:21:42 | 45.87017 | 16.78674 | 89° | 40km/h | 17594m | 5.5m/s | -56.7°C | 5.0% | 0hPa | 2.6V | 00:00:00 | 00:00:00 | 08:30:00 | |
| OE5DRO-10 | 2026-09-02 00:21:41 | 45.87017 | 16.78658 | 89° | 40km/h | 17590m | 3.1m/s | -56.8°C | 5.0% | 0hPa | 2.6V | 00:00:00 | 00:00:00 | 00:00:00 | |
| 9A1FER-10 | 2026-09-02 00:21:37 | 45.87015 | 16.78601 | 89° | 40km/h | 17570m | 4.1m/s | -56.8°C | 5.1% | 0hPa | 2.6V | 00:00:00 | 01:20:50 | 00:00:00 | |
| 9A1FER-3 | 2026-09-02 00:21:36 | 45.87014 | 16.78587 | 89° | 40km/h | 17566m | 4.2m/s | -56.8°C | 5.1% | 0hPa | 2.6V | 00:00:00 | 01:20:49 | 00:00:00 | |
| PG1ADW-2 | 2026-09-02 00:21:31 | 45.87010 | 16.78514 | 83° | 42km/h | 17543m | 5.5m/s | 0°C | 0% | 0hPa | 2.6V | 00:00:00 | 01:20:44 | 00:00:00 | |
| PETON7-10 | 2026-09-02 00:21:27 | 45.87004 | 16.78454 | 80° | 40km/h | 17525m | 4.5m/s | -56.6°C | 5.1% | 0hPa | 2.6V | 00:00:00 | 00:00:00 | 00:00:00 | |
| 9A1FER-10 | 2026-09-02 00:21:22 | 45.86994 | 16.78384 | 82° | 42km/h | 17504m | 3.5m/s | -56.5°C | 5.0% | 0hPa | 2.6V | 00:00:00 | 01:20:35 | 00:00:00 | |
| 9A1FER-3 | 2026-09-02 00:21:21 | 45.86992 | 16.78370 | 81° | 42km/h | 17499m | 5.0m/s | -56.4°C | 5.0% | 0hPa | 2.6V | 00:00:00 | 01:20:34 | 00:00:00 | |
| PETON7-10 | 2026-09-02 00:21:12 | 45.86969 | 16.78236 | 75° | 44km/h | 17458m | 4.7m/s | -56.2°C | 4.9% | 0hPa | 2.6V | 00:00:00 | 01:20:25 | 00:00:00 | |
| PG1ADW-2 | 2026-09-02 00:21:11 | 45.86966 | 16.78221 | 74° | 44km/h | 17453m | 4.5m/s | 0°C | 0% | 0hPa | 2.6V | 00:00:00 | 00:00:00 | 00:00:00 | |
| 9A1FER-10 | 2026-09-02 00:21:07 | 45.86955 | 16.78162 | 75° | 46km/h | 17436m | 5.0m/s | -56.2°C | 4.8% | 0hPa | 2.6V | 00:00:00 | 01:20:20 | 00:00:00 | |
| 9A1FER-3 | 2026-09-02 00:21:06 | 45.86952 | 16.78147 | 74° | 46km/h | 17432m | 3.9m/s | -56.2°C | 4.9% | 0hPa | 2.6V | 00:00:00 | 01:20:19 | 00:00:00 | |
| OE5DRO-10 | 2026-09-02 00:21:03 | 45.86944 | 16.78101 | 77° | 44km/h | 17419m | 3.6m/s | -56.2°C | 4.9% | 0hPa | 2.6V | 00:00:00 | 00:00:00 | 00:00:00 | |
| PETON7-10 | 2026-09-02 00:20:57 | 45.86925 | 16.78003 | 75° | 46km/h | 17393m | 4.5m/s | -56.0°C | 4.8% | 0hPa | 2.6V | 00:00:00 | 00:00:00 | 00:00:00 | |
| 9A1FER-10 | 2026-09-02 00:20:52 | 45.86914 | 16.77923 | 79° | 42km/h | 17372m | 3.4m/s | -56.0°C | 4.8% | 0hPa | 2.6V | 00:00:00 | 01:20:05 | 00:00:00 | |
| PG1ADW-2 | 2026-09-02 00:20:51 | 45.86912 | 16.77908 | 81° | 47km/h | 17368m | 5.0m/s | 0°C | 0% | 0hPa | 2.6V | 00:00:00 | 00:00:00 | 00:00:00 | |
| OE5DRO-10 | 2026-09-02 00:20:44 | 45.86899 | 16.77805 | 78° | 47km/h | 17339m | 4.6m/s | -56.4°C | 4.9% | 0hPa | 2.6V | 00:00:00 | 00:00:00 | 08:30:00 | |
| 9A1FER-10 | 2026-09-02 00:20:37 | 45.86885 | 16.77695 | 83° | 49km/h | 17310m | 4.6m/s | -56.5°C | 5.0% | 0hPa | 2.7V | 00:00:00 | 01:19:50 | 00:00:00 | |
| 9A1FER-3 | 2026-09-02 00:20:36 | 45.86884 | 16.77677 | 85° | 49km/h | 17307m | 2.8m/s | -56.5°C | 5.0% | 0hPa | 2.7V | 00:00:00 | 01:19:49 | 00:00:00 | |
| OE5DRO-10 | 2026-09-02 00:20:25 | 45.86856 | 16.77488 | 75° | 51km/h | 17263m | 5.1m/s | -56.2°C | 5.0% | 0hPa | 2.7V | 00:00:00 | 00:00:00 | 00:00:00 | |
| PETON7-10 | 2026-09-02 00:20:22 | 45.86845 | 16.77438 | 71° | 51km/h | 17250m | 4.0m/s | -56.1°C | 5.0% | 0hPa | 2.7V | 00:00:00 | 00:00:00 | 00:00:00 | |
| 9A1FER-3 | 2026-09-02 00:20:21 | 45.86840 | 16.77421 | 69° | 51km/h | 17246m | 3.9m/s | -56.1°C | 5.0% | 0hPa | 2.7V | 00:00:00 | 01:19:34 | 00:00:00 | |
| 9A1FER-10 | 2026-09-02 00:20:07 | 45.86771 | 16.77178 | 67° | 47km/h | 17188m | 3.8m/s | -56.2°C | 5.0% | 0hPa | 2.7V | 00:00:00 | 01:19:20 | 08:30:00 | |
| PETON7-10 | 2026-09-02 00:20:06 | 45.86766 | 16.77160 | 66° | 47km/h | 17184m | 4.0m/s | -56.1°C | 5.0% | 0hPa | 2.6V | 00:00:00 | 01:19:19 | 00:00:00 | |
| 9A1FER-10 | 2026-09-02 00:19:52 | 45.86688 | 16.76946 | 62° | 49km/h | 17126m | 4.2m/s | -55.6°C | 4.8% | 0hPa | 2.6V | 00:00:00 | 01:19:05 | 00:00:00 | |
| PETON7-10 | 2026-09-02 00:19:51 | 45.86682 | 16.76931 | 63° | 49km/h | 17123m | 2.9m/s | -55.6°C | 4.9% | 0hPa | 2.6V | 00:00:00 | 00:00:00 | 00:00:00 | |
| OE5DRO-10 | 2026-09-02 00:19:47 | 45.86658 | 16.76869 | 61° | 47km/h | 17108m | 3.3m/s | -55.4°C | 4.9% | 0hPa | 2.6V | 00:00:00 | 00:00:00 | 00:00:00 | |
| 9A1FER-10 | 2026-09-02 00:19:37 | 45.86603 | 16.76712 | 61° | 47km/h | 17068m | 2.7m/s | -55.1°C | 4.7% | 0hPa | 2.6V | 00:00:00 | 01:18:50 | 00:00:00 | |
| 9A1FER-3 | 2026-09-02 00:19:36 | 45.86598 | 16.76697 | 63° | 47km/h | 17065m | 4.7m/s | -55.1°C | 4.7% | 0hPa | 2.6V | 00:00:00 | 01:18:49 | 00:00:00 | |
| PETON7-10 | 2026-09-02 00:19:34 | 45.86586 | 16.76667 | 63° | 47km/h | 17057m | 3.2m/s | -55.0°C | 4.8% | 0hPa | 2.6V | 00:00:00 | 00:00:00 | 00:00:00 | |
| OE5DRO-10 | 2026-09-02 00:19:28 | 45.86554 | 16.76580 | 63° | 47km/h | 17031m | 4.8m/s | -54.8°C | 4.7% | 0hPa | 2.6V | 00:00:00 | 00:00:00 | 00:00:00 | |
| 9A1FER-10 | 2026-09-02 00:19:22 | 45.86515 | 16.76490 | 58° | 47km/h | 17008m | 5.0m/s | -54.6°C | 4.6% | 0hPa | 2.6V | 00:00:00 | 01:18:35 | 00:00:00 | |
| 9A1FER-3 | 2026-09-02 00:19:21 | 45.86508 | 16.76475 | 57° | 46km/h | 17004m | 3.4m/s | -54.5°C | 4.6% | 0hPa | 2.6V | 00:00:00 | 01:18:34 | 00:00:00 | |
| PETON7-10 | 2026-09-02 00:19:16 | 45.86475 | 16.76406 | 59° | 46km/h | 16982m | 3.6m/s | -54.3°C | 4.5% | 0hPa | 2.6V | 00:00:00 | 01:18:29 | 00:00:00 | |
| OE5DRO-10 | 2026-09-02 00:19:09 | 45.86434 | 16.76303 | 60° | 44km/h | 16953m | 3.5m/s | -54.1°C | 4.5% | 0hPa | 2.6V | 00:00:00 | 00:00:00 | 00:00:00 | |
| 9A1FER-10 | 2026-09-02 00:19:08 | 45.86422 | 16.76275 | 60° | 44km/h | 16944m | 4.5m/s | -54.3°C | 4.5% | 0hPa | 2.6V | 00:00:00 | 01:18:20 | 00:00:00 | |
| 9A1FER-3 | 2026-09-02 00:19:06 | 45.86416 | 16.76262 | 58° | 44km/h | 16940m | 3.7m/s | -54.3°C | 4.5% | 0hPa | 2.6V | 00:00:00 | 01:18:19 | 00:00:00 | |
| PETON7-10 | 2026-09-02 00:18:57 | 45.86360 | 16.76137 | 59° | 40km/h | 16901m | 3.8m/s | -54.4°C | 4.6% | 0hPa | 2.6V | 00:00:00 | 00:00:00 | 08:30:00 | |
| 9A1FER-10 | 2026-09-02 00:18:52 | 45.86333 | 16.76073 | 62° | 40km/h | 16879m | 4.2m/s | -54.4°C | 4.6% | 0hPa | 2.7V | 00:00:00 | 01:18:05 | 00:00:00 | |
| 9A1FER-3 | 2026-09-02 00:18:51 | 45.86328 | 16.76060 | 62° | 40km/h | 16875m | 4.6m/s | -54.3°C | 4.6% | 0hPa | 2.7V | 00:00:00 | 01:18:04 | 00:00:00 | |
| OE5DRO-10 | 2026-09-02 00:18:50 | 45.86323 | 16.76047 | 63° | 38km/h | 16871m | 3.4m/s | -54.3°C | 4.6% | 0hPa | 2.7V | 00:00:00 | 00:00:00 | 00:00:00 | |
| PETON7-10 | 2026-09-02 00:18:41 | 45.86290 | 16.75925 | 70° | 38km/h | 16832m | 5.1m/s | -54.0°C | 4.4% | 0hPa | 2.7V | 00:00:00 | 00:00:00 | 00:00:00 | |
| 9A1FER-10 | 2026-09-02 00:18:37 | 45.86279 | 16.75875 | 75° | 38km/h | 16814m | 4.1m/s | -53.8°C | 4.4% | 0hPa | 2.7V | 00:00:00 | 01:17:50 | 00:00:00 | |
| 9A1FER-3 | 2026-09-02 00:18:36 | 45.86277 | 16.75862 | 75° | 38km/h | 16809m | 5.1m/s | -53.8°C | 4.3% | 0hPa | 2.6V | 00:00:00 | 01:17:49 | 00:00:00 | |
| OE5DRO-10 | 2026-09-02 00:18:31 | 45.86265 | 16.75794 | 78° | 38km/h | 16785m | 3.7m/s | -53.8°C | 4.4% | 0hPa | 2.6V | 00:00:00 | 00:00:00 | 00:00:00 | |
| PETON7-10 | 2026-09-02 00:18:26 | 45.86255 | 16.75727 | 77° | 38km/h | 16762m | 4.5m/s | -54.3°C | 4.5% | 0hPa | 2.6V | 00:00:00 | 01:17:39 | 00:00:00 | |
| 9A1FER-10 | 2026-09-02 00:18:22 | 45.86245 | 16.75677 | 71° | 40km/h | 16744m | 3.0m/s | -54.4°C | 4.5% | 0hPa | 2.6V | 00:00:00 | 01:17:35 | 00:00:00 | |
| 9A1FER-3 | 2026-09-02 00:18:21 | 45.86242 | 16.75664 | 72° | 40km/h | 16741m | 3.5m/s | -54.4°C | 4.4% | 0hPa | 2.6V | 00:00:00 | 01:17:34 | 00:00:00 | |
| OE5DXL-15 | 2026-09-02 00:18:16 | 45.86233 | 16.75599 | 85° | 49km/h | 16717m | 5.0m/s | 0°C | 0% | 0hPa | 2.6V | 00:00:00 | 01:17:29 | 00:00:00 | |
| OE5DRO-10 | 2026-09-02 00:18:12 | 45.86232 | 16.75542 | 94° | 47km/h | 16699m | 4.0m/s | -54.6°C | 4.6% | 0hPa | 2.6V | 00:00:00 | 00:00:00 | 00:00:00 | |
| PETON7-10 | 2026-09-02 00:18:11 | 45.86232 | 16.75527 | 94° | 47km/h | 16694m | 5.5m/s | -54.6°C | 4.5% | 0hPa | 2.6V | 00:00:00 | 00:00:00 | 00:00:00 | |
| 9A1FER-10 | 2026-09-02 00:18:07 | 45.86239 | 16.75459 | 101° | 49km/h | 16675m | 3.6m/s | -54.6°C | 4.4% | 0hPa | 2.6V | 00:00:00 | 01:17:20 | 00:00:00 | |
| 9A1FER-3 | 2026-09-02 00:18:06 | 45.86241 | 16.75442 | 100° | 49km/h | 16671m | 4.9m/s | -54.7°C | 4.5% | 0hPa | 2.6V | 00:00:00 | 01:17:19 | 00:00:00 | |
| PETON7-10 | 2026-09-02 00:17:56 | 45.86249 | 16.75271 | 91° | 51km/h | 16626m | 3.9m/s | -55.5°C | 4.7% | 0hPa | 2.6V | 00:00:00 | 00:00:00 | 00:00:00 | |
| OE5DRO-10 | 2026-09-02 00:17:53 | 45.86251 | 16.75214 | 92° | 47km/h | 16613m | 4.8m/s | -56.0°C | 4.9% | 0hPa | 2.6V | 00:00:00 | 00:00:00 | 08:30:00 | |
| 9A1FER-10 | 2026-09-02 00:17:52 | 45.86251 | 16.75195 | 93° | 49km/h | 16608m | 4.3m/s | -56.1°C | 4.9% | 0hPa | 2.6V | 00:00:00 | 01:17:05 | 08:30:00 | |
| 9A1FER-3 | 2026-09-02 00:17:51 | 45.86251 | 16.75176 | 95° | 47km/h | 16604m | 3.9m/s | -56.3°C | 5.0% | 0hPa | 2.7V | 00:00:00 | 01:17:04 | 08:30:00 | |
| OE5DXL-15 | 2026-09-02 00:17:42 | 45.86267 | 16.75013 | 93° | 46km/h | 16564m | 4.1m/s | 0°C | 0% | 0hPa | 2.6V | 00:00:00 | 00:00:00 | 00:00:00 | |
| PETON7-10 | 2026-09-02 00:17:41 | 45.86268 | 16.74997 | 93° | 46km/h | 16560m | 3.9m/s | -56.5°C | 5.2% | 0hPa | 2.6V | 00:00:00 | 01:16:54 | 00:00:00 | |
| 9A1FER-10 | 2026-09-02 00:17:37 | 45.86272 | 16.74933 | 98° | 47km/h | 16541m | 4.4m/s | -56.4°C | 5.2% | 0hPa | 2.6V | 00:00:00 | 01:16:50 | 00:00:00 | |
| 9A1FER-3 | 2026-09-02 00:17:36 | 45.86273 | 16.74917 | 99° | 47km/h | 16536m | 5.4m/s | -56.3°C | 5.1% | 0hPa | 2.6V | 00:00:00 | 01:16:49 | 00:00:00 | |
| OE5DRO-10 | 2026-09-02 00:17:34 | 45.86277 | 16.74886 | 100° | 49km/h | 16526m | 5.3m/s | -56.3°C | 5.1% | 0hPa | 2.6V | 00:00:00 | 00:00:00 | 00:00:00 | |
| PETON7-10 | 2026-09-02 00:17:26 | 45.86292 | 16.74751 | 102° | 51km/h | 16488m | 4.3m/s | -56.1°C | 5.1% | 0hPa | 2.6V | 00:00:00 | 00:00:00 | 00:00:00 | |
| 9A1FER-10 | 2026-09-02 00:17:22 | 45.86303 | 16.74680 | 104° | 53km/h | 16470m | 4.6m/s | -56.1°C | 5.1% | 0hPa | 2.7V | 00:00:00 | 01:16:35 | 00:00:00 | |
| 9A1FER-3 | 2026-09-02 00:17:21 | 45.86306 | 16.74662 | 103° | 53km/h | 16465m | 4.3m/s | -56.2°C | 5.1% | 0hPa | 2.7V | 00:00:00 | 01:16:34 | 00:00:00 | |
| OE5DRO-10 | 2026-09-02 00:17:15 | 45.86324 | 16.74555 | 103° | 58km/h | 16438m | 4.3m/s | -56.1°C | 5.0% | 0hPa | 2.7V | 00:00:00 | 00:00:00 | 00:00:00 | |
| PETON7-10 | 2026-09-02 00:17:11 | 45.86336 | 16.74479 | 102° | 60km/h | 16420m | 5.5m/s | -56.1°C | 5.0% | 0hPa | 2.7V | 00:00:00 | 00:00:00 | 00:00:00 | |
| 9A1FER-10 | 2026-09-02 00:17:07 | 45.86346 | 16.74398 | 101° | 60km/h | 16401m | 3.6m/s | -56.2°C | 5.0% | 0hPa | 2.7V | 00:00:00 | 01:16:20 | 00:00:00 | |
| 9A1FER-3 | 2026-09-02 00:17:06 | 45.86348 | 16.74377 | 100° | 62km/h | 16396m | 5.4m/s | -56.3°C | 4.9% | 0hPa | 2.7V | 00:00:00 | 01:16:19 | 00:00:00 | |
| PETON7-10 | 2026-09-02 00:16:56 | 45.86391 | 16.74164 | 105° | 68km/h | 16349m | 4.6m/s | -56.8°C | 5.2% | 0hPa | 2.6V | 00:00:00 | 01:16:09 | 00:00:00 | |
| 9A1FER-10 | 2026-09-02 00:16:52 | 45.86404 | 16.74074 | 100° | 69km/h | 16332m | 5.1m/s | -57.3°C | 5.3% | 0hPa | 2.6V | 00:00:00 | 01:16:05 | 00:00:00 | |
| 9A1FER-3 | 2026-09-02 00:16:51 | 45.86407 | 16.74052 | 99° | 69km/h | 16328m | 4.2m/s | -57.4°C | 5.5% | 0hPa | 2.6V | 00:00:00 | 01:16:04 | 00:00:00 | |
| PETON7-10 | 2026-09-02 00:16:41 | 45.86450 | 16.73808 | 102° | 71km/h | 16284m | 3.4m/s | -57.5°C | 5.5% | 0hPa | 2.6V | 00:00:00 | 00:00:00 | 08:30:00 | |
| 9A1FER-3 | 2026-09-02 00:16:36 | 45.86467 | 16.73679 | 100° | 71km/h | 16262m | 3.7m/s | -57.4°C | 5.5% | 0hPa | 2.7V | 00:00:00 | 01:15:49 | 00:00:00 | |
| PETON7-10 | 2026-09-02 00:16:26 | 45.86499 | 16.73425 | 99° | 68km/h | 16218m | 5.0m/s | -57.2°C | 5.4% | 0hPa | 2.7V | 00:00:00 | 00:00:00 | 00:00:00 | |
| 9A1FER-10 | 2026-09-02 00:16:22 | 45.86509 | 16.73322 | 98° | 66km/h | 16200m | 4.5m/s | -57.2°C | 5.5% | 0hPa | 2.7V | 00:00:00 | 01:15:35 | 00:00:00 | |
| 9A1FER-3 | 2026-09-02 00:16:21 | 45.86512 | 16.73297 | 99° | 66km/h | 16196m | 4.2m/s | -57.2°C | 5.5% | 0hPa | 2.7V | 00:00:00 | 01:15:34 | 00:00:00 | |
| OE5DRO-10 | 2026-09-02 00:16:18 | 45.86519 | 16.73226 | 98° | 66km/h | 16183m | 4.0m/s | -57.2°C | 5.4% | 0hPa | 2.6V | 00:00:00 | 00:00:00 | 00:00:00 | |
| PETON7-10 | 2026-09-02 00:16:11 | 45.86534 | 16.73064 | 96° | 64km/h | 16153m | 3.1m/s | -57.2°C | 5.4% | 0hPa | 2.6V | 00:00:00 | 01:15:24 | 00:00:00 | |
| 9A1FER-10 | 2026-09-02 00:16:07 | 45.86537 | 16.72964 | 93° | 64km/h | 16136m | 4.6m/s | -57.3°C | 5.4% | 0hPa | 2.6V | 00:00:00 | 01:15:20 | 00:00:00 | |
| 9A1FER-3 | 2026-09-02 00:16:06 | 45.86538 | 16.72940 | 94° | 64km/h | 16132m | 3.7m/s | -57.3°C | 5.4% | 0hPa | 2.6V | 00:00:00 | 01:15:19 | 00:00:00 | |
| OE5DRO-10 | 2026-09-02 00:15:59 | 45.86545 | 16.72782 | 92° | 66km/h | 16102m | 4.2m/s | -57.5°C | 5.5% | 0hPa | 2.6V | 00:00:00 | 00:00:00 | 00:00:00 | |
| PETON7-10 | 2026-09-02 00:15:56 | 45.86546 | 16.72717 | 94° | 66km/h | 16089m | 4.1m/s | -57.5°C | 5.5% | 0hPa | 2.7V | 00:00:00 | 00:00:00 | 00:00:00 | |
| 9A1FER-10 | 2026-09-02 00:15:52 | 45.86550 | 16.72621 | 95° | 66km/h | 16071m | 3.5m/s | -57.4°C | 5.5% | 0hPa | 2.7V | 00:00:00 | 01:15:05 | 00:00:00 | |
| 9A1FER-3 | 2026-09-02 00:15:51 | 45.86551 | 16.72596 | 94° | 66km/h | 16067m | 4.7m/s | -57.4°C | 5.4% | 0hPa | 2.7V | 00:00:00 | 01:15:04 | 00:00:00 | |
| PETON7-10 | 2026-09-02 00:15:41 | 45.86551 | 16.72359 | 87° | 62km/h | 16023m | 3.0m/s | -57.7°C | 5.6% | 0hPa | 2.7V | 00:00:00 | 00:00:00 | 00:00:00 | |
| OE5DRO-10 | 2026-09-02 00:15:40 | 45.86550 | 16.72335 | 89° | 60km/h | 16018m | 4.9m/s | -57.8°C | 5.6% | 0hPa | 2.7V | 00:00:00 | 00:00:00 | 00:00:00 | |
| 9A1FER-10 | 2026-09-02 00:15:37 | 45.86550 | 16.72264 | 90° | 60km/h | 16006m | 4.4m/s | -57.7°C | 5.6% | 0hPa | 2.7V | 00:00:00 | 01:14:50 | 08:30:00 | |
| 9A1FER-3 | 2026-09-02 00:15:36 | 45.86549 | 16.72241 | 88° | 60km/h | 16002m | 4.1m/s | -57.7°C | 5.6% | 0hPa | 2.7V | 00:00:00 | 01:14:49 | 08:30:00 | |
| PETON7-10 | 2026-09-02 00:15:26 | 45.86536 | 16.72024 | 85° | 62km/h | 15960m | 3.4m/s | -58.1°C | 5.8% | 0hPa | 2.6V | 00:00:00 | 01:14:39 | 00:00:00 | |
| 9A1FER-10 | 2026-09-02 00:15:22 | 45.86532 | 16.71939 | 87° | 62km/h | 15942m | 4.2m/s | -58.0°C | 5.7% | 0hPa | 2.6V | 00:00:00 | 01:14:35 | 00:00:00 | |
| 9A1FER-3 | 2026-09-02 00:15:21 | 45.86531 | 16.71918 | 86° | 62km/h | 15938m | 3.7m/s | -58.0°C | 5.7% | 0hPa | 2.6V | 00:00:00 | 01:14:34 | 00:00:00 | |
| PETON7-10 | 2026-09-02 00:15:09 | 45.86518 | 16.71649 | 84° | 64km/h | 15886m | 4.1m/s | -57.8°C | 5.6% | 0hPa | 2.6V | 00:00:00 | 00:00:00 | 00:00:00 | |
| 9A1FER-10 | 2026-09-02 00:15:07 | 45.86514 | 16.71600 | 85° | 66km/h | 15878m | 4.4m/s | -57.8°C | 5.6% | 0hPa | 2.7V | 00:00:00 | 01:14:20 | 00:00:00 | |
| 9A1FER-3 | 2026-09-02 00:15:06 | 45.86513 | 16.71576 | 86° | 66km/h | 15874m | 4.2m/s | -57.8°C | 5.6% | 0hPa | 2.7V | 00:00:00 | 01:14:19 | 00:00:00 | |
| OE5DRO-10 | 2026-09-02 00:15:02 | 45.86507 | 16.71484 | 86° | 66km/h | 15856m | 5.1m/s | -57.9°C | 5.6% | 0hPa | 2.7V | 00:00:00 | 00:00:00 | 08:30:00 | |
| PETON7-10 | 2026-09-02 00:14:54 | 45.86497 | 16.71299 | 84° | 68km/h | 15821m | 3.6m/s | -58.0°C | 5.7% | 0hPa | 2.7V | 00:00:00 | 00:00:00 | 00:00:00 | |
| 9A1FER-10 | 2026-09-02 00:14:52 | 45.86493 | 16.71249 | 86° | 69km/h | 15812m | 4.0m/s | -58.1°C | 5.7% | 0hPa | 2.7V | 00:00:00 | 01:14:05 | 00:00:00 | |
| 9A1FER-3 | 2026-09-02 00:14:51 | 45.86492 | 16.71224 | 86° | 69km/h | 15807m | 5.0m/s | -58.2°C | 5.7% | 0hPa | 2.7V | 00:00:00 | 01:14:04 | 00:00:00 | |
| OE5DRO-10 | 2026-09-02 00:14:43 | 45.86489 | 16.71031 | 88° | 75km/h | 15772m | 4.0m/s | -58.1°C | 5.6% | 0hPa | 2.6V | 00:00:00 | 00:00:00 | 00:00:00 | |
| PETON7-10 | 2026-09-02 00:14:39 | 45.86481 | 16.70930 | 83° | 77km/h | 15754m | 4.9m/s | -58.4°C | 5.8% | 0hPa | 2.6V | 00:00:00 | 01:13:52 | 00:00:00 | |
| 9A1FER-10 | 2026-09-02 00:14:37 | 45.86477 | 16.70877 | 86° | 77km/h | 15745m | 4.8m/s | -58.6°C | 5.9% | 0hPa | 2.6V | 00:00:00 | 01:13:50 | 00:00:00 | |
| 9A1FER-3 | 2026-09-02 00:14:36 | 45.86476 | 16.70852 | 88° | 77km/h | 15741m | 3.4m/s | -58.6°C | 6.0% | 0hPa | 2.6V | 00:00:00 | 01:13:49 | 00:00:00 | |
| PETON7-10 | 2026-09-02 00:14:24 | 45.86462 | 16.70517 | 88° | 73km/h | 15694m | 3.1m/s | -58.4°C | 6.0% | 0hPa | 2.6V | 00:00:00 | 00:00:00 | 08:30:00 | |
| 9A1FER-10 | 2026-09-02 00:14:22 | 45.86461 | 16.70460 | 89° | 71km/h | 15686m | 3.9m/s | -58.3°C | 5.9% | 0hPa | 2.7V | 00:00:00 | 01:13:35 | 00:00:00 | |
| 9A1FER-3 | 2026-09-02 00:14:21 | 45.86460 | 16.70433 | 90° | 71km/h | 15682m | 5.2m/s | -58.3°C | 5.9% | 0hPa | 2.7V | 00:00:00 | 01:13:34 | 00:00:00 | |
| PETON7-10 | 2026-09-02 00:14:09 | 45.86435 | 16.70125 | 84° | 71km/h | 15629m | 4.2m/s | -58.0°C | 5.8% | 0hPa | 2.7V | 00:00:00 | 00:00:00 | 00:00:00 | |
| 9A1FER-10 | 2026-09-02 00:14:07 | 45.86431 | 16.70074 | 85° | 71km/h | 15620m | 4.4m/s | -57.9°C | 5.8% | 0hPa | 2.7V | 00:00:00 | 01:13:20 | 00:00:00 | |
| 9A1FER-3 | 2026-09-02 00:14:06 | 45.86429 | 16.70049 | 85° | 71km/h | 15616m | 4.3m/s | -57.9°C | 5.8% | 0hPa | 2.7V | 00:00:00 | 01:13:19 | 00:00:00 | |
| OE5DRO-10 | 2026-09-02 00:14:05 | 45.86427 | 16.70024 | 84° | 71km/h | 15612m | 3.8m/s | -58.0°C | 5.8% | 0hPa | 2.6V | 00:00:00 | 00:00:00 | 00:00:00 | |
| PETON7-10 | 2026-09-02 00:13:54 | 45.86400 | 16.69742 | 83° | 69km/h | 15566m | 4.6m/s | -57.9°C | 5.8% | 0hPa | 2.6V | 00:00:00 | 01:13:07 | 00:00:00 | |
| 9A1FER-10 | 2026-09-02 00:13:52 | 45.86395 | 16.69691 | 83° | 71km/h | 15557m | 5.0m/s | -57.8°C | 5.7% | 0hPa | 2.6V | 00:00:00 | 01:13:05 | 00:00:00 | |
| 9A1FER-3 | 2026-09-02 00:13:51 | 45.86393 | 16.69666 | 83° | 71km/h | 15552m | 4.4m/s | -57.8°C | 5.8% | 0hPa | 2.6V | 00:00:00 | 01:13:04 | 00:00:00 | |
| OE5DRO-10 | 2026-09-02 00:13:46 | 45.86380 | 16.69542 | 81° | 71km/h | 15531m | 4.3m/s | -57.7°C | 5.7% | 0hPa | 2.6V | 00:00:00 | 00:00:00 | 00:00:00 | |
| PETON7-10 | 2026-09-02 00:13:39 | 45.86360 | 16.69364 | 82° | 73km/h | 15500m | 4.9m/s | -57.5°C | 5.7% | 0hPa | 2.6V | 00:00:00 | 00:00:00 | 00:00:00 | |
| 9A1FER-10 | 2026-09-02 00:13:37 | 45.86355 | 16.69311 | 83° | 73km/h | 15490m | 4.8m/s | -57.5°C | 5.7% | 0hPa | 2.7V | 00:00:00 | 01:12:50 | 00:00:00 | |
| 9A1FER-3 | 2026-09-02 00:13:36 | 45.86353 | 16.69284 | 83° | 73km/h | 15486m | 3.8m/s | -57.5°C | 5.7% | 0hPa | 2.7V | 00:00:00 | 01:12:49 | 00:00:00 | |
| OE5DRO-10 | 2026-09-02 00:13:28 | 45.86326 | 16.69052 | 80° | 73km/h | 15448m | 3.9m/s | -57.3°C | 5.7% | 0hPa | 2.7V | 00:00:00 | 00:00:00 | 00:00:00 | |
| PETON7-10 | 2026-09-02 00:13:24 | 45.86317 | 16.68974 | 82° | 75km/h | 15435m | 3.5m/s | -57.2°C | 5.6% | 0hPa | 2.7V | 00:00:00 | 00:00:00 | 00:00:00 | |
| 9A1FER-10 | 2026-09-02 00:13:22 | 45.86312 | 16.68921 | 82° | 73km/h | 15427m | 4.2m/s | -57.1°C | 5.6% | 0hPa | 2.7V | 00:00:00 | 01:12:35 | 08:30:00 | |
| 9A1FER-3 | 2026-09-02 00:13:21 | 45.86309 | 16.68894 | 81° | 73km/h | 15422m | 4.7m/s | -57.1°C | 5.6% | 0hPa | 2.7V | 00:00:00 | 01:12:34 | 08:30:00 | |
| PETON7-10 | 2026-09-02 00:13:09 | 45.86262 | 16.68580 | 79° | 75km/h | 15370m | 4.4m/s | -56.7°C | 5.6% | 0hPa | 2.6V | 00:00:00 | 01:12:22 | 00:00:00 | |
| OE5DRO-10 | 2026-09-02 00:13:08 | 45.86259 | 16.68554 | 79° | 75km/h | 15365m | 3.9m/s | -56.7°C | 5.6% | 0hPa | 2.6V | 00:00:00 | 00:00:00 | 00:00:00 | |
| 9A1FER-10 | 2026-09-02 00:13:07 | 45.86255 | 16.68528 | 77° | 75km/h | 15361m | 5.0m/s | -56.6°C | 5.5% | 0hPa | 2.6V | 00:00:00 | 01:12:20 | 00:00:00 | |
| 9A1FER-3 | 2026-09-02 00:13:06 | 45.86250 | 16.68502 | 76° | 75km/h | 15356m | 4.1m/s | -56.6°C | 5.6% | 0hPa | 2.6V | 00:00:00 | 01:12:19 | 00:00:00 | |
| PETON7-10 | 2026-09-02 00:12:54 | 45.86195 | 16.68187 | 74° | 71km/h | 15302m | 4.4m/s | -56.2°C | 5.4% | 0hPa | 2.6V | 00:00:00 | 00:00:00 | 00:00:00 | |
| 9A1FER-10 | 2026-09-02 00:12:52 | 45.86184 | 16.68135 | 72° | 71km/h | 15293m | 3.8m/s | -56.1°C | 5.4% | 0hPa | 2.6V | 00:00:00 | 01:12:05 | 00:00:00 | |
| 9A1FER-3 | 2026-09-02 00:12:51 | 45.86178 | 16.68110 | 72° | 71km/h | 15289m | 5.2m/s | -56.1°C | 5.4% | 0hPa | 2.6V | 00:00:00 | 01:12:04 | 00:00:00 | |
| OE5DRO-10 | 2026-09-02 00:12:49 | 45.86168 | 16.68062 | 77° | 71km/h | 15281m | 3.8m/s | -56.0°C | 5.4% | 0hPa | 2.6V | 00:00:00 | 00:00:00 | 00:00:00 | |
| PETON7-10 | 2026-09-02 00:12:39 | 45.86127 | 16.67810 | 77° | 69km/h | 15235m | 4.4m/s | -55.6°C | 5.3% | 0hPa | 2.6V | 00:00:00 | 00:00:00 | 00:00:00 | |
| 9A1FER-10 | 2026-09-02 00:12:37 | 45.86119 | 16.67761 | 79° | 69km/h | 15225m | 4.2m/s | -55.6°C | 5.3% | 0hPa | 2.6V | 00:00:00 | 01:11:50 | 00:00:00 | |
| 9A1FER-3 | 2026-09-02 00:12:36 | 45.86116 | 16.67736 | 79° | 69km/h | 15220m | 5.0m/s | -55.6°C | 5.3% | 0hPa | 2.7V | 00:00:00 | 01:11:49 | 00:00:00 | |
| OE5DRO-10 | 2026-09-02 00:12:30 | 45.86095 | 16.67585 | 80° | 68km/h | 15193m | 3.8m/s | -55.9°C | 5.3% | 0hPa | 2.6V | 00:00:00 | 00:00:00 | 00:00:00 | |
| PETON7-10 | 2026-09-02 00:12:24 | 45.86077 | 16.67439 | 81° | 68km/h | 15166m | 4.4m/s | -56.0°C | 5.4% | 0hPa | 2.6V | 00:00:00 | 01:11:37 | 00:00:00 | |
| 9A1FER-10 | 2026-09-02 00:12:22 | 45.86072 | 16.67392 | 81° | 69km/h | 15157m | 4.1m/s | -56.1°C | 5.4% | 0hPa | 2.6V | 00:00:00 | 01:11:35 | 00:00:00 | |
| 9A1FER-3 | 2026-09-02 00:12:21 | 45.86069 | 16.67369 | 82° | 69km/h | 15153m | 3.4m/s | -56.1°C | 5.4% | 0hPa | 2.6V | 00:00:00 | 01:11:34 | 00:00:00 | |
| OE5DRO-10 | 2026-09-02 00:12:11 | 45.86049 | 16.67122 | 82° | 75km/h | 15108m | 4.4m/s | -56.5°C | 5.6% | 0hPa | 2.6V | 00:00:00 | 00:00:00 | 08:30:00 | |
| PETON7-10 | 2026-09-02 00:12:09 | 45.86043 | 16.67071 | 80° | 75km/h | 15099m | 3.7m/s | -56.6°C | 5.7% | 0hPa | 2.7V | 00:00:00 | 00:00:00 | 08:30:00 | |
| 9A1FER-10 | 2026-09-02 00:12:07 | 45.86037 | 16.67019 | 80° | 77km/h | 15091m | 4.6m/s | -56.6°C | 5.8% | 0hPa | 2.6V | 00:00:00 | 01:11:20 | 00:00:00 | |
| 9A1FER-3 | 2026-09-02 00:12:06 | 45.86034 | 16.66992 | 81° | 77km/h | 15087m | 3.7m/s | -56.7°C | 5.7% | 0hPa | 2.6V | 00:00:00 | 01:11:19 | 00:00:00 | |
| OE3JTB-15 | 2026-09-02 00:11:58 | 45.86016 | 16.66775 | 85° | 78km/h | 15052m | 4.7m/s | -56.9°C | 5.8% | 0hPa | 2.6V | 00:00:00 | 00:00:00 | 00:00:00 | |
| PETON7-10 | 2026-09-02 00:11:54 | 45.86007 | 16.66667 | 83° | 78km/h | 15035m | 4.9m/s | -56.9°C | 5.8% | 0hPa | 2.6V | 00:00:00 | 00:00:00 | 00:00:00 | |
| OE5DRO-10 | 2026-09-02 00:11:52 | 45.86002 | 16.66609 | 82° | 78km/h | 15027m | 3.9m/s | -56.9°C | 5.8% | 0hPa | 2.6V | 00:00:00 | 00:00:00 | 00:00:00 | |
| 9A1FER-3 | 2026-09-02 00:11:51 | 45.85999 | 16.66580 | 81° | 78km/h | 15022m | 4.9m/s | -56.9°C | 5.9% | 0hPa | 2.6V | 00:00:00 | 01:11:04 | 00:00:00 | |
| PETON7-10 | 2026-09-02 00:11:39 | 45.85951 | 16.66246 | 77° | 78km/h | 14969m | 5.1m/s | -57.0°C | 6.0% | 0hPa | 2.6V | 00:00:00 | 01:10:52 | 00:00:00 | |
| 9A1FER-10 | 2026-09-02 00:11:37 | 45.85941 | 16.66192 | 76° | 78km/h | 14960m | 3.7m/s | -56.9°C | 5.9% | 0hPa | 2.6V | 00:00:00 | 01:10:50 | 00:00:00 | |
| 9A1FER-3 | 2026-09-02 00:11:36 | 45.85936 | 16.66164 | 74° | 78km/h | 14956m | 4.9m/s | -56.9°C | 6.0% | 0hPa | 2.6V | 00:00:00 | 01:10:49 | 00:00:00 | |
| OE5DRO-10 | 2026-09-02 00:11:33 | 45.85919 | 16.66083 | 74° | 77km/h | 14942m | 4.1m/s | -56.9°C | 5.9% | 0hPa | 2.6V | 00:00:00 | 00:00:00 | 00:00:00 | |
| OE3JTB-15 | 2026-09-02 00:11:29 | 45.85895 | 16.65977 | 73° | 80km/h | 14923m | 3.9m/s | -56.8°C | 6.0% | 0hPa | 2.6V | 00:00:00 | 01:10:42 | 00:00:00 | |
| 9A1FER-10 | 2026-09-02 00:11:22 | 45.85851 | 16.65790 | 68° | 78km/h | 14892m | 3.7m/s | -56.7°C | 6.0% | 0hPa | 2.6V | 00:00:00 | 01:10:35 | 00:00:00 | |
| 9A1FER-3 | 2026-09-02 00:11:21 | 45.85843 | 16.65763 | 68° | 78km/h | 14888m | 4.7m/s | -56.7°C | 5.9% | 0hPa | 2.6V | 00:00:00 | 01:10:34 | 00:00:00 | |
| OE5DRO-10 | 2026-09-02 00:11:14 | 45.85791 | 16.65584 | 68° | 82km/h | 14857m | 4.9m/s | -56.7°C | 5.8% | 0hPa | 2.6V | 00:00:00 | 00:00:00 | 00:00:00 | |
| PETON7-10 | 2026-09-02 00:11:12 | 45.85776 | 16.65531 | 68° | 78km/h | 14848m | 5.0m/s | -56.6°C | 5.9% | 0hPa | 2.7V | 00:00:00 | 00:00:00 | 00:00:00 | |
| 9A1FER-10 | 2026-09-02 00:11:07 | 45.85735 | 16.65393 | 67° | 82km/h | 14826m | 5.3m/s | -56.4°C | 5.8% | 0hPa | 2.7V | 00:00:00 | 01:10:20 | 08:30:00 | |
| 9A1FER-3 | 2026-09-02 00:11:06 | 45.85727 | 16.65366 | 67° | 82km/h | 14822m | 4.2m/s | -56.4°C | 5.8% | 0hPa | 2.7V | 00:00:00 | 01:10:19 | 08:30:00 | |
| OE5DRO-10 | 2026-09-02 00:10:55 | 45.85626 | 16.65075 | 64° | 78km/h | 14774m | 5.0m/s | -56.1°C | 5.7% | 0hPa | 2.6V | 00:00:00 | 00:00:00 | 00:00:00 | |
| 9A1FER-10 | 2026-09-02 00:10:52 | 45.85599 | 16.64996 | 67° | 77km/h | 14761m | 4.7m/s | -56.2°C | 5.7% | 0hPa | 2.6V | 00:00:00 | 01:10:05 | 00:00:00 | |
| 9A1FER-3 | 2026-09-02 00:10:51 | 45.85592 | 16.64971 | 66° | 78km/h | 14756m | 4.2m/s | -56.2°C | 5.7% | 0hPa | 2.6V | 00:00:00 | 01:10:04 | 00:00:00 | |
| 9A1FER-10 | 2026-09-02 00:10:37 | 45.85481 | 16.64610 | 68° | 77km/h | 14698m | 3.5m/s | -56.2°C | 5.7% | 0hPa | 2.6V | 00:00:00 | 01:09:50 | 00:00:00 | |
| OE5DRO-10 | 2026-09-02 00:10:36 | 45.85474 | 16.64584 | 67° | 78km/h | 14694m | 4.6m/s | -56.2°C | 5.7% | 0hPa | 2.6V | 00:00:00 | 00:00:00 | 00:00:00 | |
| OE3JTB-15 | 2026-09-02 00:10:23 | 45.85385 | 16.64246 | 74° | 80km/h | 14637m | 5.0m/s | -56.2°C | 5.7% | 0hPa | 2.6V | 00:00:00 | 00:00:00 | 00:00:00 | |
| 9A1FER-10 | 2026-09-02 00:10:22 | 45.85380 | 16.64219 | 74° | 78km/h | 14633m | 3.9m/s | -56.2°C | 5.6% | 0hPa | 2.6V | 00:00:00 | 01:09:35 | 00:00:00 | |
| 9A1FER-3 | 2026-09-02 00:10:21 | 45.85374 | 16.64192 | 73° | 78km/h | 14629m | 4.2m/s | -56.2°C | 5.6% | 0hPa | 2.6V | 00:00:00 | 01:09:34 | 00:00:00 | |
| OE5DRO-10 | 2026-09-02 00:10:17 | 45.85349 | 16.64081 | 72° | 80km/h | 14612m | 4.0m/s | -56.2°C | 5.6% | 0hPa | 2.6V | 00:00:00 | 00:00:00 | 00:00:00 | |
| PETON7-10 | 2026-09-02 00:10:07 | 45.85300 | 16.63811 | 75° | 82km/h | 14569m | 3.5m/s | -56.8°C | 5.9% | 0hPa | 2.7V | 00:00:00 | 01:09:20 | 00:00:00 | |
| 9A1FER-3 | 2026-09-02 00:10:06 | 45.85294 | 16.63783 | 75° | 82km/h | 14565m | 5.1m/s | -56.8°C | 5.9% | 0hPa | 2.7V | 00:00:00 | 01:09:19 | 00:00:00 | |
| OE5DRO-10 | 2026-09-02 00:09:58 | 45.85268 | 16.63545 | 85° | 78km/h | 14532m | 2.8m/s | -56.9°C | 6.0% | 0hPa | 2.7V | 00:00:00 | 00:00:00 | 00:00:00 | |
| OE3JTB-15 | 2026-09-02 00:09:54 | 45.85257 | 16.63429 | 80° | 77km/h | 14515m | 3.3m/s | -56.8°C | 6.0% | 0hPa | 2.7V | 00:00:00 | 01:09:07 | 00:00:00 | |
| 9A1FER-10 | 2026-09-02 00:09:52 | 45.85249 | 16.63371 | 79° | 78km/h | 14507m | 4.2m/s | -56.7°C | 6.0% | 0hPa | 2.7V | 00:00:00 | 01:09:05 | 00:00:00 | |
| 9A1FER-3 | 2026-09-02 00:09:51 | 45.85245 | 16.63341 | 79° | 78km/h | 14504m | 3.0m/s | -56.7°C | 6.0% | 0hPa | 2.7V | 00:00:00 | 01:09:04 | 00:00:00 | |
| OE5DRO-10 | 2026-09-02 00:09:39 | 45.85211 | 16.63005 | 80° | 73km/h | 14453m | 4.5m/s | -56.4°C | 5.9% | 0hPa | 2.7V | 00:00:00 | 00:00:00 | 00:00:00 | |
| 9A1FER-10 | 2026-09-02 00:09:37 | 45.85204 | 16.62951 | 81° | 73km/h | 14445m | 4.0m/s | -56.3°C | 5.9% | 0hPa | 2.7V | 00:00:00 | 01:08:50 | 00:00:00 | |
| PETON7-10 | 2026-09-02 00:09:36 | 45.85201 | 16.62925 | 80° | 73km/h | 14441m | 4.2m/s | -56.3°C | 5.9% | 0hPa | 2.6V | 00:00:00 | 00:00:00 | 00:00:00 | |
| OE3JTB-15 | 2026-09-02 00:09:28 | 45.85175 | 16.62638 | 86° | 78km/h | 14393m | 5.4m/s | -56.5°C | 6.0% | 0hPa | 2.6V | 00:00:00 | 00:00:00 | 00:00:00 | |
| 9A1FER-10 | 2026-09-02 00:09:22 | 45.85171 | 16.62559 | 86° | 77km/h | 14379m | 3.6m/s | -56.6°C | 6.1% | 0hPa | 2.7V | 00:00:00 | 01:08:35 | 00:00:00 | |
| PETON7-10 | 2026-09-02 00:09:21 | 45.85169 | 16.62533 | 87° | 78km/h | 14374m | 5.3m/s | -56.7°C | 6.1% | 0hPa | 2.7V | 00:00:00 | 01:08:34 | 00:00:00 | |
| OE5DRO-10 | 2026-09-02 00:09:20 | 45.85168 | 16.62506 | 87° | 78km/h | 14369m | 4.7m/s | -56.7°C | 6.2% | 0hPa | 2.7V | 00:00:00 | 00:00:00 | 08:30:00 | |
| 9A1FER-10 | 2026-09-02 00:09:07 | 45.85161 | 16.62138 | 85° | 82km/h | 14310m | 4.4m/s | -56.3°C | 6.0% | 0hPa | 2.7V | 00:00:00 | 01:08:20 | 00:00:00 | |
| 9A1FER-3 | 2026-09-02 00:09:06 | 45.85159 | 16.62109 | 86° | 82km/h | 14305m | 4.5m/s | -56.2°C | 6.0% | 0hPa | 2.7V | 00:00:00 | 01:08:19 | 00:00:00 | |
| OE5DRO-10 | 2026-09-02 00:09:01 | 45.85152 | 16.61962 | 87° | 82km/h | 14280m | 5.6m/s | -56.0°C | 5.9% | 0hPa | 2.7V | 00:00:00 | 00:00:00 | 00:00:00 | |
| OE3JTB-15 | 2026-09-02 00:08:56 | 45.85141 | 16.61813 | 82° | 84km/h | 14257m | 5.1m/s | -55.8°C | 5.9% | 0hPa | 2.7V | 00:00:00 | 00:00:00 | 00:00:00 | |
| 9A1FER-10 | 2026-09-02 00:08:52 | 45.85129 | 16.61694 | 81° | 82km/h | 14239m | 4.2m/s | -56.0°C | 6.0% | 0hPa | 2.7V | 00:00:00 | 01:08:05 | 08:30:00 | |
| PETON7-10 | 2026-09-02 00:08:51 | 45.85125 | 16.61665 | 80° | 82km/h | 14235m | 4.5m/s | -56.0°C | 5.9% | 0hPa | 2.7V | 00:00:00 | 00:00:00 | 00:00:00 | |
| OE5DRO-10 | 2026-09-02 00:08:42 | 45.85098 | 16.61406 | 86° | 84km/h | 14194m | 4.4m/s | -56.7°C | 6.4% | 0hPa | 2.7V | 00:00:00 | 00:00:00 | 00:00:00 | |
| 9A1FER-10 | 2026-09-02 00:08:37 | 45.85085 | 16.61254 | 80° | 84km/h | 14171m | 4.4m/s | -56.6°C | 6.3% | 0hPa | 2.7V | 00:00:00 | 01:07:50 | 00:00:00 | |
| PETON7-10 | 2026-09-02 00:08:36 | 45.85080 | 16.61223 | 79° | 82km/h | 14166m | 5.2m/s | -56.5°C | 6.4% | 0hPa | 2.7V | 00:00:00 | 01:07:49 | 00:00:00 | |
| OE3JTB-15 | 2026-09-02 00:08:27 | 45.85044 | 16.60954 | 82° | 82km/h | 14126m | 4.8m/s | -56.4°C | 6.3% | 0hPa | 2.7V | 00:00:00 | 01:07:40 | 00:00:00 | |
| OE5DRO-10 | 2026-09-02 00:08:23 | 45.85033 | 16.60839 | 83° | 82km/h | 14107m | 5.2m/s | -56.6°C | 6.5% | 0hPa | 2.7V | 00:00:00 | 00:00:00 | 00:00:00 | |
| 9A1FER-10 | 2026-09-02 00:08:22 | 45.85030 | 16.60810 | 82° | 80km/h | 14102m | 3.8m/s | -56.6°C | 6.4% | 0hPa | 2.7V | 00:00:00 | 01:07:35 | 00:00:00 | |
| 9A1FER-3 | 2026-09-02 00:08:21 | 45.85027 | 16.60781 | 81° | 82km/h | 14098m | 5.3m/s | -56.6°C | 6.5% | 0hPa | 2.7V | 00:00:00 | 01:07:34 | 00:00:00 | |
| 9A1FER-10 | 2026-09-02 00:08:07 | 45.84992 | 16.60372 | 84° | 88km/h | 14034m | 3.7m/s | -56.6°C | 6.6% | 0hPa | 2.7V | 00:00:00 | 01:07:20 | 00:00:00 | |
| PETON7-10 | 2026-09-02 00:08:06 | 45.84990 | 16.60342 | 83° | 88km/h | 14029m | 5.3m/s | -56.7°C | 6.7% | 0hPa | 2.7V | 00:00:00 | 00:00:00 | 00:00:00 | |
| OE5DRO-10 | 2026-09-02 00:08:04 | 45.84984 | 16.60280 | 83° | 89km/h | 14020m | 5.1m/s | -56.7°C | 6.8% | 0hPa | 2.7V | 00:00:00 | 00:00:00 | 00:00:00 | |
| OE3JTB-15 | 2026-09-02 00:07:58 | 45.84975 | 16.60095 | 90° | 80km/h | 13992m | 5.5m/s | -56.8°C | 6.8% | 0hPa | 2.7V | 00:00:00 | 00:00:00 | 00:00:00 | |
| 9A1FER-10 | 2026-09-02 00:07:53 | 45.84974 | 16.59899 | 87° | 89km/h | 13965m | 4.2m/s | -56.8°C | 6.8% | 0hPa | 2.7V | 00:00:00 | 01:07:05 | 00:00:00 | |
| 9A1FER-3 | 2026-09-02 00:07:51 | 45.84972 | 16.59865 | 86° | 89km/h | 13960m | 4.3m/s | -56.7°C | 6.8% | 0hPa | 2.7V | 00:00:00 | 01:07:04 | 00:00:00 | |
| OE5DRO-10 | 2026-09-02 00:07:45 | 45.84962 | 16.59665 | 88° | 89km/h | 13932m | 3.1m/s | -56.8°C | 6.9% | 0hPa | 2.7V | 00:00:00 | 00:00:00 | 00:00:00 | |
| 9A1FER-10 | 2026-09-02 00:07:37 | 45.84944 | 16.59415 | 82° | 89km/h | 13897m | 4.7m/s | -56.8°C | 7.0% | 0hPa | 2.7V | 00:00:00 | 01:06:50 | 00:00:00 | |
| PETON7-10 | 2026-09-02 00:07:36 | 45.84941 | 16.59383 | 82° | 89km/h | 13893m | 4.3m/s | -56.7°C | 7.1% | 0hPa | 2.7V | 00:00:00 | 00:00:00 | 00:00:00 | |
| OE5DRO-10 | 2026-09-02 00:07:24 | 45.84906 | 16.58996 | 82° | 93km/h | 13838m | 3.9m/s | -56.6°C | 7.1% | 0hPa | 2.7V | 00:00:00 | 00:00:00 | 00:00:00 | |
| 9A1FER-3 | 2026-09-02 00:07:22 | 45.84895 | 16.58899 | 81° | 95km/h | 13825m | 5.0m/s | -56.7°C | 7.3% | 0hPa | 2.7V | 00:00:00 | 01:06:34 | 00:00:00 | |
| PETON7-10 | 2026-09-02 00:07:21 | 45.84895 | 16.58899 | 81° | 95km/h | 13825m | 5.0m/s | -56.7°C | 7.3% | 0hPa | 2.7V | 00:00:00 | 00:00:00 | 00:00:00 | |
| 9A1FER-10 | 2026-09-02 00:07:07 | 45.84857 | 16.58421 | 83° | 93km/h | 13766m | 3.8m/s | -56.7°C | 7.6% | 0hPa | 2.7V | 00:00:00 | 01:06:20 | 00:00:00 | |
| 9A1FER-3 | 2026-09-02 00:07:06 | 45.84854 | 16.58387 | 83° | 93km/h | 13761m | 4.5m/s | -56.7°C | 7.6% | 0hPa | 2.7V | 00:00:00 | 01:06:19 | 00:00:00 | |
| OE5DRO-10 | 2026-09-02 00:07:05 | 45.84851 | 16.58354 | 82° | 93km/h | 13757m | 4.1m/s | -56.7°C | 7.7% | 0hPa | 2.7V | 00:00:00 | 00:00:00 | 00:00:00 | |
| 9A1FER-10 | 2026-09-02 00:06:52 | 45.84795 | 16.57920 | 81° | 89km/h | 13701m | 4.1m/s | -56.5°C | 7.7% | 0hPa | 2.7V | 00:00:00 | 01:06:05 | 00:00:00 | |
| 9A1FER-3 | 2026-09-02 00:06:51 | 45.84791 | 16.57887 | 80° | 89km/h | 13697m | 4.2m/s | -56.5°C | 7.7% | 0hPa | 2.7V | 00:00:00 | 01:06:04 | 00:00:00 | |
| PETON7-10 | 2026-09-02 00:06:50 | 45.84787 | 16.57854 | 79° | 89km/h | 13693m | 4.6m/s | -56.5°C | 7.7% | 0hPa | 2.7V | 00:00:00 | 00:00:00 | 08:30:00 | |
| OE5DRO-10 | 2026-09-02 00:06:46 | 45.84767 | 16.57728 | 77° | 88km/h | 13676m | 4.0m/s | -56.5°C | 8.0% | 0hPa | 2.7V | 00:00:00 | 00:00:00 | 00:00:00 | |
| 9A1FER-10 | 2026-09-02 00:06:37 | 45.84726 | 16.57447 | 77° | 89km/h | 13639m | 4.4m/s | -56.5°C | 8.0% | 0hPa | 2.7V | 00:00:00 | 01:05:50 | 08:30:00 | |
| 9A1FER-3 | 2026-09-02 00:06:36 | 45.84721 | 16.57416 | 76° | 89km/h | 13636m | 3.8m/s | -56.5°C | 8.0% | 0hPa | 2.7V | 00:00:00 | 01:05:49 | 08:30:00 | |
| PETON7-10 | 2026-09-02 00:06:35 | 45.84715 | 16.57385 | 76° | 89km/h | 13631m | 4.4m/s | -56.6°C | 8.0% | 0hPa | 2.7V | 00:00:00 | 00:00:00 | 00:00:00 | |
| OE5DRO-10 | 2026-09-02 00:06:27 | 45.84681 | 16.57136 | 82° | 93km/h | 13600m | 3.4m/s | -56.8°C | 8.1% | 0hPa | 2.7V | 00:00:00 | 00:00:00 | 08:30:00 | |
| 9A1FER-10 | 2026-09-02 00:06:22 | 45.84664 | 16.56974 | 81° | 95km/h | 13579m | 3.8m/s | -56.7°C | 8.1% | 0hPa | 2.7V | 00:00:00 | 01:05:35 | 00:00:00 | |
| 9A1FER-3 | 2026-09-02 00:06:21 | 45.84660 | 16.56941 | 81° | 95km/h | 13575m | 3.7m/s | -56.7°C | 8.1% | 0hPa | 2.7V | 00:00:00 | 01:05:34 | 00:00:00 | |
| PETON7-10 | 2026-09-02 00:06:20 | 45.84656 | 16.56908 | 81° | 95km/h | 13572m | 3.4m/s | -56.7°C | 8.1% | 0hPa | 2.7V | 00:00:00 | 01:05:33 | 00:00:00 | |
| OE5DRO-10 | 2026-09-02 00:06:08 | 45.84629 | 16.56495 | 86° | 99km/h | 13527m | 3.2m/s | -56.6°C | 8.1% | 0hPa | 2.7V | 00:00:00 | 00:00:00 | 00:00:00 | |
| 9A1FER-10 | 2026-09-02 00:06:07 | 45.84626 | 16.56460 | 85° | 99km/h | 13523m | 4.3m/s | -56.6°C | 8.0% | 0hPa | 2.7V | 00:00:00 | 01:05:20 | 00:00:00 | |
| 9A1FER-3 | 2026-09-02 00:06:06 | 45.84624 | 16.56426 | 85° | 99km/h | 13519m | 3.3m/s | -56.6°C | 8.1% | 0hPa | 2.7V | 00:00:00 | 01:05:19 | 00:00:00 | |
| PETON7-10 | 2026-09-02 00:06:05 | 45.84621 | 16.56391 | 85° | 99km/h | 13515m | 3.5m/s | -56.6°C | 8.1% | 0hPa | 2.7V | 00:00:00 | 00:00:00 | 00:00:00 | |
| 9A1FER-10 | 2026-09-02 00:05:52 | 45.84608 | 16.55925 | 90° | 104km/h | 13471m | 2.2m/s | -56.6°C | 8.4% | 0hPa | 2.7V | 00:00:00 | 01:05:05 | 00:00:00 | |
| 9A1FER-3 | 2026-09-02 00:05:51 | 45.84607 | 16.55888 | 90° | 104km/h | 13468m | 4.1m/s | -56.7°C | 8.4% | 0hPa | 2.7V | 00:00:00 | 01:05:04 | 00:00:00 | |
| PETON7-10 | 2026-09-02 00:05:50 | 45.84607 | 16.55852 | 90° | 106km/h | 13464m | 2.9m/s | -56.7°C | 8.5% | 0hPa | 2.7V | 00:00:00 | 00:00:00 | 00:00:00 | |
| OE5DRO-10 | 2026-09-02 00:05:49 | 45.84607 | 16.55814 | 90° | 106km/h | 13460m | 4.2m/s | -56.7°C | 8.4% | 0hPa | 2.7V | 00:00:00 | 00:00:00 | 00:00:00 | |
| 9A1FER-10 | 2026-09-02 00:05:37 | 45.84608 | 16.55358 | 91° | 110km/h | 13417m | 4.0m/s | -56.9°C | 8.8% | 0hPa | 2.7V | 00:00:00 | 01:04:50 | 00:00:00 | |
| 9A1FER-3 | 2026-09-02 00:05:36 | 45.84608 | 16.55319 | 91° | 108km/h | 13414m | 2.8m/s | -57.0°C | 8.9% | 0hPa | 2.7V | 00:00:00 | 01:04:49 | 00:00:00 | |
| PETON7-10 | 2026-09-02 00:05:35 | 45.84608 | 16.55279 | 90° | 108km/h | 13410m | 4.2m/s | -57.0°C | 8.9% | 0hPa | 2.7V | 00:00:00 | 01:04:48 | 00:00:00 | |
| OE5DRO-10 | 2026-09-02 00:05:30 | 45.84608 | 16.55082 | 89° | 110km/h | 13393m | 3.9m/s | -57.0°C | 9.0% | 0hPa | 2.7V | 00:00:00 | 00:00:00 | 00:00:00 | |
| 9A1FER-3 | 2026-09-02 00:05:22 | 45.84599 | 16.54732 | 89° | 111km/h | 13359m | 3.6m/s | -57.1°C | 9.3% | 0hPa | 2.7V | 00:00:00 | 01:04:34 | 00:00:00 | |
| PETON7-10 | 2026-09-02 00:05:20 | 45.84598 | 16.54692 | 89° | 111km/h | 13356m | 3.4m/s | -57.1°C | 9.4% | 0hPa | 2.7V | 00:00:00 | 00:00:00 | 00:00:00 | |
| OE5DRO-10 | 2026-09-02 00:05:11 | 45.84590 | 16.54332 | 88° | 113km/h | 13323m | 3.8m/s | -57.0°C | 9.5% | 0hPa | 2.7V | 00:00:00 | 00:00:00 | 00:00:00 | |
| 9A1FER-3 | 2026-09-02 00:05:07 | 45.84579 | 16.54132 | 85° | 113km/h | 13305m | 3.5m/s | -57.0°C | 9.6% | 0hPa | 2.7V | 00:00:00 | 01:04:19 | 00:00:00 | |
| PETON7-10 | 2026-09-02 00:05:06 | 45.84577 | 16.54092 | 85° | 113km/h | 13301m | 3.7m/s | -57.0°C | 9.7% | 0hPa | 2.7V | 00:00:00 | 00:00:00 | 00:00:00 | |
| 9A1FER-10 | 2026-09-02 00:04:52 | 45.84552 | 16.53561 | 88° | 111km/h | 13251m | 3.9m/s | -57.2°C | 10.3% | 0hPa | 2.7V | 00:00:00 | 01:04:05 | 00:00:00 | |
| 9A1FER-3 | 2026-09-02 00:04:51 | 45.84551 | 16.53519 | 88° | 111km/h | 13247m | 4.3m/s | -57.2°C | 10.4% | 0hPa | 2.7V | 00:00:00 | 01:04:04 | 00:00:00 | |
| PETON7-10 | 2026-09-02 00:04:50 | 45.84549 | 16.53478 | 88° | 111km/h | 13243m | 3.7m/s | 0°C | 0% | 0hPa | 2.7V | 00:00:00 | 01:04:03 | 00:00:00 | |
| 9A1FER-10 | 2026-09-02 00:04:37 | 45.84536 | 16.52960 | 89° | 106km/h | 13190m | 4.6m/s | -57.3°C | 11.3% | 0hPa | 2.7V | 00:00:00 | 01:03:50 | 00:00:00 | |
| 9A1FER-3 | 2026-09-02 00:04:36 | 45.84535 | 16.52920 | 89° | 104km/h | 13186m | 3.3m/s | -57.3°C | 11.4% | 0hPa | 2.7V | 00:00:00 | 01:03:49 | 00:00:00 | |
| PETON7-10 | 2026-09-02 00:04:35 | 45.84534 | 16.52880 | 90° | 104km/h | 13183m | 3.8m/s | 0°C | 0% | 0hPa | 2.7V | 00:00:00 | 00:00:00 | 08:30:00 | |
| OE5DRO-10 | 2026-09-02 00:04:33 | 45.84534 | 16.52803 | 91° | 102km/h | 13175m | 3.7m/s | -57.2°C | 11.5% | 0hPa | 2.7V | 00:00:00 | 00:00:00 | 00:00:00 | |
| 9A1FER-10 | 2026-09-02 00:04:22 | 45.84535 | 16.52390 | 93° | 100km/h | 13127m | 4.1m/s | -57.2°C | 11.8% | 0hPa | 2.7V | 00:00:00 | 01:03:35 | 08:30:00 | |
| 9A1FER-3 | 2026-09-02 00:04:21 | 45.84536 | 16.52353 | 93° | 100km/h | 13122m | 5.2m/s | -57.1°C | 11.9% | 0hPa | 2.7V | 00:00:00 | 01:03:34 | 08:30:00 | |
| PETON7-10 | 2026-09-02 00:04:20 | 45.84537 | 16.52316 | 93° | 100km/h | 13117m | 3.7m/s | 0°C | 0% | 0hPa | 2.7V | 00:00:00 | 00:00:00 | 00:00:00 | |
| OE5DRO-10 | 2026-09-02 00:04:14 | 45.84537 | 16.52095 | 90° | 100km/h | 13092m | 4.6m/s | -57.3°C | 12.8% | 0hPa | 2.7V | 00:00:00 | 00:00:00 | 00:00:00 | |
| 9A1FER-10 | 2026-09-02 00:04:08 | 45.84538 | 16.51843 | 90° | 102km/h | 13059m | 4.4m/s | -57.3°C | 13.3% | 0hPa | 2.7V | 00:00:00 | 01:03:20 | 00:00:00 | |
| 9A1FER-3 | 2026-09-02 00:04:07 | 45.84537 | 16.51807 | 89° | 102km/h | 13055m | 5.1m/s | -57.4°C | 13.3% | 0hPa | 2.7V | 00:00:00 | 01:03:19 | 00:00:00 | |
| PETON7-10 | 2026-09-02 00:04:06 | 45.84536 | 16.51771 | 88° | 100km/h | 13050m | 4.4m/s | 0°C | 0% | 0hPa | 2.7V | 00:00:00 | 01:03:18 | 00:00:00 | |
| OE5DRO-10 | 2026-09-02 00:04:00 | 45.84524 | 16.51401 | 86° | 110km/h | 13002m | 3.9m/s | -57.3°C | 14.2% | 0hPa | 2.7V | 00:00:00 | 00:00:00 | 00:00:00 | |
| 9A1FER-10 | 2026-09-02 00:03:56 | 45.84517 | 16.51286 | 85° | 111km/h | 12988m | 5.0m/s | -57.5°C | 14.5% | 0hPa | 2.7V | 00:00:00 | 01:03:05 | 00:00:00 | |
| 9A1FER-3 | 2026-09-02 00:03:55 | 45.84514 | 16.51246 | 86° | 111km/h | 12983m | 4.7m/s | -57.5°C | 14.6% | 0hPa | 2.7V | 00:00:00 | 01:03:04 | 00:00:00 | |
| PETON7-10 | 2026-09-02 00:03:54 | 45.84512 | 16.51206 | 85° | 111km/h | 12978m | 5.4m/s | 0°C | 0% | 0hPa | 2.7V | 00:00:00 | 00:00:00 | 00:00:00 | |
| 9A1FER-10 | 2026-09-02 00:03:42 | 45.84463 | 16.50686 | 80° | 110km/h | 12911m | 4.5m/s | -57.2°C | 15.6% | 0hPa | 2.7V | 00:00:00 | 01:02:50 | 00:00:00 | |
| OE5DRO-10 | 2026-09-02 00:03:38 | 45.84458 | 16.50646 | 80° | 108km/h | 12906m | 4.5m/s | -57.2°C | 15.7% | 0hPa | 2.7V | 00:00:00 | 00:00:00 | 08:30:00 | |
| PETON7-10 | 2026-09-02 00:03:36 | 45.84453 | 16.50606 | 81° | 108km/h | 12902m | 3.7m/s | 0°C | 0% | 0hPa | 2.7V | 00:00:00 | 00:00:00 | 00:00:00 | |
| 9A1FER-3 | 2026-09-02 00:03:26 | 45.84394 | 16.50063 | 81° | 102km/h | 12838m | 3.9m/s | -57.0°C | 16.6% | 0hPa | 2.7V | 00:00:00 | 01:02:34 | 00:00:00 | |
| PETON7-10 | 2026-09-02 00:03:24 | 45.84390 | 16.50025 | 81° | 104km/h | 12833m | 4.6m/s | 0°C | 0% | 0hPa | 2.7V | 00:00:00 | 01:02:33 | 00:00:00 | |
| OE5DRO-10 | 2026-09-02 00:03:22 | 45.84377 | 16.49913 | 82° | 102km/h | 12819m | 4.1m/s | -57.2°C | 17.7% | 0hPa | 2.7V | 00:00:00 | 00:00:00 | 00:00:00 | |
| 9A1FER-3 | 2026-09-02 00:03:20 | 45.84345 | 16.49509 | 86° | 102km/h | 12767m | 3.9m/s | -57.1°C | 19.3% | 0hPa | 2.7V | 00:00:00 | 01:02:19 | 00:00:00 | |
| OE5DRO-10 | 2026-09-02 00:03:12 | 45.84323 | 16.49219 | 82° | 102km/h | 12727m | 3.9m/s | -57.1°C | 20.7% | 0hPa | 2.7V | 00:00:00 | 00:00:00 | 00:00:00 | |
| 9A1FER-10 | 2026-09-02 00:03:07 | 45.84301 | 16.49000 | 82° | 102km/h | 12698m | 4.6m/s | -57.4°C | 22.2% | 0hPa | 2.7V | 00:00:00 | 01:02:05 | 00:00:00 | |
| 9A1FER-3 | 2026-09-02 00:03:05 | 45.84297 | 16.48963 | 83° | 104km/h | 12693m | 4.6m/s | -57.4°C | 22.5% | 0hPa | 2.7V | 00:00:00 | 01:02:04 | 00:00:00 | |
| OE5DRO-10 | 2026-09-02 00:02:47 | 45.84247 | 16.48522 | 79° | 106km/h | 12639m | 4.2m/s | -57.6°C | 25.1% | 0hPa | 2.7V | 00:00:00 | 00:00:00 | 00:00:00 | |
| 9A1FER-10 | 2026-09-02 00:02:46 | 45.84236 | 16.48447 | 77° | 106km/h | 12630m | 3.6m/s | -57.6°C | 25.4% | 0hPa | 2.7V | 00:00:00 | 01:01:50 | 00:00:00 | |
| 9A1FER-3 | 2026-09-02 00:02:45 | 45.84230 | 16.48409 | 78° | 106km/h | 12626m | 4.9m/s | -57.6°C | 25.6% | 0hPa | 2.7V | 00:00:00 | 01:01:49 | 00:00:00 | |
| 9A1FER-10 | 2026-09-02 00:02:32 | 45.84153 | 16.47886 | 78° | 106km/h | 12565m | 4.5m/s | -57.5°C | 27.5% | 0hPa | 2.7V | 00:00:00 | 01:01:35 | 00:00:00 | |
| 9A1FER-3 | 2026-09-02 00:02:31 | 45.84147 | 16.47849 | 78° | 108km/h | 12561m | 4.5m/s | -57.5°C | 27.5% | 0hPa | 2.7V | 00:00:00 | 01:01:34 | 00:00:00 | |
| OE5DRO-10 | 2026-09-02 00:02:30 | 45.84141 | 16.47813 | 77° | 106km/h | 12556m | 4.0m/s | -57.4°C | 27.6% | 0hPa | 2.7V | 00:00:00 | 00:00:00 | 00:00:00 | |
| 9A1FER-10 | 2026-09-02 00:02:16 | 45.84067 | 16.47319 | 78° | 104km/h | 12501m | 4.0m/s | -57.6°C | 29.6% | 0hPa | 2.7V | 00:00:00 | 01:01:20 | 08:30:00 | |
| 9A1FER-3 | 2026-09-02 00:02:15 | 45.84061 | 16.47282 | 78° | 104km/h | 12496m | 4.3m/s | -57.5°C | 30.0% | 0hPa | 2.7V | 00:00:00 | 01:01:19 | 08:30:00 | |
| OE5DRO-10 | 2026-09-02 00:02:09 | 45.84036 | 16.47095 | 81° | 102km/h | 12477m | 3.0m/s | -57.4°C | 31.3% | 0hPa | 2.7V | 00:00:00 | 00:00:00 | 00:00:00 | |
| 9A1FER-3 | 2026-09-02 00:01:58 | 45.83989 | 16.46728 | 79° | 104km/h | 12437m | 3.9m/s | -57.4°C | 34.0% | 0hPa | 2.7V | 00:00:00 | 01:01:04 | 00:00:00 | |
| OE5DRO-10 | 2026-09-02 00:01:52 | 45.83944 | 16.46400 | 79° | 104km/h | 12401m | 3.8m/s | -57.6°C | 37.4% | 0hPa | 2.7V | 00:00:00 | 00:00:00 | 00:00:00 | |
| 9A1FER-10 | 2026-09-02 00:01:44 | 45.83917 | 16.46210 | 80° | 104km/h | 12381m | 3.7m/s | -57.8°C | 40.3% | 0hPa | 2.7V | 00:00:00 | 01:00:50 | 00:00:00 | |
| 9A1FER-3 | 2026-09-02 00:01:43 | 45.83912 | 16.46172 | 79° | 102km/h | 12377m | 3.5m/s | -57.8°C | 40.8% | 0hPa | 2.7V | 00:00:00 | 01:00:49 | 00:00:00 | |
| PETON7-10 | 2026-09-02 00:01:29 | 45.83855 | 16.45729 | 78° | 93km/h | 12332m | 3.2m/s | 0°C | 0% | 0hPa | 2.7V | 00:00:00 | 00:00:00 | 00:00:00 | |
| OE5DRO-10 | 2026-09-02 00:01:27 | 45.83850 | 16.45695 | 79° | 91km/h | 12328m | 4.9m/s | 0°C | 0% | 0hPa | 2.7V | 00:00:00 | 00:00:00 | 00:00:00 | |
| 9A1FER-10 | 2026-09-02 00:01:26 | 45.83845 | 16.45662 | 81° | 93km/h | 12324m | 3.3m/s | -59.3°C | 50.2% | 0hPa | 2.7V | 00:00:00 | 01:00:35 | 00:00:00 | |
| 9A1FER-3 | 2026-09-02 00:01:25 | 45.83842 | 16.45628 | 82° | 91km/h | 12320m | 4.8m/s | -59.4°C | 50.1% | 0hPa | 2.7V | 00:00:00 | 01:00:34 | 00:00:00 | |
| PETON7-10 | 2026-09-02 00:01:13 | 45.83808 | 16.45227 | 84° | 86km/h | 12275m | 3.2m/s | 0°C | 0% | 0hPa | 2.7V | 00:00:00 | 00:00:00 | 00:00:00 | |
| 9A1FER-10 | 2026-09-02 00:01:10 | 45.83803 | 16.45165 | 86° | 86km/h | 12268m | 2.9m/s | -59.4°C | 53.4% | 0hPa | 2.7V | 00:00:00 | 01:00:20 | 00:00:00 | |
| 9A1FER-3 | 2026-09-02 00:01:08 | 45.83802 | 16.45135 | 86° | 86km/h | 12264m | 4.2m/s | -59.4°C | 53.1% | 0hPa | 2.7V | 00:00:00 | 01:00:19 | 00:00:00 | |
| OE5DRO-10 | 2026-09-02 00:01:05 | 45.83798 | 16.45072 | 86° | 86km/h | 12257m | 2.7m/s | 0°C | 0% | 0hPa | 2.7V | 00:00:00 | 00:00:00 | 00:00:00 | |
| PETON7-10 | 2026-09-02 00:00:53 | 45.83767 | 16.44732 | 82° | 86km/h | 12216m | 2.7m/s | 0°C | 0% | 0hPa | 2.7V | 00:00:00 | 01:00:06 | 00:00:00 | |
| 9A1FER-10 | 2026-09-02 00:00:52 | 45.83764 | 16.44701 | 83° | 86km/h | 12212m | 4.4m/s | -59.1°C | 52.1% | 0hPa | 2.7V | 00:00:00 | 01:00:05 | 00:00:00 | |
| 9A1FER-3 | 2026-09-02 00:00:51 | 45.83762 | 16.44670 | 84° | 86km/h | 12208m | 2.9m/s | -59.1°C | 52.1% | 0hPa | 2.7V | 00:00:00 | 01:00:04 | 00:00:00 | |
| OE5DRO-10 | 2026-09-02 00:00:48 | 45.83742 | 16.44487 | 80° | 84km/h | 12187m | 3.0m/s | 0°C | 0% | 0hPa | 2.7V | 00:00:00 | 00:00:00 | 00:00:00 | |
| 9A1FER-3 | 2026-09-02 00:00:37 | 45.83713 | 16.44208 | 83° | 84km/h | 12153m | 3.7m/s | -58.6°C | 50.0% | 0hPa | 2.7V | 00:00:00 | 00:59:49 | 00:00:00 | |
| 9A1FER-3 | 2026-09-02 00:00:27 | 45.83662 | 16.43758 | 80° | 82km/h | 12099m | 3.6m/s | -58.2°C | 47.3% | 0hPa | 2.7V | 00:00:00 | 00:59:34 | 00:00:00 | |
| PETON7-10 | 2026-09-02 00:00:25 | 45.83654 | 16.43700 | 79° | 82km/h | 12092m | 3.2m/s | 0°C | 0% | 0hPa | 2.7V | 00:00:00 | 00:00:00 | 08:30:00 | |
| 9A1FER-10 | 2026-09-02 00:00:09 | 45.83615 | 16.43343 | 81° | 84km/h | 12047m | 3.6m/s | -57.7°C | 45.4% | 0hPa | 2.7V | 00:00:00 | 00:59:20 | 00:00:00 | |
| 9A1FER-3 | 2026-09-02 00:00:08 | 45.83611 | 16.43313 | 82° | 82km/h | 12043m | 4.3m/s | -57.7°C | 45.2% | 0hPa | 2.7V | 00:00:00 | 00:59:19 | 00:00:00 | |
| 9A1FER-10 | 2026-09-01 23:59:52 | 45.83565 | 16.42897 | 83° | 82km/h | 11987m | 3.0m/s | -57.3°C | 44.9% | 0hPa | 2.7V | 00:00:00 | 00:59:05 | 08:30:00 | |
| 9A1FER-3 | 2026-09-01 23:59:48 | 45.83553 | 16.42783 | 81° | 82km/h | 11972m | 3.8m/s | -57.1°C | 44.1% | 0hPa | 2.7V | 00:00:00 | 00:59:01 | 08:30:00 | |
| 9A1FER-10 | 2026-09-01 23:59:37 | 45.83514 | 16.42455 | 82° | 80km/h | 11928m | 4.5m/s | -56.8°C | 43.2% | 0hPa | 2.7V | 00:00:00 | 00:58:50 | 00:00:00 | |
| 9A1FER-3 | 2026-09-01 23:59:33 | 45.83500 | 16.42339 | 80° | 80km/h | 11912m | 4.4m/s | -56.7°C | 42.9% | 0hPa | 2.7V | 00:00:00 | 00:58:46 | 00:00:00 | |
| 9A1FER-10 | 2026-09-01 23:59:22 | 45.83460 | 16.42028 | 80° | 78km/h | 11866m | 4.7m/s | -56.4°C | 41.9% | 0hPa | 2.7V | 00:00:00 | 00:58:35 | 00:00:00 | |
| 9A1FER-3 | 2026-09-01 23:59:18 | 45.83445 | 16.41913 | 80° | 77km/h | 11851m | 4.7m/s | -56.3°C | 43.1% | 0hPa | 2.7V | 00:00:00 | 00:58:31 | 00:00:00 | |
| 9A1FER-10 | 2026-09-01 23:59:07 | 45.83411 | 16.41608 | 83° | 69km/h | 11805m | 4.0m/s | -56.2°C | 42.5% | 0hPa | 2.7V | 00:00:00 | 00:58:20 | 00:00:00 | |
| 9A1FER-3 | 2026-09-01 23:59:03 | 45.83402 | 16.41508 | 83° | 69km/h | 11785m | 4.8m/s | -56.0°C | 42.0% | 0hPa | 2.7V | 00:00:00 | 00:58:16 | 00:00:00 | |
| OE3JTB-15 | 2026-09-01 23:59:00 | 45.83395 | 16.41434 | 84° | 69km/h | 11774m | 5.3m/s | -55.9°C | 41.7% | 0hPa | 2.7V | 00:00:00 | 00:00:00 | 00:00:00 | |
| 9A1FER-10 | 2026-09-01 23:58:52 | 45.83381 | 16.41232 | 87° | 69km/h | 11741m | 4.5m/s | -55.6°C | 41.4% | 0hPa | 2.7V | 00:00:00 | 00:58:05 | 00:00:00 | |
| 9A1FER-3 | 2026-09-01 23:58:48 | 45.83379 | 16.41136 | 88° | 71km/h | 11724m | 4.9m/s | -55.5°C | 42.3% | 0hPa | 2.7V | 00:00:00 | 00:58:01 | 00:00:00 | |
| 9A1FER-10 | 2026-09-01 23:58:37 | 45.83366 | 16.40854 | 87° | 71km/h | 11676m | 6.0m/s | -55.2°C | 45.3% | 0hPa | 2.7V | 00:00:00 | 00:57:50 | 00:00:00 | |
| 9A1FER-3 | 2026-09-01 23:58:33 | 45.83362 | 16.40755 | 85° | 73km/h | 11657m | 7.2m/s | -55.0°C | 46.5% | 0hPa | 2.7V | 00:00:00 | 00:57:46 | 00:00:00 | |
| OE3JTB-15 | 2026-09-01 23:58:31 | 45.83359 | 16.40705 | 88° | 73km/h | 11646m | 4.5m/s | -55.0°C | 47.6% | 0hPa | 2.7V | 00:00:00 | 00:57:44 | 00:00:00 | |
| 9A1FER-10 | 2026-09-01 23:58:22 | 45.83364 | 16.40465 | 90° | 73km/h | 11599m | 3.6m/s | -54.6°C | 52.2% | 0hPa | 2.7V | 00:00:00 | 00:57:35 | 00:00:00 | |
| 9A1FER-3 | 2026-09-01 23:58:18 | 45.83365 | 16.40357 | 92° | 71km/h | 11579m | 6.7m/s | -54.6°C | 55.6% | 0hPa | 2.7V | 00:00:00 | 00:57:31 | 00:00:00 | |
| OM5KV | 2026-09-01 23:58:09 | 45.83372 | 16.40141 | 92° | 69km/h | 11537m | 3.7m/s | -54.4°C | 0% | 0hPa | 2.7V | 00:00:00 | 00:00:00 | 00:00:00 | |
| 9A1FER-10 | 2026-09-01 23:58:07 | 45.83373 | 16.40067 | 91° | 68km/h | 11521m | 3.8m/s | -54.2°C | 55.9% | 0hPa | 2.7V | 00:00:00 | 00:57:20 | 00:00:00 | |
| OE3JTB-15 | 2026-09-01 23:58:02 | 45.83374 | 16.39947 | 92° | 68km/h | 11496m | 4.0m/s | -53.9°C | 54.2% | 0hPa | 2.7V | 00:00:00 | 00:00:00 | 08:30:00 | |
| OM5KV | 2026-09-01 23:57:57 | 45.83378 | 16.39845 | 95° | 69km/h | 11475m | 7.8m/s | -53.8°C | 0% | 0hPa | 2.7V | 00:00:00 | 00:00:00 | 00:00:00 | |
| 9A1FER-10 | 2026-09-01 23:57:52 | 45.83383 | 16.39695 | 91° | 68km/h | 11442m | 5.9m/s | -53.5°C | 49.1% | 0hPa | 2.7V | 00:00:00 | 00:57:05 | 00:00:00 | |
| OM5KV | 2026-09-01 23:57:50 | 45.83383 | 16.39645 | 91° | 69km/h | 11431m | 9.0m/s | -53.5°C | 0% | 0hPa | 2.7V | 00:00:00 | 00:00:00 | 00:00:00 | |
| 9A1FER-3 | 2026-09-01 23:57:48 | 45.83383 | 16.39596 | 90° | 68km/h | 11420m | 3.7m/s | -53.3°C | 47.4% | 0hPa | 2.7V | 00:00:00 | 00:57:01 | 00:00:00 | |
| 9A1FER-10 | 2026-09-01 23:57:37 | 45.83389 | 16.39325 | 89° | 66km/h | 11363m | 5.2m/s | -52.8°C | 43.9% | 0hPa | 2.7V | 00:00:00 | 00:56:50 | 08:30:00 | |
| 9A1FER-3 | 2026-09-01 23:57:33 | 45.83388 | 16.39231 | 93° | 66km/h | 11339m | 3.3m/s | -52.6°C | 43.1% | 0hPa | 2.7V | 00:00:00 | 00:56:46 | 08:30:00 | |
| OM5KV | 2026-09-01 23:57:25 | 45.83395 | 16.39058 | 93° | 68km/h | 11299m | 3.8m/s | -52.3°C | 0% | 0hPa | 2.7V | 00:00:00 | 00:00:00 | 00:00:00 | |
| 9A1FER-10 | 2026-09-01 23:57:22 | 45.83395 | 16.38964 | 90° | 64km/h | 11279m | 8.4m/s | -52.0°C | 40.6% | 0hPa | 2.7V | 00:00:00 | 00:56:35 | 00:00:00 | |
| OM5KV | 2026-09-01 23:57:19 | 45.83395 | 16.38918 | 90° | 64km/h | 11267m | 8.9m/s | -52.0°C | 0% | 0hPa | 2.7V | 00:00:00 | 00:00:00 | 00:00:00 | |
| 9A1FER-3 | 2026-09-01 23:57:18 | 45.83395 | 16.38872 | 93° | 64km/h | 11256m | 2.3m/s | -51.9°C | 39.0% | 0hPa | 2.7V | 00:00:00 | 00:56:31 | 00:00:00 | |
| OM5KV | 2026-09-01 23:57:13 | 45.83398 | 16.38779 | 94° | 62km/h | 11234m | 7.4m/s | -51.8°C | 0% | 0hPa | 2.7V | 00:00:00 | 00:00:00 | 00:00:00 | |
| OM5KV | 2026-09-01 23:57:08 | 45.83399 | 16.38666 | 90° | 64km/h | 11210m | 7.1m/s | -51.6°C | 0% | 0hPa | 2.7V | 00:00:00 | 00:00:00 | 00:00:00 | |
| 9A1FER-10 | 2026-09-01 23:57:07 | 45.83398 | 16.38620 | 89° | 62km/h | 11198m | 4.1m/s | -51.4°C | 35.2% | 0hPa | 2.7V | 00:00:00 | 00:56:20 | 00:00:00 | |
| OE3JTB-15 | 2026-09-01 23:57:04 | 45.83398 | 16.38550 | 91° | 64km/h | 11182m | 4.1m/s | -51.3°C | 35.1% | 0hPa | 2.7V | 00:00:00 | 00:56:17 | 00:00:00 | |
| 9A1FER-3 | 2026-09-01 23:57:03 | 45.83398 | 16.38526 | 92° | 64km/h | 11178m | 3.7m/s | -51.2°C | 35.3% | 0hPa | 2.7V | 00:00:00 | 00:56:16 | 00:00:00 | |
| 9A1FER-10 | 2026-09-01 23:56:52 | 45.83396 | 16.38282 | 91° | 66km/h | 11121m | 4.7m/s | -50.8°C | 33.9% | 0hPa | 2.7V | 00:00:00 | 00:56:05 | 00:00:00 | |
| 9A1FER-3 | 2026-09-01 23:56:48 | 45.83399 | 16.38183 | 92° | 66km/h | 11101m | 4.8m/s | -50.6°C | 32.7% | 0hPa | 2.7V | 00:00:00 | 00:56:01 | 00:00:00 | |
| OM5KV | 2026-09-01 23:56:47 | 45.83399 | 16.38183 | 93° | 62km/h | 11101m | 4.8m/s | 0°C | 0% | 0hPa | 2.7V | 00:00:00 | 00:00:00 | 00:00:00 | |
| 9A1FER-10 | 2026-09-01 23:56:37 | 45.83393 | 16.37925 | 91° | 66km/h | 11042m | 3.5m/s | -50.1°C | 30.8% | 0hPa | 2.7V | 00:00:00 | 00:55:50 | 00:00:00 | |
| OM5KV | 2026-09-01 23:56:36 | 45.83393 | 16.37925 | 92° | 68km/h | 11042m | 3.5m/s | 0°C | 0% | 0hPa | 2.7V | 00:00:00 | 00:00:00 | 00:00:00 | |
| OE3JTB-15 | 2026-09-01 23:56:35 | 45.83392 | 16.37877 | 88° | 68km/h | 11032m | 4.4m/s | -50.0°C | 30.5% | 0hPa | 2.7V | 00:00:00 | 00:00:00 | 00:00:00 | |
| 9A1FER-3 | 2026-09-01 23:56:33 | 45.83390 | 16.37830 | 85° | 68km/h | 11023m | 3.6m/s | -49.9°C | 30.3% | 0hPa | 2.7V | 00:00:00 | 00:55:46 | 00:00:00 | |
| OM5KV | 2026-09-01 23:56:29 | 45.83385 | 16.37760 | 89° | 62km/h | 11010m | 3.6m/s | 0°C | 0% | 0hPa | 2.7V | 00:00:00 | 00:00:00 | 00:00:00 | |
| 9A1FER-10 | 2026-09-01 23:56:22 | 45.83384 | 16.37566 | 90° | 71km/h | 10975m | 5.3m/s | -49.6°C | 29.6% | 0hPa | 2.7V | 00:00:00 | 00:55:35 | 00:00:00 | |
| 9A1FER-3 | 2026-09-01 23:56:18 | 45.83383 | 16.37464 | 88° | 69km/h | 10958m | 4.3m/s | -49.5°C | 29.4% | 0hPa | 2.7V | 00:00:00 | 00:55:31 | 00:00:00 | |
| 9A1FER-10 | 2026-09-01 23:56:07 | 45.83372 | 16.37184 | 88° | 69km/h | 10914m | 3.3m/s | -49.0°C | 28.3% | 0hPa | 2.7V | 00:00:00 | 00:55:20 | 00:00:00 | |
| OE3JTB-15 | 2026-09-01 23:56:06 | 45.83371 | 16.37159 | 87° | 69km/h | 10910m | 4.7m/s | -49.0°C | 28.2% | 0hPa | 2.7V | 00:00:00 | 00:00:00 | 00:00:00 | |
| 9A1FER-3 | 2026-09-01 23:56:03 | 45.83369 | 16.37084 | 89° | 69km/h | 10898m | 3.5m/s | -48.9°C | 27.9% | 0hPa | 2.7V | 00:00:00 | 00:55:16 | 00:00:00 | |
| 9A1FER-10 | 2026-09-01 23:55:52 | 45.83360 | 16.36808 | 87° | 69km/h | 10854m | 3.4m/s | -48.5°C | 27.3% | 0hPa | 2.7V | 00:00:00 | 00:55:05 | 00:00:00 | |
| 9A1FER-3 | 2026-09-01 23:55:48 | 45.83358 | 16.36709 | 88° | 68km/h | 10839m | 4.3m/s | -48.3°C | 26.8% | 0hPa | 2.7V | 00:00:00 | 00:55:01 | 00:00:00 | |
| 9A1FER-10 | 2026-09-01 23:55:37 | 45.83347 | 16.36435 | 89° | 68km/h | 10795m | 3.2m/s | -47.9°C | 26.5% | 0hPa | 2.7V | 00:00:00 | 00:54:50 | 00:00:00 | |
| 9A1FER-3 | 2026-09-01 23:55:33 | 45.83344 | 16.36339 | 87° | 68km/h | 10780m | 4.3m/s | -47.8°C | 25.9% | 0hPa | 2.7V | 00:00:00 | 00:54:46 | 00:00:00 | |
| 9A1FER-10 | 2026-09-01 23:55:22 | 45.83331 | 16.36074 | 85° | 68km/h | 10735m | 3.7m/s | -47.5°C | 25.8% | 0hPa | 2.7V | 00:00:00 | 00:54:35 | 08:30:00 | |
| 9A1FER-3 | 2026-09-01 23:55:18 | 45.83327 | 16.35977 | 88° | 69km/h | 10720m | 4.1m/s | -47.5°C | 26.4% | 0hPa | 2.9V | 00:00:00 | 00:54:31 | 08:30:00 | |
| OE3JTB-15 | 2026-09-01 23:55:08 | 45.83318 | 16.35729 | 86° | 73km/h | 10679m | 5.1m/s | -47.3°C | 26.3% | 0hPa | 2.9V | 00:00:00 | 00:00:00 | 00:00:00 | |
| 9A1FER-3 | 2026-09-01 23:55:03 | 45.83313 | 16.35603 | 88° | 73km/h | 10658m | 3.1m/s | -47.1°C | 26.4% | 0hPa | 2.7V | 00:00:00 | 00:54:16 | 00:00:00 | |
| 9A1FER-10 | 2026-09-01 23:54:52 | 45.83299 | 16.35318 | 87° | 75km/h | 10613m | 4.8m/s | -46.8°C | 25.9% | 0hPa | 2.7V | 00:00:00 | 00:54:05 | 00:00:00 | |
| 9A1FER-3 | 2026-09-01 23:54:48 | 45.83293 | 16.35205 | 88° | 75km/h | 10597m | 3.7m/s | -46.7°C | 25.7% | 0hPa | 2.7V | 00:00:00 | 00:54:01 | 00:00:00 | |
| OE3JTB-15 | 2026-09-01 23:54:39 | 45.83278 | 16.34964 | 85° | 75km/h | 10560m | 4.4m/s | -46.4°C | 24.3% | 0hPa | 2.7V | 00:00:00 | 00:00:00 | 00:00:00 | |
| 9A1FER-10 | 2026-09-01 23:54:37 | 45.83274 | 16.34910 | 85° | 75km/h | 10552m | 3.2m/s | -46.4°C | 23.9% | 0hPa | 2.7V | 00:00:00 | 00:53:50 | 00:00:00 | |
| 9A1FER-3 | 2026-09-01 23:54:33 | 45.83268 | 16.34799 | 85° | 75km/h | 10537m | 4.0m/s | -46.2°C | 23.1% | 0hPa | 2.9V | 00:00:00 | 00:53:46 | 00:00:00 | |
| 9A1FER-10 | 2026-09-01 23:54:22 | 45.83250 | 16.34501 | 88° | 75km/h | 10493m | 3.9m/s | -45.9°C | 23.0% | 0hPa | 2.9V | 00:00:00 | 00:53:35 | 00:00:00 | |
| 9A1FER-3 | 2026-09-01 23:54:18 | 45.83245 | 16.34392 | 86° | 75km/h | 10478m | 4.9m/s | -45.8°C | 23.0% | 0hPa | 2.9V | 00:00:00 | 00:53:31 | 00:00:00 | |
| OE3JTB-15 | 2026-09-01 23:54:10 | 45.83232 | 16.34175 | 85° | 73km/h | 10443m | 4.3m/s | -45.5°C | 24.6% | 0hPa | 2.9V | 00:00:00 | 00:53:23 | 00:00:00 | |
| 9A1FER-10 | 2026-09-01 23:54:07 | 45.83226 | 16.34096 | 84° | 75km/h | 10430m | 4.6m/s | -45.4°C | 26.3% | 0hPa | 2.9V | 00:00:00 | 00:53:20 | 00:00:00 | |
| 9A1FER-3 | 2026-09-01 23:54:03 | 45.83218 | 16.33992 | 83° | 75km/h | 10412m | 3.3m/s | -45.3°C | 27.5% | 0hPa | 2.9V | 00:00:00 | 00:53:16 | 00:00:00 | |
| 9A1FER-10 | 2026-09-01 23:53:52 | 45.83189 | 16.33697 | 82° | 75km/h | 10365m | 4.4m/s | -44.9°C | 26.1% | 0hPa | 2.9V | 00:00:00 | 00:53:05 | 00:00:00 | |
| 9A1FER-3 | 2026-09-01 23:53:48 | 45.83178 | 16.33593 | 83° | 75km/h | 10349m | 3.2m/s | -44.8°C | 25.6% | 0hPa | 2.7V | 00:00:00 | 00:53:01 | 00:00:00 | |
| OE3JTB-15 | 2026-09-01 23:53:41 | 45.83159 | 16.33408 | 81° | 73km/h | 10319m | 3.7m/s | -44.5°C | 24.8% | 0hPa | 2.9V | 00:00:00 | 00:00:00 | 08:30:00 | |
| 9A1FER-10 | 2026-09-01 23:53:37 | 45.83149 | 16.33299 | 83° | 71km/h | 10302m | 4.1m/s | -44.3°C | 24.5% | 0hPa | 2.9V | 00:00:00 | 00:52:50 | 00:00:00 | |
| 9A1FER-3 | 2026-09-01 23:53:33 | 45.83140 | 16.33195 | 84° | 71km/h | 10284m | 5.4m/s | -44.2°C | 24.1% | 0hPa | 2.9V | 00:00:00 | 00:52:46 | 00:00:00 | |
| 9A1FER-10 | 2026-09-01 23:53:22 | 45.83117 | 16.32912 | 85° | 71km/h | 10236m | 5.4m/s | -43.7°C | 23.6% | 0hPa | 2.9V | 00:00:00 | 00:52:35 | 00:00:00 | |
| 9A1FER-3 | 2026-09-01 23:53:18 | 45.83110 | 16.32808 | 84° | 69km/h | 10218m | 5.1m/s | -43.5°C | 23.9% | 0hPa | 2.9V | 00:00:00 | 00:52:31 | 00:00:00 | |
| OE3JTB-15 | 2026-09-01 23:53:12 | 45.83097 | 16.32657 | 83° | 71km/h | 10192m | 5.1m/s | -43.3°C | 24.2% | 0hPa | 2.9V | 00:00:00 | 00:00:00 | 00:00:00 | |
| 9A1FER-10 | 2026-09-01 23:53:07 | 45.83084 | 16.32532 | 81° | 71km/h | 10171m | 3.3m/s | -43.1°C | 25.1% | 0hPa | 2.9V | 00:00:00 | 00:52:20 | 08:30:00 | |
| 9A1FER-3 | 2026-09-01 23:53:03 | 45.83075 | 16.32431 | 86° | 71km/h | 10154m | 3.1m/s | -43.0°C | 26.3% | 0hPa | 2.9V | 00:00:00 | 00:52:16 | 08:30:00 | |
| 9A1FER-10 | 2026-09-01 23:52:52 | 45.83059 | 16.32147 | 88° | 71km/h | 10104m | 4.3m/s | -42.6°C | 26.5% | 0hPa | 2.9V | 00:00:00 | 00:52:05 | 00:00:00 | |
| 9A1FER-3 | 2026-09-01 23:52:48 | 45.83056 | 16.32042 | 89° | 71km/h | 10088m | 3.6m/s | -42.5°C | 26.4% | 0hPa | 2.9V | 00:00:00 | 00:52:01 | 00:00:00 | |
| OE3JTB-15 | 2026-09-01 23:52:43 | 45.83052 | 16.31915 | 86° | 71km/h | 10067m | 4.9m/s | -42.3°C | 26.3% | 0hPa | 2.9V | 00:00:00 | 00:51:56 | 00:00:00 | |
| 9A1FER-10 | 2026-09-01 23:52:37 | 45.83043 | 16.31760 | 88° | 71km/h | 10041m | 4.9m/s | -42.1°C | 26.8% | 0hPa | 2.9V | 00:00:00 | 00:51:50 | 00:00:00 | |
| 9A1FER-3 | 2026-09-01 23:52:33 | 45.83040 | 16.31656 | 89° | 71km/h | 10025m | 3.4m/s | -42.0°C | 24.7% | 0hPa | 2.9V | 00:00:00 | 00:51:46 | 00:00:00 | |
| 9A1FER-10 | 2026-09-01 23:52:22 | 45.83032 | 16.31376 | 90° | 69km/h | 9981m | 3.8m/s | -41.6°C | 24.5% | 0hPa | 2.9V | 00:00:00 | 00:51:35 | 00:00:00 | |
| 9A1FER-3 | 2026-09-01 23:52:18 | 45.83032 | 16.31272 | 92° | 69km/h | 9965m | 3.5m/s | -41.5°C | 25.1% | 0hPa | 2.9V | 00:00:00 | 00:51:31 | 00:00:00 | |
| OE3JTB-15 | 2026-09-01 23:52:14 | 45.83034 | 16.31170 | 91° | 69km/h | 9949m | 3.9m/s | -41.3°C | 25.0% | 0hPa | 2.7V | 00:00:00 | 00:00:00 | 00:00:00 | |
| 9A1FER-10 | 2026-09-01 23:52:07 | 45.83033 | 16.30996 | 91° | 69km/h | 9919m | 5.2m/s | -41.0°C | 24.9% | 0hPa | 2.9V | 00:00:00 | 00:51:20 | 00:00:00 | |
| 9A1FER-3 | 2026-09-01 23:52:03 | 45.83034 | 16.30896 | 92° | 69km/h | 9903m | 4.5m/s | -40.9°C | 24.8% | 0hPa | 2.9V | 00:00:00 | 00:51:16 | 00:00:00 | |
| 9A1FER-10 | 2026-09-01 23:51:52 | 45.83041 | 16.30620 | 91° | 69km/h | 9858m | 3.4m/s | -40.4°C | 23.7% | 0hPa | 2.9V | 00:00:00 | 00:51:05 | 00:00:00 | |
| 9A1FER-3 | 2026-09-01 23:51:48 | 45.83043 | 16.30521 | 92° | 69km/h | 9841m | 4.0m/s | -40.3°C | 23.1% | 0hPa | 2.9V | 00:00:00 | 00:51:01 | 00:00:00 | |
| OE3JTB-15 | 2026-09-01 23:51:45 | 45.83045 | 16.30446 | 92° | 69km/h | 9829m | 4.1m/s | -40.1°C | 23.0% | 0hPa | 2.9V | 00:00:00 | 00:00:00 | 00:00:00 | |
| 9A1FER-10 | 2026-09-01 23:51:37 | 45.83048 | 16.30246 | 91° | 69km/h | 9796m | 4.5m/s | -39.8°C | 22.8% | 0hPa | 2.9V | 00:00:00 | 00:50:50 | 00:00:00 | |
| 9A1FER-3 | 2026-09-01 23:51:33 | 45.83049 | 16.30144 | 90° | 71km/h | 9780m | 4.1m/s | -39.7°C | 22.7% | 0hPa | 2.7V | 00:00:00 | 00:50:46 | 00:00:00 | |
| 9A1FER-10 | 2026-09-01 23:51:22 | 45.83055 | 16.29866 | 92° | 71km/h | 9736m | 3.2m/s | -39.3°C | 23.5% | 0hPa | 2.9V | 00:00:00 | 00:50:35 | 00:00:00 | |
| 9A1FER-3 | 2026-09-01 23:51:18 | 45.83056 | 16.29761 | 91° | 69km/h | 9719m | 3.4m/s | -39.1°C | 23.1% | 0hPa | 2.9V | 00:00:00 | 00:50:31 | 00:00:00 | |
| OE3JTB-15 | 2026-09-01 23:51:16 | 45.83056 | 16.29709 | 91° | 68km/h | 9712m | 4.0m/s | -39.0°C | 23.2% | 0hPa | 2.9V | 00:00:00 | 00:50:29 | 00:00:00 | |
| 9A1FER-10 | 2026-09-01 23:51:07 | 45.83059 | 16.29484 | 92° | 68km/h | 9674m | 4.5m/s | -38.7°C | 23.0% | 0hPa | 2.9V | 00:00:00 | 00:50:20 | 00:00:00 | |
| 9A1FER-3 | 2026-09-01 23:51:03 | 45.83061 | 16.29384 | 91° | 68km/h | 9657m | 4.7m/s | -38.6°C | 23.1% | 0hPa | 2.9V | 00:00:00 | 00:50:16 | 00:00:00 | |
| 9A1FER-10 | 2026-09-01 23:50:52 | 45.83061 | 16.29114 | 91° | 68km/h | 9611m | 3.9m/s | -38.1°C | 23.0% | 0hPa | 2.9V | 00:00:00 | 00:50:05 | 08:30:00 | |
| 9A1FER-3 | 2026-09-01 23:50:48 | 45.83061 | 16.29016 | 89° | 68km/h | 9594m | 5.0m/s | -38.0°C | 22.8% | 0hPa | 2.9V | 00:00:00 | 00:50:01 | 08:30:00 | |
| OE3JTB-15 | 2026-09-01 23:50:47 | 45.83060 | 16.28992 | 88° | 66km/h | 9591m | 2.9m/s | -37.9°C | 22.9% | 0hPa | 2.9V | 00:00:00 | 00:00:00 | 00:00:00 | |
| 9A1FER-10 | 2026-09-01 23:50:37 | 45.83059 | 16.28749 | 93° | 66km/h | 9549m | 4.6m/s | -37.5°C | 22.5% | 0hPa | 2.7V | 00:00:00 | 00:49:50 | 00:00:00 | |
| 9A1FER-3 | 2026-09-01 23:50:33 | 45.83061 | 16.28654 | 91° | 66km/h | 9532m | 4.6m/s | -37.4°C | 22.6% | 0hPa | 2.7V | 00:00:00 | 00:49:46 | 00:00:00 | |
| 9A1FER-10 | 2026-09-01 23:50:22 | 45.83056 | 16.28390 | 89° | 68km/h | 9486m | 4.6m/s | -37.0°C | 22.2% | 0hPa | 2.7V | 00:00:00 | 00:49:35 | 00:00:00 | |
| 9A1FER-3 | 2026-09-01 23:50:18 | 45.83056 | 16.28295 | 92° | 68km/h | 9469m | 4.5m/s | -36.9°C | 21.7% | 0hPa | 2.7V | 00:00:00 | 00:49:31 | 00:00:00 | |
| 9A1FER-10 | 2026-09-01 23:50:07 | 45.83056 | 16.28022 | 90° | 64km/h | 9422m | 4.6m/s | -36.4°C | 20.4% | 0hPa | 2.7V | 00:00:00 | 00:49:20 | 00:00:00 | |
| 9A1FER-3 | 2026-09-01 23:50:03 | 45.83055 | 16.27931 | 90° | 64km/h | 9405m | 4.6m/s | -36.3°C | 19.8% | 0hPa | 2.9V | 00:00:00 | 00:49:16 | 00:00:00 | |
| 9A1FER-10 | 2026-09-01 23:49:52 | 45.83058 | 16.27675 | 90° | 64km/h | 9356m | 4.7m/s | -35.8°C | 18.7% | 0hPa | 2.7V | 00:00:00 | 00:49:05 | 00:00:00 | |
| OE3JTB-15 | 2026-09-01 23:49:49 | 45.83056 | 16.27587 | 88° | 64km/h | 9338m | 3.5m/s | 0°C | 0% | 0hPa | 2.7V | 00:00:00 | 00:49:01 | 00:00:00 | |
| 9A1FER-3 | 2026-09-01 23:49:48 | 45.83056 | 16.27587 | 88° | 66km/h | 9338m | 3.5m/s | -35.6°C | 18.2% | 0hPa | 2.7V | 00:00:00 | 00:49:01 | 00:00:00 | |
| 9A1FER-10 | 2026-09-01 23:49:37 | 45.83051 | 16.27328 | 89° | 64km/h | 9292m | 3.4m/s | -35.2°C | 16.2% | 0hPa | 2.7V | 00:00:00 | 00:48:50 | 00:00:00 | |
| 9A1FER-3 | 2026-09-01 23:49:33 | 45.83049 | 16.27235 | 87° | 64km/h | 9273m | 4.0m/s | -35.0°C | 15.4% | 0hPa | 2.7V | 00:00:00 | 00:48:46 | 00:00:00 | |
| 9A1FER-10 | 2026-09-01 23:49:22 | 45.83042 | 16.26980 | 91° | 64km/h | 9224m | 4.4m/s | -34.6°C | 13.8% | 0hPa | 2.7V | 00:00:00 | 00:48:35 | 00:00:00 | |
| OE3JTB-15 | 2026-09-01 23:49:20 | 45.83042 | 16.26934 | 90° | 64km/h | 9216m | 3.6m/s | 0°C | 0% | 0hPa | 2.9V | 00:00:00 | 00:00:00 | 00:00:00 | |
| 9A1FER-10 | 2026-09-01 23:49:07 | 45.83038 | 16.26634 | 89° | 60km/h | 9163m | 3.5m/s | -34.6°C | 17.0% | 0hPa | 2.9V | 00:00:00 | 00:48:20 | 00:00:00 | |
| 9A1FER-3 | 2026-09-01 23:49:03 | 45.83037 | 16.26543 | 88° | 58km/h | 9146m | 3.9m/s | -34.4°C | 13.4% | 0hPa | 2.9V | 00:00:00 | 00:48:16 | 00:00:00 | |
| 9A1FER-10 | 2026-09-01 23:48:52 | 45.83034 | 16.26308 | 91° | 60km/h | 9101m | 2.9m/s | -34.3°C | 7.0% | 0hPa | 2.9V | 00:00:00 | 00:48:05 | 00:00:00 | |
| 9A1FER-3 | 2026-09-01 23:48:48 | 45.83034 | 16.26222 | 91° | 60km/h | 9085m | 3.1m/s | -34.3°C | 7.0% | 0hPa | 2.9V | 00:00:00 | 00:48:01 | 00:00:00 | |
| 9A1FER-10 | 2026-09-01 23:48:37 | 45.83024 | 16.25977 | 88° | 60km/h | 9038m | 5.1m/s | -34.0°C | 6.6% | 0hPa | 2.9V | 00:00:00 | 00:47:50 | 08:30:00 | |
| 9A1FER-3 | 2026-09-01 23:48:33 | 45.83023 | 16.25892 | 90° | 60km/h | 9021m | 4.6m/s | -33.9°C | 6.5% | 0hPa | 2.9V | 00:00:00 | 00:47:46 | 08:30:00 | |
| 9A1FER-10 | 2026-09-01 23:48:22 | 45.83014 | 16.25652 | 85° | 62km/h | 8979m | 4.0m/s | -33.7°C | 6.6% | 0hPa | 2.9V | 00:00:00 | 00:47:35 | 00:00:00 | |
| 9A1FER-3 | 2026-09-01 23:48:18 | 45.83008 | 16.25564 | 85° | 62km/h | 8964m | 4.3m/s | -33.6°C | 6.9% | 0hPa | 2.9V | 00:00:00 | 00:47:31 | 00:00:00 | |
| 9A1FER-10 | 2026-09-01 23:48:07 | 45.82993 | 16.25321 | 90° | 64km/h | 8919m | 4.7m/s | -33.4°C | 8.0% | 0hPa | 2.9V | 00:00:00 | 00:47:20 | 00:00:00 | |
| 9A1FER-3 | 2026-09-01 23:48:03 | 45.82991 | 16.25229 | 87° | 66km/h | 8902m | 4.5m/s | -33.2°C | 7.9% | 0hPa | 2.9V | 00:00:00 | 00:47:16 | 00:00:00 | |
| 9A1FER-10 | 2026-09-01 23:47:52 | 45.82972 | 16.24969 | 87° | 73km/h | 8847m | 3.2m/s | -32.9°C | 9.1% | 0hPa | 2.9V | 00:00:00 | 00:47:05 | 00:00:00 | |
| 9A1FER-3 | 2026-09-01 23:47:48 | 45.82969 | 16.24871 | 87° | 77km/h | 8828m | 6.3m/s | -32.9°C | 10.2% | 0hPa | 2.9V | 00:00:00 | 00:47:01 | 00:00:00 | |
| 9A1FER-3 | 2026-09-01 23:47:33 | 45.82958 | 16.24456 | 89° | 78km/h | 8759m | 3.8m/s | -32.5°C | 10.8% | 0hPa | 2.9V | 00:00:00 | 00:46:46 | 00:00:00 | |
| 9A1FER-10 | 2026-09-01 23:47:22 | 45.82948 | 16.24146 | 86° | 77km/h | 8716m | 3.3m/s | -32.2°C | 11.2% | 0hPa | 2.9V | 00:00:00 | 00:46:35 | 00:00:00 | |
| 9A1FER-3 | 2026-09-01 23:47:18 | 45.82941 | 16.24034 | 85° | 75km/h | 8700m | 3.6m/s | -32.1°C | 11.4% | 0hPa | 2.9V | 00:00:00 | 00:46:31 | 00:00:00 | |
| 9A1FER-10 | 2026-09-01 23:47:09 | 45.82934 | 16.23731 | 90° | 73km/h | 8655m | 3.6m/s | -31.8°C | 11.6% | 0hPa | 2.9V | 00:00:00 | 00:46:20 | 00:00:00 | |
| 9A1FER-3 | 2026-09-01 23:47:03 | 45.82932 | 16.23624 | 88° | 73km/h | 8639m | 4.4m/s | -31.7°C | 11.6% | 0hPa | 2.7V | 00:00:00 | 00:46:16 | 00:00:00 | |
| 9A1FER-10 | 2026-09-01 23:46:52 | 45.82923 | 16.23334 | 86° | 73km/h | 8597m | 3.1m/s | -31.3°C | 11.5% | 0hPa | 2.7V | 00:00:00 | 00:46:05 | 00:00:00 | |
| 9A1FER-3 | 2026-09-01 23:46:48 | 45.82917 | 16.23229 | 85° | 71km/h | 8580m | 4.1m/s | -31.1°C | 11.3% | 0hPa | 2.7V | 00:00:00 | 00:46:01 | 00:00:00 | |
| 9A1FER-10 | 2026-09-01 23:46:37 | 45.82900 | 16.22942 | 86° | 71km/h | 8535m | 4.1m/s | -30.8°C | 11.1% | 0hPa | 2.7V | 00:00:00 | 00:45:50 | 00:00:00 | |
| 9A1FER-3 | 2026-09-01 23:46:33 | 45.82894 | 16.22842 | 85° | 71km/h | 8519m | 4.5m/s | -30.6°C | 11.0% | 0hPa | 2.7V | 00:00:00 | 00:45:46 | 00:00:00 | |
| 9A1FER-10 | 2026-09-01 23:46:22 | 45.82871 | 16.22562 | 85° | 69km/h | 8476m | 2.9m/s | -30.2°C | 10.6% | 0hPa | 2.7V | 00:00:00 | 00:45:35 | 08:30:00 | |
| 9A1FER-3 | 2026-09-01 23:46:18 | 45.82862 | 16.22461 | 83° | 69km/h | 8460m | 3.1m/s | -30.1°C | 10.3% | 0hPa | 2.9V | 00:00:00 | 00:45:31 | 08:30:00 | |
| 9A1FER-10 | 2026-09-01 23:46:07 | 45.82836 | 16.22186 | 82° | 68km/h | 8416m | 4.0m/s | -29.7°C | 9.3% | 0hPa | 2.9V | 00:00:00 | 00:45:20 | 00:00:00 | |
| 9A1FER-3 | 2026-09-01 23:46:03 | 45.82827 | 16.22087 | 83° | 68km/h | 8401m | 2.6m/s | -29.6°C | 8.9% | 0hPa | 2.9V | 00:00:00 | 00:45:16 | 00:00:00 | |
| 9A1FER-10 | 2026-09-01 23:45:52 | 45.82807 | 16.21819 | 84° | 66km/h | 8359m | 3.8m/s | -29.3°C | 7.6% | 0hPa | 2.9V | 00:00:00 | 00:45:05 | 00:00:00 | |
| 9A1FER-3 | 2026-09-01 23:45:48 | 45.82799 | 16.21724 | 83° | 64km/h | 8343m | 3.3m/s | -29.2°C | 7.0% | 0hPa | 2.9V | 00:00:00 | 00:45:01 | 00:00:00 | |
| 9A1FER-10 | 2026-09-01 23:45:37 | 45.82777 | 16.21467 | 84° | 64km/h | 8301m | 4.0m/s | -28.9°C | 5.7% | 0hPa | 2.9V | 00:00:00 | 00:44:50 | 00:00:00 | |
| 9A1FER-3 | 2026-09-01 23:45:33 | 45.82769 | 16.21375 | 83° | 64km/h | 8287m | 2.8m/s | -28.8°C | 5.7% | 0hPa | 2.9V | 00:00:00 | 00:44:46 | 00:00:00 | |
| 9A1FER-10 | 2026-09-01 23:45:23 | 45.82756 | 16.21120 | 87° | 62km/h | 8244m | 3.2m/s | -28.5°C | 5.7% | 0hPa | 2.9V | 00:00:00 | 00:44:35 | 00:00:00 | |
| 9A1FER-3 | 2026-09-01 23:45:18 | 45.82751 | 16.21033 | 88° | 62km/h | 8229m | 3.5m/s | -28.4°C | 5.8% | 0hPa | 2.9V | 00:00:00 | 00:44:31 | 00:00:00 | |
| 9A1FER-10 | 2026-09-01 23:45:07 | 45.82743 | 16.20786 | 88° | 60km/h | 8188m | 3.7m/s | -28.3°C | 6.1% | 0hPa | 2.9V | 00:00:00 | 00:44:20 | 00:00:00 | |
| 9A1FER-10 | 2026-09-01 23:44:52 | 45.82722 | 16.20455 | 82° | 58km/h | 8129m | 3.8m/s | -28.1°C | 6.8% | 0hPa | 2.9V | 00:00:00 | 00:44:05 | 00:00:00 | |
| 9A1FER-3 | 2026-09-01 23:44:48 | 45.82716 | 16.20371 | 84° | 60km/h | 8114m | 4.6m/s | -28.0°C | 6.9% | 0hPa | 2.9V | 00:00:00 | 00:44:01 | 00:00:00 | |
| 9A1FER-10 | 2026-09-01 23:44:37 | 45.82698 | 16.20136 | 86° | 64km/h | 8073m | 4.2m/s | -28.2°C | 9.1% | 0hPa | 2.9V | 00:00:00 | 00:43:50 | 00:00:00 | |
| 9A1FER-3 | 2026-09-01 23:44:33 | 45.82695 | 16.20045 | 87° | 64km/h | 8056m | 4.1m/s | -28.2°C | 9.2% | 0hPa | 2.9V | 00:00:00 | 00:43:46 | 00:00:00 | |
| 9A1FER-10 | 2026-09-01 23:44:22 | 45.82679 | 16.19794 | 90° | 69km/h | 8014m | 3.9m/s | -27.9°C | 8.3% | 0hPa | 2.9V | 00:00:00 | 00:43:35 | 00:00:00 | |
| 9A1FER-3 | 2026-09-01 23:44:18 | 45.82678 | 16.19697 | 88° | 71km/h | 7998m | 2.9m/s | -27.8°C | 8.4% | 0hPa | 2.9V | 00:00:00 | 00:43:31 | 00:00:00 | |
| 9A1FER-10 | 2026-09-01 23:44:07 | 45.82666 | 16.19413 | 85° | 69km/h | 7950m | 5.4m/s | -27.4°C | 9.4% | 0hPa | 2.9V | 00:00:00 | 00:43:20 | 08:30:00 | |
| 9A1FER-3 | 2026-09-01 23:44:03 | 45.82658 | 16.19312 | 85° | 71km/h | 7933m | 6.7m/s | -27.3°C | 9.9% | 0hPa | 2.9V | 00:00:00 | 00:43:16 | 08:30:00 | |
| 9A1FER-10 | 2026-09-01 23:43:52 | 45.82642 | 16.19036 | 86° | 71km/h | 7877m | 6.1m/s | -26.8°C | 10.3% | 0hPa | 2.9V | 00:00:00 | 00:43:05 | 00:00:00 | |
| 9A1FER-3 | 2026-09-01 23:43:48 | 45.82636 | 16.18929 | 84° | 71km/h | 7858m | 6.3m/s | -26.7°C | 10.0% | 0hPa | 2.9V | 00:00:00 | 00:43:01 | 00:00:00 | |
| 9A1FER-10 | 2026-09-01 23:43:37 | 45.82610 | 16.18649 | 84° | 73km/h | 7803m | 6.9m/s | -26.3°C | 11.0% | 0hPa | 2.9V | 00:00:00 | 00:42:50 | 00:00:00 | |
| 9A1FER-3 | 2026-09-01 23:43:33 | 45.82603 | 16.18545 | 88° | 73km/h | 7781m | 4.2m/s | -26.2°C | 10.7% | 0hPa | 2.9V | 00:00:00 | 00:42:46 | 00:00:00 | |
| 9A1FER-10 | 2026-09-01 23:43:22 | 45.82583 | 16.18253 | 85° | 73km/h | 7729m | 6.2m/s | -25.7°C | 10.0% | 0hPa | 2.9V | 00:00:00 | 00:42:35 | 00:00:00 | |
| 9A1FER-3 | 2026-09-01 23:43:18 | 45.82577 | 16.18149 | 86° | 73km/h | 7710m | 6.4m/s | -25.5°C | 9.7% | 0hPa | 2.7V | 00:00:00 | 00:42:31 | 00:00:00 | |
| 9A1FER-10 | 2026-09-01 23:43:07 | 45.82550 | 16.17856 | 82° | 73km/h | 7654m | 4.6m/s | -25.1°C | 9.7% | 0hPa | 2.9V | 00:00:00 | 00:42:20 | 00:00:00 | |
| 9A1FER-3 | 2026-09-01 23:43:03 | 45.82542 | 16.17756 | 86° | 73km/h | 7634m | 5.7m/s | -24.9°C | 9.9% | 0hPa | 2.9V | 00:00:00 | 00:42:16 | 00:00:00 | |
| 9A1FER-10 | 2026-09-01 23:42:52 | 45.82520 | 16.17465 | 84° | 73km/h | 7584m | 3.7m/s | -24.4°C | 10.4% | 0hPa | 2.9V | 00:00:00 | 00:42:05 | 00:00:00 | |
| 9A1FER-3 | 2026-09-01 23:42:48 | 45.82514 | 16.17364 | 85° | 75km/h | 7561m | 4.6m/s | -24.3°C | 10.5% | 0hPa | 2.9V | 00:00:00 | 00:42:01 | 00:00:00 | |
| 9A1FER-10 | 2026-09-01 23:42:37 | 45.82492 | 16.17068 | 85° | 73km/h | 7509m | 3.5m/s | -23.8°C | 9.0% | 0hPa | 2.9V | 00:00:00 | 00:41:50 | 00:00:00 | |
| 9A1FER-3 | 2026-09-01 23:42:33 | 45.82483 | 16.16962 | 84° | 73km/h | 7492m | 3.1m/s | -23.6°C | 8.3% | 0hPa | 2.9V | 00:00:00 | 00:41:46 | 00:00:00 | |
| 9A1FER-10 | 2026-09-01 23:42:22 | 45.82466 | 16.16673 | 86° | 73km/h | 7435m | 5.6m/s | -23.1°C | 4.9% | 0hPa | 2.7V | 00:00:00 | 00:41:35 | 00:00:00 | |
| 9A1FER-3 | 2026-09-01 23:42:18 | 45.82454 | 16.16567 | 81° | 73km/h | 7414m | 6.5m/s | -23.0°C | 4.3% | 0hPa | 2.7V | 00:00:00 | 00:41:31 | 00:00:00 | |
| 9A1FER-10 | 2026-09-01 23:42:07 | 45.82432 | 16.16280 | 84° | 73km/h | 7360m | 3.1m/s | -22.6°C | 4.2% | 0hPa | 2.7V | 00:00:00 | 00:41:20 | 00:00:00 | |
| 9A1FER-3 | 2026-09-01 23:42:03 | 45.82422 | 16.16171 | 83° | 71km/h | 7337m | 4.9m/s | -22.4°C | 4.2% | 0hPa | 2.7V | 00:00:00 | 00:41:16 | 00:00:00 | |
| 9A1FER-10 | 2026-09-01 23:41:52 | 45.82392 | 16.15892 | 84° | 73km/h | 7283m | 5.9m/s | -21.9°C | 5.7% | 0hPa | 2.7V | 00:00:00 | 00:41:05 | 08:30:00 | |
| 9A1FER-3 | 2026-09-01 23:41:48 | 45.82383 | 16.15787 | 82° | 71km/h | 7262m | 7.0m/s | -21.7°C | 6.4% | 0hPa | 2.9V | 00:00:00 | 00:41:01 | 08:30:00 | |
| 9A1FER-10 | 2026-09-01 23:41:37 | 45.82348 | 16.15503 | 81° | 69km/h | 7207m | 2.4m/s | -21.3°C | 5.1% | 0hPa | 2.9V | 00:00:00 | 00:40:50 | 00:00:00 | |
| 9A1FER-10 | 2026-09-01 23:41:22 | 45.82310 | 16.15125 | 82° | 69km/h | 7126m | 3.4m/s | -20.8°C | 4.4% | 0hPa | 2.9V | 00:00:00 | 00:40:35 | 00:00:00 | |
| 9A1FER-10 | 2026-09-01 23:41:07 | 45.82275 | 16.14751 | 84° | 66km/h | 7052m | 3.9m/s | -20.3°C | 3.7% | 0hPa | 2.9V | 00:00:00 | 00:40:20 | 00:00:00 | |
| 9A1FER-3 | 2026-09-01 23:41:03 | 45.82267 | 16.14653 | 83° | 66km/h | 7029m | 5.5m/s | -20.2°C | 3.7% | 0hPa | 2.9V | 00:00:00 | 00:40:16 | 00:00:00 | |
| 9A1FER-10 | 2026-09-01 23:40:52 | 45.82233 | 16.14396 | 79° | 64km/h | 6972m | 3.9m/s | -19.9°C | 3.8% | 0hPa | 2.9V | 00:00:00 | 00:40:05 | 00:00:00 | |
| 9A1FER-3 | 2026-09-01 23:40:48 | 45.82219 | 16.14299 | 76° | 62km/h | 6952m | 5.9m/s | -19.8°C | 3.7% | 0hPa | 2.9V | 00:00:00 | 00:40:01 | 00:00:00 | |
| 9A1FER-10 | 2026-09-01 23:40:37 | 45.82175 | 16.14062 | 82° | 62km/h | 6897m | 4.8m/s | -19.4°C | 3.6% | 0hPa | 2.9V | 00:00:00 | 00:39:50 | 00:00:00 | |
| 9A1FER-3 | 2026-09-01 23:40:33 | 45.82165 | 16.13974 | 81° | 62km/h | 6875m | 4.9m/s | -19.4°C | 3.8% | 0hPa | 2.9V | 00:00:00 | 00:39:46 | 00:00:00 | |
| 9A1FER-10 | 2026-09-01 23:40:22 | 45.82138 | 16.13726 | 80° | 58km/h | 6816m | 7.0m/s | -19.1°C | 4.1% | 0hPa | 2.9V | 00:00:00 | 00:39:35 | 00:00:00 | |
| 9A1FER-3 | 2026-09-01 23:40:18 | 45.82129 | 16.13640 | 80° | 58km/h | 6794m | 6.0m/s | -18.9°C | 4.5% | 0hPa | 2.9V | 00:00:00 | 00:39:31 | 00:00:00 | |
| 9A1FER-10 | 2026-09-01 23:40:07 | 45.82096 | 16.13416 | 79° | 57km/h | 6738m | 8.0m/s | -18.5°C | 6.1% | 0hPa | 3.0V | 00:00:00 | 00:39:20 | 00:00:00 | |
| 9A1FER-3 | 2026-09-01 23:40:03 | 45.82085 | 16.13332 | 79° | 57km/h | 6717m | 4.4m/s | -18.5°C | 6.4% | 0hPa | 3.0V | 00:00:00 | 00:39:16 | 00:00:00 | |
| 9A1FER-10 | 2026-09-01 23:39:52 | 45.82054 | 16.13112 | 80° | 57km/h | 6661m | 1.9m/s | -18.1°C | 8.7% | 0hPa | 3.0V | 00:00:00 | 00:39:05 | 00:00:00 | |
| 9A1FER-3 | 2026-09-01 23:39:48 | 45.82042 | 16.13030 | 73° | 58km/h | 6640m | 3.4m/s | -18.0°C | 9.6% | 0hPa | 3.0V | 00:00:00 | 00:39:01 | 00:00:00 | |
| 9A1FER-10 | 2026-09-01 23:39:37 | 45.82002 | 16.12810 | 76° | 58km/h | 6586m | 5.7m/s | -17.7°C | 12.5% | 0hPa | 3.0V | 00:00:00 | 00:38:50 | 08:30:00 | |
| 9A1FER-3 | 2026-09-01 23:39:33 | 45.81985 | 16.12727 | 78° | 57km/h | 6561m | 3.5m/s | -17.6°C | 12.3% | 0hPa | 3.0V | 00:00:00 | 00:38:46 | 08:30:00 | |
| 9A1FER-10 | 2026-09-01 23:39:22 | 45.81955 | 16.12502 | 78° | 57km/h | 6513m | 3.9m/s | -17.3°C | 9.7% | 0hPa | 3.0V | 00:00:00 | 00:38:35 | 00:00:00 | |
| 9A1FER-3 | 2026-09-01 23:39:18 | 45.81945 | 16.12422 | 81° | 57km/h | 6498m | 4.3m/s | -17.1°C | 10.0% | 0hPa | 3.0V | 00:00:00 | 00:38:31 | 00:00:00 | |
| 9A1FER-10 | 2026-09-01 23:39:07 | 45.81918 | 16.12199 | 85° | 58km/h | 6454m | 3.2m/s | -16.8°C | 7.3% | 0hPa | 3.0V | 00:00:00 | 00:38:20 | 00:00:00 | |
| 9A1FER-3 | 2026-09-01 23:39:03 | 45.81912 | 16.12114 | 84° | 57km/h | 6435m | 3.1m/s | -16.7°C | 7.3% | 0hPa | 3.0V | 00:00:00 | 00:38:16 | 00:00:00 | |
| 9A1FER-10 | 2026-09-01 23:38:52 | 45.81897 | 16.11886 | 84° | 58km/h | 6391m | 5.0m/s | -16.3°C | 6.9% | 0hPa | 3.0V | 00:00:00 | 00:38:05 | 00:00:00 | |
| 9A1FER-10 | 2026-09-01 23:38:37 | 45.81875 | 16.11566 | 84° | 60km/h | 6327m | 4.9m/s | -15.7°C | 6.5% | 0hPa | 3.0V | 00:00:00 | 00:37:50 | 00:00:00 | |
| 9A1FER-3 | 2026-09-01 23:38:33 | 45.81871 | 16.11477 | 86° | 58km/h | 6310m | 4.8m/s | -15.5°C | 6.5% | 0hPa | 3.0V | 00:00:00 | 00:37:46 | 00:00:00 | |
| 9A1FER-10 | 2026-09-01 23:38:22 | 45.81863 | 16.11239 | 89° | 57km/h | 6260m | 4.1m/s | -15.0°C | 5.7% | 0hPa | 3.0V | 00:00:00 | 00:37:35 | 00:00:00 | |
| 9A1FER-3 | 2026-09-01 23:38:18 | 45.81860 | 16.11159 | 84° | 58km/h | 6237m | 5.9m/s | -14.8°C | 5.7% | 0hPa | 3.0V | 00:00:00 | 00:37:31 | 00:00:00 | |
| 9A1FER-10 | 2026-09-01 23:38:07 | 45.81851 | 16.10927 | 87° | 58km/h | 6186m | 2.9m/s | -14.6°C | 4.8% | 0hPa | 3.0V | 00:00:00 | 00:37:20 | 00:00:00 | |
| 9A1FER-3 | 2026-09-01 23:38:03 | 45.81843 | 16.10842 | 85° | 58km/h | 6168m | 4.7m/s | -14.4°C | 4.8% | 0hPa | 3.0V | 00:00:00 | 00:37:16 | 00:00:00 | |
| 9A1FER-10 | 2026-09-01 23:37:52 | 45.81835 | 16.10608 | 88° | 55km/h | 6113m | 4.5m/s | -14.0°C | 4.6% | 0hPa | 3.0V | 00:00:00 | 00:37:05 | 00:00:00 | |
| 9A1FER-3 | 2026-09-01 23:37:48 | 45.81836 | 16.10530 | 91° | 57km/h | 6092m | 4.2m/s | -14.0°C | 5.7% | 0hPa | 3.0V | 00:00:00 | 00:37:01 | 00:00:00 | |
| 9A1FER-10 | 2026-09-01 23:37:37 | 45.81830 | 16.10306 | 89° | 58km/h | 6041m | 7.1m/s | -13.6°C | 5.0% | 0hPa | 3.0V | 00:00:00 | 00:36:50 | 00:00:00 | |
| 9A1FER-3 | 2026-09-01 23:37:33 | 45.81829 | 16.10223 | 92° | 57km/h | 6021m | 3.2m/s | -13.5°C | 5.0% | 0hPa | 3.0V | 00:00:00 | 00:36:46 | 00:00:00 | |
| 9A1FER-10 | 2026-09-01 23:37:22 | 45.81834 | 16.09992 | 91° | 58km/h | 5963m | 5.2m/s | -13.0°C | 5.0% | 0hPa | 3.0V | 00:00:00 | 00:36:35 | 08:30:00 | |
| 9A1FER-3 | 2026-09-01 23:37:18 | 45.81836 | 16.09913 | 92° | 58km/h | 5948m | 8.0m/s | -12.9°C | 5.2% | 0hPa | 2.9V | 00:00:00 | 00:36:31 | 08:30:00 | |
| 9A1FER-10 | 2026-09-01 23:37:07 | 45.81846 | 16.09679 | 91° | 55km/h | 5890m | 5.2m/s | -12.6°C | 5.4% | 0hPa | 3.0V | 00:00:00 | 00:36:20 | 00:00:00 | |
| 9A1FER-3 | 2026-09-01 23:37:03 | 45.81849 | 16.09599 | 95° | 55km/h | 5870m | 5.3m/s | -12.4°C | 5.3% | 0hPa | 3.0V | 00:00:00 | 00:36:16 | 00:00:00 | |
| 9A1FER-10 | 2026-09-01 23:36:52 | 45.81858 | 16.09383 | 91° | 57km/h | 5813m | 6.6m/s | -12.0°C | 5.0% | 0hPa | 3.0V | 00:00:00 | 00:36:05 | 00:00:00 | |
| 9A1FER-3 | 2026-09-01 23:36:48 | 45.81858 | 16.09306 | 92° | 57km/h | 5792m | 4.9m/s | -11.8°C | 5.1% | 0hPa | 3.0V | 00:00:00 | 00:36:01 | 00:00:00 | |
| 9A1FER-10 | 2026-09-01 23:36:37 | 45.81870 | 16.09079 | 99° | 58km/h | 5739m | 3.8m/s | -11.3°C | 4.9% | 0hPa | 3.0V | 00:00:00 | 00:35:50 | 00:00:00 | |
| 9A1FER-3 | 2026-09-01 23:36:33 | 45.81875 | 16.08996 | 93° | 60km/h | 5717m | 4.9m/s | -11.2°C | 4.8% | 0hPa | 3.0V | 00:00:00 | 00:35:46 | 00:00:00 | |
| 9A1FER-10 | 2026-09-01 23:36:22 | 45.81881 | 16.08757 | 91° | 60km/h | 5668m | 3.0m/s | -10.8°C | 4.7% | 0hPa | 3.0V | 00:00:00 | 00:35:35 | 00:00:00 | |
| 9A1FER-3 | 2026-09-01 23:36:18 | 45.81879 | 16.08668 | 87° | 60km/h | 5654m | 2.5m/s | -10.6°C | 4.6% | 0hPa | 3.0V | 00:00:00 | 00:35:31 | 00:00:00 | |
| 9A1FER-10 | 2026-09-01 23:36:07 | 45.81883 | 16.08429 | 92° | 60km/h | 5606m | 6.1m/s | -10.2°C | 4.6% | 0hPa | 3.0V | 00:00:00 | 00:35:20 | 00:00:00 | |
| 9A1FER-3 | 2026-09-01 23:36:03 | 45.81885 | 16.08342 | 89° | 58km/h | 5587m | 3.6m/s | -10.1°C | 4.7% | 0hPa | 3.0V | 00:00:00 | 00:35:16 | 00:00:00 | |
| 9A1FER-10 | 2026-09-01 23:35:52 | 45.81882 | 16.08103 | 91° | 58km/h | 5529m | 4.3m/s | -9.7°C | 5.0% | 0hPa | 3.0V | 00:00:00 | 00:35:05 | 00:00:00 | |
| 9A1FER-3 | 2026-09-01 23:35:48 | 45.81884 | 16.08024 | 93° | 62km/h | 5508m | 4.4m/s | -9.6°C | 4.9% | 0hPa | 2.9V | 00:00:00 | 00:35:01 | 00:00:00 | |
| 9A1FER-10 | 2026-09-01 23:35:37 | 45.81887 | 16.07780 | 98° | 58km/h | 5455m | 4.5m/s | -9.3°C | 5.5% | 0hPa | 2.9V | 00:00:00 | 00:34:50 | 00:00:00 | |
| 9A1FER-3 | 2026-09-01 23:35:33 | 45.81893 | 16.07689 | 92° | 58km/h | 5439m | 7.2m/s | -9.1°C | 5.5% | 0hPa | 2.9V | 00:00:00 | 00:34:46 | 00:00:00 | |
| 9A1FER-10 | 2026-09-01 23:35:22 | 45.81899 | 16.07460 | 96° | 58km/h | 5384m | 6.3m/s | -8.8°C | 5.7% | 0hPa | 2.9V | 00:00:00 | 00:34:35 | 00:00:00 | |
| 9A1FER-3 | 2026-09-01 23:35:18 | 45.81906 | 16.07375 | 97° | 58km/h | 5361m | 3.9m/s | -8.7°C | 5.2% | 0hPa | 2.9V | 00:00:00 | 00:34:31 | 00:00:00 | |
| 9A1FER-10 | 2026-09-01 23:35:07 | 45.81914 | 16.07146 | 94° | 55km/h | 5311m | 3.5m/s | -8.4°C | 4.5% | 0hPa | 2.9V | 00:00:00 | 00:34:20 | 08:30:00 | |
| 9A1FER-3 | 2026-09-01 23:35:03 | 45.81918 | 16.07062 | 95° | 53km/h | 5292m | 6.2m/s | -8.3°C | 4.5% | 0hPa | 3.0V | 00:00:00 | 00:34:16 | 08:30:00 | |
| 9A1FER-10 | 2026-09-01 23:34:52 | 45.81930 | 16.06855 | 93° | 57km/h | 5234m | 2.7m/s | -7.9°C | 4.8% | 0hPa | 3.0V | 00:00:00 | 00:34:05 | 00:00:00 | |
| 9A1FER-3 | 2026-09-01 23:34:48 | 45.81934 | 16.06772 | 97° | 57km/h | 5214m | 4.1m/s | -7.9°C | 5.2% | 0hPa | 3.0V | 00:00:00 | 00:34:01 | 00:00:00 | |
| 9A1FER-10 | 2026-09-01 23:34:37 | 45.81955 | 16.06547 | 97° | 55km/h | 5161m | 6.2m/s | -7.7°C | 6.1% | 0hPa | 3.0V | 00:00:00 | 00:33:50 | 00:00:00 | |
| 9A1FER-3 | 2026-09-01 23:34:33 | 45.81963 | 16.06470 | 101° | 53km/h | 5138m | 3.9m/s | -7.6°C | 5.3% | 0hPa | 3.0V | 00:00:00 | 00:33:46 | 00:00:00 | |
| 9A1FER-10 | 2026-09-01 23:34:22 | 45.81973 | 16.06255 | 95° | 53km/h | 5087m | 3.9m/s | -7.2°C | 5.5% | 0hPa | 3.0V | 00:00:00 | 00:33:35 | 00:00:00 | |
| 9A1FER-3 | 2026-09-01 23:34:18 | 45.81979 | 16.06181 | 101° | 53km/h | 5066m | 4.5m/s | -7.1°C | 5.8% | 0hPa | 3.0V | 00:00:00 | 00:33:31 | 00:00:00 | |
| 9A1FER-10 | 2026-09-01 23:34:07 | 45.81994 | 16.05971 | 96° | 49km/h | 5021m | 4.8m/s | -7.0°C | 8.9% | 0hPa | 3.0V | 00:00:00 | 00:33:20 | 00:00:00 | |
| 9A1FER-3 | 2026-09-01 23:34:03 | 45.81999 | 16.05896 | 98° | 46km/h | 4995m | 5.1m/s | -6.9°C | 10.3% | 0hPa | 3.0V | 00:00:00 | 00:33:16 | 00:00:00 | |
| 9A1FER-10 | 2026-09-01 23:33:52 | 45.82032 | 16.05714 | 107° | 42km/h | 4935m | 4.3m/s | -7.1°C | 24.4% | 0hPa | 3.0V | 00:00:00 | 00:33:05 | 00:00:00 | |
| 9A1FER-3 | 2026-09-01 23:33:48 | 45.82044 | 16.05651 | 102° | 40km/h | 4912m | 4.8m/s | -7.1°C | 27.4% | 0hPa | 3.0V | 00:00:00 | 00:33:01 | 00:00:00 | |
| 9A1FER-10 | 2026-09-01 23:33:37 | 45.82068 | 16.05493 | 107° | 40km/h | 4858m | 5.3m/s | -6.8°C | 33.3% | 0hPa | 3.0V | 00:00:00 | 00:32:50 | 00:00:00 | |
| 9A1FER-3 | 2026-09-01 23:33:33 | 45.82077 | 16.05434 | 102° | 38km/h | 4840m | 4.1m/s | -6.7°C | 32.3% | 0hPa | 3.0V | 00:00:00 | 00:32:46 | 00:00:00 | |
| 9A1FER-10 | 2026-09-01 23:33:22 | 45.82099 | 16.05279 | 98° | 35km/h | 4785m | 4.8m/s | -6.3°C | 39.1% | 0hPa | 3.0V | 00:00:00 | 00:32:35 | 00:00:00 | |
| 9A1FER-3 | 2026-09-01 23:33:18 | 45.82103 | 16.05232 | 95° | 35km/h | 4763m | 6.6m/s | -6.1°C | 41.4% | 0hPa | 3.0V | 00:00:00 | 00:32:31 | 00:00:00 | |
| 9A1FER-10 | 2026-09-01 23:33:07 | 45.82118 | 16.05094 | 102° | 35km/h | 4708m | 4.6m/s | -6.0°C | 51.9% | 0hPa | 3.0V | 00:00:00 | 00:32:20 | 00:00:00 | |
| 9A1FER-3 | 2026-09-01 23:33:03 | 45.82125 | 16.05043 | 102° | 33km/h | 4691m | 4.3m/s | -5.9°C | 51.5% | 0hPa | 3.0V | 00:00:00 | 00:32:16 | 00:00:00 | |
| 9A1FER-10 | 2026-09-01 23:32:52 | 45.82146 | 16.04911 | 95° | 29km/h | 4643m | 7.5m/s | -5.5°C | 50.9% | 0hPa | 3.0V | 00:00:00 | 00:32:05 | 08:30:00 | |
| 9A1FER-3 | 2026-09-01 23:32:48 | 45.82149 | 16.04869 | 98° | 31km/h | 4619m | 5.2m/s | -5.6°C | 58.3% | 0hPa | 3.0V | 00:00:00 | 00:32:01 | 08:30:00 | |
| 9A1FER-10 | 2026-09-01 23:32:37 | 45.82162 | 16.04751 | 100° | 31km/h | 4567m | 4.7m/s | -5.2°C | 59.1% | 0hPa | 3.0V | 00:00:00 | 00:31:50 | 00:00:00 | |
| 9A1FER-3 | 2026-09-01 23:32:33 | 45.82171 | 16.04708 | 115° | 29km/h | 4548m | 6.7m/s | -5.0°C | 57.9% | 0hPa | 3.0V | 00:00:00 | 00:31:46 | 00:00:00 | |
| 9A1FER-10 | 2026-09-01 23:32:22 | 45.82196 | 16.04590 | 102° | 24km/h | 4492m | 4.5m/s | -4.7°C | 56.6% | 0hPa | 3.0V | 00:00:00 | 00:31:35 | 00:00:00 | |
| 9A1FER-3 | 2026-09-01 23:32:18 | 45.82200 | 16.04559 | 102° | 24km/h | 4465m | 9.0m/s | -4.4°C | 55.4% | 0hPa | 3.0V | 00:00:00 | 00:31:31 | 00:00:00 | |
| 9A1FER-10 | 2026-09-01 23:32:07 | 45.82227 | 16.04469 | 110° | 24km/h | 4397m | 6.7m/s | -3.9°C | 53.9% | 0hPa | 3.0V | 00:00:00 | 00:31:20 | 00:00:00 | |
| 9A1FER-3 | 2026-09-01 23:32:03 | 45.82239 | 16.04439 | 124° | 24km/h | 4372m | 4.4m/s | -3.7°C | 53.9% | 0hPa | 3.0V | 00:00:00 | 00:31:16 | 00:00:00 | |
| 9A1FER-10 | 2026-09-01 23:31:52 | 45.82271 | 16.04357 | 112° | 26km/h | 4325m | 3.6m/s | -3.5°C | 67.3% | 0hPa | 3.0V | 00:00:00 | 00:31:05 | 00:00:00 | |
| 9A1FER-10 | 2026-09-01 23:31:37 | 45.82319 | 16.04235 | 121° | 26km/h | 4255m | 3.9m/s | -3.1°C | 65.9% | 0hPa | 3.0V | 00:00:00 | 00:30:50 | 00:00:00 | |
| 9A1FER-3 | 2026-09-01 23:31:33 | 45.82336 | 16.04202 | 130° | 24km/h | 4238m | 5.7m/s | -3.0°C | 67.3% | 0hPa | 3.0V | 00:00:00 | 00:30:46 | 00:00:00 | |
| 9A1FER-10 | 2026-09-01 23:31:22 | 45.82372 | 16.04119 | 119° | 24km/h | 4181m | 5.7m/s | -2.8°C | 68.9% | 0hPa | 3.0V | 00:00:00 | 00:30:35 | 00:00:00 | |
| 9A1FER-3 | 2026-09-01 23:31:18 | 45.82383 | 16.04091 | 120° | 24km/h | 4157m | 6.3m/s | -2.6°C | 62.1% | 0hPa | 3.0V | 00:00:00 | 00:30:31 | 00:00:00 | |
| 9A1FER-10 | 2026-09-01 23:31:07 | 45.82431 | 16.04021 | 136° | 20km/h | 4103m | 8.7m/s | -2.3°C | 63.2% | 0hPa | 3.0V | 00:00:00 | 00:30:20 | 00:00:00 | |
| 9A1FER-3 | 2026-09-01 23:31:03 | 45.82440 | 16.03999 | 107° | 20km/h | 4080m | 3.7m/s | -2.1°C | 62.5% | 0hPa | 3.0V | 00:00:00 | 00:30:16 | 00:00:00 | |
| 9A1FER-10 | 2026-09-01 23:30:52 | 45.82475 | 16.03932 | 115° | 20km/h | 4017m | 5.0m/s | -1.9°C | 64.8% | 0hPa | 3.0V | 00:00:00 | 00:30:05 | 00:00:00 | |
| 9A1FER-3 | 2026-09-01 23:30:48 | 45.82484 | 16.03910 | 131° | 20km/h | 4000m | 4.0m/s | -1.7°C | 64.9% | 0hPa | 3.0V | 00:00:00 | 00:30:01 | 00:00:00 | |
| 9A1FER-10 | 2026-09-01 23:30:37 | 45.82518 | 16.03845 | 123° | 16km/h | 3936m | 6.3m/s | -1.3°C | 62.1% | 0hPa | 3.0V | 00:00:00 | 00:29:50 | 08:30:00 | |
| 9A1FER-3 | 2026-09-01 23:30:33 | 45.82526 | 16.03823 | 124° | 16km/h | 3914m | 3.9m/s | -1.2°C | 62.3% | 0hPa | 3.0V | 00:00:00 | 00:29:46 | 08:30:00 | |
| 9A1FER-10 | 2026-09-01 23:30:22 | 45.82549 | 16.03773 | 118° | 15km/h | 3864m | 3.6m/s | -0.9°C | 63.3% | 0hPa | 3.0V | 00:00:00 | 00:29:35 | 00:00:00 | |
| 9A1FER-3 | 2026-09-01 23:30:18 | 45.82559 | 16.03752 | 134° | 13km/h | 3849m | 3.4m/s | -0.8°C | 62.9% | 0hPa | 3.0V | 00:00:00 | 00:29:31 | 00:00:00 | |
| 9A1FER-10 | 2026-09-01 23:30:07 | 45.82572 | 16.03703 | 114° | 16km/h | 3798m | 3.5m/s | -0.3°C | 61.4% | 0hPa | 3.0V | 00:00:00 | 00:29:20 | 00:00:00 | |
| 9A1FER-10 | 2026-09-01 23:29:52 | 45.82590 | 16.03621 | 99° | 15km/h | 3727m | 6.5m/s | 0.4°C | 58.6% | 0hPa | 3.0V | 00:00:00 | 00:29:05 | 00:00:00 | |
| 9A1FER-3 | 2026-09-01 23:29:48 | 45.82593 | 16.03600 | 117° | 15km/h | 3703m | 5.9m/s | 0.5°C | 58.5% | 0hPa | 3.0V | 00:00:00 | 00:29:01 | 00:00:00 | |
| 9A1FER-10 | 2026-09-01 23:29:37 | 45.82609 | 16.03552 | 106° | 15km/h | 3642m | 5.1m/s | 0.8°C | 54.0% | 0hPa | 3.0V | 00:00:00 | 00:28:50 | 00:00:00 | |
| 9A1FER-3 | 2026-09-01 23:29:33 | 45.82614 | 16.03529 | 110° | 15km/h | 3621m | 5.8m/s | 0.8°C | 56.1% | 0hPa | 3.0V | 00:00:00 | 00:28:46 | 00:00:00 | |
| 9A1FER-10 | 2026-09-01 23:29:22 | 45.82618 | 16.03473 | 103° | 16km/h | 3576m | 7.2m/s | 1.2°C | 54.5% | 0hPa | 3.0V | 00:00:00 | 00:28:35 | 00:00:00 | |
| 9A1FER-3 | 2026-09-01 23:29:18 | 45.82622 | 16.03453 | 126° | 18km/h | 3557m | 2.2m/s | 1.3°C | 55.9% | 0hPa | 3.0V | 00:00:00 | 00:28:31 | 00:00:00 | |
| 9A1FER-10 | 2026-09-01 23:29:07 | 45.82641 | 16.03388 | 115° | 20km/h | 3507m | 7.1m/s | 1.7°C | 56.6% | 0hPa | 3.0V | 00:00:00 | 00:28:20 | 00:00:00 | |
| 9A1FER-3 | 2026-09-01 23:29:03 | 45.82649 | 16.03362 | 106° | 20km/h | 3485m | 4.5m/s | 1.7°C | 63.5% | 0hPa | 3.0V | 00:00:00 | 00:28:16 | 00:00:00 | |
| 9A1FER-10 | 2026-09-01 23:28:52 | 45.82651 | 16.03284 | 80° | 18km/h | 3432m | 4.7m/s | 1.9°C | 63.9% | 0hPa | 3.0V | 00:00:00 | 00:28:05 | 00:00:00 | |
| 9A1FER-3 | 2026-09-01 23:28:48 | 45.82652 | 16.03259 | 95° | 20km/h | 3414m | 4.9m/s | 2.0°C | 65.5% | 0hPa | 3.0V | 00:00:00 | 00:28:01 | 00:00:00 | |
| 9A1FER-10 | 2026-09-01 23:28:37 | 45.82655 | 16.03181 | 97° | 20km/h | 3368m | 6.1m/s | 2.3°C | 68.5% | 0hPa | 3.0V | 00:00:00 | 00:27:50 | 00:00:00 | |
| 9A1FER-3 | 2026-09-01 23:28:33 | 45.82657 | 16.03154 | 97° | 20km/h | 3343m | 6.1m/s | 2.5°C | 67.4% | 0hPa | 3.0V | 00:00:00 | 00:27:46 | 00:00:00 | |
| 9A1FER-10 | 2026-09-01 23:28:22 | 45.82662 | 16.03071 | 100° | 22km/h | 3299m | 3.1m/s | 2.8°C | 67.0% | 0hPa | 3.0V | 00:00:00 | 00:27:35 | 08:30:00 | |
| 9A1FER-3 | 2026-09-01 23:28:18 | 45.82666 | 16.03040 | 102° | 22km/h | 3285m | 3.1m/s | 2.9°C | 66.0% | 0hPa | 3.0V | 00:00:00 | 00:27:31 | 08:30:00 | |
| 9A1FER-10 | 2026-09-01 23:28:07 | 45.82672 | 16.02950 | 104° | 22km/h | 3248m | 2.8m/s | 3.2°C | 65.3% | 0hPa | 3.0V | 00:00:00 | 00:27:20 | 00:00:00 | |
| 9A1FER-3 | 2026-09-01 23:28:03 | 45.82675 | 16.02920 | 99° | 22km/h | 3233m | 3.8m/s | 3.3°C | 66.8% | 0hPa | 3.0V | 00:00:00 | 00:27:16 | 00:00:00 | |
| 9A1FER-10 | 2026-09-01 23:27:52 | 45.82683 | 16.02834 | 99° | 20km/h | 3196m | 4.0m/s | 3.5°C | 70.2% | 0hPa | 3.0V | 00:00:00 | 00:27:05 | 00:00:00 | |
| 9A1FER-3 | 2026-09-01 23:27:48 | 45.82688 | 16.02802 | 99° | 20km/h | 3180m | 3.4m/s | 3.6°C | 68.6% | 0hPa | 3.0V | 00:00:00 | 00:27:01 | 00:00:00 | |
| 9A1FER-10 | 2026-09-01 23:27:37 | 45.82699 | 16.02732 | 94° | 22km/h | 3139m | 4.0m/s | 3.9°C | 70.2% | 0hPa | 3.0V | 00:00:00 | 00:26:50 | 00:00:00 | |
| 9A1FER-3 | 2026-09-01 23:27:33 | 45.82701 | 16.02700 | 97° | 22km/h | 3125m | 2.6m/s | 4.1°C | 69.4% | 0hPa | 3.0V | 00:00:00 | 00:26:46 | 00:00:00 | |
| 9A1FER-10 | 2026-09-01 23:27:22 | 45.82717 | 16.02619 | 93° | 22km/h | 3082m | 3.1m/s | 4.5°C | 62.7% | 0hPa | 3.0V | 00:00:00 | 00:26:35 | 00:00:00 | |
| 9A1FER-3 | 2026-09-01 23:27:18 | 45.82718 | 16.02589 | 97° | 20km/h | 3069m | 3.0m/s | 4.6°C | 62.4% | 0hPa | 3.0V | 00:00:00 | 00:26:31 | 00:00:00 | |
| 9A1FER-10 | 2026-09-01 23:27:07 | 45.82736 | 16.02510 | 111° | 20km/h | 3026m | 5.3m/s | 4.9°C | 65.6% | 0hPa | 3.0V | 00:00:00 | 00:26:20 | 00:00:00 | |
| 9A1FER-3 | 2026-09-01 23:27:03 | 45.82742 | 16.02482 | 101° | 20km/h | 3005m | 4.3m/s | 5.0°C | 65.8% | 0hPa | 3.0V | 00:00:00 | 00:26:16 | 00:00:00 | |
| 9A1FER-10 | 2026-09-01 23:26:52 | 45.82747 | 16.02400 | 102° | 18km/h | 2952m | 4.9m/s | 5.5°C | 63.9% | 0hPa | 3.0V | 00:00:00 | 00:26:05 | 00:00:00 | |
| 9A1FER-3 | 2026-09-01 23:26:48 | 45.82754 | 16.02373 | 111° | 16km/h | 2935m | 3.7m/s | 5.7°C | 63.0% | 0hPa | 3.0V | 00:00:00 | 00:26:01 | 00:00:00 | |
| 9A1FER-10 | 2026-09-01 23:26:37 | 45.82762 | 16.02310 | 119° | 16km/h | 2893m | 4.8m/s | 6.1°C | 58.4% | 0hPa | 3.0V | 00:00:00 | 00:25:50 | 00:00:00 | |
| 9A1FER-3 | 2026-09-01 23:26:33 | 45.82768 | 16.02285 | 112° | 16km/h | 2874m | 5.3m/s | 6.3°C | 55.0% | 0hPa | 3.0V | 00:00:00 | 00:25:46 | 00:00:00 | |
| 9A1FER-10 | 2026-09-01 23:26:22 | 45.82771 | 16.02228 | 88° | 16km/h | 2830m | 3.5m/s | 6.7°C | 52.8% | 0hPa | 3.0V | 00:00:00 | 00:25:35 | 00:00:00 | |
| 9A1FER-3 | 2026-09-01 23:26:18 | 45.82771 | 16.02198 | 83° | 15km/h | 2815m | 5.5m/s | 6.8°C | 52.9% | 0hPa | 3.0V | 00:00:00 | 00:25:31 | 00:00:00 | |
| 9A1FER-10 | 2026-09-01 23:26:07 | 45.82767 | 16.02138 | 97° | 9km/h | 2749m | 5.7m/s | 7.2°C | 55.0% | 0hPa | 3.0V | 00:00:00 | 00:25:20 | 08:30:00 | |
| 9A1FER-3 | 2026-09-01 23:26:03 | 45.82768 | 16.02120 | 63° | 9km/h | 2729m | 4.2m/s | 7.3°C | 55.7% | 0hPa | 3.0V | 00:00:00 | 00:25:16 | 08:30:00 | |
| 9A1FER-10 | 2026-09-01 23:25:52 | 45.82766 | 16.02088 | 62° | 11km/h | 2676m | 4.7m/s | 7.6°C | 57.2% | 0hPa | 3.0V | 00:00:00 | 00:25:05 | 00:00:00 | |
| 9A1FER-3 | 2026-09-01 23:25:49 | 45.82760 | 16.02075 | 71° | 11km/h | 2661m | 3.5m/s | 7.7°C | 57.4% | 0hPa | 3.0V | 00:00:00 | 00:25:01 | 00:00:00 | |
| 9A1FER-3 | 2026-09-01 23:25:33 | 45.82748 | 16.02019 | 60° | 7km/h | 2587m | 5.6m/s | 8.0°C | 62.5% | 0hPa | 3.0V | 00:00:00 | 00:24:46 | 00:00:00 | |
| 9A1FER-10 | 2026-09-01 23:25:22 | 45.82735 | 16.01994 | 69° | 4km/h | 2534m | 5.4m/s | 8.1°C | 69.0% | 0hPa | 3.0V | 00:00:00 | 00:24:35 | 00:00:00 | |
| 9A1FER-3 | 2026-09-01 23:25:18 | 45.82733 | 16.01986 | 64° | 4km/h | 2512m | 6.2m/s | 8.3°C | 67.2% | 0hPa | 3.0V | 00:00:00 | 00:24:31 | 00:00:00 | |
| 9A1FER-10 | 2026-09-01 23:25:07 | 45.82728 | 16.01980 | 20° | 7km/h | 2460m | 5.4m/s | 8.5°C | 71.3% | 0hPa | 3.0V | 00:00:00 | 00:24:20 | 00:00:00 | |
| 9A1FER-3 | 2026-09-01 23:25:03 | 45.82722 | 16.01975 | 53° | 9km/h | 2437m | 7.8m/s | 8.7°C | 69.2% | 0hPa | 3.0V | 00:00:00 | 00:24:16 | 00:00:00 | |
| 9A1FER-10 | 2026-09-01 23:24:52 | 45.82706 | 16.01956 | 42° | 5km/h | 2386m | 5.5m/s | 8.9°C | 70.2% | 0hPa | 3.0V | 00:00:00 | 00:24:05 | 00:00:00 | |
| 9A1FER-3 | 2026-09-01 23:24:48 | 45.82699 | 16.01951 | 28° | 5km/h | 2369m | 4.4m/s | 9.1°C | 69.8% | 0hPa | 3.0V | 00:00:00 | 00:24:01 | 00:00:00 | |
| 9A1FER-10 | 2026-09-01 23:24:37 | 45.82692 | 16.01942 | 34° | 5km/h | 2324m | 3.1m/s | 9.3°C | 68.7% | 0hPa | 3.0V | 00:00:00 | 00:23:50 | 00:00:00 | |
| 9A1FER-3 | 2026-09-01 23:24:33 | 45.82685 | 16.01934 | 26° | 5km/h | 2305m | 7.3m/s | 9.3°C | 70.2% | 0hPa | 3.0V | 00:00:00 | 00:23:46 | 00:00:00 | |
| 9A1FER-10 | 2026-09-01 23:24:22 | 45.82674 | 16.01935 | 323° | 5km/h | 2247m | 6.3m/s | 9.8°C | 68.8% | 0hPa | 3.0V | 00:00:00 | 00:23:35 | 00:00:00 | |
| 9A1FER-3 | 2026-09-01 23:24:18 | 45.82670 | 16.01941 | 316° | 5km/h | 2222m | 4.4m/s | 9.9°C | 68.6% | 0hPa | 3.0V | 00:00:00 | 00:23:31 | 00:00:00 | |
| 9A1FER-10 | 2026-09-01 23:24:07 | 45.82662 | 16.01951 | 289° | 9km/h | 2157m | 3.0m/s | 10.4°C | 68.4% | 0hPa | 3.0V | 00:00:00 | 00:23:20 | 00:00:00 | |
| 9A1FER-3 | 2026-09-01 23:24:03 | 45.82658 | 16.01959 | 305° | 9km/h | 2133m | 5.4m/s | 10.5°C | 68.0% | 0hPa | 3.0V | 00:00:00 | 00:23:16 | 00:00:00 | |
| 9A1FER-10 | 2026-09-01 23:23:52 | 45.82641 | 16.01995 | 300° | 5km/h | 2081m | 2.6m/s | 10.8°C | 68.0% | 0hPa | 3.0V | 00:00:00 | 00:23:05 | 08:30:00 | |
| 9A1FER-3 | 2026-09-01 23:23:48 | 45.82638 | 16.02004 | 270° | 5km/h | 2066m | 4.8m/s | 10.9°C | 67.9% | 0hPa | 3.0V | 00:00:00 | 00:23:01 | 08:30:00 | |
| 9A1FER-10 | 2026-09-01 23:23:37 | 45.82635 | 16.02026 | 276° | 7km/h | 2028m | 4.1m/s | 11.1°C | 67.8% | 0hPa | 3.0V | 00:00:00 | 00:22:50 | 00:00:00 | |
| 9A1FER-3 | 2026-09-01 23:23:33 | 45.82632 | 16.02031 | 313° | 7km/h | 2014m | 4.8m/s | 11.2°C | 68.0% | 0hPa | 3.0V | 00:00:00 | 00:22:46 | 00:00:00 | |
| 9A1FER-10 | 2026-09-01 23:23:22 | 45.82635 | 16.02062 | 341° | 4km/h | 1968m | 4.9m/s | 11.6°C | 67.8% | 0hPa | 3.0V | 00:00:00 | 00:22:35 | 00:00:00 | |
| 9A1FER-3 | 2026-09-01 23:23:18 | 45.82632 | 16.02063 | 329° | 4km/h | 1948m | 5.9m/s | 11.7°C | 69.7% | 0hPa | 3.0V | 00:00:00 | 00:22:31 | 00:00:00 | |
| 9A1FER-10 | 2026-09-01 23:23:07 | 45.82635 | 16.02076 | 281° | 4km/h | 1891m | 6.1m/s | 12.2°C | 70.5% | 0hPa | 3.0V | 00:00:00 | 00:22:20 | 00:00:00 | |
| 9A1FER-3 | 2026-09-01 23:23:03 | 45.82636 | 16.02079 | 252° | 4km/h | 1872m | 4.0m/s | 12.3°C | 70.4% | 0hPa | 3.0V | 00:00:00 | 00:22:16 | 00:00:00 | |
| 9A1FER-10 | 2026-09-01 23:22:52 | 45.82640 | 16.02087 | 257° | 4km/h | 1814m | 5.1m/s | 12.5°C | 80.6% | 0hPa | 3.0V | 00:00:00 | 00:22:05 | 00:00:00 | |
| 9A1FER-3 | 2026-09-01 23:22:48 | 45.82643 | 16.02082 | 130° | 4km/h | 1789m | 5.5m/s | 12.6°C | 79.8% | 0hPa | 3.0V | 00:00:00 | 00:22:01 | 00:00:00 | |
| 9A1FER-10 | 2026-09-01 23:22:37 | 45.82643 | 16.02069 | 73° | 7km/h | 1739m | 7.8m/s | 13.1°C | 76.3% | 0hPa | 3.0V | 00:00:00 | 00:21:50 | 00:00:00 | |
| 9A1FER-3 | 2026-09-01 23:22:33 | 45.82644 | 16.02062 | 100° | 7km/h | 1713m | 6.8m/s | 13.4°C | 74.5% | 0hPa | 3.0V | 00:00:00 | 00:21:46 | 00:00:00 | |
| 9A1FER-10 | 2026-09-01 23:22:22 | 45.82630 | 16.02039 | 79° | 5km/h | 1648m | 4.2m/s | 13.9°C | 70.6% | 0hPa | 3.0V | 00:00:00 | 00:21:35 | 00:00:00 | |
| 9A1FER-3 | 2026-09-01 23:22:18 | 45.82627 | 16.02039 | 339° | 5km/h | 1631m | 4.5m/s | 14.1°C | 69.0% | 0hPa | 3.0V | 00:00:00 | 00:21:31 | 00:00:00 | |
| 9A1FER-10 | 2026-09-01 23:22:07 | 45.82613 | 16.02049 | 264° | 7km/h | 1583m | 4.7m/s | 14.5°C | 67.1% | 0hPa | 3.0V | 00:00:00 | 00:21:20 | 00:00:00 | |
| 9A1FER-3 | 2026-09-01 23:22:03 | 45.82611 | 16.02047 | 30° | 9km/h | 1560m | 5.9m/s | 14.7°C | 63.8% | 0hPa | 3.0V | 00:00:00 | 00:21:16 | 00:00:00 | |
| 9A1FER-10 | 2026-09-01 23:21:52 | 45.82588 | 16.02063 | 346° | 9km/h | 1499m | 5.9m/s | 15.1°C | 62.9% | 0hPa | 3.0V | 00:00:00 | 00:21:05 | 00:00:00 | |
| 9A1FER-3 | 2026-09-01 23:21:48 | 45.82578 | 16.02068 | 335° | 9km/h | 1475m | 6.9m/s | 15.3°C | 61.2% | 0hPa | 3.0V | 00:00:00 | 00:21:01 | 00:00:00 | |
| 9A1FER-10 | 2026-09-01 23:21:37 | 45.82562 | 16.02082 | 316° | 9km/h | 1418m | 3.9m/s | 15.7°C | 59.4% | 0hPa | 3.0V | 00:00:00 | 00:20:50 | 08:30:00 | |
| 9A1FER-3 | 2026-09-01 23:21:33 | 45.82554 | 16.02093 | 309° | 9km/h | 1399m | 6.0m/s | 15.9°C | 58.4% | 0hPa | 3.0V | 00:00:00 | 00:20:46 | 08:30:00 | |
| 9A1FER-10 | 2026-09-01 23:21:22 | 45.82543 | 16.02120 | 24° | 7km/h | 1343m | 4.5m/s | 16.4°C | 55.0% | 0hPa | 3.0V | 00:00:00 | 00:20:35 | 00:00:00 | |
| 9A1FER-3 | 2026-09-01 23:21:18 | 45.82535 | 16.02121 | 339° | 7km/h | 1322m | 6.5m/s | 16.6°C | 54.2% | 0hPa | 3.0V | 00:00:00 | 00:20:31 | 00:00:00 | |
| 9A1FER-10 | 2026-09-01 23:21:07 | 45.82531 | 16.02147 | 335° | 11km/h | 1262m | 7.6m/s | 17.1°C | 52.8% | 0hPa | 3.0V | 00:00:00 | 00:20:20 | 00:00:00 | |
| 9A1FER-3 | 2026-09-01 23:21:03 | 45.82526 | 16.02152 | 310° | 13km/h | 1239m | 4.1m/s | 17.3°C | 52.2% | 0hPa | 3.0V | 00:00:00 | 00:20:16 | 00:00:00 | |
| 9A1FER-10 | 2026-09-01 23:20:52 | 45.82499 | 16.02192 | 304° | 13km/h | 1197m | 4.6m/s | 17.7°C | 50.8% | 0hPa | 3.0V | 00:00:00 | 00:20:05 | 00:00:00 | |
| 9A1FER-3 | 2026-09-01 23:20:48 | 45.82489 | 16.02204 | 327° | 13km/h | 1178m | 4.9m/s | 17.9°C | 49.2% | 0hPa | 3.0V | 00:00:00 | 00:20:01 | 00:00:00 | |
| 9A1FER-10 | 2026-09-01 23:20:37 | 45.82463 | 16.02240 | 308° | 9km/h | 1136m | 4.0m/s | 18.2°C | 48.7% | 0hPa | 3.0V | 00:00:00 | 00:19:50 | 00:00:00 | |
| 9A1FER-3 | 2026-09-01 23:20:33 | 45.82456 | 16.02251 | 310° | 13km/h | 1121m | 4.5m/s | 18.3°C | 48.2% | 0hPa | 3.0V | 00:00:00 | 00:19:46 | 00:00:00 | |
| 9A1FER-10 | 2026-09-01 23:20:22 | 45.82435 | 16.02278 | 324° | 16km/h | 1067m | 3.2m/s | 18.8°C | 46.6% | 0hPa | 3.0V | 00:00:00 | 00:19:35 | 00:00:00 | |
| 9A1FER-3 | 2026-09-01 23:20:18 | 45.82419 | 16.02292 | 334° | 16km/h | 1052m | 2.5m/s | 18.9°C | 46.3% | 0hPa | 3.0V | 00:00:00 | 00:19:31 | 00:00:00 | |
| 9A1FER-10 | 2026-09-01 23:20:07 | 45.82379 | 16.02332 | 327° | 16km/h | 1011m | 4.2m/s | 19.3°C | 45.2% | 0hPa | 3.0V | 00:00:00 | 00:19:20 | 00:00:00 | |
| 9A1FER-3 | 2026-09-01 23:20:03 | 45.82364 | 16.02342 | 351° | 16km/h | 995m | 4.1m/s | 19.4°C | 44.8% | 0hPa | 3.0V | 00:00:00 | 00:19:16 | 00:00:00 | |
| 9A1FER-10 | 2026-09-01 23:19:52 | 45.82332 | 16.02386 | 322° | 16km/h | 942m | 4.3m/s | 19.9°C | 43.4% | 0hPa | 3.0V | 00:00:00 | 00:19:05 | 00:00:00 | |
| 9A1FER-10 | 2026-09-01 23:19:37 | 45.82287 | 16.02453 | 319° | 18km/h | 884m | 3.7m/s | 20.4°C | 41.6% | 0hPa | 3.0V | 00:00:00 | 00:18:50 | 00:00:00 | |
| 9A1FER-3 | 2026-09-01 23:19:33 | 45.82275 | 16.02466 | 337° | 18km/h | 868m | 4.5m/s | 20.5°C | 41.2% | 0hPa | 3.0V | 00:00:00 | 00:18:46 | 00:00:00 | |
| 9A1FER-10 | 2026-09-01 23:19:22 | 45.82236 | 16.02518 | 316° | 18km/h | 822m | 3.5m/s | 21.0°C | 39.8% | 0hPa | 3.0V | 00:00:00 | 00:18:35 | 08:30:00 | |
| 9A1FER-3 | 2026-09-01 23:19:18 | 45.82224 | 16.02537 | 309° | 16km/h | 809m | 3.6m/s | 21.1°C | 39.4% | 0hPa | 3.0V | 00:00:00 | 00:18:31 | 08:30:00 | |
| 9A1FER-10 | 2026-09-01 23:19:07 | 45.82195 | 16.02596 | 292° | 24km/h | 764m | 4.1m/s | 21.4°C | 38.5% | 0hPa | 0V | 00:00:00 | 00:18:20 | 00:00:00 | |
| 9A1FER-3 | 2026-09-01 23:19:03 | 45.82184 | 16.02610 | 329° | 27km/h | 748m | 3.4m/s | 21.5°C | 38.2% | 0hPa | 0V | 00:00:00 | 00:18:16 | 00:00:00 | |
| 9A1FER-10 | 2026-09-01 23:18:52 | 45.82135 | 16.02696 | 301° | 27km/h | 706m | 4.5m/s | 21.8°C | 38.8% | 0hPa | 0V | 00:00:00 | 00:18:05 | 00:00:00 | |
| 9A1FER-3 | 2026-09-01 23:18:48 | 45.82127 | 16.02728 | 298° | 29km/h | 688m | 4.5m/s | 21.9°C | 39.2% | 0hPa | 0V | 00:00:00 | 00:18:01 | 00:00:00 | |
| 9A1FER-10 | 2026-09-01 23:18:37 | 45.82074 | 16.02815 | 293° | 27km/h | 648m | 4.3m/s | 0°C | 0% | 0hPa | 0V | 00:00:00 | 00:17:50 | 00:00:00 | |
| 9A1FER-3 | 2026-09-01 23:18:33 | 45.82068 | 16.02861 | 280° | 26km/h | 632m | 3.1m/s | 0°C | 0% | 0hPa | 0V | 00:00:00 | 00:17:46 | 00:00:00 | |
| 9A1FER-10 | 2026-09-01 23:18:22 | 45.82032 | 16.02945 | 300° | 27km/h | 584m | 4.2m/s | 0°C | 0% | 0hPa | 0V | 00:00:00 | 00:17:35 | 00:00:00 | |
| 9A1FER-3 | 2026-09-01 23:18:18 | 45.82027 | 16.02986 | 288° | 24km/h | 565m | 5.5m/s | 0°C | 0% | 0hPa | 0V | 00:00:00 | 00:17:31 | 00:00:00 | |
| 9A1FER-10 | 2026-09-01 23:18:07 | 45.82006 | 16.03082 | 284° | 24km/h | 516m | 4.8m/s | 0°C | 0% | 0hPa | 0V | 00:00:00 | 00:17:20 | 00:00:00 | |
| 9A1FER-3 | 2026-09-01 23:18:03 | 45.82000 | 16.03113 | 298° | 24km/h | 499m | 3.8m/s | 0°C | 0% | 0hPa | 0V | 00:00:00 | 00:17:16 | 00:00:00 | |
| 9A1FER-10 | 2026-09-01 23:17:52 | 45.81981 | 16.03203 | 281° | 18km/h | 458m | 4.2m/s | 0°C | 0% | 0hPa | 0V | 00:00:00 | 00:17:05 | 00:00:00 | |
| 9A1FER-3 | 2026-09-01 23:17:48 | 45.81989 | 16.03230 | 206° | 18km/h | 437m | 3.8m/s | 0°C | 0% | 0hPa | 0V | 00:00:00 | 00:17:01 | 00:00:00 | |
| 9A1FER-10 | 2026-09-01 23:17:37 | 45.81990 | 16.03292 | 295° | 16km/h | 390m | 3.7m/s | 0°C | 0% | 0hPa | 0V | 00:00:00 | 00:16:50 | 00:00:00 | |
| 9A1FER-3 | 2026-09-01 23:17:33 | 45.81978 | 16.03313 | 340° | 16km/h | 378m | 3.3m/s | 0°C | 0% | 0hPa | 0V | 00:00:00 | 00:16:46 | 00:00:00 | |
| 9A1FER-10 | 2026-09-01 23:17:22 | 45.81995 | 16.03338 | 147° | 20km/h | 326m | 4.2m/s | 0°C | 0% | 0hPa | 0V | 00:00:00 | 00:16:35 | 00:00:00 | |
| 9A1FER-3 | 2026-09-01 23:17:18 | 45.81997 | 16.03359 | 262° | 22km/h | 302m | 5.0m/s | 0°C | 0% | 0hPa | 0V | 00:00:00 | 00:16:31 | 00:00:00 | |
| 9A1FER-10 | 2026-09-01 23:17:07 | 45.82021 | 16.03390 | 265° | 29km/h | 241m | 4.8m/s | 0°C | 0% | 0hPa | 0V | 00:00:00 | 00:16:20 | 00:00:00 | |
| 9A1FER-3 | 2026-09-01 23:17:03 | 45.82044 | 16.03399 | 153° | 20km/h | 216m | 6.3m/s | 0°C | 0% | 0hPa | 0V | 00:00:00 | 00:16:16 | 00:00:00 |